<?xml version="1.0" encoding="UTF-8" standalone="no" ?>
<gpx xmlns="http://www.topografix.com/GPX/1/1" xmlns:xsi="http://www.w3.org/2001/XMLSchema-instance" xsi:schemaLocation="http://www.topografix.com/GPX/1/1 http://www.topografix.com/GPX/1/1/gpx.xsd" version="1.1" creator="VisuGPX - https://www.visugpx.com">
  <metadata>
    <name>Digne 2016 Cool- J4</name>
    <desc><![CDATA[Best of terre noire   descente Caramatran (en option)]]></desc>
  </metadata>
  <trk>
    <name><![CDATA[J4 - Terres noires, deuxième et c'est la bonne :-)]]></name>
    <trkseg>
      <trkpt lat="44.09543" lon="6.23027">
        <ele>594.9</ele>
        <time>2015-06-07T06:32:38.000Z</time>
      </trkpt>
      <trkpt lat="44.09543" lon="6.23027">
        <ele>595</ele>
        <time>2015-06-07T06:32:42.000Z</time>
      </trkpt>
      <trkpt lat="44.0954" lon="6.23025">
        <ele>594.8</ele>
        <time>2015-06-07T06:33:07.000Z</time>
      </trkpt>
      <trkpt lat="44.09539" lon="6.23025">
        <ele>594.8</ele>
        <time>2015-06-07T06:33:30.000Z</time>
      </trkpt>
      <trkpt lat="44.09538" lon="6.23025">
        <ele>594.8</ele>
        <time>2015-06-07T06:33:34.000Z</time>
      </trkpt>
      <trkpt lat="44.09537" lon="6.23027">
        <ele>594.9</ele>
        <time>2015-06-07T06:33:37.000Z</time>
      </trkpt>
      <trkpt lat="44.09536" lon="6.23027">
        <ele>595</ele>
        <time>2015-06-07T06:33:41.000Z</time>
      </trkpt>
      <trkpt lat="44.09535" lon="6.23028">
        <ele>595</ele>
        <time>2015-06-07T06:33:49.000Z</time>
      </trkpt>
      <trkpt lat="44.09534" lon="6.23028">
        <ele>595</ele>
        <time>2015-06-07T06:33:50.000Z</time>
      </trkpt>
      <trkpt lat="44.09532" lon="6.23028">
        <ele>595</ele>
        <time>2015-06-07T06:34:18.000Z</time>
      </trkpt>
      <trkpt lat="44.09533" lon="6.23025">
        <ele>594.8</ele>
        <time>2015-06-07T06:34:38.000Z</time>
      </trkpt>
      <trkpt lat="44.09531" lon="6.23026">
        <ele>594.9</ele>
        <time>2015-06-07T06:34:40.000Z</time>
      </trkpt>
      <trkpt lat="44.09529" lon="6.23027">
        <ele>595</ele>
        <time>2015-06-07T06:34:45.000Z</time>
      </trkpt>
      <trkpt lat="44.09529" lon="6.2303">
        <ele>595.1</ele>
        <time>2015-06-07T06:34:50.000Z</time>
      </trkpt>
      <trkpt lat="44.0953" lon="6.23027">
        <ele>594.9</ele>
        <time>2015-06-07T06:34:56.000Z</time>
      </trkpt>
      <trkpt lat="44.09528" lon="6.23024">
        <ele>594.7</ele>
        <time>2015-06-07T06:35:10.000Z</time>
      </trkpt>
      <trkpt lat="44.09528" lon="6.23024">
        <ele>594.7</ele>
        <time>2015-06-07T06:35:12.000Z</time>
      </trkpt>
      <trkpt lat="44.0953" lon="6.23027">
        <ele>594.9</ele>
        <time>2015-06-07T06:35:25.000Z</time>
      </trkpt>
      <trkpt lat="44.0953" lon="6.23024">
        <ele>594.7</ele>
        <time>2015-06-07T06:35:33.000Z</time>
      </trkpt>
      <trkpt lat="44.09529" lon="6.23022">
        <ele>594.6</ele>
        <time>2015-06-07T06:35:38.000Z</time>
      </trkpt>
      <trkpt lat="44.09522" lon="6.23021">
        <ele>594.5</ele>
        <time>2015-06-07T06:35:44.000Z</time>
      </trkpt>
      <trkpt lat="44.0952" lon="6.23022">
        <ele>594.6</ele>
        <time>2015-06-07T06:35:56.000Z</time>
      </trkpt>
      <trkpt lat="44.0951" lon="6.23025">
        <ele>594.8</ele>
        <time>2015-06-07T06:36:06.000Z</time>
      </trkpt>
      <trkpt lat="44.09518" lon="6.23022">
        <ele>594.6</ele>
        <time>2015-06-07T06:36:15.000Z</time>
      </trkpt>
      <trkpt lat="44.09526" lon="6.23021">
        <ele>594.5</ele>
        <time>2015-06-07T06:36:22.000Z</time>
      </trkpt>
      <trkpt lat="44.0952" lon="6.23023">
        <ele>594.7</ele>
        <time>2015-06-07T06:36:28.000Z</time>
      </trkpt>
      <trkpt lat="44.09511" lon="6.23024">
        <ele>594.7</ele>
        <time>2015-06-07T06:36:34.000Z</time>
      </trkpt>
      <trkpt lat="44.09464" lon="6.23028">
        <ele>594</ele>
        <time>2015-06-07T06:36:53.000Z</time>
      </trkpt>
      <trkpt lat="44.09423" lon="6.23032">
        <ele>593.5</ele>
        <time>2015-06-07T06:37:05.000Z</time>
      </trkpt>
      <trkpt lat="44.09367" lon="6.23039">
        <ele>593.4</ele>
        <time>2015-06-07T06:37:21.000Z</time>
      </trkpt>
      <trkpt lat="44.09316" lon="6.23045">
        <ele>593.6</ele>
        <time>2015-06-07T06:37:35.000Z</time>
      </trkpt>
      <trkpt lat="44.09307" lon="6.2305">
        <ele>593.6</ele>
        <time>2015-06-07T06:37:38.000Z</time>
      </trkpt>
      <trkpt lat="44.09267" lon="6.2307">
        <ele>594.5</ele>
        <time>2015-06-07T06:37:48.000Z</time>
      </trkpt>
      <trkpt lat="44.09179" lon="6.23101">
        <ele>594.6</ele>
        <time>2015-06-07T06:38:10.000Z</time>
      </trkpt>
      <trkpt lat="44.09132" lon="6.23119">
        <ele>594</ele>
        <time>2015-06-07T06:38:26.000Z</time>
      </trkpt>
      <trkpt lat="44.09128" lon="6.23121">
        <ele>594</ele>
        <time>2015-06-07T06:38:53.000Z</time>
      </trkpt>
      <trkpt lat="44.09121" lon="6.23121">
        <ele>594</ele>
        <time>2015-06-07T06:38:56.000Z</time>
      </trkpt>
      <trkpt lat="44.09089" lon="6.23129">
        <ele>593.7</ele>
        <time>2015-06-07T06:39:08.000Z</time>
      </trkpt>
      <trkpt lat="44.09092" lon="6.23152">
        <ele>593.5</ele>
        <time>2015-06-07T06:39:12.000Z</time>
      </trkpt>
      <trkpt lat="44.09093" lon="6.23158">
        <ele>593.3</ele>
        <time>2015-06-07T06:39:13.000Z</time>
      </trkpt>
      <trkpt lat="44.09093" lon="6.23162">
        <ele>593.2</ele>
        <time>2015-06-07T06:39:14.000Z</time>
      </trkpt>
      <trkpt lat="44.09093" lon="6.23168">
        <ele>593</ele>
        <time>2015-06-07T06:39:15.000Z</time>
      </trkpt>
      <trkpt lat="44.09088" lon="6.23196">
        <ele>593.1</ele>
        <time>2015-06-07T06:39:25.000Z</time>
      </trkpt>
      <trkpt lat="44.09079" lon="6.23249">
        <ele>594</ele>
        <time>2015-06-07T06:39:36.000Z</time>
      </trkpt>
      <trkpt lat="44.0906" lon="6.23348">
        <ele>594</ele>
        <time>2015-06-07T06:39:53.000Z</time>
      </trkpt>
      <trkpt lat="44.09051" lon="6.23399">
        <ele>594</ele>
        <time>2015-06-07T06:40:02.000Z</time>
      </trkpt>
      <trkpt lat="44.09047" lon="6.23507">
        <ele>594.4</ele>
        <time>2015-06-07T06:40:22.000Z</time>
      </trkpt>
      <trkpt lat="44.09038" lon="6.23572">
        <ele>594.1</ele>
        <time>2015-06-07T06:40:33.000Z</time>
      </trkpt>
      <trkpt lat="44.09015" lon="6.23669">
        <ele>595.2</ele>
        <time>2015-06-07T06:40:52.000Z</time>
      </trkpt>
      <trkpt lat="44.09013" lon="6.23673">
        <ele>595.4</ele>
        <time>2015-06-07T06:40:53.000Z</time>
      </trkpt>
      <trkpt lat="44.09003" lon="6.2369">
        <ele>596.6</ele>
        <time>2015-06-07T06:40:57.000Z</time>
      </trkpt>
      <trkpt lat="44.09003" lon="6.23696">
        <ele>597</ele>
        <time>2015-06-07T06:40:58.000Z</time>
      </trkpt>
      <trkpt lat="44.09004" lon="6.23702">
        <ele>597</ele>
        <time>2015-06-07T06:40:59.000Z</time>
      </trkpt>
      <trkpt lat="44.09005" lon="6.23716">
        <ele>597</ele>
        <time>2015-06-07T06:41:01.000Z</time>
      </trkpt>
      <trkpt lat="44.09005" lon="6.2372">
        <ele>597</ele>
        <time>2015-06-07T06:41:02.000Z</time>
      </trkpt>
      <trkpt lat="44.09004" lon="6.23727">
        <ele>597</ele>
        <time>2015-06-07T06:41:03.000Z</time>
      </trkpt>
      <trkpt lat="44.09003" lon="6.23733">
        <ele>597</ele>
        <time>2015-06-07T06:41:04.000Z</time>
      </trkpt>
      <trkpt lat="44.09001" lon="6.2374">
        <ele>597</ele>
        <time>2015-06-07T06:41:05.000Z</time>
      </trkpt>
      <trkpt lat="44.09" lon="6.23745">
        <ele>597</ele>
        <time>2015-06-07T06:41:06.000Z</time>
      </trkpt>
      <trkpt lat="44.08994" lon="6.23779">
        <ele>597</ele>
        <time>2015-06-07T06:41:12.000Z</time>
      </trkpt>
      <trkpt lat="44.08969" lon="6.23897">
        <ele>598</ele>
        <time>2015-06-07T06:41:33.000Z</time>
      </trkpt>
      <trkpt lat="44.08965" lon="6.23932">
        <ele>598.3</ele>
        <time>2015-06-07T06:41:39.000Z</time>
      </trkpt>
      <trkpt lat="44.08964" lon="6.23963">
        <ele>598.5</ele>
        <time>2015-06-07T06:41:44.000Z</time>
      </trkpt>
      <trkpt lat="44.08965" lon="6.23968">
        <ele>598.5</ele>
        <time>2015-06-07T06:41:45.000Z</time>
      </trkpt>
      <trkpt lat="44.08965" lon="6.23975">
        <ele>598.6</ele>
        <time>2015-06-07T06:41:46.000Z</time>
      </trkpt>
      <trkpt lat="44.08965" lon="6.23981">
        <ele>598.6</ele>
        <time>2015-06-07T06:41:47.000Z</time>
      </trkpt>
      <trkpt lat="44.08966" lon="6.23987">
        <ele>598.7</ele>
        <time>2015-06-07T06:41:48.000Z</time>
      </trkpt>
      <trkpt lat="44.08967" lon="6.23993">
        <ele>598.8</ele>
        <time>2015-06-07T06:41:49.000Z</time>
      </trkpt>
      <trkpt lat="44.08968" lon="6.23999">
        <ele>599</ele>
        <time>2015-06-07T06:41:50.000Z</time>
      </trkpt>
      <trkpt lat="44.08999" lon="6.2409">
        <ele>600</ele>
        <time>2015-06-07T06:42:08.000Z</time>
      </trkpt>
      <trkpt lat="44.09028" lon="6.24147">
        <ele>602</ele>
        <time>2015-06-07T06:42:22.000Z</time>
      </trkpt>
      <trkpt lat="44.09077" lon="6.24242">
        <ele>603.8</ele>
        <time>2015-06-07T06:42:40.000Z</time>
      </trkpt>
      <trkpt lat="44.09118" lon="6.24333">
        <ele>609.5</ele>
        <time>2015-06-07T06:42:58.000Z</time>
      </trkpt>
      <trkpt lat="44.09116" lon="6.24386">
        <ele>610.6</ele>
        <time>2015-06-07T06:43:10.000Z</time>
      </trkpt>
      <trkpt lat="44.0913" lon="6.24444">
        <ele>612.6</ele>
        <time>2015-06-07T06:43:26.000Z</time>
      </trkpt>
      <trkpt lat="44.09139" lon="6.24504">
        <ele>613.1</ele>
        <time>2015-06-07T06:43:41.000Z</time>
      </trkpt>
      <trkpt lat="44.09149" lon="6.24585">
        <ele>618.2</ele>
        <time>2015-06-07T06:43:58.000Z</time>
      </trkpt>
      <trkpt lat="44.09146" lon="6.24621">
        <ele>619.5</ele>
        <time>2015-06-07T06:44:05.000Z</time>
      </trkpt>
      <trkpt lat="44.09122" lon="6.24741">
        <ele>615</ele>
        <time>2015-06-07T06:44:25.000Z</time>
      </trkpt>
      <trkpt lat="44.09112" lon="6.24776">
        <ele>616.3</ele>
        <time>2015-06-07T06:44:31.000Z</time>
      </trkpt>
      <trkpt lat="44.09061" lon="6.24873">
        <ele>619.9</ele>
        <time>2015-06-07T06:44:50.000Z</time>
      </trkpt>
      <trkpt lat="44.09009" lon="6.24969">
        <ele>620.9</ele>
        <time>2015-06-07T06:45:12.000Z</time>
      </trkpt>
      <trkpt lat="44.08983" lon="6.25039">
        <ele>623.4</ele>
        <time>2015-06-07T06:45:26.000Z</time>
      </trkpt>
      <trkpt lat="44.08959" lon="6.25137">
        <ele>623.7</ele>
        <time>2015-06-07T06:45:45.000Z</time>
      </trkpt>
      <trkpt lat="44.08939" lon="6.25236">
        <ele>626.9</ele>
        <time>2015-06-07T06:46:04.000Z</time>
      </trkpt>
      <trkpt lat="44.08935" lon="6.25356">
        <ele>625.4</ele>
        <time>2015-06-07T06:46:23.000Z</time>
      </trkpt>
      <trkpt lat="44.08934" lon="6.25363">
        <ele>625.3</ele>
        <time>2015-06-07T06:46:24.000Z</time>
      </trkpt>
      <trkpt lat="44.08935" lon="6.25414">
        <ele>623.2</ele>
        <time>2015-06-07T06:46:31.000Z</time>
      </trkpt>
      <trkpt lat="44.08937" lon="6.25421">
        <ele>622.9</ele>
        <time>2015-06-07T06:46:32.000Z</time>
      </trkpt>
      <trkpt lat="44.08939" lon="6.25428">
        <ele>622.7</ele>
        <time>2015-06-07T06:46:33.000Z</time>
      </trkpt>
      <trkpt lat="44.08941" lon="6.25435">
        <ele>622.5</ele>
        <time>2015-06-07T06:46:34.000Z</time>
      </trkpt>
      <trkpt lat="44.08945" lon="6.25441">
        <ele>622.4</ele>
        <time>2015-06-07T06:46:35.000Z</time>
      </trkpt>
      <trkpt lat="44.08948" lon="6.25447">
        <ele>623.7</ele>
        <time>2015-06-07T06:46:36.000Z</time>
      </trkpt>
      <trkpt lat="44.09003" lon="6.25529">
        <ele>626.2</ele>
        <time>2015-06-07T06:46:53.000Z</time>
      </trkpt>
      <trkpt lat="44.09023" lon="6.25557">
        <ele>627.3</ele>
        <time>2015-06-07T06:46:59.000Z</time>
      </trkpt>
      <trkpt lat="44.09025" lon="6.25563">
        <ele>627.4</ele>
        <time>2015-06-07T06:47:00.000Z</time>
      </trkpt>
      <trkpt lat="44.09026" lon="6.25568">
        <ele>627.2</ele>
        <time>2015-06-07T06:47:01.000Z</time>
      </trkpt>
      <trkpt lat="44.09027" lon="6.25574">
        <ele>626.9</ele>
        <time>2015-06-07T06:47:02.000Z</time>
      </trkpt>
      <trkpt lat="44.09028" lon="6.2558">
        <ele>626.7</ele>
        <time>2015-06-07T06:47:03.000Z</time>
      </trkpt>
      <trkpt lat="44.09036" lon="6.25667">
        <ele>625.4</ele>
        <time>2015-06-07T06:47:19.000Z</time>
      </trkpt>
      <trkpt lat="44.09037" lon="6.25672">
        <ele>625.7</ele>
        <time>2015-06-07T06:47:20.000Z</time>
      </trkpt>
      <trkpt lat="44.09039" lon="6.25677">
        <ele>626</ele>
        <time>2015-06-07T06:47:21.000Z</time>
      </trkpt>
      <trkpt lat="44.09042" lon="6.25682">
        <ele>626.4</ele>
        <time>2015-06-07T06:47:22.000Z</time>
      </trkpt>
      <trkpt lat="44.09044" lon="6.25687">
        <ele>626.8</ele>
        <time>2015-06-07T06:47:23.000Z</time>
      </trkpt>
      <trkpt lat="44.0906" lon="6.25716">
        <ele>628.8</ele>
        <time>2015-06-07T06:47:29.000Z</time>
      </trkpt>
      <trkpt lat="44.09062" lon="6.25721">
        <ele>629.1</ele>
        <time>2015-06-07T06:47:30.000Z</time>
      </trkpt>
      <trkpt lat="44.09065" lon="6.25732">
        <ele>629.8</ele>
        <time>2015-06-07T06:47:32.000Z</time>
      </trkpt>
      <trkpt lat="44.09066" lon="6.25738">
        <ele>629.7</ele>
        <time>2015-06-07T06:47:33.000Z</time>
      </trkpt>
      <trkpt lat="44.09061" lon="6.25858">
        <ele>633.1</ele>
        <time>2015-06-07T06:47:52.000Z</time>
      </trkpt>
      <trkpt lat="44.09059" lon="6.25864">
        <ele>633.4</ele>
        <time>2015-06-07T06:47:53.000Z</time>
      </trkpt>
      <trkpt lat="44.09013" lon="6.25947">
        <ele>631.5</ele>
        <time>2015-06-07T06:48:08.000Z</time>
      </trkpt>
      <trkpt lat="44.0901" lon="6.25953">
        <ele>631.2</ele>
        <time>2015-06-07T06:48:09.000Z</time>
      </trkpt>
      <trkpt lat="44.09001" lon="6.25971">
        <ele>630.1</ele>
        <time>2015-06-07T06:48:12.000Z</time>
      </trkpt>
      <trkpt lat="44.08998" lon="6.25978">
        <ele>630.1</ele>
        <time>2015-06-07T06:48:13.000Z</time>
      </trkpt>
      <trkpt lat="44.08969" lon="6.26089">
        <ele>626</ele>
        <time>2015-06-07T06:48:29.000Z</time>
      </trkpt>
      <trkpt lat="44.0896" lon="6.26122">
        <ele>626.2</ele>
        <time>2015-06-07T06:48:34.000Z</time>
      </trkpt>
      <trkpt lat="44.08957" lon="6.26127">
        <ele>626.3</ele>
        <time>2015-06-07T06:48:35.000Z</time>
      </trkpt>
      <trkpt lat="44.08947" lon="6.26142">
        <ele>626.2</ele>
        <time>2015-06-07T06:48:38.000Z</time>
      </trkpt>
      <trkpt lat="44.08898" lon="6.26206">
        <ele>628.2</ele>
        <time>2015-06-07T06:48:52.000Z</time>
      </trkpt>
      <trkpt lat="44.08888" lon="6.26226">
        <ele>628.2</ele>
        <time>2015-06-07T06:48:56.000Z</time>
      </trkpt>
      <trkpt lat="44.08852" lon="6.26343">
        <ele>630.2</ele>
        <time>2015-06-07T06:49:17.000Z</time>
      </trkpt>
      <trkpt lat="44.08849" lon="6.26385">
        <ele>630.9</ele>
        <time>2015-06-07T06:49:24.000Z</time>
      </trkpt>
      <trkpt lat="44.08849" lon="6.26404">
        <ele>631.2</ele>
        <time>2015-06-07T06:49:27.000Z</time>
      </trkpt>
      <trkpt lat="44.0885" lon="6.2641">
        <ele>631.3</ele>
        <time>2015-06-07T06:49:28.000Z</time>
      </trkpt>
      <trkpt lat="44.08852" lon="6.26416">
        <ele>631.3</ele>
        <time>2015-06-07T06:49:29.000Z</time>
      </trkpt>
      <trkpt lat="44.08889" lon="6.2654">
        <ele>632.5</ele>
        <time>2015-06-07T06:49:51.000Z</time>
      </trkpt>
      <trkpt lat="44.08928" lon="6.2667">
        <ele>634.9</ele>
        <time>2015-06-07T06:50:15.000Z</time>
      </trkpt>
      <trkpt lat="44.08937" lon="6.26695">
        <ele>636.2</ele>
        <time>2015-06-07T06:50:20.000Z</time>
      </trkpt>
      <trkpt lat="44.08982" lon="6.26798">
        <ele>639.5</ele>
        <time>2015-06-07T06:50:40.000Z</time>
      </trkpt>
      <trkpt lat="44.09028" lon="6.26883">
        <ele>639.9</ele>
        <time>2015-06-07T06:50:58.000Z</time>
      </trkpt>
      <trkpt lat="44.09043" lon="6.26957">
        <ele>637.8</ele>
        <time>2015-06-07T06:51:11.000Z</time>
      </trkpt>
      <trkpt lat="44.09043" lon="6.26963">
        <ele>637.7</ele>
        <time>2015-06-07T06:51:12.000Z</time>
      </trkpt>
      <trkpt lat="44.09048" lon="6.27104">
        <ele>640</ele>
        <time>2015-06-07T06:51:36.000Z</time>
      </trkpt>
      <trkpt lat="44.09042" lon="6.27161">
        <ele>640.4</ele>
        <time>2015-06-07T06:51:50.000Z</time>
      </trkpt>
      <trkpt lat="44.09032" lon="6.27185">
        <ele>640.8</ele>
        <time>2015-06-07T06:52:00.000Z</time>
      </trkpt>
      <trkpt lat="44.09032" lon="6.27188">
        <ele>640.9</ele>
        <time>2015-06-07T06:52:01.000Z</time>
      </trkpt>
      <trkpt lat="44.09031" lon="6.27195">
        <ele>641.1</ele>
        <time>2015-06-07T06:52:03.000Z</time>
      </trkpt>
      <trkpt lat="44.0903" lon="6.27197">
        <ele>641.2</ele>
        <time>2015-06-07T06:52:04.000Z</time>
      </trkpt>
      <trkpt lat="44.09029" lon="6.27199">
        <ele>641.2</ele>
        <time>2015-06-07T06:52:05.000Z</time>
      </trkpt>
      <trkpt lat="44.09028" lon="6.27202">
        <ele>641.3</ele>
        <time>2015-06-07T06:52:06.000Z</time>
      </trkpt>
      <trkpt lat="44.09027" lon="6.27205">
        <ele>641.4</ele>
        <time>2015-06-07T06:52:07.000Z</time>
      </trkpt>
      <trkpt lat="44.09026" lon="6.27208">
        <ele>641.5</ele>
        <time>2015-06-07T06:52:08.000Z</time>
      </trkpt>
      <trkpt lat="44.09025" lon="6.27211">
        <ele>641.6</ele>
        <time>2015-06-07T06:52:09.000Z</time>
      </trkpt>
      <trkpt lat="44.09005" lon="6.27269">
        <ele>643</ele>
        <time>2015-06-07T06:52:27.000Z</time>
      </trkpt>
      <trkpt lat="44.08979" lon="6.27345">
        <ele>642.8</ele>
        <time>2015-06-07T06:52:49.000Z</time>
      </trkpt>
      <trkpt lat="44.08956" lon="6.27431">
        <ele>644.3</ele>
        <time>2015-06-07T06:53:12.000Z</time>
      </trkpt>
      <trkpt lat="44.08936" lon="6.27508">
        <ele>645.4</ele>
        <time>2015-06-07T06:53:33.000Z</time>
      </trkpt>
      <trkpt lat="44.08911" lon="6.27596">
        <ele>647.3</ele>
        <time>2015-06-07T06:53:53.000Z</time>
      </trkpt>
      <trkpt lat="44.08893" lon="6.27696">
        <ele>647.7</ele>
        <time>2015-06-07T06:54:13.000Z</time>
      </trkpt>
      <trkpt lat="44.0892" lon="6.27794">
        <ele>650.1</ele>
        <time>2015-06-07T06:54:34.000Z</time>
      </trkpt>
      <trkpt lat="44.08948" lon="6.27875">
        <ele>653.2</ele>
        <time>2015-06-07T06:54:52.000Z</time>
      </trkpt>
      <trkpt lat="44.08962" lon="6.2798">
        <ele>661.5</ele>
        <time>2015-06-07T06:55:12.000Z</time>
      </trkpt>
      <trkpt lat="44.08962" lon="6.27986">
        <ele>661.4</ele>
        <time>2015-06-07T06:55:13.000Z</time>
      </trkpt>
      <trkpt lat="44.08962" lon="6.27992">
        <ele>661.2</ele>
        <time>2015-06-07T06:55:14.000Z</time>
      </trkpt>
      <trkpt lat="44.08961" lon="6.27997">
        <ele>660.9</ele>
        <time>2015-06-07T06:55:15.000Z</time>
      </trkpt>
      <trkpt lat="44.08957" lon="6.28008">
        <ele>660</ele>
        <time>2015-06-07T06:55:17.000Z</time>
      </trkpt>
      <trkpt lat="44.08955" lon="6.28013">
        <ele>659.4</ele>
        <time>2015-06-07T06:55:18.000Z</time>
      </trkpt>
      <trkpt lat="44.08952" lon="6.28017">
        <ele>658.8</ele>
        <time>2015-06-07T06:55:19.000Z</time>
      </trkpt>
      <trkpt lat="44.08904" lon="6.28086">
        <ele>656.8</ele>
        <time>2015-06-07T06:55:38.000Z</time>
      </trkpt>
      <trkpt lat="44.08899" lon="6.28152">
        <ele>660.3</ele>
        <time>2015-06-07T06:55:52.000Z</time>
      </trkpt>
      <trkpt lat="44.0891" lon="6.28183">
        <ele>662.8</ele>
        <time>2015-06-07T06:55:59.000Z</time>
      </trkpt>
      <trkpt lat="44.08949" lon="6.28258">
        <ele>669.8</ele>
        <time>2015-06-07T06:56:15.000Z</time>
      </trkpt>
      <trkpt lat="44.0895" lon="6.28263">
        <ele>670.9</ele>
        <time>2015-06-07T06:56:16.000Z</time>
      </trkpt>
      <trkpt lat="44.08936" lon="6.28307">
        <ele>664.9</ele>
        <time>2015-06-07T06:56:27.000Z</time>
      </trkpt>
      <trkpt lat="44.08897" lon="6.28338">
        <ele>669.4</ele>
        <time>2015-06-07T06:56:44.000Z</time>
      </trkpt>
      <trkpt lat="44.08858" lon="6.28372">
        <ele>673.9</ele>
        <time>2015-06-07T06:57:02.000Z</time>
      </trkpt>
      <trkpt lat="44.08847" lon="6.28433">
        <ele>675.5</ele>
        <time>2015-06-07T06:57:19.000Z</time>
      </trkpt>
      <trkpt lat="44.08851" lon="6.28449">
        <ele>675.9</ele>
        <time>2015-06-07T06:57:26.000Z</time>
      </trkpt>
      <trkpt lat="44.08852" lon="6.28451">
        <ele>676.1</ele>
        <time>2015-06-07T06:57:27.000Z</time>
      </trkpt>
      <trkpt lat="44.08857" lon="6.28457">
        <ele>677</ele>
        <time>2015-06-07T06:57:35.000Z</time>
      </trkpt>
      <trkpt lat="44.08858" lon="6.28459">
        <ele>677.2</ele>
        <time>2015-06-07T06:57:36.000Z</time>
      </trkpt>
      <trkpt lat="44.08858" lon="6.2846">
        <ele>677.2</ele>
        <time>2015-06-07T06:57:37.000Z</time>
      </trkpt>
      <trkpt lat="44.08859" lon="6.28462">
        <ele>677.1</ele>
        <time>2015-06-07T06:57:38.000Z</time>
      </trkpt>
      <trkpt lat="44.0886" lon="6.28464">
        <ele>677.4</ele>
        <time>2015-06-07T06:57:40.000Z</time>
      </trkpt>
      <trkpt lat="44.08861" lon="6.28465">
        <ele>677.6</ele>
        <time>2015-06-07T06:57:41.000Z</time>
      </trkpt>
      <trkpt lat="44.08863" lon="6.28467">
        <ele>678.1</ele>
        <time>2015-06-07T06:57:42.000Z</time>
      </trkpt>
      <trkpt lat="44.08864" lon="6.28469">
        <ele>678.8</ele>
        <time>2015-06-07T06:57:43.000Z</time>
      </trkpt>
      <trkpt lat="44.08865" lon="6.28472">
        <ele>679.1</ele>
        <time>2015-06-07T06:57:44.000Z</time>
      </trkpt>
      <trkpt lat="44.08866" lon="6.28475">
        <ele>679.4</ele>
        <time>2015-06-07T06:57:45.000Z</time>
      </trkpt>
      <trkpt lat="44.08866" lon="6.28478">
        <ele>679.7</ele>
        <time>2015-06-07T06:57:46.000Z</time>
      </trkpt>
      <trkpt lat="44.08866" lon="6.28481">
        <ele>679.9</ele>
        <time>2015-06-07T06:57:47.000Z</time>
      </trkpt>
      <trkpt lat="44.0886" lon="6.28534">
        <ele>681.1</ele>
        <time>2015-06-07T06:58:03.000Z</time>
      </trkpt>
      <trkpt lat="44.08857" lon="6.28584">
        <ele>683.8</ele>
        <time>2015-06-07T06:58:19.000Z</time>
      </trkpt>
      <trkpt lat="44.08864" lon="6.28632">
        <ele>683.7</ele>
        <time>2015-06-07T06:58:36.000Z</time>
      </trkpt>
      <trkpt lat="44.089" lon="6.28668">
        <ele>688</ele>
        <time>2015-06-07T06:58:54.000Z</time>
      </trkpt>
      <trkpt lat="44.08943" lon="6.28692">
        <ele>693.4</ele>
        <time>2015-06-07T06:59:12.000Z</time>
      </trkpt>
      <trkpt lat="44.08945" lon="6.28696">
        <ele>692.9</ele>
        <time>2015-06-07T06:59:13.000Z</time>
      </trkpt>
      <trkpt lat="44.08946" lon="6.287">
        <ele>692.7</ele>
        <time>2015-06-07T06:59:14.000Z</time>
      </trkpt>
      <trkpt lat="44.08947" lon="6.28705">
        <ele>692.3</ele>
        <time>2015-06-07T06:59:15.000Z</time>
      </trkpt>
      <trkpt lat="44.08946" lon="6.2871">
        <ele>691.6</ele>
        <time>2015-06-07T06:59:16.000Z</time>
      </trkpt>
      <trkpt lat="44.08944" lon="6.28714">
        <ele>690.5</ele>
        <time>2015-06-07T06:59:17.000Z</time>
      </trkpt>
      <trkpt lat="44.08941" lon="6.28718">
        <ele>689.3</ele>
        <time>2015-06-07T06:59:18.000Z</time>
      </trkpt>
      <trkpt lat="44.08939" lon="6.28721">
        <ele>688.1</ele>
        <time>2015-06-07T06:59:19.000Z</time>
      </trkpt>
      <trkpt lat="44.0892" lon="6.28775">
        <ele>693.4</ele>
        <time>2015-06-07T06:59:35.000Z</time>
      </trkpt>
      <trkpt lat="44.08896" lon="6.28814">
        <ele>697.6</ele>
        <time>2015-06-07T06:59:51.000Z</time>
      </trkpt>
      <trkpt lat="44.08876" lon="6.2885">
        <ele>700.7</ele>
        <time>2015-06-07T07:00:07.000Z</time>
      </trkpt>
      <trkpt lat="44.08879" lon="6.28891">
        <ele>702.6</ele>
        <time>2015-06-07T07:00:22.000Z</time>
      </trkpt>
      <trkpt lat="44.08893" lon="6.2894">
        <ele>701.9</ele>
        <time>2015-06-07T07:00:40.000Z</time>
      </trkpt>
      <trkpt lat="44.08907" lon="6.28998">
        <ele>706</ele>
        <time>2015-06-07T07:01:00.000Z</time>
      </trkpt>
      <trkpt lat="44.08916" lon="6.29052">
        <ele>711.9</ele>
        <time>2015-06-07T07:01:18.000Z</time>
      </trkpt>
      <trkpt lat="44.08929" lon="6.29108">
        <ele>712.8</ele>
        <time>2015-06-07T07:01:37.000Z</time>
      </trkpt>
      <trkpt lat="44.08954" lon="6.29149">
        <ele>716.2</ele>
        <time>2015-06-07T07:01:56.000Z</time>
      </trkpt>
      <trkpt lat="44.08984" lon="6.29171">
        <ele>722.6</ele>
        <time>2015-06-07T07:02:10.000Z</time>
      </trkpt>
      <trkpt lat="44.09003" lon="6.29218">
        <ele>724.9</ele>
        <time>2015-06-07T07:02:26.000Z</time>
      </trkpt>
      <trkpt lat="44.09006" lon="6.29224">
        <ele>725.5</ele>
        <time>2015-06-07T07:02:28.000Z</time>
      </trkpt>
      <trkpt lat="44.09006" lon="6.29227">
        <ele>725.7</ele>
        <time>2015-06-07T07:02:29.000Z</time>
      </trkpt>
      <trkpt lat="44.09006" lon="6.29231">
        <ele>725.7</ele>
        <time>2015-06-07T07:02:30.000Z</time>
      </trkpt>
      <trkpt lat="44.09005" lon="6.29234">
        <ele>725.5</ele>
        <time>2015-06-07T07:02:31.000Z</time>
      </trkpt>
      <trkpt lat="44.09005" lon="6.29292">
        <ele>725</ele>
        <time>2015-06-07T07:02:48.000Z</time>
      </trkpt>
      <trkpt lat="44.09014" lon="6.29346">
        <ele>728.3</ele>
        <time>2015-06-07T07:03:04.000Z</time>
      </trkpt>
      <trkpt lat="44.09027" lon="6.29409">
        <ele>731.9</ele>
        <time>2015-06-07T07:03:23.000Z</time>
      </trkpt>
      <trkpt lat="44.09052" lon="6.29451">
        <ele>736.1</ele>
        <time>2015-06-07T07:03:39.000Z</time>
      </trkpt>
      <trkpt lat="44.09086" lon="6.29495">
        <ele>739.8</ele>
        <time>2015-06-07T07:03:57.000Z</time>
      </trkpt>
      <trkpt lat="44.0912" lon="6.29547">
        <ele>743.5</ele>
        <time>2015-06-07T07:04:16.000Z</time>
      </trkpt>
      <trkpt lat="44.09121" lon="6.29551">
        <ele>743.1</ele>
        <time>2015-06-07T07:04:17.000Z</time>
      </trkpt>
      <trkpt lat="44.0912" lon="6.29555">
        <ele>742.5</ele>
        <time>2015-06-07T07:04:18.000Z</time>
      </trkpt>
      <trkpt lat="44.0912" lon="6.29559">
        <ele>742</ele>
        <time>2015-06-07T07:04:19.000Z</time>
      </trkpt>
      <trkpt lat="44.09119" lon="6.29563">
        <ele>741.5</ele>
        <time>2015-06-07T07:04:20.000Z</time>
      </trkpt>
      <trkpt lat="44.09132" lon="6.29616">
        <ele>745.5</ele>
        <time>2015-06-07T07:04:35.000Z</time>
      </trkpt>
      <trkpt lat="44.09142" lon="6.29651">
        <ele>745.5</ele>
        <time>2015-06-07T07:04:51.000Z</time>
      </trkpt>
      <trkpt lat="44.09143" lon="6.2965">
        <ele>745.8</ele>
        <time>2015-06-07T07:05:04.000Z</time>
      </trkpt>
      <trkpt lat="44.09143" lon="6.29648">
        <ele>746.4</ele>
        <time>2015-06-07T07:05:35.000Z</time>
      </trkpt>
      <trkpt lat="44.09139" lon="6.29647">
        <ele>744.8</ele>
        <time>2015-06-07T07:05:59.000Z</time>
      </trkpt>
      <trkpt lat="44.09142" lon="6.29649">
        <ele>745.9</ele>
        <time>2015-06-07T07:06:33.000Z</time>
      </trkpt>
      <trkpt lat="44.09141" lon="6.29649">
        <ele>745.2</ele>
        <time>2015-06-07T07:07:03.000Z</time>
      </trkpt>
      <trkpt lat="44.09144" lon="6.29652">
        <ele>746.3</ele>
        <time>2015-06-07T07:07:20.000Z</time>
      </trkpt>
      <trkpt lat="44.09144" lon="6.2965">
        <ele>746.4</ele>
        <time>2015-06-07T07:07:23.000Z</time>
      </trkpt>
      <trkpt lat="44.09138" lon="6.29625">
        <ele>747.7</ele>
        <time>2015-06-07T07:07:36.000Z</time>
      </trkpt>
      <trkpt lat="44.09139" lon="6.29609">
        <ele>750.4</ele>
        <time>2015-06-07T07:07:45.000Z</time>
      </trkpt>
      <trkpt lat="44.09142" lon="6.296">
        <ele>752.3</ele>
        <time>2015-06-07T07:07:55.000Z</time>
      </trkpt>
      <trkpt lat="44.09144" lon="6.29598">
        <ele>753.7</ele>
        <time>2015-06-07T07:07:59.000Z</time>
      </trkpt>
      <trkpt lat="44.09149" lon="6.29612">
        <ele>755.1</ele>
        <time>2015-06-07T07:08:10.000Z</time>
      </trkpt>
      <trkpt lat="44.09156" lon="6.29631">
        <ele>756.6</ele>
        <time>2015-06-07T07:08:27.000Z</time>
      </trkpt>
      <trkpt lat="44.09158" lon="6.29634">
        <ele>757</ele>
        <time>2015-06-07T07:08:29.000Z</time>
      </trkpt>
      <trkpt lat="44.09168" lon="6.29647">
        <ele>759.2</ele>
        <time>2015-06-07T07:08:45.000Z</time>
      </trkpt>
      <trkpt lat="44.09178" lon="6.29652">
        <ele>762.1</ele>
        <time>2015-06-07T07:08:51.000Z</time>
      </trkpt>
      <trkpt lat="44.09192" lon="6.2967">
        <ele>762.8</ele>
        <time>2015-06-07T07:09:03.000Z</time>
      </trkpt>
      <trkpt lat="44.09193" lon="6.29671">
        <ele>763</ele>
        <time>2015-06-07T07:09:04.000Z</time>
      </trkpt>
      <trkpt lat="44.09194" lon="6.29672">
        <ele>763</ele>
        <time>2015-06-07T07:09:05.000Z</time>
      </trkpt>
      <trkpt lat="44.09195" lon="6.29674">
        <ele>763.1</ele>
        <time>2015-06-07T07:09:06.000Z</time>
      </trkpt>
      <trkpt lat="44.09196" lon="6.29674">
        <ele>763.4</ele>
        <time>2015-06-07T07:09:07.000Z</time>
      </trkpt>
      <trkpt lat="44.09198" lon="6.29675">
        <ele>763.9</ele>
        <time>2015-06-07T07:09:08.000Z</time>
      </trkpt>
      <trkpt lat="44.09199" lon="6.29676">
        <ele>764.2</ele>
        <time>2015-06-07T07:09:09.000Z</time>
      </trkpt>
      <trkpt lat="44.09206" lon="6.29683">
        <ele>765.7</ele>
        <time>2015-06-07T07:09:19.000Z</time>
      </trkpt>
      <trkpt lat="44.09209" lon="6.29685">
        <ele>766.1</ele>
        <time>2015-06-07T07:09:28.000Z</time>
      </trkpt>
      <trkpt lat="44.0921" lon="6.29687">
        <ele>766.4</ele>
        <time>2015-06-07T07:09:30.000Z</time>
      </trkpt>
      <trkpt lat="44.09212" lon="6.29688">
        <ele>766.7</ele>
        <time>2015-06-07T07:09:32.000Z</time>
      </trkpt>
      <trkpt lat="44.09214" lon="6.29692">
        <ele>766.8</ele>
        <time>2015-06-07T07:09:35.000Z</time>
      </trkpt>
      <trkpt lat="44.09218" lon="6.29697">
        <ele>766.8</ele>
        <time>2015-06-07T07:09:40.000Z</time>
      </trkpt>
      <trkpt lat="44.0922" lon="6.297">
        <ele>767</ele>
        <time>2015-06-07T07:09:42.000Z</time>
      </trkpt>
      <trkpt lat="44.09221" lon="6.29701">
        <ele>767</ele>
        <time>2015-06-07T07:09:43.000Z</time>
      </trkpt>
      <trkpt lat="44.09222" lon="6.29703">
        <ele>767</ele>
        <time>2015-06-07T07:09:44.000Z</time>
      </trkpt>
      <trkpt lat="44.09223" lon="6.29704">
        <ele>767</ele>
        <time>2015-06-07T07:09:45.000Z</time>
      </trkpt>
      <trkpt lat="44.09224" lon="6.29705">
        <ele>766.9</ele>
        <time>2015-06-07T07:09:46.000Z</time>
      </trkpt>
      <trkpt lat="44.09225" lon="6.29707">
        <ele>767</ele>
        <time>2015-06-07T07:09:47.000Z</time>
      </trkpt>
      <trkpt lat="44.09245" lon="6.29727">
        <ele>767.9</ele>
        <time>2015-06-07T07:10:02.000Z</time>
      </trkpt>
      <trkpt lat="44.09246" lon="6.29729">
        <ele>767.9</ele>
        <time>2015-06-07T07:10:03.000Z</time>
      </trkpt>
      <trkpt lat="44.09254" lon="6.29735">
        <ele>768.7</ele>
        <time>2015-06-07T07:10:09.000Z</time>
      </trkpt>
      <trkpt lat="44.09256" lon="6.29736">
        <ele>769.1</ele>
        <time>2015-06-07T07:10:10.000Z</time>
      </trkpt>
      <trkpt lat="44.09257" lon="6.29737">
        <ele>769.3</ele>
        <time>2015-06-07T07:10:11.000Z</time>
      </trkpt>
      <trkpt lat="44.09258" lon="6.29738">
        <ele>769.5</ele>
        <time>2015-06-07T07:10:12.000Z</time>
      </trkpt>
      <trkpt lat="44.0926" lon="6.2974">
        <ele>769.8</ele>
        <time>2015-06-07T07:10:13.000Z</time>
      </trkpt>
      <trkpt lat="44.09262" lon="6.29742">
        <ele>769.6</ele>
        <time>2015-06-07T07:10:14.000Z</time>
      </trkpt>
      <trkpt lat="44.09263" lon="6.29745">
        <ele>769.3</ele>
        <time>2015-06-07T07:10:15.000Z</time>
      </trkpt>
      <trkpt lat="44.09292" lon="6.29793">
        <ele>766.9</ele>
        <time>2015-06-07T07:10:27.000Z</time>
      </trkpt>
      <trkpt lat="44.0931" lon="6.29808">
        <ele>770.5</ele>
        <time>2015-06-07T07:10:36.000Z</time>
      </trkpt>
      <trkpt lat="44.09311" lon="6.29811">
        <ele>770.9</ele>
        <time>2015-06-07T07:10:37.000Z</time>
      </trkpt>
      <trkpt lat="44.09312" lon="6.29815">
        <ele>770.9</ele>
        <time>2015-06-07T07:10:38.000Z</time>
      </trkpt>
      <trkpt lat="44.09311" lon="6.29819">
        <ele>770.1</ele>
        <time>2015-06-07T07:10:39.000Z</time>
      </trkpt>
      <trkpt lat="44.09309" lon="6.29821">
        <ele>768.8</ele>
        <time>2015-06-07T07:10:40.000Z</time>
      </trkpt>
      <trkpt lat="44.09307" lon="6.29824">
        <ele>767.7</ele>
        <time>2015-06-07T07:10:41.000Z</time>
      </trkpt>
      <trkpt lat="44.09306" lon="6.29826">
        <ele>767.1</ele>
        <time>2015-06-07T07:10:42.000Z</time>
      </trkpt>
      <trkpt lat="44.09306" lon="6.29829">
        <ele>766.8</ele>
        <time>2015-06-07T07:10:43.000Z</time>
      </trkpt>
      <trkpt lat="44.09307" lon="6.29832">
        <ele>766.7</ele>
        <time>2015-06-07T07:10:44.000Z</time>
      </trkpt>
      <trkpt lat="44.09322" lon="6.2985">
        <ele>768.3</ele>
        <time>2015-06-07T07:10:56.000Z</time>
      </trkpt>
      <trkpt lat="44.09336" lon="6.29871">
        <ele>769.4</ele>
        <time>2015-06-07T07:11:07.000Z</time>
      </trkpt>
      <trkpt lat="44.09352" lon="6.29898">
        <ele>770.8</ele>
        <time>2015-06-07T07:11:23.000Z</time>
      </trkpt>
      <trkpt lat="44.09362" lon="6.29907">
        <ele>774.8</ele>
        <time>2015-06-07T07:11:39.000Z</time>
      </trkpt>
      <trkpt lat="44.0937" lon="6.29917">
        <ele>776.6</ele>
        <time>2015-06-07T07:11:54.000Z</time>
      </trkpt>
      <trkpt lat="44.09373" lon="6.29927">
        <ele>776.5</ele>
        <time>2015-06-07T07:12:04.000Z</time>
      </trkpt>
      <trkpt lat="44.09374" lon="6.29928">
        <ele>776.7</ele>
        <time>2015-06-07T07:12:05.000Z</time>
      </trkpt>
      <trkpt lat="44.09382" lon="6.29918">
        <ele>781.7</ele>
        <time>2015-06-07T07:12:20.000Z</time>
      </trkpt>
      <trkpt lat="44.09389" lon="6.29916">
        <ele>785</ele>
        <time>2015-06-07T07:12:33.000Z</time>
      </trkpt>
      <trkpt lat="44.09398" lon="6.29921">
        <ele>787.4</ele>
        <time>2015-06-07T07:12:47.000Z</time>
      </trkpt>
      <trkpt lat="44.09399" lon="6.29921">
        <ele>787.7</ele>
        <time>2015-06-07T07:12:48.000Z</time>
      </trkpt>
      <trkpt lat="44.09409" lon="6.29918">
        <ele>791.2</ele>
        <time>2015-06-07T07:13:02.000Z</time>
      </trkpt>
      <trkpt lat="44.09418" lon="6.2991">
        <ele>795.1</ele>
        <time>2015-06-07T07:13:16.000Z</time>
      </trkpt>
      <trkpt lat="44.09427" lon="6.29901">
        <ele>797.9</ele>
        <time>2015-06-07T07:13:29.000Z</time>
      </trkpt>
      <trkpt lat="44.09435" lon="6.29886">
        <ele>801.6</ele>
        <time>2015-06-07T07:13:43.000Z</time>
      </trkpt>
      <trkpt lat="44.09438" lon="6.29884">
        <ele>802.4</ele>
        <time>2015-06-07T07:13:47.000Z</time>
      </trkpt>
      <trkpt lat="44.09448" lon="6.29867">
        <ele>805.5</ele>
        <time>2015-06-07T07:14:03.000Z</time>
      </trkpt>
      <trkpt lat="44.09452" lon="6.29851">
        <ele>808.1</ele>
        <time>2015-06-07T07:14:17.000Z</time>
      </trkpt>
      <trkpt lat="44.09453" lon="6.29839">
        <ele>810</ele>
        <time>2015-06-07T07:14:26.000Z</time>
      </trkpt>
      <trkpt lat="44.09461" lon="6.29821">
        <ele>814</ele>
        <time>2015-06-07T07:14:43.000Z</time>
      </trkpt>
      <trkpt lat="44.09467" lon="6.29803">
        <ele>817.9</ele>
        <time>2015-06-07T07:15:00.000Z</time>
      </trkpt>
      <trkpt lat="44.09463" lon="6.29786">
        <ele>820.5</ele>
        <time>2015-06-07T07:15:15.000Z</time>
      </trkpt>
      <trkpt lat="44.09464" lon="6.29774">
        <ele>822.8</ele>
        <time>2015-06-07T07:15:27.000Z</time>
      </trkpt>
      <trkpt lat="44.09465" lon="6.29771">
        <ele>823.5</ele>
        <time>2015-06-07T07:15:30.000Z</time>
      </trkpt>
      <trkpt lat="44.09472" lon="6.29758">
        <ele>826.6</ele>
        <time>2015-06-07T07:15:46.000Z</time>
      </trkpt>
      <trkpt lat="44.09483" lon="6.29743">
        <ele>829.7</ele>
        <time>2015-06-07T07:16:04.000Z</time>
      </trkpt>
      <trkpt lat="44.0949" lon="6.29724">
        <ele>833</ele>
        <time>2015-06-07T07:16:23.000Z</time>
      </trkpt>
      <trkpt lat="44.09493" lon="6.29708">
        <ele>835.3</ele>
        <time>2015-06-07T07:16:39.000Z</time>
      </trkpt>
      <trkpt lat="44.095" lon="6.29693">
        <ele>838.2</ele>
        <time>2015-06-07T07:16:56.000Z</time>
      </trkpt>
      <trkpt lat="44.09503" lon="6.29685">
        <ele>839.3</ele>
        <time>2015-06-07T07:17:04.000Z</time>
      </trkpt>
      <trkpt lat="44.09504" lon="6.29665">
        <ele>841.7</ele>
        <time>2015-06-07T07:17:22.000Z</time>
      </trkpt>
      <trkpt lat="44.09506" lon="6.29645">
        <ele>845.3</ele>
        <time>2015-06-07T07:17:40.000Z</time>
      </trkpt>
      <trkpt lat="44.09507" lon="6.29632">
        <ele>847.9</ele>
        <time>2015-06-07T07:17:55.000Z</time>
      </trkpt>
      <trkpt lat="44.09507" lon="6.29617">
        <ele>851.2</ele>
        <time>2015-06-07T07:18:11.000Z</time>
      </trkpt>
      <trkpt lat="44.0951" lon="6.29599">
        <ele>854.5</ele>
        <time>2015-06-07T07:18:27.000Z</time>
      </trkpt>
      <trkpt lat="44.09511" lon="6.29597">
        <ele>854.7</ele>
        <time>2015-06-07T07:18:28.000Z</time>
      </trkpt>
      <trkpt lat="44.09525" lon="6.29582">
        <ele>858</ele>
        <time>2015-06-07T07:18:48.000Z</time>
      </trkpt>
      <trkpt lat="44.09535" lon="6.29578">
        <ele>858.4</ele>
        <time>2015-06-07T07:18:58.000Z</time>
      </trkpt>
      <trkpt lat="44.09545" lon="6.29568">
        <ele>859.4</ele>
        <time>2015-06-07T07:19:10.000Z</time>
      </trkpt>
      <trkpt lat="44.09556" lon="6.29555">
        <ele>861.1</ele>
        <time>2015-06-07T07:19:26.000Z</time>
      </trkpt>
      <trkpt lat="44.09557" lon="6.29553">
        <ele>861.6</ele>
        <time>2015-06-07T07:19:30.000Z</time>
      </trkpt>
      <trkpt lat="44.0956" lon="6.29549">
        <ele>862.2</ele>
        <time>2015-06-07T07:19:45.000Z</time>
      </trkpt>
      <trkpt lat="44.09559" lon="6.29549">
        <ele>862.3</ele>
        <time>2015-06-07T07:20:00.000Z</time>
      </trkpt>
      <trkpt lat="44.09574" lon="6.2953">
        <ele>865.3</ele>
        <time>2015-06-07T07:20:16.000Z</time>
      </trkpt>
      <trkpt lat="44.09582" lon="6.29512">
        <ele>869.7</ele>
        <time>2015-06-07T07:20:27.000Z</time>
      </trkpt>
      <trkpt lat="44.09584" lon="6.29505">
        <ele>871.4</ele>
        <time>2015-06-07T07:20:33.000Z</time>
      </trkpt>
      <trkpt lat="44.09597" lon="6.29494">
        <ele>873</ele>
        <time>2015-06-07T07:20:48.000Z</time>
      </trkpt>
      <trkpt lat="44.09599" lon="6.29492">
        <ele>873.3</ele>
        <time>2015-06-07T07:20:51.000Z</time>
      </trkpt>
      <trkpt lat="44.09615" lon="6.29488">
        <ele>872.5</ele>
        <time>2015-06-07T07:21:05.000Z</time>
      </trkpt>
      <trkpt lat="44.09626" lon="6.29488">
        <ele>873.6</ele>
        <time>2015-06-07T07:21:18.000Z</time>
      </trkpt>
      <trkpt lat="44.09631" lon="6.29485">
        <ele>874.4</ele>
        <time>2015-06-07T07:21:39.000Z</time>
      </trkpt>
      <trkpt lat="44.09647" lon="6.29478">
        <ele>875.9</ele>
        <time>2015-06-07T07:21:55.000Z</time>
      </trkpt>
      <trkpt lat="44.09657" lon="6.2947">
        <ele>877.5</ele>
        <time>2015-06-07T07:22:04.000Z</time>
      </trkpt>
      <trkpt lat="44.09668" lon="6.2946">
        <ele>880.5</ele>
        <time>2015-06-07T07:22:14.000Z</time>
      </trkpt>
      <trkpt lat="44.09678" lon="6.29449">
        <ele>883.5</ele>
        <time>2015-06-07T07:22:25.000Z</time>
      </trkpt>
      <trkpt lat="44.09685" lon="6.29444">
        <ele>884.5</ele>
        <time>2015-06-07T07:22:39.000Z</time>
      </trkpt>
      <trkpt lat="44.09701" lon="6.29434">
        <ele>887.4</ele>
        <time>2015-06-07T07:22:55.000Z</time>
      </trkpt>
      <trkpt lat="44.09708" lon="6.29437">
        <ele>887.8</ele>
        <time>2015-06-07T07:23:06.000Z</time>
      </trkpt>
      <trkpt lat="44.0972" lon="6.29451">
        <ele>888.4</ele>
        <time>2015-06-07T07:23:22.000Z</time>
      </trkpt>
      <trkpt lat="44.09731" lon="6.29466">
        <ele>890.8</ele>
        <time>2015-06-07T07:23:31.000Z</time>
      </trkpt>
      <trkpt lat="44.09735" lon="6.29472">
        <ele>891.3</ele>
        <time>2015-06-07T07:23:35.000Z</time>
      </trkpt>
      <trkpt lat="44.0976" lon="6.29471">
        <ele>893.1</ele>
        <time>2015-06-07T07:23:51.000Z</time>
      </trkpt>
      <trkpt lat="44.09774" lon="6.29466">
        <ele>893.4</ele>
        <time>2015-06-07T07:24:02.000Z</time>
      </trkpt>
      <trkpt lat="44.09775" lon="6.29461">
        <ele>894.8</ele>
        <time>2015-06-07T07:24:43.000Z</time>
      </trkpt>
      <trkpt lat="44.09774" lon="6.2946">
        <ele>895.2</ele>
        <time>2015-06-07T07:25:28.000Z</time>
      </trkpt>
      <trkpt lat="44.09778" lon="6.29462">
        <ele>894</ele>
        <time>2015-06-07T07:26:04.000Z</time>
      </trkpt>
      <trkpt lat="44.09778" lon="6.29466">
        <ele>892.9</ele>
        <time>2015-06-07T07:26:34.000Z</time>
      </trkpt>
      <trkpt lat="44.09789" lon="6.2946">
        <ele>892.3</ele>
        <time>2015-06-07T07:26:41.000Z</time>
      </trkpt>
      <trkpt lat="44.0983" lon="6.29439">
        <ele>893.6</ele>
        <time>2015-06-07T07:26:59.000Z</time>
      </trkpt>
      <trkpt lat="44.09875" lon="6.29433">
        <ele>893.9</ele>
        <time>2015-06-07T07:27:14.000Z</time>
      </trkpt>
      <trkpt lat="44.09897" lon="6.29428">
        <ele>895.1</ele>
        <time>2015-06-07T07:27:20.000Z</time>
      </trkpt>
      <trkpt lat="44.09904" lon="6.29438">
        <ele>894.5</ele>
        <time>2015-06-07T07:27:25.000Z</time>
      </trkpt>
      <trkpt lat="44.09898" lon="6.2947">
        <ele>892.8</ele>
        <time>2015-06-07T07:27:34.000Z</time>
      </trkpt>
      <trkpt lat="44.09888" lon="6.29502">
        <ele>892.8</ele>
        <time>2015-06-07T07:27:47.000Z</time>
      </trkpt>
      <trkpt lat="44.09882" lon="6.29543">
        <ele>893.7</ele>
        <time>2015-06-07T07:28:03.000Z</time>
      </trkpt>
      <trkpt lat="44.09882" lon="6.29546">
        <ele>893.9</ele>
        <time>2015-06-07T07:28:04.000Z</time>
      </trkpt>
      <trkpt lat="44.09883" lon="6.29558">
        <ele>894.1</ele>
        <time>2015-06-07T07:28:09.000Z</time>
      </trkpt>
      <trkpt lat="44.09886" lon="6.29595">
        <ele>895</ele>
        <time>2015-06-07T07:28:18.000Z</time>
      </trkpt>
      <trkpt lat="44.09908" lon="6.29632">
        <ele>899.3</ele>
        <time>2015-06-07T07:28:30.000Z</time>
      </trkpt>
      <trkpt lat="44.09931" lon="6.29654">
        <ele>903</ele>
        <time>2015-06-07T07:28:44.000Z</time>
      </trkpt>
      <trkpt lat="44.09948" lon="6.2968">
        <ele>904.8</ele>
        <time>2015-06-07T07:29:00.000Z</time>
      </trkpt>
      <trkpt lat="44.09949" lon="6.29682">
        <ele>904.8</ele>
        <time>2015-06-07T07:29:01.000Z</time>
      </trkpt>
      <trkpt lat="44.09954" lon="6.29687">
        <ele>905.1</ele>
        <time>2015-06-07T07:29:05.000Z</time>
      </trkpt>
      <trkpt lat="44.09964" lon="6.29689">
        <ele>905.8</ele>
        <time>2015-06-07T07:29:10.000Z</time>
      </trkpt>
      <trkpt lat="44.10001" lon="6.2969">
        <ele>907.3</ele>
        <time>2015-06-07T07:29:24.000Z</time>
      </trkpt>
      <trkpt lat="44.10013" lon="6.29692">
        <ele>906.8</ele>
        <time>2015-06-07T07:29:28.000Z</time>
      </trkpt>
      <trkpt lat="44.10029" lon="6.2969">
        <ele>906.5</ele>
        <time>2015-06-07T07:29:33.000Z</time>
      </trkpt>
      <trkpt lat="44.10054" lon="6.29685">
        <ele>906.1</ele>
        <time>2015-06-07T07:29:40.000Z</time>
      </trkpt>
      <trkpt lat="44.10078" lon="6.29678">
        <ele>902.7</ele>
        <time>2015-06-07T07:29:51.000Z</time>
      </trkpt>
      <trkpt lat="44.10081" lon="6.29677">
        <ele>902.2</ele>
        <time>2015-06-07T07:29:53.000Z</time>
      </trkpt>
      <trkpt lat="44.10088" lon="6.29679">
        <ele>902.9</ele>
        <time>2015-06-07T07:29:59.000Z</time>
      </trkpt>
      <trkpt lat="44.10088" lon="6.29688">
        <ele>901.4</ele>
        <time>2015-06-07T07:30:03.000Z</time>
      </trkpt>
      <trkpt lat="44.10091" lon="6.29703">
        <ele>901.2</ele>
        <time>2015-06-07T07:30:10.000Z</time>
      </trkpt>
      <trkpt lat="44.10093" lon="6.29706">
        <ele>902.1</ele>
        <time>2015-06-07T07:30:14.000Z</time>
      </trkpt>
      <trkpt lat="44.10097" lon="6.2972">
        <ele>903.3</ele>
        <time>2015-06-07T07:30:21.000Z</time>
      </trkpt>
      <trkpt lat="44.10098" lon="6.29724">
        <ele>903.6</ele>
        <time>2015-06-07T07:30:23.000Z</time>
      </trkpt>
      <trkpt lat="44.10103" lon="6.29734">
        <ele>905.2</ele>
        <time>2015-06-07T07:30:28.000Z</time>
      </trkpt>
      <trkpt lat="44.10105" lon="6.29739">
        <ele>905.5</ele>
        <time>2015-06-07T07:30:31.000Z</time>
      </trkpt>
      <trkpt lat="44.10113" lon="6.29753">
        <ele>907.6</ele>
        <time>2015-06-07T07:30:39.000Z</time>
      </trkpt>
      <trkpt lat="44.10121" lon="6.29761">
        <ele>909.8</ele>
        <time>2015-06-07T07:30:45.000Z</time>
      </trkpt>
      <trkpt lat="44.10134" lon="6.29782">
        <ele>910.6</ele>
        <time>2015-06-07T07:30:56.000Z</time>
      </trkpt>
      <trkpt lat="44.10135" lon="6.29784">
        <ele>910.5</ele>
        <time>2015-06-07T07:30:57.000Z</time>
      </trkpt>
      <trkpt lat="44.10141" lon="6.29792">
        <ele>911.2</ele>
        <time>2015-06-07T07:31:02.000Z</time>
      </trkpt>
      <trkpt lat="44.10144" lon="6.29793">
        <ele>911.9</ele>
        <time>2015-06-07T07:31:04.000Z</time>
      </trkpt>
      <trkpt lat="44.1016" lon="6.29802">
        <ele>915</ele>
        <time>2015-06-07T07:31:15.000Z</time>
      </trkpt>
      <trkpt lat="44.10164" lon="6.298">
        <ele>916.9</ele>
        <time>2015-06-07T07:31:19.000Z</time>
      </trkpt>
      <trkpt lat="44.10175" lon="6.29803">
        <ele>918.3</ele>
        <time>2015-06-07T07:31:26.000Z</time>
      </trkpt>
      <trkpt lat="44.10189" lon="6.29806">
        <ele>919.8</ele>
        <time>2015-06-07T07:31:36.000Z</time>
      </trkpt>
      <trkpt lat="44.10206" lon="6.29826">
        <ele>918.8</ele>
        <time>2015-06-07T07:31:49.000Z</time>
      </trkpt>
      <trkpt lat="44.10214" lon="6.29841">
        <ele>918.5</ele>
        <time>2015-06-07T07:31:55.000Z</time>
      </trkpt>
      <trkpt lat="44.10219" lon="6.29848">
        <ele>919.2</ele>
        <time>2015-06-07T07:31:58.000Z</time>
      </trkpt>
      <trkpt lat="44.10222" lon="6.29855">
        <ele>919.8</ele>
        <time>2015-06-07T07:32:02.000Z</time>
      </trkpt>
      <trkpt lat="44.10228" lon="6.29864">
        <ele>921.2</ele>
        <time>2015-06-07T07:32:07.000Z</time>
      </trkpt>
      <trkpt lat="44.10237" lon="6.29884">
        <ele>920.9</ele>
        <time>2015-06-07T07:32:17.000Z</time>
      </trkpt>
      <trkpt lat="44.10243" lon="6.29892">
        <ele>921.3</ele>
        <time>2015-06-07T07:32:22.000Z</time>
      </trkpt>
      <trkpt lat="44.10255" lon="6.29906">
        <ele>921.5</ele>
        <time>2015-06-07T07:32:30.000Z</time>
      </trkpt>
      <trkpt lat="44.1028" lon="6.29927">
        <ele>921.3</ele>
        <time>2015-06-07T07:32:45.000Z</time>
      </trkpt>
      <trkpt lat="44.10283" lon="6.29929">
        <ele>921.3</ele>
        <time>2015-06-07T07:32:46.000Z</time>
      </trkpt>
      <trkpt lat="44.10302" lon="6.29938">
        <ele>922.3</ele>
        <time>2015-06-07T07:32:58.000Z</time>
      </trkpt>
      <trkpt lat="44.10315" lon="6.29949">
        <ele>923</ele>
        <time>2015-06-07T07:33:14.000Z</time>
      </trkpt>
      <trkpt lat="44.10327" lon="6.29987">
        <ele>919.5</ele>
        <time>2015-06-07T07:33:25.000Z</time>
      </trkpt>
      <trkpt lat="44.10341" lon="6.3002">
        <ele>923.2</ele>
        <time>2015-06-07T07:33:35.000Z</time>
      </trkpt>
      <trkpt lat="44.10342" lon="6.30022">
        <ele>923.4</ele>
        <time>2015-06-07T07:33:36.000Z</time>
      </trkpt>
      <trkpt lat="44.10347" lon="6.30029">
        <ele>924.4</ele>
        <time>2015-06-07T07:33:41.000Z</time>
      </trkpt>
      <trkpt lat="44.10351" lon="6.30032">
        <ele>925.2</ele>
        <time>2015-06-07T07:33:44.000Z</time>
      </trkpt>
      <trkpt lat="44.10358" lon="6.30034">
        <ele>927.3</ele>
        <time>2015-06-07T07:33:53.000Z</time>
      </trkpt>
      <trkpt lat="44.10366" lon="6.3004">
        <ele>929.4</ele>
        <time>2015-06-07T07:34:07.000Z</time>
      </trkpt>
      <trkpt lat="44.10374" lon="6.30049">
        <ele>931.1</ele>
        <time>2015-06-07T07:34:22.000Z</time>
      </trkpt>
      <trkpt lat="44.10383" lon="6.30068">
        <ele>931.2</ele>
        <time>2015-06-07T07:34:40.000Z</time>
      </trkpt>
      <trkpt lat="44.10386" lon="6.30068">
        <ele>932</ele>
        <time>2015-06-07T07:35:23.000Z</time>
      </trkpt>
      <trkpt lat="44.10385" lon="6.30069">
        <ele>931.6</ele>
        <time>2015-06-07T07:35:53.000Z</time>
      </trkpt>
      <trkpt lat="44.10386" lon="6.3007">
        <ele>931.4</ele>
        <time>2015-06-07T07:36:00.000Z</time>
      </trkpt>
      <trkpt lat="44.10389" lon="6.30076">
        <ele>931.2</ele>
        <time>2015-06-07T07:36:04.000Z</time>
      </trkpt>
      <trkpt lat="44.10397" lon="6.30088">
        <ele>930.9</ele>
        <time>2015-06-07T07:36:08.000Z</time>
      </trkpt>
      <trkpt lat="44.1041" lon="6.30094">
        <ele>933.1</ele>
        <time>2015-06-07T07:36:14.000Z</time>
      </trkpt>
      <trkpt lat="44.10412" lon="6.30095">
        <ele>933.2</ele>
        <time>2015-06-07T07:36:17.000Z</time>
      </trkpt>
      <trkpt lat="44.10437" lon="6.30107">
        <ele>934.7</ele>
        <time>2015-06-07T07:36:31.000Z</time>
      </trkpt>
      <trkpt lat="44.10458" lon="6.30113">
        <ele>936</ele>
        <time>2015-06-07T07:36:38.000Z</time>
      </trkpt>
      <trkpt lat="44.10495" lon="6.30116">
        <ele>939.2</ele>
        <time>2015-06-07T07:36:54.000Z</time>
      </trkpt>
      <trkpt lat="44.105" lon="6.30115">
        <ele>939.9</ele>
        <time>2015-06-07T07:36:57.000Z</time>
      </trkpt>
      <trkpt lat="44.10523" lon="6.30118">
        <ele>941.4</ele>
        <time>2015-06-07T07:37:11.000Z</time>
      </trkpt>
      <trkpt lat="44.10546" lon="6.30121">
        <ele>942.4</ele>
        <time>2015-06-07T07:37:24.000Z</time>
      </trkpt>
      <trkpt lat="44.1057" lon="6.30123">
        <ele>943.9</ele>
        <time>2015-06-07T07:37:38.000Z</time>
      </trkpt>
      <trkpt lat="44.10576" lon="6.30137">
        <ele>942.2</ele>
        <time>2015-06-07T07:37:44.000Z</time>
      </trkpt>
      <trkpt lat="44.10582" lon="6.30144">
        <ele>942.4</ele>
        <time>2015-06-07T07:37:51.000Z</time>
      </trkpt>
      <trkpt lat="44.10593" lon="6.30166">
        <ele>943.7</ele>
        <time>2015-06-07T07:38:10.000Z</time>
      </trkpt>
      <trkpt lat="44.10595" lon="6.30169">
        <ele>944.1</ele>
        <time>2015-06-07T07:38:17.000Z</time>
      </trkpt>
      <trkpt lat="44.10607" lon="6.30184">
        <ele>946.1</ele>
        <time>2015-06-07T07:38:32.000Z</time>
      </trkpt>
      <trkpt lat="44.10611" lon="6.30182">
        <ele>947.4</ele>
        <time>2015-06-07T07:38:38.000Z</time>
      </trkpt>
      <trkpt lat="44.10623" lon="6.30173">
        <ele>950.4</ele>
        <time>2015-06-07T07:38:54.000Z</time>
      </trkpt>
      <trkpt lat="44.10636" lon="6.30167">
        <ele>953.5</ele>
        <time>2015-06-07T07:39:11.000Z</time>
      </trkpt>
      <trkpt lat="44.10648" lon="6.30167">
        <ele>954.9</ele>
        <time>2015-06-07T07:39:25.000Z</time>
      </trkpt>
      <trkpt lat="44.1065" lon="6.30172">
        <ele>954.6</ele>
        <time>2015-06-07T07:39:31.000Z</time>
      </trkpt>
      <trkpt lat="44.10656" lon="6.30181">
        <ele>954.3</ele>
        <time>2015-06-07T07:39:38.000Z</time>
      </trkpt>
      <trkpt lat="44.10663" lon="6.30185">
        <ele>954.7</ele>
        <time>2015-06-07T07:39:52.000Z</time>
      </trkpt>
      <trkpt lat="44.10665" lon="6.30187">
        <ele>954.7</ele>
        <time>2015-06-07T07:40:10.000Z</time>
      </trkpt>
      <trkpt lat="44.10679" lon="6.30213">
        <ele>951.2</ele>
        <time>2015-06-07T07:40:18.000Z</time>
      </trkpt>
      <trkpt lat="44.10696" lon="6.30245">
        <ele>947.6</ele>
        <time>2015-06-07T07:40:24.000Z</time>
      </trkpt>
      <trkpt lat="44.10711" lon="6.30269">
        <ele>943.1</ele>
        <time>2015-06-07T07:40:28.000Z</time>
      </trkpt>
      <trkpt lat="44.10717" lon="6.3029">
        <ele>941.2</ele>
        <time>2015-06-07T07:40:31.000Z</time>
      </trkpt>
      <trkpt lat="44.10722" lon="6.30304">
        <ele>940.1</ele>
        <time>2015-06-07T07:40:33.000Z</time>
      </trkpt>
      <trkpt lat="44.10728" lon="6.30326">
        <ele>937.7</ele>
        <time>2015-06-07T07:40:36.000Z</time>
      </trkpt>
      <trkpt lat="44.10734" lon="6.30341">
        <ele>936.2</ele>
        <time>2015-06-07T07:40:38.000Z</time>
      </trkpt>
      <trkpt lat="44.10735" lon="6.30355">
        <ele>934.9</ele>
        <time>2015-06-07T07:40:40.000Z</time>
      </trkpt>
      <trkpt lat="44.10738" lon="6.30373">
        <ele>933.4</ele>
        <time>2015-06-07T07:40:43.000Z</time>
      </trkpt>
      <trkpt lat="44.10741" lon="6.30385">
        <ele>932.3</ele>
        <time>2015-06-07T07:40:45.000Z</time>
      </trkpt>
      <trkpt lat="44.10745" lon="6.30414">
        <ele>932.4</ele>
        <time>2015-06-07T07:40:50.000Z</time>
      </trkpt>
      <trkpt lat="44.10744" lon="6.30435">
        <ele>932.3</ele>
        <time>2015-06-07T07:40:54.000Z</time>
      </trkpt>
      <trkpt lat="44.10748" lon="6.30453">
        <ele>932.5</ele>
        <time>2015-06-07T07:40:58.000Z</time>
      </trkpt>
      <trkpt lat="44.10757" lon="6.30494">
        <ele>929.3</ele>
        <time>2015-06-07T07:41:07.000Z</time>
      </trkpt>
      <trkpt lat="44.10764" lon="6.30523">
        <ele>928.5</ele>
        <time>2015-06-07T07:41:11.000Z</time>
      </trkpt>
      <trkpt lat="44.1076" lon="6.30533">
        <ele>928.9</ele>
        <time>2015-06-07T07:41:18.000Z</time>
      </trkpt>
      <trkpt lat="44.10758" lon="6.30534">
        <ele>929</ele>
        <time>2015-06-07T07:41:34.000Z</time>
      </trkpt>
      <trkpt lat="44.10758" lon="6.30535">
        <ele>929.1</ele>
        <time>2015-06-07T07:42:09.000Z</time>
      </trkpt>
      <trkpt lat="44.10756" lon="6.30534">
        <ele>929.1</ele>
        <time>2015-06-07T07:42:45.000Z</time>
      </trkpt>
      <trkpt lat="44.10757" lon="6.30532">
        <ele>928.9</ele>
        <time>2015-06-07T07:42:47.000Z</time>
      </trkpt>
      <trkpt lat="44.1076" lon="6.30532">
        <ele>928.9</ele>
        <time>2015-06-07T07:42:49.000Z</time>
      </trkpt>
      <trkpt lat="44.10762" lon="6.3055">
        <ele>929.7</ele>
        <time>2015-06-07T07:43:00.000Z</time>
      </trkpt>
      <trkpt lat="44.1076" lon="6.30555">
        <ele>930</ele>
        <time>2015-06-07T07:43:17.000Z</time>
      </trkpt>
      <trkpt lat="44.10759" lon="6.30563">
        <ele>930.6</ele>
        <time>2015-06-07T07:43:21.000Z</time>
      </trkpt>
      <trkpt lat="44.10759" lon="6.3057">
        <ele>931.2</ele>
        <time>2015-06-07T07:43:24.000Z</time>
      </trkpt>
      <trkpt lat="44.10759" lon="6.30579">
        <ele>931.9</ele>
        <time>2015-06-07T07:43:33.000Z</time>
      </trkpt>
      <trkpt lat="44.10763" lon="6.30593">
        <ele>932.6</ele>
        <time>2015-06-07T07:43:41.000Z</time>
      </trkpt>
      <trkpt lat="44.10763" lon="6.30603">
        <ele>932.8</ele>
        <time>2015-06-07T07:43:45.000Z</time>
      </trkpt>
      <trkpt lat="44.1076" lon="6.30617">
        <ele>933.7</ele>
        <time>2015-06-07T07:43:52.000Z</time>
      </trkpt>
      <trkpt lat="44.10758" lon="6.30621">
        <ele>934.2</ele>
        <time>2015-06-07T07:44:02.000Z</time>
      </trkpt>
      <trkpt lat="44.1076" lon="6.30628">
        <ele>935.1</ele>
        <time>2015-06-07T07:44:07.000Z</time>
      </trkpt>
      <trkpt lat="44.10758" lon="6.30634">
        <ele>935.7</ele>
        <time>2015-06-07T07:44:10.000Z</time>
      </trkpt>
      <trkpt lat="44.10766" lon="6.30644">
        <ele>937.1</ele>
        <time>2015-06-07T07:44:18.000Z</time>
      </trkpt>
      <trkpt lat="44.10767" lon="6.30648">
        <ele>937.5</ele>
        <time>2015-06-07T07:44:20.000Z</time>
      </trkpt>
      <trkpt lat="44.10769" lon="6.30658">
        <ele>938.8</ele>
        <time>2015-06-07T07:44:27.000Z</time>
      </trkpt>
      <trkpt lat="44.10769" lon="6.30673">
        <ele>940.4</ele>
        <time>2015-06-07T07:44:40.000Z</time>
      </trkpt>
      <trkpt lat="44.10771" lon="6.30683">
        <ele>941.9</ele>
        <time>2015-06-07T07:44:55.000Z</time>
      </trkpt>
      <trkpt lat="44.10773" lon="6.30683">
        <ele>942.3</ele>
        <time>2015-06-07T07:45:12.000Z</time>
      </trkpt>
      <trkpt lat="44.10776" lon="6.3069">
        <ele>943.9</ele>
        <time>2015-06-07T07:45:16.000Z</time>
      </trkpt>
      <trkpt lat="44.10787" lon="6.30703">
        <ele>944.6</ele>
        <time>2015-06-07T07:45:22.000Z</time>
      </trkpt>
      <trkpt lat="44.10792" lon="6.30713">
        <ele>946.3</ele>
        <time>2015-06-07T07:45:26.000Z</time>
      </trkpt>
      <trkpt lat="44.10816" lon="6.30736">
        <ele>953.2</ele>
        <time>2015-06-07T07:45:39.000Z</time>
      </trkpt>
      <trkpt lat="44.10833" lon="6.30743">
        <ele>954.1</ele>
        <time>2015-06-07T07:45:47.000Z</time>
      </trkpt>
      <trkpt lat="44.10869" lon="6.30766">
        <ele>955.8</ele>
        <time>2015-06-07T07:46:04.000Z</time>
      </trkpt>
      <trkpt lat="44.10881" lon="6.30779">
        <ele>957</ele>
        <time>2015-06-07T07:46:08.000Z</time>
      </trkpt>
      <trkpt lat="44.10894" lon="6.30795">
        <ele>957.5</ele>
        <time>2015-06-07T07:46:12.000Z</time>
      </trkpt>
      <trkpt lat="44.1091" lon="6.30817">
        <ele>957.7</ele>
        <time>2015-06-07T07:46:17.000Z</time>
      </trkpt>
      <trkpt lat="44.10935" lon="6.30854">
        <ele>956</ele>
        <time>2015-06-07T07:46:27.000Z</time>
      </trkpt>
      <trkpt lat="44.10938" lon="6.30859">
        <ele>955.4</ele>
        <time>2015-06-07T07:46:28.000Z</time>
      </trkpt>
      <trkpt lat="44.10944" lon="6.30868">
        <ele>954.7</ele>
        <time>2015-06-07T07:46:30.000Z</time>
      </trkpt>
      <trkpt lat="44.1096" lon="6.30872">
        <ele>950.4</ele>
        <time>2015-06-07T07:46:34.000Z</time>
      </trkpt>
      <trkpt lat="44.10964" lon="6.30873">
        <ele>949.2</ele>
        <time>2015-06-07T07:46:35.000Z</time>
      </trkpt>
      <trkpt lat="44.10979" lon="6.30888">
        <ele>947.1</ele>
        <time>2015-06-07T07:46:39.000Z</time>
      </trkpt>
      <trkpt lat="44.1099" lon="6.30908">
        <ele>946.7</ele>
        <time>2015-06-07T07:46:43.000Z</time>
      </trkpt>
      <trkpt lat="44.10999" lon="6.30916">
        <ele>944.5</ele>
        <time>2015-06-07T07:46:45.000Z</time>
      </trkpt>
      <trkpt lat="44.1102" lon="6.30942">
        <ele>942.1</ele>
        <time>2015-06-07T07:46:52.000Z</time>
      </trkpt>
      <trkpt lat="44.11044" lon="6.30956">
        <ele>940.6</ele>
        <time>2015-06-07T07:46:58.000Z</time>
      </trkpt>
      <trkpt lat="44.11053" lon="6.3096">
        <ele>940.4</ele>
        <time>2015-06-07T07:47:00.000Z</time>
      </trkpt>
      <trkpt lat="44.11073" lon="6.30967">
        <ele>942</ele>
        <time>2015-06-07T07:47:13.000Z</time>
      </trkpt>
      <trkpt lat="44.11079" lon="6.30967">
        <ele>942.3</ele>
        <time>2015-06-07T07:47:19.000Z</time>
      </trkpt>
      <trkpt lat="44.11083" lon="6.30969">
        <ele>942.9</ele>
        <time>2015-06-07T07:47:22.000Z</time>
      </trkpt>
      <trkpt lat="44.11102" lon="6.30967">
        <ele>942.7</ele>
        <time>2015-06-07T07:47:42.000Z</time>
      </trkpt>
      <trkpt lat="44.11102" lon="6.30967">
        <ele>943</ele>
        <time>2015-06-07T07:47:49.000Z</time>
      </trkpt>
      <trkpt lat="44.11105" lon="6.30968">
        <ele>943.2</ele>
        <time>2015-06-07T07:47:52.000Z</time>
      </trkpt>
      <trkpt lat="44.11124" lon="6.30972">
        <ele>945.8</ele>
        <time>2015-06-07T07:48:02.000Z</time>
      </trkpt>
      <trkpt lat="44.11138" lon="6.3097">
        <ele>946.1</ele>
        <time>2015-06-07T07:48:10.000Z</time>
      </trkpt>
      <trkpt lat="44.11162" lon="6.30995">
        <ele>950.1</ele>
        <time>2015-06-07T07:48:24.000Z</time>
      </trkpt>
      <trkpt lat="44.11188" lon="6.31028">
        <ele>949.6</ele>
        <time>2015-06-07T07:48:33.000Z</time>
      </trkpt>
      <trkpt lat="44.11191" lon="6.31033">
        <ele>949</ele>
        <time>2015-06-07T07:48:34.000Z</time>
      </trkpt>
      <trkpt lat="44.1121" lon="6.31079">
        <ele>943.1</ele>
        <time>2015-06-07T07:48:42.000Z</time>
      </trkpt>
      <trkpt lat="44.11218" lon="6.311">
        <ele>942.5</ele>
        <time>2015-06-07T07:48:46.000Z</time>
      </trkpt>
      <trkpt lat="44.11238" lon="6.31112">
        <ele>943.3</ele>
        <time>2015-06-07T07:48:57.000Z</time>
      </trkpt>
      <trkpt lat="44.11242" lon="6.31114">
        <ele>943.5</ele>
        <time>2015-06-07T07:49:00.000Z</time>
      </trkpt>
      <trkpt lat="44.11249" lon="6.31123">
        <ele>945.2</ele>
        <time>2015-06-07T07:49:13.000Z</time>
      </trkpt>
      <trkpt lat="44.11254" lon="6.31133">
        <ele>946.9</ele>
        <time>2015-06-07T07:49:26.000Z</time>
      </trkpt>
      <trkpt lat="44.11259" lon="6.31139">
        <ele>947.8</ele>
        <time>2015-06-07T07:49:30.000Z</time>
      </trkpt>
      <trkpt lat="44.11272" lon="6.31154">
        <ele>949.2</ele>
        <time>2015-06-07T07:49:42.000Z</time>
      </trkpt>
      <trkpt lat="44.11278" lon="6.31164">
        <ele>949.6</ele>
        <time>2015-06-07T07:50:01.000Z</time>
      </trkpt>
      <trkpt lat="44.11276" lon="6.31164">
        <ele>950</ele>
        <time>2015-06-07T07:50:59.000Z</time>
      </trkpt>
      <trkpt lat="44.1128" lon="6.31164">
        <ele>949.2</ele>
        <time>2015-06-07T07:51:54.000Z</time>
      </trkpt>
      <trkpt lat="44.11282" lon="6.31166">
        <ele>948.9</ele>
        <time>2015-06-07T07:52:02.000Z</time>
      </trkpt>
      <trkpt lat="44.11286" lon="6.31172">
        <ele>948.4</ele>
        <time>2015-06-07T07:52:06.000Z</time>
      </trkpt>
      <trkpt lat="44.11288" lon="6.31184">
        <ele>948.7</ele>
        <time>2015-06-07T07:52:10.000Z</time>
      </trkpt>
      <trkpt lat="44.1129" lon="6.31199">
        <ele>949.4</ele>
        <time>2015-06-07T07:52:17.000Z</time>
      </trkpt>
      <trkpt lat="44.1129" lon="6.31208">
        <ele>950.1</ele>
        <time>2015-06-07T07:52:22.000Z</time>
      </trkpt>
      <trkpt lat="44.11294" lon="6.31213">
        <ele>949.6</ele>
        <time>2015-06-07T07:52:40.000Z</time>
      </trkpt>
      <trkpt lat="44.11295" lon="6.31212">
        <ele>949.2</ele>
        <time>2015-06-07T07:53:17.000Z</time>
      </trkpt>
      <trkpt lat="44.11294" lon="6.31216">
        <ele>949.9</ele>
        <time>2015-06-07T07:53:52.000Z</time>
      </trkpt>
      <trkpt lat="44.11294" lon="6.31219">
        <ele>950.1</ele>
        <time>2015-06-07T07:54:35.000Z</time>
      </trkpt>
      <trkpt lat="44.11293" lon="6.31214">
        <ele>949.9</ele>
        <time>2015-06-07T07:55:01.000Z</time>
      </trkpt>
      <trkpt lat="44.11294" lon="6.31217">
        <ele>950</ele>
        <time>2015-06-07T07:55:09.000Z</time>
      </trkpt>
      <trkpt lat="44.11296" lon="6.31224">
        <ele>950.2</ele>
        <time>2015-06-07T07:55:13.000Z</time>
      </trkpt>
      <trkpt lat="44.11305" lon="6.31256">
        <ele>948.3</ele>
        <time>2015-06-07T07:55:26.000Z</time>
      </trkpt>
      <trkpt lat="44.11298" lon="6.31275">
        <ele>950.3</ele>
        <time>2015-06-07T07:55:37.000Z</time>
      </trkpt>
      <trkpt lat="44.11288" lon="6.31289">
        <ele>953.7</ele>
        <time>2015-06-07T07:55:48.000Z</time>
      </trkpt>
      <trkpt lat="44.11283" lon="6.31296">
        <ele>955.3</ele>
        <time>2015-06-07T07:55:53.000Z</time>
      </trkpt>
      <trkpt lat="44.11275" lon="6.31315">
        <ele>957</ele>
        <time>2015-06-07T07:56:04.000Z</time>
      </trkpt>
      <trkpt lat="44.11273" lon="6.31318">
        <ele>957.3</ele>
        <time>2015-06-07T07:56:06.000Z</time>
      </trkpt>
      <trkpt lat="44.11268" lon="6.31323">
        <ele>958.3</ele>
        <time>2015-06-07T07:56:10.000Z</time>
      </trkpt>
      <trkpt lat="44.11262" lon="6.31328">
        <ele>959.9</ele>
        <time>2015-06-07T07:56:16.000Z</time>
      </trkpt>
      <trkpt lat="44.11256" lon="6.31342">
        <ele>961.1</ele>
        <time>2015-06-07T07:56:25.000Z</time>
      </trkpt>
      <trkpt lat="44.11253" lon="6.31352">
        <ele>961.3</ele>
        <time>2015-06-07T07:56:30.000Z</time>
      </trkpt>
      <trkpt lat="44.11252" lon="6.31365">
        <ele>961.1</ele>
        <time>2015-06-07T07:56:34.000Z</time>
      </trkpt>
      <trkpt lat="44.11255" lon="6.31375">
        <ele>959.6</ele>
        <time>2015-06-07T07:56:36.000Z</time>
      </trkpt>
      <trkpt lat="44.11258" lon="6.3139">
        <ele>957.7</ele>
        <time>2015-06-07T07:56:40.000Z</time>
      </trkpt>
      <trkpt lat="44.11256" lon="6.31399">
        <ele>957.8</ele>
        <time>2015-06-07T07:56:44.000Z</time>
      </trkpt>
      <trkpt lat="44.11249" lon="6.3141">
        <ele>958.7</ele>
        <time>2015-06-07T07:56:51.000Z</time>
      </trkpt>
      <trkpt lat="44.1124" lon="6.31431">
        <ele>959.9</ele>
        <time>2015-06-07T07:57:03.000Z</time>
      </trkpt>
      <trkpt lat="44.11233" lon="6.31449">
        <ele>960.5</ele>
        <time>2015-06-07T07:57:21.000Z</time>
      </trkpt>
      <trkpt lat="44.11227" lon="6.31463">
        <ele>961</ele>
        <time>2015-06-07T07:57:31.000Z</time>
      </trkpt>
      <trkpt lat="44.11218" lon="6.31486">
        <ele>963</ele>
        <time>2015-06-07T07:57:45.000Z</time>
      </trkpt>
      <trkpt lat="44.11221" lon="6.31483">
        <ele>962.1</ele>
        <time>2015-06-07T07:58:11.000Z</time>
      </trkpt>
      <trkpt lat="44.11216" lon="6.31483">
        <ele>963.4</ele>
        <time>2015-06-07T07:58:39.000Z</time>
      </trkpt>
      <trkpt lat="44.11216" lon="6.31484">
        <ele>963.6</ele>
        <time>2015-06-07T07:58:43.000Z</time>
      </trkpt>
      <trkpt lat="44.11219" lon="6.31489">
        <ele>962.9</ele>
        <time>2015-06-07T07:58:47.000Z</time>
      </trkpt>
      <trkpt lat="44.11247" lon="6.31497">
        <ele>961.7</ele>
        <time>2015-06-07T07:59:03.000Z</time>
      </trkpt>
      <trkpt lat="44.11276" lon="6.31522">
        <ele>962.8</ele>
        <time>2015-06-07T07:59:19.000Z</time>
      </trkpt>
      <trkpt lat="44.1131" lon="6.31535">
        <ele>961.7</ele>
        <time>2015-06-07T07:59:33.000Z</time>
      </trkpt>
      <trkpt lat="44.11349" lon="6.3153">
        <ele>961.1</ele>
        <time>2015-06-07T07:59:51.000Z</time>
      </trkpt>
      <trkpt lat="44.11385" lon="6.31528">
        <ele>962.8</ele>
        <time>2015-06-07T08:00:07.000Z</time>
      </trkpt>
      <trkpt lat="44.11416" lon="6.31502">
        <ele>962.3</ele>
        <time>2015-06-07T08:00:21.000Z</time>
      </trkpt>
      <trkpt lat="44.11418" lon="6.315">
        <ele>962.3</ele>
        <time>2015-06-07T08:00:22.000Z</time>
      </trkpt>
      <trkpt lat="44.11425" lon="6.31492">
        <ele>962</ele>
        <time>2015-06-07T08:00:37.000Z</time>
      </trkpt>
      <trkpt lat="44.11425" lon="6.31492">
        <ele>962.1</ele>
        <time>2015-06-07T08:01:11.000Z</time>
      </trkpt>
      <trkpt lat="44.11423" lon="6.31492">
        <ele>961.5</ele>
        <time>2015-06-07T08:01:51.000Z</time>
      </trkpt>
      <trkpt lat="44.11425" lon="6.31495">
        <ele>962.9</ele>
        <time>2015-06-07T08:02:21.000Z</time>
      </trkpt>
      <trkpt lat="44.11421" lon="6.31498">
        <ele>962.7</ele>
        <time>2015-06-07T08:02:38.000Z</time>
      </trkpt>
      <trkpt lat="44.11421" lon="6.31499">
        <ele>962.7</ele>
        <time>2015-06-07T08:02:39.000Z</time>
      </trkpt>
      <trkpt lat="44.11402" lon="6.31511">
        <ele>961.9</ele>
        <time>2015-06-07T08:02:51.000Z</time>
      </trkpt>
      <trkpt lat="44.11395" lon="6.31517">
        <ele>961.8</ele>
        <time>2015-06-07T08:02:56.000Z</time>
      </trkpt>
      <trkpt lat="44.11361" lon="6.31531">
        <ele>961.6</ele>
        <time>2015-06-07T08:03:14.000Z</time>
      </trkpt>
      <trkpt lat="44.11325" lon="6.31525">
        <ele>960</ele>
        <time>2015-06-07T08:03:24.000Z</time>
      </trkpt>
      <trkpt lat="44.11321" lon="6.31526">
        <ele>960.3</ele>
        <time>2015-06-07T08:03:25.000Z</time>
      </trkpt>
      <trkpt lat="44.11316" lon="6.31528">
        <ele>960.6</ele>
        <time>2015-06-07T08:03:26.000Z</time>
      </trkpt>
      <trkpt lat="44.11303" lon="6.31536">
        <ele>962</ele>
        <time>2015-06-07T08:03:29.000Z</time>
      </trkpt>
      <trkpt lat="44.11299" lon="6.31537">
        <ele>962.4</ele>
        <time>2015-06-07T08:03:30.000Z</time>
      </trkpt>
      <trkpt lat="44.11294" lon="6.31536">
        <ele>962.6</ele>
        <time>2015-06-07T08:03:31.000Z</time>
      </trkpt>
      <trkpt lat="44.11289" lon="6.31534">
        <ele>962.7</ele>
        <time>2015-06-07T08:03:32.000Z</time>
      </trkpt>
      <trkpt lat="44.11286" lon="6.31531">
        <ele>962.7</ele>
        <time>2015-06-07T08:03:33.000Z</time>
      </trkpt>
      <trkpt lat="44.11283" lon="6.31527">
        <ele>962.6</ele>
        <time>2015-06-07T08:03:34.000Z</time>
      </trkpt>
      <trkpt lat="44.11281" lon="6.31524">
        <ele>962.5</ele>
        <time>2015-06-07T08:03:35.000Z</time>
      </trkpt>
      <trkpt lat="44.11279" lon="6.31521">
        <ele>962.5</ele>
        <time>2015-06-07T08:03:36.000Z</time>
      </trkpt>
      <trkpt lat="44.11276" lon="6.31518">
        <ele>962.5</ele>
        <time>2015-06-07T08:03:37.000Z</time>
      </trkpt>
      <trkpt lat="44.11274" lon="6.31514">
        <ele>962.5</ele>
        <time>2015-06-07T08:03:38.000Z</time>
      </trkpt>
      <trkpt lat="44.11272" lon="6.3151">
        <ele>962.3</ele>
        <time>2015-06-07T08:03:39.000Z</time>
      </trkpt>
      <trkpt lat="44.11271" lon="6.31506">
        <ele>962</ele>
        <time>2015-06-07T08:03:40.000Z</time>
      </trkpt>
      <trkpt lat="44.11268" lon="6.31499">
        <ele>961.3</ele>
        <time>2015-06-07T08:03:42.000Z</time>
      </trkpt>
      <trkpt lat="44.11266" lon="6.31496">
        <ele>960.9</ele>
        <time>2015-06-07T08:03:43.000Z</time>
      </trkpt>
      <trkpt lat="44.11264" lon="6.31495">
        <ele>960.8</ele>
        <time>2015-06-07T08:03:44.000Z</time>
      </trkpt>
      <trkpt lat="44.11225" lon="6.31496">
        <ele>962.6</ele>
        <time>2015-06-07T08:03:56.000Z</time>
      </trkpt>
      <trkpt lat="44.11221" lon="6.31494">
        <ele>962.8</ele>
        <time>2015-06-07T08:03:57.000Z</time>
      </trkpt>
      <trkpt lat="44.11218" lon="6.3149">
        <ele>963.3</ele>
        <time>2015-06-07T08:03:58.000Z</time>
      </trkpt>
      <trkpt lat="44.11217" lon="6.31486">
        <ele>963.4</ele>
        <time>2015-06-07T08:03:59.000Z</time>
      </trkpt>
      <trkpt lat="44.11216" lon="6.3148">
        <ele>963.1</ele>
        <time>2015-06-07T08:04:00.000Z</time>
      </trkpt>
      <trkpt lat="44.11217" lon="6.31475">
        <ele>962.6</ele>
        <time>2015-06-07T08:04:01.000Z</time>
      </trkpt>
      <trkpt lat="44.1122" lon="6.31472">
        <ele>961.7</ele>
        <time>2015-06-07T08:04:02.000Z</time>
      </trkpt>
      <trkpt lat="44.11223" lon="6.31469">
        <ele>961.2</ele>
        <time>2015-06-07T08:04:03.000Z</time>
      </trkpt>
      <trkpt lat="44.11225" lon="6.31466">
        <ele>961</ele>
        <time>2015-06-07T08:04:04.000Z</time>
      </trkpt>
      <trkpt lat="44.11227" lon="6.31464">
        <ele>960.9</ele>
        <time>2015-06-07T08:04:05.000Z</time>
      </trkpt>
      <trkpt lat="44.11229" lon="6.31462">
        <ele>960.7</ele>
        <time>2015-06-07T08:04:06.000Z</time>
      </trkpt>
      <trkpt lat="44.11231" lon="6.31459">
        <ele>960.6</ele>
        <time>2015-06-07T08:04:07.000Z</time>
      </trkpt>
      <trkpt lat="44.11232" lon="6.31456">
        <ele>960.5</ele>
        <time>2015-06-07T08:04:08.000Z</time>
      </trkpt>
      <trkpt lat="44.11233" lon="6.31453">
        <ele>960.5</ele>
        <time>2015-06-07T08:04:09.000Z</time>
      </trkpt>
      <trkpt lat="44.11234" lon="6.3145">
        <ele>960.3</ele>
        <time>2015-06-07T08:04:10.000Z</time>
      </trkpt>
      <trkpt lat="44.11235" lon="6.31447">
        <ele>960.2</ele>
        <time>2015-06-07T08:04:11.000Z</time>
      </trkpt>
      <trkpt lat="44.11235" lon="6.31444">
        <ele>960.2</ele>
        <time>2015-06-07T08:04:12.000Z</time>
      </trkpt>
      <trkpt lat="44.11235" lon="6.31442">
        <ele>960.4</ele>
        <time>2015-06-07T08:04:13.000Z</time>
      </trkpt>
      <trkpt lat="44.11234" lon="6.3144">
        <ele>960.7</ele>
        <time>2015-06-07T08:04:14.000Z</time>
      </trkpt>
      <trkpt lat="44.11231" lon="6.31434">
        <ele>961.7</ele>
        <time>2015-06-07T08:04:17.000Z</time>
      </trkpt>
      <trkpt lat="44.11229" lon="6.3143">
        <ele>962.4</ele>
        <time>2015-06-07T08:04:19.000Z</time>
      </trkpt>
      <trkpt lat="44.11228" lon="6.31428">
        <ele>962.8</ele>
        <time>2015-06-07T08:04:20.000Z</time>
      </trkpt>
      <trkpt lat="44.11227" lon="6.31426">
        <ele>963.2</ele>
        <time>2015-06-07T08:04:21.000Z</time>
      </trkpt>
      <trkpt lat="44.11225" lon="6.31424">
        <ele>963.7</ele>
        <time>2015-06-07T08:04:22.000Z</time>
      </trkpt>
      <trkpt lat="44.11224" lon="6.31423">
        <ele>964.2</ele>
        <time>2015-06-07T08:04:23.000Z</time>
      </trkpt>
      <trkpt lat="44.11213" lon="6.31414">
        <ele>967</ele>
        <time>2015-06-07T08:04:30.000Z</time>
      </trkpt>
      <trkpt lat="44.11212" lon="6.31413">
        <ele>967.4</ele>
        <time>2015-06-07T08:04:31.000Z</time>
      </trkpt>
      <trkpt lat="44.11189" lon="6.31383">
        <ele>973.3</ele>
        <time>2015-06-07T08:04:48.000Z</time>
      </trkpt>
      <trkpt lat="44.11188" lon="6.31379">
        <ele>973.7</ele>
        <time>2015-06-07T08:04:50.000Z</time>
      </trkpt>
      <trkpt lat="44.11187" lon="6.31377">
        <ele>973.9</ele>
        <time>2015-06-07T08:04:51.000Z</time>
      </trkpt>
      <trkpt lat="44.11186" lon="6.31375">
        <ele>974.1</ele>
        <time>2015-06-07T08:04:52.000Z</time>
      </trkpt>
      <trkpt lat="44.11172" lon="6.31347">
        <ele>976.6</ele>
        <time>2015-06-07T08:05:07.000Z</time>
      </trkpt>
      <trkpt lat="44.11144" lon="6.3134">
        <ele>982.2</ele>
        <time>2015-06-07T08:05:24.000Z</time>
      </trkpt>
      <trkpt lat="44.11134" lon="6.31332">
        <ele>984.1</ele>
        <time>2015-06-07T08:05:31.000Z</time>
      </trkpt>
      <trkpt lat="44.11134" lon="6.31329">
        <ele>984</ele>
        <time>2015-06-07T08:05:32.000Z</time>
      </trkpt>
      <trkpt lat="44.11133" lon="6.31327">
        <ele>984</ele>
        <time>2015-06-07T08:05:33.000Z</time>
      </trkpt>
      <trkpt lat="44.11132" lon="6.31325">
        <ele>984.1</ele>
        <time>2015-06-07T08:05:34.000Z</time>
      </trkpt>
      <trkpt lat="44.11131" lon="6.31322">
        <ele>984.2</ele>
        <time>2015-06-07T08:05:35.000Z</time>
      </trkpt>
      <trkpt lat="44.11112" lon="6.31278">
        <ele>985.9</ele>
        <time>2015-06-07T08:05:54.000Z</time>
      </trkpt>
      <trkpt lat="44.11113" lon="6.31246">
        <ele>984.7</ele>
        <time>2015-06-07T08:06:08.000Z</time>
      </trkpt>
      <trkpt lat="44.11109" lon="6.31232">
        <ele>985.5</ele>
        <time>2015-06-07T08:06:15.000Z</time>
      </trkpt>
      <trkpt lat="44.11109" lon="6.31228">
        <ele>985.5</ele>
        <time>2015-06-07T08:06:17.000Z</time>
      </trkpt>
      <trkpt lat="44.11109" lon="6.31226">
        <ele>985.3</ele>
        <time>2015-06-07T08:06:18.000Z</time>
      </trkpt>
      <trkpt lat="44.1111" lon="6.31224">
        <ele>985.2</ele>
        <time>2015-06-07T08:06:19.000Z</time>
      </trkpt>
      <trkpt lat="44.1111" lon="6.31221">
        <ele>985.2</ele>
        <time>2015-06-07T08:06:20.000Z</time>
      </trkpt>
      <trkpt lat="44.1111" lon="6.31219">
        <ele>985.1</ele>
        <time>2015-06-07T08:06:21.000Z</time>
      </trkpt>
      <trkpt lat="44.11094" lon="6.3119">
        <ele>986.2</ele>
        <time>2015-06-07T08:06:38.000Z</time>
      </trkpt>
      <trkpt lat="44.1108" lon="6.31194">
        <ele>988.1</ele>
        <time>2015-06-07T08:06:46.000Z</time>
      </trkpt>
      <trkpt lat="44.11079" lon="6.31196">
        <ele>988.3</ele>
        <time>2015-06-07T08:06:47.000Z</time>
      </trkpt>
      <trkpt lat="44.11077" lon="6.31197">
        <ele>988.4</ele>
        <time>2015-06-07T08:06:48.000Z</time>
      </trkpt>
      <trkpt lat="44.11076" lon="6.31198">
        <ele>988.6</ele>
        <time>2015-06-07T08:06:49.000Z</time>
      </trkpt>
      <trkpt lat="44.11074" lon="6.312">
        <ele>988.8</ele>
        <time>2015-06-07T08:06:50.000Z</time>
      </trkpt>
      <trkpt lat="44.11073" lon="6.31202">
        <ele>989</ele>
        <time>2015-06-07T08:06:51.000Z</time>
      </trkpt>
      <trkpt lat="44.11059" lon="6.31221">
        <ele>991.6</ele>
        <time>2015-06-07T08:07:03.000Z</time>
      </trkpt>
      <trkpt lat="44.11053" lon="6.31225">
        <ele>992.6</ele>
        <time>2015-06-07T08:07:07.000Z</time>
      </trkpt>
      <trkpt lat="44.11052" lon="6.31225">
        <ele>992.7</ele>
        <time>2015-06-07T08:07:08.000Z</time>
      </trkpt>
      <trkpt lat="44.1105" lon="6.31227">
        <ele>993</ele>
        <time>2015-06-07T08:07:09.000Z</time>
      </trkpt>
      <trkpt lat="44.11048" lon="6.31228">
        <ele>993.3</ele>
        <time>2015-06-07T08:07:10.000Z</time>
      </trkpt>
      <trkpt lat="44.11047" lon="6.31229">
        <ele>993.6</ele>
        <time>2015-06-07T08:07:11.000Z</time>
      </trkpt>
      <trkpt lat="44.11045" lon="6.3123">
        <ele>993.9</ele>
        <time>2015-06-07T08:07:12.000Z</time>
      </trkpt>
      <trkpt lat="44.11014" lon="6.31244">
        <ele>998.4</ele>
        <time>2015-06-07T08:07:29.000Z</time>
      </trkpt>
      <trkpt lat="44.10989" lon="6.31249">
        <ele>1003.2</ele>
        <time>2015-06-07T08:07:44.000Z</time>
      </trkpt>
      <trkpt lat="44.1098" lon="6.31241">
        <ele>1003.7</ele>
        <time>2015-06-07T08:07:51.000Z</time>
      </trkpt>
      <trkpt lat="44.10974" lon="6.31235">
        <ele>1003.9</ele>
        <time>2015-06-07T08:07:56.000Z</time>
      </trkpt>
      <trkpt lat="44.10957" lon="6.31204">
        <ele>1006.5</ele>
        <time>2015-06-07T08:08:13.000Z</time>
      </trkpt>
      <trkpt lat="44.10941" lon="6.3118">
        <ele>1009.6</ele>
        <time>2015-06-07T08:08:27.000Z</time>
      </trkpt>
      <trkpt lat="44.10934" lon="6.31169">
        <ele>1011.1</ele>
        <time>2015-06-07T08:08:33.000Z</time>
      </trkpt>
      <trkpt lat="44.10933" lon="6.31167">
        <ele>1011.1</ele>
        <time>2015-06-07T08:08:34.000Z</time>
      </trkpt>
      <trkpt lat="44.10917" lon="6.31125">
        <ele>1011.8</ele>
        <time>2015-06-07T08:08:53.000Z</time>
      </trkpt>
      <trkpt lat="44.10899" lon="6.3109">
        <ele>1014.7</ele>
        <time>2015-06-07T08:09:11.000Z</time>
      </trkpt>
      <trkpt lat="44.10896" lon="6.31086">
        <ele>1015</ele>
        <time>2015-06-07T08:09:15.000Z</time>
      </trkpt>
      <trkpt lat="44.10895" lon="6.31084">
        <ele>1015.2</ele>
        <time>2015-06-07T08:09:16.000Z</time>
      </trkpt>
      <trkpt lat="44.10891" lon="6.31073">
        <ele>1016.2</ele>
        <time>2015-06-07T08:09:23.000Z</time>
      </trkpt>
      <trkpt lat="44.10875" lon="6.31031">
        <ele>1016.2</ele>
        <time>2015-06-07T08:09:43.000Z</time>
      </trkpt>
      <trkpt lat="44.10852" lon="6.31039">
        <ele>1016.3</ele>
        <time>2015-06-07T08:09:58.000Z</time>
      </trkpt>
      <trkpt lat="44.10856" lon="6.31065">
        <ele>1018.4</ele>
        <time>2015-06-07T08:10:08.000Z</time>
      </trkpt>
      <trkpt lat="44.10857" lon="6.31067">
        <ele>1018.8</ele>
        <time>2015-06-07T08:10:09.000Z</time>
      </trkpt>
      <trkpt lat="44.10858" lon="6.31069">
        <ele>1019.1</ele>
        <time>2015-06-07T08:10:10.000Z</time>
      </trkpt>
      <trkpt lat="44.10858" lon="6.31072">
        <ele>1019.4</ele>
        <time>2015-06-07T08:10:11.000Z</time>
      </trkpt>
      <trkpt lat="44.10859" lon="6.31074">
        <ele>1019.7</ele>
        <time>2015-06-07T08:10:12.000Z</time>
      </trkpt>
      <trkpt lat="44.10859" lon="6.31077">
        <ele>1020</ele>
        <time>2015-06-07T08:10:13.000Z</time>
      </trkpt>
      <trkpt lat="44.10861" lon="6.31113">
        <ele>1023.1</ele>
        <time>2015-06-07T08:10:28.000Z</time>
      </trkpt>
      <trkpt lat="44.1086" lon="6.3115">
        <ele>1025.5</ele>
        <time>2015-06-07T08:10:45.000Z</time>
      </trkpt>
      <trkpt lat="44.10867" lon="6.31189">
        <ele>1028.9</ele>
        <time>2015-06-07T08:11:03.000Z</time>
      </trkpt>
      <trkpt lat="44.10877" lon="6.31217">
        <ele>1031.3</ele>
        <time>2015-06-07T08:11:16.000Z</time>
      </trkpt>
      <trkpt lat="44.10876" lon="6.31219">
        <ele>1031.6</ele>
        <time>2015-06-07T08:11:17.000Z</time>
      </trkpt>
      <trkpt lat="44.10876" lon="6.31222">
        <ele>1031.9</ele>
        <time>2015-06-07T08:11:18.000Z</time>
      </trkpt>
      <trkpt lat="44.10876" lon="6.31224">
        <ele>1032</ele>
        <time>2015-06-07T08:11:19.000Z</time>
      </trkpt>
      <trkpt lat="44.10876" lon="6.31227">
        <ele>1032.2</ele>
        <time>2015-06-07T08:11:20.000Z</time>
      </trkpt>
      <trkpt lat="44.10876" lon="6.3123">
        <ele>1032.4</ele>
        <time>2015-06-07T08:11:21.000Z</time>
      </trkpt>
      <trkpt lat="44.10879" lon="6.31271">
        <ele>1035.1</ele>
        <time>2015-06-07T08:11:38.000Z</time>
      </trkpt>
      <trkpt lat="44.10877" lon="6.3132">
        <ele>1038.4</ele>
        <time>2015-06-07T08:11:57.000Z</time>
      </trkpt>
      <trkpt lat="44.10873" lon="6.31363">
        <ele>1041.3</ele>
        <time>2015-06-07T08:12:13.000Z</time>
      </trkpt>
      <trkpt lat="44.10868" lon="6.31401">
        <ele>1044.2</ele>
        <time>2015-06-07T08:12:28.000Z</time>
      </trkpt>
      <trkpt lat="44.1087" lon="6.31444">
        <ele>1046.5</ele>
        <time>2015-06-07T08:12:45.000Z</time>
      </trkpt>
      <trkpt lat="44.10866" lon="6.31489">
        <ele>1049.7</ele>
        <time>2015-06-07T08:13:02.000Z</time>
      </trkpt>
      <trkpt lat="44.10864" lon="6.31496">
        <ele>1050.3</ele>
        <time>2015-06-07T08:13:06.000Z</time>
      </trkpt>
      <trkpt lat="44.10863" lon="6.31498">
        <ele>1050.6</ele>
        <time>2015-06-07T08:13:07.000Z</time>
      </trkpt>
      <trkpt lat="44.10862" lon="6.31499">
        <ele>1050.8</ele>
        <time>2015-06-07T08:13:08.000Z</time>
      </trkpt>
      <trkpt lat="44.10862" lon="6.31501">
        <ele>1051</ele>
        <time>2015-06-07T08:13:09.000Z</time>
      </trkpt>
      <trkpt lat="44.10862" lon="6.31501">
        <ele>1051</ele>
        <time>2015-06-07T08:13:23.000Z</time>
      </trkpt>
      <trkpt lat="44.10866" lon="6.315">
        <ele>1050.2</ele>
        <time>2015-06-07T08:14:00.000Z</time>
      </trkpt>
      <trkpt lat="44.10861" lon="6.31503">
        <ele>1051.4</ele>
        <time>2015-06-07T08:14:32.000Z</time>
      </trkpt>
      <trkpt lat="44.10863" lon="6.31501">
        <ele>1050.9</ele>
        <time>2015-06-07T08:14:55.000Z</time>
      </trkpt>
      <trkpt lat="44.10861" lon="6.315">
        <ele>1051</ele>
        <time>2015-06-07T08:15:21.000Z</time>
      </trkpt>
      <trkpt lat="44.1086" lon="6.31499">
        <ele>1051.1</ele>
        <time>2015-06-07T08:15:22.000Z</time>
      </trkpt>
      <trkpt lat="44.10844" lon="6.31474">
        <ele>1052</ele>
        <time>2015-06-07T08:15:36.000Z</time>
      </trkpt>
      <trkpt lat="44.10816" lon="6.31476">
        <ele>1052.8</ele>
        <time>2015-06-07T08:15:52.000Z</time>
      </trkpt>
      <trkpt lat="44.108" lon="6.31507">
        <ele>1054.8</ele>
        <time>2015-06-07T08:16:09.000Z</time>
      </trkpt>
      <trkpt lat="44.10786" lon="6.31548">
        <ele>1058.3</ele>
        <time>2015-06-07T08:16:27.000Z</time>
      </trkpt>
      <trkpt lat="44.10781" lon="6.31559">
        <ele>1059.1</ele>
        <time>2015-06-07T08:16:33.000Z</time>
      </trkpt>
      <trkpt lat="44.1078" lon="6.31562">
        <ele>1059.4</ele>
        <time>2015-06-07T08:16:34.000Z</time>
      </trkpt>
      <trkpt lat="44.1078" lon="6.31564">
        <ele>1059.6</ele>
        <time>2015-06-07T08:16:35.000Z</time>
      </trkpt>
      <trkpt lat="44.10779" lon="6.31566">
        <ele>1059.7</ele>
        <time>2015-06-07T08:16:36.000Z</time>
      </trkpt>
      <trkpt lat="44.10778" lon="6.31569">
        <ele>1060</ele>
        <time>2015-06-07T08:16:37.000Z</time>
      </trkpt>
      <trkpt lat="44.10777" lon="6.31572">
        <ele>1060.2</ele>
        <time>2015-06-07T08:16:38.000Z</time>
      </trkpt>
      <trkpt lat="44.10776" lon="6.31574">
        <ele>1060.4</ele>
        <time>2015-06-07T08:16:39.000Z</time>
      </trkpt>
      <trkpt lat="44.10769" lon="6.31588">
        <ele>1061.3</ele>
        <time>2015-06-07T08:16:46.000Z</time>
      </trkpt>
      <trkpt lat="44.10768" lon="6.3159">
        <ele>1061.5</ele>
        <time>2015-06-07T08:16:47.000Z</time>
      </trkpt>
      <trkpt lat="44.10768" lon="6.31592">
        <ele>1061.7</ele>
        <time>2015-06-07T08:16:48.000Z</time>
      </trkpt>
      <trkpt lat="44.10767" lon="6.31593">
        <ele>1061.8</ele>
        <time>2015-06-07T08:16:49.000Z</time>
      </trkpt>
      <trkpt lat="44.10765" lon="6.31594">
        <ele>1061.8</ele>
        <time>2015-06-07T08:16:50.000Z</time>
      </trkpt>
      <trkpt lat="44.10754" lon="6.31611">
        <ele>1062.8</ele>
        <time>2015-06-07T08:17:00.000Z</time>
      </trkpt>
      <trkpt lat="44.10753" lon="6.31613">
        <ele>1063.1</ele>
        <time>2015-06-07T08:17:01.000Z</time>
      </trkpt>
      <trkpt lat="44.10751" lon="6.31615">
        <ele>1063.2</ele>
        <time>2015-06-07T08:17:02.000Z</time>
      </trkpt>
      <trkpt lat="44.1075" lon="6.31618">
        <ele>1063.4</ele>
        <time>2015-06-07T08:17:03.000Z</time>
      </trkpt>
      <trkpt lat="44.10749" lon="6.3162">
        <ele>1063.6</ele>
        <time>2015-06-07T08:17:04.000Z</time>
      </trkpt>
      <trkpt lat="44.10748" lon="6.31622">
        <ele>1063.7</ele>
        <time>2015-06-07T08:17:05.000Z</time>
      </trkpt>
      <trkpt lat="44.10746" lon="6.31624">
        <ele>1063.8</ele>
        <time>2015-06-07T08:17:06.000Z</time>
      </trkpt>
      <trkpt lat="44.10745" lon="6.31625">
        <ele>1063.9</ele>
        <time>2015-06-07T08:17:07.000Z</time>
      </trkpt>
      <trkpt lat="44.10744" lon="6.31627">
        <ele>1064</ele>
        <time>2015-06-07T08:17:08.000Z</time>
      </trkpt>
      <trkpt lat="44.10722" lon="6.31667">
        <ele>1065.9</ele>
        <time>2015-06-07T08:17:26.000Z</time>
      </trkpt>
      <trkpt lat="44.107" lon="6.31706">
        <ele>1066.7</ele>
        <time>2015-06-07T08:17:47.000Z</time>
      </trkpt>
      <trkpt lat="44.10684" lon="6.31732">
        <ele>1067.3</ele>
        <time>2015-06-07T08:17:59.000Z</time>
      </trkpt>
      <trkpt lat="44.10665" lon="6.31756">
        <ele>1066.9</ele>
        <time>2015-06-07T08:18:07.000Z</time>
      </trkpt>
      <trkpt lat="44.10661" lon="6.31759">
        <ele>1066.5</ele>
        <time>2015-06-07T08:18:08.000Z</time>
      </trkpt>
      <trkpt lat="44.10653" lon="6.31765">
        <ele>1065.5</ele>
        <time>2015-06-07T08:18:10.000Z</time>
      </trkpt>
      <trkpt lat="44.10649" lon="6.31769">
        <ele>1065.2</ele>
        <time>2015-06-07T08:18:11.000Z</time>
      </trkpt>
      <trkpt lat="44.10646" lon="6.31773">
        <ele>1065.1</ele>
        <time>2015-06-07T08:18:12.000Z</time>
      </trkpt>
      <trkpt lat="44.10619" lon="6.31805">
        <ele>1064.3</ele>
        <time>2015-06-07T08:18:23.000Z</time>
      </trkpt>
      <trkpt lat="44.10586" lon="6.3183">
        <ele>1061.7</ele>
        <time>2015-06-07T08:18:36.000Z</time>
      </trkpt>
      <trkpt lat="44.10577" lon="6.31834">
        <ele>1061.6</ele>
        <time>2015-06-07T08:18:49.000Z</time>
      </trkpt>
      <trkpt lat="44.1057" lon="6.31834">
        <ele>1061.1</ele>
        <time>2015-06-07T08:19:05.000Z</time>
      </trkpt>
      <trkpt lat="44.10568" lon="6.31838">
        <ele>1062.5</ele>
        <time>2015-06-07T08:19:36.000Z</time>
      </trkpt>
      <trkpt lat="44.10572" lon="6.31839">
        <ele>1062.9</ele>
        <time>2015-06-07T08:19:41.000Z</time>
      </trkpt>
      <trkpt lat="44.10573" lon="6.31839">
        <ele>1063.2</ele>
        <time>2015-06-07T08:19:42.000Z</time>
      </trkpt>
      <trkpt lat="44.10574" lon="6.31839">
        <ele>1063.4</ele>
        <time>2015-06-07T08:19:43.000Z</time>
      </trkpt>
      <trkpt lat="44.10578" lon="6.31845">
        <ele>1066</ele>
        <time>2015-06-07T08:19:52.000Z</time>
      </trkpt>
      <trkpt lat="44.10575" lon="6.31846">
        <ele>1065.8</ele>
        <time>2015-06-07T08:20:05.000Z</time>
      </trkpt>
      <trkpt lat="44.10576" lon="6.31847">
        <ele>1066.5</ele>
        <time>2015-06-07T08:20:42.000Z</time>
      </trkpt>
      <trkpt lat="44.10588" lon="6.31841">
        <ele>1066.1</ele>
        <time>2015-06-07T08:20:56.000Z</time>
      </trkpt>
      <trkpt lat="44.10587" lon="6.3184">
        <ele>1065.6</ele>
        <time>2015-06-07T08:21:04.000Z</time>
      </trkpt>
      <trkpt lat="44.10597" lon="6.31839">
        <ele>1067.3</ele>
        <time>2015-06-07T08:21:10.000Z</time>
      </trkpt>
      <trkpt lat="44.10605" lon="6.31842">
        <ele>1070</ele>
        <time>2015-06-07T08:21:14.000Z</time>
      </trkpt>
      <trkpt lat="44.10618" lon="6.31839">
        <ele>1072.4</ele>
        <time>2015-06-07T08:21:23.000Z</time>
      </trkpt>
      <trkpt lat="44.10622" lon="6.31835">
        <ele>1072.1</ele>
        <time>2015-06-07T08:21:34.000Z</time>
      </trkpt>
      <trkpt lat="44.10632" lon="6.31835">
        <ele>1075.2</ele>
        <time>2015-06-07T08:21:48.000Z</time>
      </trkpt>
      <trkpt lat="44.10633" lon="6.31835">
        <ele>1075.5</ele>
        <time>2015-06-07T08:21:49.000Z</time>
      </trkpt>
      <trkpt lat="44.10641" lon="6.31831">
        <ele>1077.2</ele>
        <time>2015-06-07T08:21:56.000Z</time>
      </trkpt>
      <trkpt lat="44.10645" lon="6.3183">
        <ele>1078.1</ele>
        <time>2015-06-07T08:21:59.000Z</time>
      </trkpt>
      <trkpt lat="44.1065" lon="6.31826">
        <ele>1078.4</ele>
        <time>2015-06-07T08:22:03.000Z</time>
      </trkpt>
      <trkpt lat="44.10663" lon="6.31812">
        <ele>1078.9</ele>
        <time>2015-06-07T08:22:19.000Z</time>
      </trkpt>
      <trkpt lat="44.10664" lon="6.31812">
        <ele>1078.9</ele>
        <time>2015-06-07T08:22:20.000Z</time>
      </trkpt>
      <trkpt lat="44.1067" lon="6.31809">
        <ele>1079.6</ele>
        <time>2015-06-07T08:22:25.000Z</time>
      </trkpt>
      <trkpt lat="44.10682" lon="6.31802">
        <ele>1080.9</ele>
        <time>2015-06-07T08:22:37.000Z</time>
      </trkpt>
      <trkpt lat="44.10691" lon="6.31803">
        <ele>1083.6</ele>
        <time>2015-06-07T08:22:45.000Z</time>
      </trkpt>
      <trkpt lat="44.10706" lon="6.31806">
        <ele>1087.1</ele>
        <time>2015-06-07T08:22:57.000Z</time>
      </trkpt>
      <trkpt lat="44.10718" lon="6.31798">
        <ele>1088</ele>
        <time>2015-06-07T08:23:09.000Z</time>
      </trkpt>
      <trkpt lat="44.10737" lon="6.31785">
        <ele>1088.3</ele>
        <time>2015-06-07T08:23:24.000Z</time>
      </trkpt>
      <trkpt lat="44.10743" lon="6.31781">
        <ele>1088.5</ele>
        <time>2015-06-07T08:23:34.000Z</time>
      </trkpt>
      <trkpt lat="44.10747" lon="6.31779">
        <ele>1088.8</ele>
        <time>2015-06-07T08:23:39.000Z</time>
      </trkpt>
      <trkpt lat="44.10753" lon="6.31783">
        <ele>1089.8</ele>
        <time>2015-06-07T08:23:45.000Z</time>
      </trkpt>
      <trkpt lat="44.10772" lon="6.31797">
        <ele>1092.5</ele>
        <time>2015-06-07T08:23:59.000Z</time>
      </trkpt>
      <trkpt lat="44.10778" lon="6.31803">
        <ele>1093.6</ele>
        <time>2015-06-07T08:24:04.000Z</time>
      </trkpt>
      <trkpt lat="44.10784" lon="6.3181">
        <ele>1094.1</ele>
        <time>2015-06-07T08:24:09.000Z</time>
      </trkpt>
      <trkpt lat="44.10787" lon="6.31815">
        <ele>1094.3</ele>
        <time>2015-06-07T08:24:12.000Z</time>
      </trkpt>
      <trkpt lat="44.10796" lon="6.31837">
        <ele>1095.9</ele>
        <time>2015-06-07T08:24:22.000Z</time>
      </trkpt>
      <trkpt lat="44.10799" lon="6.31851">
        <ele>1096.9</ele>
        <time>2015-06-07T08:24:27.000Z</time>
      </trkpt>
      <trkpt lat="44.10805" lon="6.31877">
        <ele>1098.2</ele>
        <time>2015-06-07T08:24:37.000Z</time>
      </trkpt>
      <trkpt lat="44.1081" lon="6.31919">
        <ele>1099.5</ele>
        <time>2015-06-07T08:24:51.000Z</time>
      </trkpt>
      <trkpt lat="44.10818" lon="6.31943">
        <ele>1099.2</ele>
        <time>2015-06-07T08:25:01.000Z</time>
      </trkpt>
      <trkpt lat="44.10819" lon="6.31944">
        <ele>1099</ele>
        <time>2015-06-07T08:25:02.000Z</time>
      </trkpt>
      <trkpt lat="44.1082" lon="6.31945">
        <ele>1098.9</ele>
        <time>2015-06-07T08:25:03.000Z</time>
      </trkpt>
      <trkpt lat="44.10822" lon="6.31947">
        <ele>1098.8</ele>
        <time>2015-06-07T08:25:04.000Z</time>
      </trkpt>
      <trkpt lat="44.10822" lon="6.31949">
        <ele>1098.9</ele>
        <time>2015-06-07T08:25:05.000Z</time>
      </trkpt>
      <trkpt lat="44.10822" lon="6.31952">
        <ele>1099</ele>
        <time>2015-06-07T08:25:06.000Z</time>
      </trkpt>
      <trkpt lat="44.10821" lon="6.31953">
        <ele>1099.3</ele>
        <time>2015-06-07T08:25:07.000Z</time>
      </trkpt>
      <trkpt lat="44.1082" lon="6.31955">
        <ele>1099.5</ele>
        <time>2015-06-07T08:25:08.000Z</time>
      </trkpt>
      <trkpt lat="44.10819" lon="6.31957">
        <ele>1099.7</ele>
        <time>2015-06-07T08:25:09.000Z</time>
      </trkpt>
      <trkpt lat="44.10819" lon="6.31959">
        <ele>1099.8</ele>
        <time>2015-06-07T08:25:10.000Z</time>
      </trkpt>
      <trkpt lat="44.1082" lon="6.31962">
        <ele>1099.9</ele>
        <time>2015-06-07T08:25:11.000Z</time>
      </trkpt>
      <trkpt lat="44.1082" lon="6.31965">
        <ele>1100</ele>
        <time>2015-06-07T08:25:12.000Z</time>
      </trkpt>
      <trkpt lat="44.1082" lon="6.31968">
        <ele>1100.1</ele>
        <time>2015-06-07T08:25:13.000Z</time>
      </trkpt>
      <trkpt lat="44.10821" lon="6.31971">
        <ele>1100.2</ele>
        <time>2015-06-07T08:25:14.000Z</time>
      </trkpt>
      <trkpt lat="44.10825" lon="6.32022">
        <ele>1101.5</ele>
        <time>2015-06-07T08:25:27.000Z</time>
      </trkpt>
      <trkpt lat="44.10825" lon="6.32024">
        <ele>1101.7</ele>
        <time>2015-06-07T08:25:28.000Z</time>
      </trkpt>
      <trkpt lat="44.10822" lon="6.32025">
        <ele>1102.4</ele>
        <time>2015-06-07T08:25:53.000Z</time>
      </trkpt>
      <trkpt lat="44.10821" lon="6.32028">
        <ele>1102.7</ele>
        <time>2015-06-07T08:26:30.000Z</time>
      </trkpt>
      <trkpt lat="44.10825" lon="6.32028">
        <ele>1101.8</ele>
        <time>2015-06-07T08:26:52.000Z</time>
      </trkpt>
      <trkpt lat="44.10825" lon="6.32029">
        <ele>1101.9</ele>
        <time>2015-06-07T08:26:53.000Z</time>
      </trkpt>
      <trkpt lat="44.10829" lon="6.32059">
        <ele>1104.1</ele>
        <time>2015-06-07T08:27:05.000Z</time>
      </trkpt>
      <trkpt lat="44.1083" lon="6.32065">
        <ele>1104.6</ele>
        <time>2015-06-07T08:27:07.000Z</time>
      </trkpt>
      <trkpt lat="44.1083" lon="6.32068">
        <ele>1105</ele>
        <time>2015-06-07T08:27:08.000Z</time>
      </trkpt>
      <trkpt lat="44.10829" lon="6.32071">
        <ele>1105.4</ele>
        <time>2015-06-07T08:27:09.000Z</time>
      </trkpt>
      <trkpt lat="44.10829" lon="6.32076">
        <ele>1106</ele>
        <time>2015-06-07T08:27:11.000Z</time>
      </trkpt>
      <trkpt lat="44.1083" lon="6.32078">
        <ele>1106.1</ele>
        <time>2015-06-07T08:27:12.000Z</time>
      </trkpt>
      <trkpt lat="44.10831" lon="6.32081">
        <ele>1106.2</ele>
        <time>2015-06-07T08:27:13.000Z</time>
      </trkpt>
      <trkpt lat="44.10832" lon="6.32084">
        <ele>1106.3</ele>
        <time>2015-06-07T08:27:14.000Z</time>
      </trkpt>
      <trkpt lat="44.10833" lon="6.32087">
        <ele>1106.5</ele>
        <time>2015-06-07T08:27:15.000Z</time>
      </trkpt>
      <trkpt lat="44.10834" lon="6.3209">
        <ele>1106.7</ele>
        <time>2015-06-07T08:27:16.000Z</time>
      </trkpt>
      <trkpt lat="44.10836" lon="6.32094">
        <ele>1106.9</ele>
        <time>2015-06-07T08:27:18.000Z</time>
      </trkpt>
      <trkpt lat="44.10838" lon="6.32095">
        <ele>1106.9</ele>
        <time>2015-06-07T08:27:19.000Z</time>
      </trkpt>
      <trkpt lat="44.10839" lon="6.32096">
        <ele>1106.8</ele>
        <time>2015-06-07T08:27:20.000Z</time>
      </trkpt>
      <trkpt lat="44.10841" lon="6.32097">
        <ele>1106.8</ele>
        <time>2015-06-07T08:27:21.000Z</time>
      </trkpt>
      <trkpt lat="44.10843" lon="6.32098">
        <ele>1106.8</ele>
        <time>2015-06-07T08:27:22.000Z</time>
      </trkpt>
      <trkpt lat="44.10844" lon="6.321">
        <ele>1106.8</ele>
        <time>2015-06-07T08:27:23.000Z</time>
      </trkpt>
      <trkpt lat="44.10846" lon="6.32101">
        <ele>1106.8</ele>
        <time>2015-06-07T08:27:24.000Z</time>
      </trkpt>
      <trkpt lat="44.10848" lon="6.32103">
        <ele>1106.7</ele>
        <time>2015-06-07T08:27:25.000Z</time>
      </trkpt>
      <trkpt lat="44.1085" lon="6.32104">
        <ele>1106.6</ele>
        <time>2015-06-07T08:27:26.000Z</time>
      </trkpt>
      <trkpt lat="44.10852" lon="6.32105">
        <ele>1106.4</ele>
        <time>2015-06-07T08:27:27.000Z</time>
      </trkpt>
      <trkpt lat="44.10868" lon="6.32108">
        <ele>1106</ele>
        <time>2015-06-07T08:27:36.000Z</time>
      </trkpt>
      <trkpt lat="44.1087" lon="6.32108">
        <ele>1106</ele>
        <time>2015-06-07T08:27:37.000Z</time>
      </trkpt>
      <trkpt lat="44.10871" lon="6.32107">
        <ele>1106</ele>
        <time>2015-06-07T08:27:38.000Z</time>
      </trkpt>
      <trkpt lat="44.10873" lon="6.32109">
        <ele>1106.3</ele>
        <time>2015-06-07T08:27:56.000Z</time>
      </trkpt>
      <trkpt lat="44.10873" lon="6.32106">
        <ele>1106</ele>
        <time>2015-06-07T08:28:29.000Z</time>
      </trkpt>
      <trkpt lat="44.10874" lon="6.32107">
        <ele>1106.1</ele>
        <time>2015-06-07T08:28:56.000Z</time>
      </trkpt>
      <trkpt lat="44.10873" lon="6.32108">
        <ele>1106.2</ele>
        <time>2015-06-07T08:29:30.000Z</time>
      </trkpt>
      <trkpt lat="44.10873" lon="6.3211">
        <ele>1106.3</ele>
        <time>2015-06-07T08:30:08.000Z</time>
      </trkpt>
      <trkpt lat="44.10868" lon="6.32106">
        <ele>1105.9</ele>
        <time>2015-06-07T08:30:48.000Z</time>
      </trkpt>
      <trkpt lat="44.10871" lon="6.32096">
        <ele>1105.1</ele>
        <time>2015-06-07T08:31:38.000Z</time>
      </trkpt>
      <trkpt lat="44.1087" lon="6.32099">
        <ele>1105.3</ele>
        <time>2015-06-07T08:32:33.000Z</time>
      </trkpt>
      <trkpt lat="44.10872" lon="6.32101">
        <ele>1105.6</ele>
        <time>2015-06-07T08:33:11.000Z</time>
      </trkpt>
      <trkpt lat="44.10875" lon="6.32103">
        <ele>1105.7</ele>
        <time>2015-06-07T08:33:55.000Z</time>
      </trkpt>
      <trkpt lat="44.10872" lon="6.321">
        <ele>1105.4</ele>
        <time>2015-06-07T08:34:34.000Z</time>
      </trkpt>
      <trkpt lat="44.10873" lon="6.32096">
        <ele>1105.1</ele>
        <time>2015-06-07T08:35:26.000Z</time>
      </trkpt>
      <trkpt lat="44.10869" lon="6.32097">
        <ele>1105.1</ele>
        <time>2015-06-07T08:36:15.000Z</time>
      </trkpt>
      <trkpt lat="44.10869" lon="6.32098">
        <ele>1105.2</ele>
        <time>2015-06-07T08:37:02.000Z</time>
      </trkpt>
      <trkpt lat="44.1087" lon="6.321">
        <ele>1105.4</ele>
        <time>2015-06-07T08:37:48.000Z</time>
      </trkpt>
      <trkpt lat="44.10873" lon="6.32106">
        <ele>1106</ele>
        <time>2015-06-07T08:38:08.000Z</time>
      </trkpt>
      <trkpt lat="44.10873" lon="6.32106">
        <ele>1105.9</ele>
        <time>2015-06-07T08:38:48.000Z</time>
      </trkpt>
      <trkpt lat="44.10871" lon="6.32108">
        <ele>1106.1</ele>
        <time>2015-06-07T08:39:25.000Z</time>
      </trkpt>
      <trkpt lat="44.1087" lon="6.32108">
        <ele>1106.1</ele>
        <time>2015-06-07T08:39:57.000Z</time>
      </trkpt>
      <trkpt lat="44.10875" lon="6.32108">
        <ele>1106.2</ele>
        <time>2015-06-07T08:40:29.000Z</time>
      </trkpt>
      <trkpt lat="44.10872" lon="6.32107">
        <ele>1106</ele>
        <time>2015-06-07T08:41:08.000Z</time>
      </trkpt>
      <trkpt lat="44.10873" lon="6.32107">
        <ele>1106.1</ele>
        <time>2015-06-07T08:41:58.000Z</time>
      </trkpt>
      <trkpt lat="44.1087" lon="6.32106">
        <ele>1105.9</ele>
        <time>2015-06-07T08:42:45.000Z</time>
      </trkpt>
      <trkpt lat="44.10873" lon="6.3211">
        <ele>1106.3</ele>
        <time>2015-06-07T08:43:18.000Z</time>
      </trkpt>
      <trkpt lat="44.10876" lon="6.32108">
        <ele>1106.3</ele>
        <time>2015-06-07T08:44:05.000Z</time>
      </trkpt>
      <trkpt lat="44.10876" lon="6.3211">
        <ele>1106.5</ele>
        <time>2015-06-07T08:44:43.000Z</time>
      </trkpt>
      <trkpt lat="44.10876" lon="6.32109">
        <ele>1106.3</ele>
        <time>2015-06-07T08:45:18.000Z</time>
      </trkpt>
      <trkpt lat="44.10874" lon="6.32106">
        <ele>1106</ele>
        <time>2015-06-07T08:45:35.000Z</time>
      </trkpt>
      <trkpt lat="44.10874" lon="6.32102">
        <ele>1105.6</ele>
        <time>2015-06-07T08:46:01.000Z</time>
      </trkpt>
      <trkpt lat="44.10876" lon="6.32101">
        <ele>1105.6</ele>
        <time>2015-06-07T08:46:02.000Z</time>
      </trkpt>
      <trkpt lat="44.10878" lon="6.321">
        <ele>1105.5</ele>
        <time>2015-06-07T08:46:03.000Z</time>
      </trkpt>
      <trkpt lat="44.10898" lon="6.32078">
        <ele>1103.7</ele>
        <time>2015-06-07T08:46:19.000Z</time>
      </trkpt>
      <trkpt lat="44.10902" lon="6.32074">
        <ele>1103.2</ele>
        <time>2015-06-07T08:46:37.000Z</time>
      </trkpt>
      <trkpt lat="44.10907" lon="6.32067">
        <ele>1102.5</ele>
        <time>2015-06-07T08:47:03.000Z</time>
      </trkpt>
      <trkpt lat="44.10916" lon="6.32056">
        <ele>1101.1</ele>
        <time>2015-06-07T08:47:14.000Z</time>
      </trkpt>
      <trkpt lat="44.10922" lon="6.32054">
        <ele>1100.7</ele>
        <time>2015-06-07T08:47:17.000Z</time>
      </trkpt>
      <trkpt lat="44.10924" lon="6.32056">
        <ele>1100.8</ele>
        <time>2015-06-07T08:47:18.000Z</time>
      </trkpt>
      <trkpt lat="44.10927" lon="6.32059">
        <ele>1101.1</ele>
        <time>2015-06-07T08:47:19.000Z</time>
      </trkpt>
      <trkpt lat="44.1093" lon="6.32063">
        <ele>1101.4</ele>
        <time>2015-06-07T08:47:20.000Z</time>
      </trkpt>
      <trkpt lat="44.10933" lon="6.32067">
        <ele>1101.7</ele>
        <time>2015-06-07T08:47:21.000Z</time>
      </trkpt>
      <trkpt lat="44.10937" lon="6.3207">
        <ele>1102</ele>
        <time>2015-06-07T08:47:22.000Z</time>
      </trkpt>
      <trkpt lat="44.10958" lon="6.32094">
        <ele>1102.7</ele>
        <time>2015-06-07T08:47:27.000Z</time>
      </trkpt>
      <trkpt lat="44.10963" lon="6.32099">
        <ele>1102.6</ele>
        <time>2015-06-07T08:47:28.000Z</time>
      </trkpt>
      <trkpt lat="44.10969" lon="6.32103">
        <ele>1102.3</ele>
        <time>2015-06-07T08:47:29.000Z</time>
      </trkpt>
      <trkpt lat="44.10975" lon="6.32105">
        <ele>1101.9</ele>
        <time>2015-06-07T08:47:30.000Z</time>
      </trkpt>
      <trkpt lat="44.10981" lon="6.32108">
        <ele>1101.6</ele>
        <time>2015-06-07T08:47:31.000Z</time>
      </trkpt>
      <trkpt lat="44.1099" lon="6.32112">
        <ele>1101.2</ele>
        <time>2015-06-07T08:47:33.000Z</time>
      </trkpt>
      <trkpt lat="44.10995" lon="6.32114">
        <ele>1101</ele>
        <time>2015-06-07T08:47:34.000Z</time>
      </trkpt>
      <trkpt lat="44.11" lon="6.32115">
        <ele>1100.7</ele>
        <time>2015-06-07T08:47:35.000Z</time>
      </trkpt>
      <trkpt lat="44.1102" lon="6.32119">
        <ele>1098.7</ele>
        <time>2015-06-07T08:47:39.000Z</time>
      </trkpt>
      <trkpt lat="44.11026" lon="6.32118">
        <ele>1098</ele>
        <time>2015-06-07T08:47:40.000Z</time>
      </trkpt>
      <trkpt lat="44.1103" lon="6.32115">
        <ele>1097.1</ele>
        <time>2015-06-07T08:47:41.000Z</time>
      </trkpt>
      <trkpt lat="44.1105" lon="6.32102">
        <ele>1094.4</ele>
        <time>2015-06-07T08:47:45.000Z</time>
      </trkpt>
      <trkpt lat="44.11054" lon="6.32103">
        <ele>1094.1</ele>
        <time>2015-06-07T08:47:46.000Z</time>
      </trkpt>
      <trkpt lat="44.11056" lon="6.32103">
        <ele>1093.7</ele>
        <time>2015-06-07T08:47:47.000Z</time>
      </trkpt>
      <trkpt lat="44.11058" lon="6.32105">
        <ele>1093.1</ele>
        <time>2015-06-07T08:47:48.000Z</time>
      </trkpt>
      <trkpt lat="44.11059" lon="6.32107">
        <ele>1092.8</ele>
        <time>2015-06-07T08:47:49.000Z</time>
      </trkpt>
      <trkpt lat="44.1106" lon="6.3211">
        <ele>1092.5</ele>
        <time>2015-06-07T08:47:50.000Z</time>
      </trkpt>
      <trkpt lat="44.1106" lon="6.32112">
        <ele>1092.2</ele>
        <time>2015-06-07T08:47:51.000Z</time>
      </trkpt>
      <trkpt lat="44.1106" lon="6.32116">
        <ele>1092</ele>
        <time>2015-06-07T08:47:52.000Z</time>
      </trkpt>
      <trkpt lat="44.11061" lon="6.32119">
        <ele>1091.6</ele>
        <time>2015-06-07T08:47:53.000Z</time>
      </trkpt>
      <trkpt lat="44.11061" lon="6.32124">
        <ele>1091.2</ele>
        <time>2015-06-07T08:47:54.000Z</time>
      </trkpt>
      <trkpt lat="44.11061" lon="6.3213">
        <ele>1090.9</ele>
        <time>2015-06-07T08:47:55.000Z</time>
      </trkpt>
      <trkpt lat="44.11061" lon="6.32136">
        <ele>1090.7</ele>
        <time>2015-06-07T08:47:56.000Z</time>
      </trkpt>
      <trkpt lat="44.11059" lon="6.32144">
        <ele>1090.7</ele>
        <time>2015-06-07T08:47:57.000Z</time>
      </trkpt>
      <trkpt lat="44.11058" lon="6.32152">
        <ele>1090.6</ele>
        <time>2015-06-07T08:47:58.000Z</time>
      </trkpt>
      <trkpt lat="44.11056" lon="6.32161">
        <ele>1090.3</ele>
        <time>2015-06-07T08:47:59.000Z</time>
      </trkpt>
      <trkpt lat="44.11055" lon="6.3217">
        <ele>1090.1</ele>
        <time>2015-06-07T08:48:00.000Z</time>
      </trkpt>
      <trkpt lat="44.11055" lon="6.3218">
        <ele>1090.2</ele>
        <time>2015-06-07T08:48:01.000Z</time>
      </trkpt>
      <trkpt lat="44.11055" lon="6.32191">
        <ele>1090</ele>
        <time>2015-06-07T08:48:02.000Z</time>
      </trkpt>
      <trkpt lat="44.11056" lon="6.322">
        <ele>1089.5</ele>
        <time>2015-06-07T08:48:03.000Z</time>
      </trkpt>
      <trkpt lat="44.11055" lon="6.32209">
        <ele>1089</ele>
        <time>2015-06-07T08:48:04.000Z</time>
      </trkpt>
      <trkpt lat="44.11055" lon="6.32218">
        <ele>1088.4</ele>
        <time>2015-06-07T08:48:05.000Z</time>
      </trkpt>
      <trkpt lat="44.11056" lon="6.32226">
        <ele>1087.3</ele>
        <time>2015-06-07T08:48:06.000Z</time>
      </trkpt>
      <trkpt lat="44.11056" lon="6.32232">
        <ele>1086.7</ele>
        <time>2015-06-07T08:48:07.000Z</time>
      </trkpt>
      <trkpt lat="44.11051" lon="6.32243">
        <ele>1086.5</ele>
        <time>2015-06-07T08:48:09.000Z</time>
      </trkpt>
      <trkpt lat="44.11048" lon="6.32249">
        <ele>1086.5</ele>
        <time>2015-06-07T08:48:10.000Z</time>
      </trkpt>
      <trkpt lat="44.11048" lon="6.32254">
        <ele>1086.5</ele>
        <time>2015-06-07T08:48:11.000Z</time>
      </trkpt>
      <trkpt lat="44.1105" lon="6.32258">
        <ele>1086.2</ele>
        <time>2015-06-07T08:48:12.000Z</time>
      </trkpt>
      <trkpt lat="44.11053" lon="6.32261">
        <ele>1085.6</ele>
        <time>2015-06-07T08:48:13.000Z</time>
      </trkpt>
      <trkpt lat="44.1107" lon="6.32279">
        <ele>1082.6</ele>
        <time>2015-06-07T08:48:20.000Z</time>
      </trkpt>
      <trkpt lat="44.1107" lon="6.32284">
        <ele>1083.3</ele>
        <time>2015-06-07T08:48:21.000Z</time>
      </trkpt>
      <trkpt lat="44.11072" lon="6.32288">
        <ele>1083.4</ele>
        <time>2015-06-07T08:48:22.000Z</time>
      </trkpt>
      <trkpt lat="44.11076" lon="6.32291">
        <ele>1083</ele>
        <time>2015-06-07T08:48:23.000Z</time>
      </trkpt>
      <trkpt lat="44.1108" lon="6.32293">
        <ele>1082.4</ele>
        <time>2015-06-07T08:48:24.000Z</time>
      </trkpt>
      <trkpt lat="44.11083" lon="6.32291">
        <ele>1081.4</ele>
        <time>2015-06-07T08:48:25.000Z</time>
      </trkpt>
      <trkpt lat="44.11087" lon="6.32288">
        <ele>1080.7</ele>
        <time>2015-06-07T08:48:26.000Z</time>
      </trkpt>
      <trkpt lat="44.11091" lon="6.32286">
        <ele>1080.2</ele>
        <time>2015-06-07T08:48:27.000Z</time>
      </trkpt>
      <trkpt lat="44.11095" lon="6.32284">
        <ele>1079.7</ele>
        <time>2015-06-07T08:48:28.000Z</time>
      </trkpt>
      <trkpt lat="44.11099" lon="6.32284">
        <ele>1079.4</ele>
        <time>2015-06-07T08:48:29.000Z</time>
      </trkpt>
      <trkpt lat="44.11102" lon="6.32285">
        <ele>1079.4</ele>
        <time>2015-06-07T08:48:30.000Z</time>
      </trkpt>
      <trkpt lat="44.11105" lon="6.32286">
        <ele>1079.5</ele>
        <time>2015-06-07T08:48:31.000Z</time>
      </trkpt>
      <trkpt lat="44.11108" lon="6.32288">
        <ele>1079.6</ele>
        <time>2015-06-07T08:48:32.000Z</time>
      </trkpt>
      <trkpt lat="44.11111" lon="6.3229">
        <ele>1079.7</ele>
        <time>2015-06-07T08:48:33.000Z</time>
      </trkpt>
      <trkpt lat="44.11113" lon="6.32292">
        <ele>1080</ele>
        <time>2015-06-07T08:48:34.000Z</time>
      </trkpt>
      <trkpt lat="44.11116" lon="6.32294">
        <ele>1080.3</ele>
        <time>2015-06-07T08:48:35.000Z</time>
      </trkpt>
      <trkpt lat="44.11121" lon="6.32299">
        <ele>1080.3</ele>
        <time>2015-06-07T08:48:38.000Z</time>
      </trkpt>
      <trkpt lat="44.11122" lon="6.323">
        <ele>1080.2</ele>
        <time>2015-06-07T08:48:39.000Z</time>
      </trkpt>
      <trkpt lat="44.11124" lon="6.323">
        <ele>1080.1</ele>
        <time>2015-06-07T08:48:40.000Z</time>
      </trkpt>
      <trkpt lat="44.11125" lon="6.323">
        <ele>1080</ele>
        <time>2015-06-07T08:48:55.000Z</time>
      </trkpt>
      <trkpt lat="44.11126" lon="6.323">
        <ele>1079.9</ele>
        <time>2015-06-07T08:49:02.000Z</time>
      </trkpt>
      <trkpt lat="44.11127" lon="6.32298">
        <ele>1079.9</ele>
        <time>2015-06-07T08:49:03.000Z</time>
      </trkpt>
      <trkpt lat="44.11127" lon="6.32296">
        <ele>1079.9</ele>
        <time>2015-06-07T08:49:04.000Z</time>
      </trkpt>
      <trkpt lat="44.11127" lon="6.32294">
        <ele>1080</ele>
        <time>2015-06-07T08:49:05.000Z</time>
      </trkpt>
      <trkpt lat="44.11128" lon="6.3229">
        <ele>1080</ele>
        <time>2015-06-07T08:49:18.000Z</time>
      </trkpt>
      <trkpt lat="44.11128" lon="6.3229">
        <ele>1080.1</ele>
        <time>2015-06-07T08:49:59.000Z</time>
      </trkpt>
      <trkpt lat="44.11124" lon="6.32295">
        <ele>1080</ele>
        <time>2015-06-07T08:50:05.000Z</time>
      </trkpt>
      <trkpt lat="44.11121" lon="6.32297">
        <ele>1080.2</ele>
        <time>2015-06-07T08:50:08.000Z</time>
      </trkpt>
      <trkpt lat="44.11118" lon="6.323">
        <ele>1080.6</ele>
        <time>2015-06-07T08:50:10.000Z</time>
      </trkpt>
      <trkpt lat="44.11115" lon="6.32302">
        <ele>1081</ele>
        <time>2015-06-07T08:50:12.000Z</time>
      </trkpt>
      <trkpt lat="44.11109" lon="6.32302">
        <ele>1081.6</ele>
        <time>2015-06-07T08:50:16.000Z</time>
      </trkpt>
      <trkpt lat="44.11108" lon="6.32301">
        <ele>1081.5</ele>
        <time>2015-06-07T08:50:32.000Z</time>
      </trkpt>
      <trkpt lat="44.11109" lon="6.32301">
        <ele>1081.5</ele>
        <time>2015-06-07T08:50:43.000Z</time>
      </trkpt>
      <trkpt lat="44.11124" lon="6.32301">
        <ele>1080.1</ele>
        <time>2015-06-07T08:50:49.000Z</time>
      </trkpt>
      <trkpt lat="44.11129" lon="6.32301">
        <ele>1079.6</ele>
        <time>2015-06-07T08:50:50.000Z</time>
      </trkpt>
      <trkpt lat="44.11132" lon="6.32303">
        <ele>1079.1</ele>
        <time>2015-06-07T08:50:51.000Z</time>
      </trkpt>
      <trkpt lat="44.11135" lon="6.32307">
        <ele>1078.3</ele>
        <time>2015-06-07T08:50:52.000Z</time>
      </trkpt>
      <trkpt lat="44.11138" lon="6.32309">
        <ele>1077.6</ele>
        <time>2015-06-07T08:50:53.000Z</time>
      </trkpt>
      <trkpt lat="44.1114" lon="6.3231">
        <ele>1077</ele>
        <time>2015-06-07T08:50:54.000Z</time>
      </trkpt>
      <trkpt lat="44.11143" lon="6.32313">
        <ele>1076.3</ele>
        <time>2015-06-07T08:50:55.000Z</time>
      </trkpt>
      <trkpt lat="44.11145" lon="6.32318">
        <ele>1075.4</ele>
        <time>2015-06-07T08:50:56.000Z</time>
      </trkpt>
      <trkpt lat="44.11147" lon="6.32323">
        <ele>1074.6</ele>
        <time>2015-06-07T08:50:57.000Z</time>
      </trkpt>
      <trkpt lat="44.11149" lon="6.32328">
        <ele>1074</ele>
        <time>2015-06-07T08:50:58.000Z</time>
      </trkpt>
      <trkpt lat="44.11151" lon="6.32334">
        <ele>1073.4</ele>
        <time>2015-06-07T08:50:59.000Z</time>
      </trkpt>
      <trkpt lat="44.11153" lon="6.3234">
        <ele>1073.2</ele>
        <time>2015-06-07T08:51:00.000Z</time>
      </trkpt>
      <trkpt lat="44.11155" lon="6.32347">
        <ele>1072.9</ele>
        <time>2015-06-07T08:51:01.000Z</time>
      </trkpt>
      <trkpt lat="44.11155" lon="6.32354">
        <ele>1072.6</ele>
        <time>2015-06-07T08:51:02.000Z</time>
      </trkpt>
      <trkpt lat="44.11156" lon="6.3236">
        <ele>1072.3</ele>
        <time>2015-06-07T08:51:03.000Z</time>
      </trkpt>
      <trkpt lat="44.11159" lon="6.32363">
        <ele>1072.1</ele>
        <time>2015-06-07T08:51:04.000Z</time>
      </trkpt>
      <trkpt lat="44.11171" lon="6.32367">
        <ele>1072.6</ele>
        <time>2015-06-07T08:51:07.000Z</time>
      </trkpt>
      <trkpt lat="44.1118" lon="6.32365">
        <ele>1073.8</ele>
        <time>2015-06-07T08:51:10.000Z</time>
      </trkpt>
      <trkpt lat="44.11182" lon="6.32365">
        <ele>1074.1</ele>
        <time>2015-06-07T08:51:11.000Z</time>
      </trkpt>
      <trkpt lat="44.11201" lon="6.32374">
        <ele>1076.4</ele>
        <time>2015-06-07T08:51:20.000Z</time>
      </trkpt>
      <trkpt lat="44.11208" lon="6.32372">
        <ele>1076.8</ele>
        <time>2015-06-07T08:51:23.000Z</time>
      </trkpt>
      <trkpt lat="44.11225" lon="6.32371">
        <ele>1077.7</ele>
        <time>2015-06-07T08:51:30.000Z</time>
      </trkpt>
      <trkpt lat="44.11251" lon="6.32365">
        <ele>1077.6</ele>
        <time>2015-06-07T08:51:41.000Z</time>
      </trkpt>
      <trkpt lat="44.1126" lon="6.32359">
        <ele>1077.6</ele>
        <time>2015-06-07T08:51:45.000Z</time>
      </trkpt>
      <trkpt lat="44.11271" lon="6.32359">
        <ele>1077.2</ele>
        <time>2015-06-07T08:51:51.000Z</time>
      </trkpt>
      <trkpt lat="44.11289" lon="6.32347">
        <ele>1076.8</ele>
        <time>2015-06-07T08:52:02.000Z</time>
      </trkpt>
      <trkpt lat="44.11309" lon="6.32344">
        <ele>1076.2</ele>
        <time>2015-06-07T08:52:10.000Z</time>
      </trkpt>
      <trkpt lat="44.11329" lon="6.32326">
        <ele>1077.7</ele>
        <time>2015-06-07T08:52:20.000Z</time>
      </trkpt>
      <trkpt lat="44.1134" lon="6.32313">
        <ele>1079.6</ele>
        <time>2015-06-07T08:52:27.000Z</time>
      </trkpt>
      <trkpt lat="44.11346" lon="6.32306">
        <ele>1081.3</ele>
        <time>2015-06-07T08:52:32.000Z</time>
      </trkpt>
      <trkpt lat="44.11367" lon="6.32305">
        <ele>1082.8</ele>
        <time>2015-06-07T08:52:44.000Z</time>
      </trkpt>
      <trkpt lat="44.11372" lon="6.32307">
        <ele>1082.3</ele>
        <time>2015-06-07T08:52:47.000Z</time>
      </trkpt>
      <trkpt lat="44.11376" lon="6.32301">
        <ele>1082.5</ele>
        <time>2015-06-07T08:52:51.000Z</time>
      </trkpt>
      <trkpt lat="44.11375" lon="6.32293">
        <ele>1082.5</ele>
        <time>2015-06-07T08:53:07.000Z</time>
      </trkpt>
      <trkpt lat="44.11374" lon="6.32292">
        <ele>1082.5</ele>
        <time>2015-06-07T08:53:23.000Z</time>
      </trkpt>
      <trkpt lat="44.11374" lon="6.32292">
        <ele>1082.5</ele>
        <time>2015-06-07T08:53:58.000Z</time>
      </trkpt>
      <trkpt lat="44.11371" lon="6.32295">
        <ele>1082.4</ele>
        <time>2015-06-07T08:54:41.000Z</time>
      </trkpt>
      <trkpt lat="44.11373" lon="6.32294">
        <ele>1082.5</ele>
        <time>2015-06-07T08:55:15.000Z</time>
      </trkpt>
      <trkpt lat="44.11373" lon="6.32293">
        <ele>1082.4</ele>
        <time>2015-06-07T08:55:54.000Z</time>
      </trkpt>
      <trkpt lat="44.11376" lon="6.32292">
        <ele>1082.5</ele>
        <time>2015-06-07T08:56:22.000Z</time>
      </trkpt>
      <trkpt lat="44.11376" lon="6.32293">
        <ele>1082.5</ele>
        <time>2015-06-07T08:56:40.000Z</time>
      </trkpt>
      <trkpt lat="44.11376" lon="6.32294">
        <ele>1082.5</ele>
        <time>2015-06-07T08:57:15.000Z</time>
      </trkpt>
      <trkpt lat="44.11376" lon="6.32291">
        <ele>1082.5</ele>
        <time>2015-06-07T08:57:48.000Z</time>
      </trkpt>
      <trkpt lat="44.11375" lon="6.32294">
        <ele>1082.5</ele>
        <time>2015-06-07T08:57:58.000Z</time>
      </trkpt>
      <trkpt lat="44.11389" lon="6.32288">
        <ele>1083.2</ele>
        <time>2015-06-07T08:58:02.000Z</time>
      </trkpt>
      <trkpt lat="44.11399" lon="6.323">
        <ele>1079.5</ele>
        <time>2015-06-07T08:58:05.000Z</time>
      </trkpt>
      <trkpt lat="44.11401" lon="6.3231">
        <ele>1077.7</ele>
        <time>2015-06-07T08:58:07.000Z</time>
      </trkpt>
      <trkpt lat="44.11397" lon="6.32331">
        <ele>1073.6</ele>
        <time>2015-06-07T08:58:11.000Z</time>
      </trkpt>
      <trkpt lat="44.11394" lon="6.32339">
        <ele>1072.1</ele>
        <time>2015-06-07T08:58:13.000Z</time>
      </trkpt>
      <trkpt lat="44.11389" lon="6.32353">
        <ele>1070</ele>
        <time>2015-06-07T08:58:17.000Z</time>
      </trkpt>
      <trkpt lat="44.1139" lon="6.32359">
        <ele>1068.3</ele>
        <time>2015-06-07T08:58:19.000Z</time>
      </trkpt>
      <trkpt lat="44.11395" lon="6.32374">
        <ele>1063.2</ele>
        <time>2015-06-07T08:58:23.000Z</time>
      </trkpt>
      <trkpt lat="44.114" lon="6.32382">
        <ele>1060.8</ele>
        <time>2015-06-07T08:58:25.000Z</time>
      </trkpt>
      <trkpt lat="44.11406" lon="6.32385">
        <ele>1059.8</ele>
        <time>2015-06-07T08:58:33.000Z</time>
      </trkpt>
      <trkpt lat="44.11418" lon="6.32389">
        <ele>1058.7</ele>
        <time>2015-06-07T08:58:37.000Z</time>
      </trkpt>
      <trkpt lat="44.11423" lon="6.32398">
        <ele>1056.5</ele>
        <time>2015-06-07T08:58:39.000Z</time>
      </trkpt>
      <trkpt lat="44.11426" lon="6.32407">
        <ele>1055.4</ele>
        <time>2015-06-07T08:58:41.000Z</time>
      </trkpt>
      <trkpt lat="44.11453" lon="6.32428">
        <ele>1052.8</ele>
        <time>2015-06-07T08:58:51.000Z</time>
      </trkpt>
      <trkpt lat="44.1146" lon="6.32429">
        <ele>1051.9</ele>
        <time>2015-06-07T08:58:53.000Z</time>
      </trkpt>
      <trkpt lat="44.11474" lon="6.32437">
        <ele>1050.7</ele>
        <time>2015-06-07T08:58:57.000Z</time>
      </trkpt>
      <trkpt lat="44.1148" lon="6.32453">
        <ele>1046.8</ele>
        <time>2015-06-07T08:59:02.000Z</time>
      </trkpt>
      <trkpt lat="44.11487" lon="6.32452">
        <ele>1045.8</ele>
        <time>2015-06-07T08:59:06.000Z</time>
      </trkpt>
      <trkpt lat="44.11496" lon="6.32449">
        <ele>1044.3</ele>
        <time>2015-06-07T08:59:10.000Z</time>
      </trkpt>
      <trkpt lat="44.11512" lon="6.3246">
        <ele>1035.7</ele>
        <time>2015-06-07T08:59:19.000Z</time>
      </trkpt>
      <trkpt lat="44.11518" lon="6.32455">
        <ele>1033.7</ele>
        <time>2015-06-07T08:59:21.000Z</time>
      </trkpt>
      <trkpt lat="44.1152" lon="6.32452">
        <ele>1033.4</ele>
        <time>2015-06-07T08:59:22.000Z</time>
      </trkpt>
      <trkpt lat="44.11523" lon="6.3245">
        <ele>1032.6</ele>
        <time>2015-06-07T08:59:23.000Z</time>
      </trkpt>
      <trkpt lat="44.11537" lon="6.32442">
        <ele>1029.2</ele>
        <time>2015-06-07T08:59:27.000Z</time>
      </trkpt>
      <trkpt lat="44.11547" lon="6.32437">
        <ele>1026.5</ele>
        <time>2015-06-07T08:59:29.000Z</time>
      </trkpt>
      <trkpt lat="44.11558" lon="6.32434">
        <ele>1023.7</ele>
        <time>2015-06-07T08:59:32.000Z</time>
      </trkpt>
      <trkpt lat="44.1156" lon="6.32434">
        <ele>1023.2</ele>
        <time>2015-06-07T08:59:33.000Z</time>
      </trkpt>
      <trkpt lat="44.11562" lon="6.32436">
        <ele>1022.7</ele>
        <time>2015-06-07T08:59:45.000Z</time>
      </trkpt>
      <trkpt lat="44.11561" lon="6.32436">
        <ele>1022.9</ele>
        <time>2015-06-07T09:00:20.000Z</time>
      </trkpt>
      <trkpt lat="44.11561" lon="6.32434">
        <ele>1023</ele>
        <time>2015-06-07T09:01:18.000Z</time>
      </trkpt>
      <trkpt lat="44.1156" lon="6.32435">
        <ele>1023.2</ele>
        <time>2015-06-07T09:02:05.000Z</time>
      </trkpt>
      <trkpt lat="44.11561" lon="6.32435">
        <ele>1022.8</ele>
        <time>2015-06-07T09:02:28.000Z</time>
      </trkpt>
      <trkpt lat="44.11562" lon="6.32433">
        <ele>1022.7</ele>
        <time>2015-06-07T09:02:47.000Z</time>
      </trkpt>
      <trkpt lat="44.11562" lon="6.32433">
        <ele>1022.7</ele>
        <time>2015-06-07T09:02:48.000Z</time>
      </trkpt>
      <trkpt lat="44.11569" lon="6.3242">
        <ele>1022.7</ele>
        <time>2015-06-07T09:02:52.000Z</time>
      </trkpt>
      <trkpt lat="44.11575" lon="6.32404">
        <ele>1021.8</ele>
        <time>2015-06-07T09:02:55.000Z</time>
      </trkpt>
      <trkpt lat="44.1158" lon="6.32396">
        <ele>1021.2</ele>
        <time>2015-06-07T09:02:57.000Z</time>
      </trkpt>
      <trkpt lat="44.11595" lon="6.32408">
        <ele>1019.6</ele>
        <time>2015-06-07T09:03:01.000Z</time>
      </trkpt>
      <trkpt lat="44.11604" lon="6.32419">
        <ele>1018.1</ele>
        <time>2015-06-07T09:03:03.000Z</time>
      </trkpt>
      <trkpt lat="44.1161" lon="6.32421">
        <ele>1017</ele>
        <time>2015-06-07T09:03:04.000Z</time>
      </trkpt>
      <trkpt lat="44.11621" lon="6.3242">
        <ele>1016.3</ele>
        <time>2015-06-07T09:03:06.000Z</time>
      </trkpt>
      <trkpt lat="44.11634" lon="6.3242">
        <ele>1015.4</ele>
        <time>2015-06-07T09:03:09.000Z</time>
      </trkpt>
      <trkpt lat="44.11653" lon="6.32426">
        <ele>1012.7</ele>
        <time>2015-06-07T09:03:13.000Z</time>
      </trkpt>
      <trkpt lat="44.11661" lon="6.32409">
        <ele>1013.9</ele>
        <time>2015-06-07T09:03:17.000Z</time>
      </trkpt>
      <trkpt lat="44.1166" lon="6.32393">
        <ele>1013</ele>
        <time>2015-06-07T09:03:19.000Z</time>
      </trkpt>
      <trkpt lat="44.1166" lon="6.32388">
        <ele>1012.7</ele>
        <time>2015-06-07T09:03:20.000Z</time>
      </trkpt>
      <trkpt lat="44.11661" lon="6.32364">
        <ele>1012.6</ele>
        <time>2015-06-07T09:03:23.000Z</time>
      </trkpt>
      <trkpt lat="44.11663" lon="6.32355">
        <ele>1012.1</ele>
        <time>2015-06-07T09:03:25.000Z</time>
      </trkpt>
      <trkpt lat="44.11662" lon="6.32357">
        <ele>1012.3</ele>
        <time>2015-06-07T09:03:36.000Z</time>
      </trkpt>
      <trkpt lat="44.1166" lon="6.3236">
        <ele>1012.7</ele>
        <time>2015-06-07T09:03:46.000Z</time>
      </trkpt>
      <trkpt lat="44.11657" lon="6.32361">
        <ele>1013</ele>
        <time>2015-06-07T09:03:55.000Z</time>
      </trkpt>
      <trkpt lat="44.11655" lon="6.32358">
        <ele>1013.1</ele>
        <time>2015-06-07T09:04:08.000Z</time>
      </trkpt>
      <trkpt lat="44.11653" lon="6.32359">
        <ele>1013.3</ele>
        <time>2015-06-07T09:04:40.000Z</time>
      </trkpt>
      <trkpt lat="44.11653" lon="6.3236">
        <ele>1013.4</ele>
        <time>2015-06-07T09:05:10.000Z</time>
      </trkpt>
      <trkpt lat="44.11651" lon="6.3236">
        <ele>1013.7</ele>
        <time>2015-06-07T09:05:40.000Z</time>
      </trkpt>
      <trkpt lat="44.11648" lon="6.3236">
        <ele>1013.9</ele>
        <time>2015-06-07T09:06:18.000Z</time>
      </trkpt>
      <trkpt lat="44.11649" lon="6.32359">
        <ele>1013.8</ele>
        <time>2015-06-07T09:06:43.000Z</time>
      </trkpt>
      <trkpt lat="44.11651" lon="6.3236">
        <ele>1013.7</ele>
        <time>2015-06-07T09:06:45.000Z</time>
      </trkpt>
      <trkpt lat="44.11657" lon="6.32361">
        <ele>1013</ele>
        <time>2015-06-07T09:06:50.000Z</time>
      </trkpt>
      <trkpt lat="44.1167" lon="6.32359">
        <ele>1011.6</ele>
        <time>2015-06-07T09:07:13.000Z</time>
      </trkpt>
      <trkpt lat="44.11682" lon="6.32354">
        <ele>1010.4</ele>
        <time>2015-06-07T09:07:16.000Z</time>
      </trkpt>
      <trkpt lat="44.11696" lon="6.32343">
        <ele>1009.4</ele>
        <time>2015-06-07T09:07:19.000Z</time>
      </trkpt>
      <trkpt lat="44.11725" lon="6.3233">
        <ele>1006.9</ele>
        <time>2015-06-07T09:07:24.000Z</time>
      </trkpt>
      <trkpt lat="44.11739" lon="6.32326">
        <ele>1006.4</ele>
        <time>2015-06-07T09:07:26.000Z</time>
      </trkpt>
      <trkpt lat="44.11744" lon="6.32324">
        <ele>1006.2</ele>
        <time>2015-06-07T09:07:27.000Z</time>
      </trkpt>
      <trkpt lat="44.1177" lon="6.32323">
        <ele>1003.1</ele>
        <time>2015-06-07T09:07:31.000Z</time>
      </trkpt>
      <trkpt lat="44.11793" lon="6.32298">
        <ele>999.5</ele>
        <time>2015-06-07T09:07:37.000Z</time>
      </trkpt>
      <trkpt lat="44.11808" lon="6.32288">
        <ele>997.1</ele>
        <time>2015-06-07T09:07:39.000Z</time>
      </trkpt>
      <trkpt lat="44.11822" lon="6.32281">
        <ele>995.3</ele>
        <time>2015-06-07T09:07:42.000Z</time>
      </trkpt>
      <trkpt lat="44.1183" lon="6.3226">
        <ele>996.1</ele>
        <time>2015-06-07T09:07:45.000Z</time>
      </trkpt>
      <trkpt lat="44.11838" lon="6.32244">
        <ele>996.1</ele>
        <time>2015-06-07T09:07:48.000Z</time>
      </trkpt>
      <trkpt lat="44.11844" lon="6.32235">
        <ele>995.7</ele>
        <time>2015-06-07T09:07:50.000Z</time>
      </trkpt>
      <trkpt lat="44.11848" lon="6.32232">
        <ele>995.6</ele>
        <time>2015-06-07T09:07:51.000Z</time>
      </trkpt>
      <trkpt lat="44.11868" lon="6.32216">
        <ele>995.9</ele>
        <time>2015-06-07T09:07:56.000Z</time>
      </trkpt>
      <trkpt lat="44.11877" lon="6.32208">
        <ele>996.2</ele>
        <time>2015-06-07T09:08:00.000Z</time>
      </trkpt>
      <trkpt lat="44.11877" lon="6.32208">
        <ele>996.2</ele>
        <time>2015-06-07T09:08:01.000Z</time>
      </trkpt>
      <trkpt lat="44.11878" lon="6.32209">
        <ele>995.7</ele>
        <time>2015-06-07T09:08:18.000Z</time>
      </trkpt>
      <trkpt lat="44.11878" lon="6.3221">
        <ele>995.5</ele>
        <time>2015-06-07T09:08:21.000Z</time>
      </trkpt>
      <trkpt lat="44.11866" lon="6.32218">
        <ele>996.1</ele>
        <time>2015-06-07T09:08:25.000Z</time>
      </trkpt>
      <trkpt lat="44.11844" lon="6.32235">
        <ele>995.6</ele>
        <time>2015-06-07T09:08:29.000Z</time>
      </trkpt>
      <trkpt lat="44.11831" lon="6.32259">
        <ele>996.2</ele>
        <time>2015-06-07T09:08:34.000Z</time>
      </trkpt>
      <trkpt lat="44.11829" lon="6.32262">
        <ele>996</ele>
        <time>2015-06-07T09:08:36.000Z</time>
      </trkpt>
      <trkpt lat="44.11827" lon="6.32266">
        <ele>996</ele>
        <time>2015-06-07T09:08:37.000Z</time>
      </trkpt>
      <trkpt lat="44.11819" lon="6.32286">
        <ele>994.9</ele>
        <time>2015-06-07T09:08:40.000Z</time>
      </trkpt>
      <trkpt lat="44.1181" lon="6.32291">
        <ele>996.4</ele>
        <time>2015-06-07T09:08:43.000Z</time>
      </trkpt>
      <trkpt lat="44.11805" lon="6.3229">
        <ele>997.8</ele>
        <time>2015-06-07T09:08:44.000Z</time>
      </trkpt>
      <trkpt lat="44.11788" lon="6.32302">
        <ele>1000.8</ele>
        <time>2015-06-07T09:08:52.000Z</time>
      </trkpt>
      <trkpt lat="44.11787" lon="6.32303">
        <ele>1001.2</ele>
        <time>2015-06-07T09:08:58.000Z</time>
      </trkpt>
      <trkpt lat="44.11781" lon="6.32282">
        <ele>999.7</ele>
        <time>2015-06-07T09:09:03.000Z</time>
      </trkpt>
      <trkpt lat="44.11764" lon="6.32284">
        <ele>1001.5</ele>
        <time>2015-06-07T09:09:08.000Z</time>
      </trkpt>
      <trkpt lat="44.11756" lon="6.32293">
        <ele>1003.6</ele>
        <time>2015-06-07T09:09:15.000Z</time>
      </trkpt>
      <trkpt lat="44.11755" lon="6.32298">
        <ele>1004.6</ele>
        <time>2015-06-07T09:09:22.000Z</time>
      </trkpt>
      <trkpt lat="44.11765" lon="6.32318">
        <ele>1004.2</ele>
        <time>2015-06-07T09:09:31.000Z</time>
      </trkpt>
      <trkpt lat="44.11768" lon="6.32321">
        <ele>1003.6</ele>
        <time>2015-06-07T09:09:33.000Z</time>
      </trkpt>
      <trkpt lat="44.11747" lon="6.32324">
        <ele>1006.1</ele>
        <time>2015-06-07T09:09:43.000Z</time>
      </trkpt>
      <trkpt lat="44.11745" lon="6.32324">
        <ele>1006.2</ele>
        <time>2015-06-07T09:09:44.000Z</time>
      </trkpt>
      <trkpt lat="44.11724" lon="6.32331">
        <ele>1006.9</ele>
        <time>2015-06-07T09:09:49.000Z</time>
      </trkpt>
      <trkpt lat="44.11713" lon="6.32335">
        <ele>1007.7</ele>
        <time>2015-06-07T09:09:53.000Z</time>
      </trkpt>
      <trkpt lat="44.11709" lon="6.32336">
        <ele>1008</ele>
        <time>2015-06-07T09:09:55.000Z</time>
      </trkpt>
      <trkpt lat="44.11691" lon="6.32346">
        <ele>1009.8</ele>
        <time>2015-06-07T09:10:03.000Z</time>
      </trkpt>
      <trkpt lat="44.11666" lon="6.32359">
        <ele>1012</ele>
        <time>2015-06-07T09:10:15.000Z</time>
      </trkpt>
      <trkpt lat="44.11646" lon="6.32382">
        <ele>1014.2</ele>
        <time>2015-06-07T09:10:24.000Z</time>
      </trkpt>
      <trkpt lat="44.11645" lon="6.32383">
        <ele>1014.3</ele>
        <time>2015-06-07T09:10:25.000Z</time>
      </trkpt>
      <trkpt lat="44.11652" lon="6.32399">
        <ele>1014.1</ele>
        <time>2015-06-07T09:10:31.000Z</time>
      </trkpt>
      <trkpt lat="44.11657" lon="6.32403">
        <ele>1013.9</ele>
        <time>2015-06-07T09:10:33.000Z</time>
      </trkpt>
      <trkpt lat="44.11659" lon="6.32417">
        <ele>1014.5</ele>
        <time>2015-06-07T09:10:38.000Z</time>
      </trkpt>
      <trkpt lat="44.11657" lon="6.32421">
        <ele>1013.6</ele>
        <time>2015-06-07T09:10:42.000Z</time>
      </trkpt>
      <trkpt lat="44.11651" lon="6.32424">
        <ele>1013.3</ele>
        <time>2015-06-07T09:10:57.000Z</time>
      </trkpt>
      <trkpt lat="44.11651" lon="6.32425">
        <ele>1013</ele>
        <time>2015-06-07T09:11:25.000Z</time>
      </trkpt>
      <trkpt lat="44.11652" lon="6.32426">
        <ele>1012.7</ele>
        <time>2015-06-07T09:11:43.000Z</time>
      </trkpt>
      <trkpt lat="44.1166" lon="6.32417">
        <ele>1014.4</ele>
        <time>2015-06-07T09:11:48.000Z</time>
      </trkpt>
      <trkpt lat="44.11661" lon="6.32403">
        <ele>1013.5</ele>
        <time>2015-06-07T09:11:50.000Z</time>
      </trkpt>
      <trkpt lat="44.11659" lon="6.32389">
        <ele>1012.8</ele>
        <time>2015-06-07T09:11:52.000Z</time>
      </trkpt>
      <trkpt lat="44.1166" lon="6.32373">
        <ele>1012.7</ele>
        <time>2015-06-07T09:11:54.000Z</time>
      </trkpt>
      <trkpt lat="44.11664" lon="6.32357">
        <ele>1012.1</ele>
        <time>2015-06-07T09:11:56.000Z</time>
      </trkpt>
      <trkpt lat="44.11673" lon="6.32356">
        <ele>1011.2</ele>
        <time>2015-06-07T09:11:58.000Z</time>
      </trkpt>
      <trkpt lat="44.11684" lon="6.32353">
        <ele>1010.2</ele>
        <time>2015-06-07T09:12:05.000Z</time>
      </trkpt>
      <trkpt lat="44.11691" lon="6.32348">
        <ele>1009.7</ele>
        <time>2015-06-07T09:12:09.000Z</time>
      </trkpt>
      <trkpt lat="44.11709" lon="6.32337">
        <ele>1008</ele>
        <time>2015-06-07T09:12:13.000Z</time>
      </trkpt>
      <trkpt lat="44.1172" lon="6.32333">
        <ele>1007.2</ele>
        <time>2015-06-07T09:12:15.000Z</time>
      </trkpt>
      <trkpt lat="44.11742" lon="6.32325">
        <ele>1006.3</ele>
        <time>2015-06-07T09:12:18.000Z</time>
      </trkpt>
      <trkpt lat="44.11748" lon="6.32324">
        <ele>1006.1</ele>
        <time>2015-06-07T09:12:19.000Z</time>
      </trkpt>
      <trkpt lat="44.11776" lon="6.32321">
        <ele>1002.6</ele>
        <time>2015-06-07T09:12:23.000Z</time>
      </trkpt>
      <trkpt lat="44.11794" lon="6.32296">
        <ele>999.2</ele>
        <time>2015-06-07T09:12:28.000Z</time>
      </trkpt>
      <trkpt lat="44.11811" lon="6.32288">
        <ele>996.5</ele>
        <time>2015-06-07T09:12:30.000Z</time>
      </trkpt>
      <trkpt lat="44.1182" lon="6.32283">
        <ele>995.4</ele>
        <time>2015-06-07T09:12:32.000Z</time>
      </trkpt>
      <trkpt lat="44.11829" lon="6.3226">
        <ele>996.2</ele>
        <time>2015-06-07T09:12:35.000Z</time>
      </trkpt>
      <trkpt lat="44.11836" lon="6.32248">
        <ele>996.5</ele>
        <time>2015-06-07T09:12:37.000Z</time>
      </trkpt>
      <trkpt lat="44.11843" lon="6.32235">
        <ele>995.7</ele>
        <time>2015-06-07T09:12:39.000Z</time>
      </trkpt>
      <trkpt lat="44.1185" lon="6.3223">
        <ele>995.7</ele>
        <time>2015-06-07T09:12:41.000Z</time>
      </trkpt>
      <trkpt lat="44.11868" lon="6.32216">
        <ele>996</ele>
        <time>2015-06-07T09:12:45.000Z</time>
      </trkpt>
      <trkpt lat="44.11878" lon="6.3221">
        <ele>995.4</ele>
        <time>2015-06-07T09:12:49.000Z</time>
      </trkpt>
      <trkpt lat="44.11882" lon="6.32209">
        <ele>995.2</ele>
        <time>2015-06-07T09:13:05.000Z</time>
      </trkpt>
      <trkpt lat="44.11883" lon="6.32208">
        <ele>995.5</ele>
        <time>2015-06-07T09:13:36.000Z</time>
      </trkpt>
      <trkpt lat="44.11884" lon="6.32206">
        <ele>995.7</ele>
        <time>2015-06-07T09:13:52.000Z</time>
      </trkpt>
      <trkpt lat="44.11884" lon="6.32205">
        <ele>996.3</ele>
        <time>2015-06-07T09:14:18.000Z</time>
      </trkpt>
      <trkpt lat="44.11885" lon="6.32205">
        <ele>996.1</ele>
        <time>2015-06-07T09:14:26.000Z</time>
      </trkpt>
      <trkpt lat="44.11885" lon="6.32187">
        <ele>999.7</ele>
        <time>2015-06-07T09:14:32.000Z</time>
      </trkpt>
      <trkpt lat="44.11874" lon="6.32167">
        <ele>1000.1</ele>
        <time>2015-06-07T09:14:41.000Z</time>
      </trkpt>
      <trkpt lat="44.11868" lon="6.32146">
        <ele>1001.3</ele>
        <time>2015-06-07T09:14:47.000Z</time>
      </trkpt>
      <trkpt lat="44.11867" lon="6.32143">
        <ele>1001.5</ele>
        <time>2015-06-07T09:14:48.000Z</time>
      </trkpt>
      <trkpt lat="44.11871" lon="6.32134">
        <ele>1000.3</ele>
        <time>2015-06-07T09:15:03.000Z</time>
      </trkpt>
      <trkpt lat="44.11878" lon="6.3213">
        <ele>997.6</ele>
        <time>2015-06-07T09:15:15.000Z</time>
      </trkpt>
      <trkpt lat="44.11882" lon="6.32133">
        <ele>996.9</ele>
        <time>2015-06-07T09:15:17.000Z</time>
      </trkpt>
      <trkpt lat="44.11893" lon="6.32136">
        <ele>994.4</ele>
        <time>2015-06-07T09:15:22.000Z</time>
      </trkpt>
      <trkpt lat="44.11899" lon="6.32133">
        <ele>991.8</ele>
        <time>2015-06-07T09:15:24.000Z</time>
      </trkpt>
      <trkpt lat="44.119" lon="6.32132">
        <ele>991.1</ele>
        <time>2015-06-07T09:15:37.000Z</time>
      </trkpt>
      <trkpt lat="44.119" lon="6.32132">
        <ele>991.1</ele>
        <time>2015-06-07T09:16:01.000Z</time>
      </trkpt>
      <trkpt lat="44.119" lon="6.32133">
        <ele>991.6</ele>
        <time>2015-06-07T09:16:38.000Z</time>
      </trkpt>
      <trkpt lat="44.119" lon="6.32133">
        <ele>991.4</ele>
        <time>2015-06-07T09:17:27.000Z</time>
      </trkpt>
      <trkpt lat="44.11902" lon="6.32132">
        <ele>990.7</ele>
        <time>2015-06-07T09:17:59.000Z</time>
      </trkpt>
      <trkpt lat="44.119" lon="6.32135">
        <ele>991.9</ele>
        <time>2015-06-07T09:18:39.000Z</time>
      </trkpt>
      <trkpt lat="44.119" lon="6.32134">
        <ele>991.7</ele>
        <time>2015-06-07T09:19:02.000Z</time>
      </trkpt>
      <trkpt lat="44.11902" lon="6.32135">
        <ele>991.3</ele>
        <time>2015-06-07T09:19:43.000Z</time>
      </trkpt>
      <trkpt lat="44.11901" lon="6.32135">
        <ele>991.7</ele>
        <time>2015-06-07T09:20:34.000Z</time>
      </trkpt>
      <trkpt lat="44.11902" lon="6.32133">
        <ele>990.9</ele>
        <time>2015-06-07T09:20:58.000Z</time>
      </trkpt>
      <trkpt lat="44.119" lon="6.32134">
        <ele>991.7</ele>
        <time>2015-06-07T09:21:16.000Z</time>
      </trkpt>
      <trkpt lat="44.11901" lon="6.32132">
        <ele>991.1</ele>
        <time>2015-06-07T09:22:01.000Z</time>
      </trkpt>
      <trkpt lat="44.11901" lon="6.32133">
        <ele>991.1</ele>
        <time>2015-06-07T09:22:08.000Z</time>
      </trkpt>
      <trkpt lat="44.11906" lon="6.3213">
        <ele>988.8</ele>
        <time>2015-06-07T09:22:11.000Z</time>
      </trkpt>
      <trkpt lat="44.11913" lon="6.3213">
        <ele>986.8</ele>
        <time>2015-06-07T09:22:14.000Z</time>
      </trkpt>
      <trkpt lat="44.11925" lon="6.32129">
        <ele>983.6</ele>
        <time>2015-06-07T09:22:21.000Z</time>
      </trkpt>
      <trkpt lat="44.11934" lon="6.32118">
        <ele>980.9</ele>
        <time>2015-06-07T09:22:25.000Z</time>
      </trkpt>
      <trkpt lat="44.11944" lon="6.32116">
        <ele>979.1</ele>
        <time>2015-06-07T09:22:30.000Z</time>
      </trkpt>
      <trkpt lat="44.1195" lon="6.3211">
        <ele>977</ele>
        <time>2015-06-07T09:22:34.000Z</time>
      </trkpt>
      <trkpt lat="44.11954" lon="6.32099">
        <ele>974.2</ele>
        <time>2015-06-07T09:22:36.000Z</time>
      </trkpt>
      <trkpt lat="44.11958" lon="6.32087">
        <ele>971.6</ele>
        <time>2015-06-07T09:22:38.000Z</time>
      </trkpt>
      <trkpt lat="44.11973" lon="6.32093">
        <ele>970.4</ele>
        <time>2015-06-07T09:22:42.000Z</time>
      </trkpt>
      <trkpt lat="44.11989" lon="6.32107">
        <ele>970.9</ele>
        <time>2015-06-07T09:22:48.000Z</time>
      </trkpt>
      <trkpt lat="44.11997" lon="6.32108">
        <ele>971</ele>
        <time>2015-06-07T09:22:52.000Z</time>
      </trkpt>
      <trkpt lat="44.12001" lon="6.32109">
        <ele>971</ele>
        <time>2015-06-07T09:22:54.000Z</time>
      </trkpt>
      <trkpt lat="44.12016" lon="6.32109">
        <ele>970.5</ele>
        <time>2015-06-07T09:23:03.000Z</time>
      </trkpt>
      <trkpt lat="44.12021" lon="6.32111">
        <ele>970.2</ele>
        <time>2015-06-07T09:23:05.000Z</time>
      </trkpt>
      <trkpt lat="44.1203" lon="6.3213">
        <ele>965.5</ele>
        <time>2015-06-07T09:23:10.000Z</time>
      </trkpt>
      <trkpt lat="44.12032" lon="6.32133">
        <ele>964.6</ele>
        <time>2015-06-07T09:23:11.000Z</time>
      </trkpt>
      <trkpt lat="44.12032" lon="6.32133">
        <ele>964.6</ele>
        <time>2015-06-07T09:23:24.000Z</time>
      </trkpt>
      <trkpt lat="44.12037" lon="6.32143">
        <ele>961.3</ele>
        <time>2015-06-07T09:23:35.000Z</time>
      </trkpt>
      <trkpt lat="44.12051" lon="6.3215">
        <ele>958</ele>
        <time>2015-06-07T09:23:40.000Z</time>
      </trkpt>
      <trkpt lat="44.12067" lon="6.32166">
        <ele>954.2</ele>
        <time>2015-06-07T09:23:44.000Z</time>
      </trkpt>
      <trkpt lat="44.121" lon="6.32177">
        <ele>952.5</ele>
        <time>2015-06-07T09:23:51.000Z</time>
      </trkpt>
      <trkpt lat="44.12123" lon="6.32187">
        <ele>951.6</ele>
        <time>2015-06-07T09:23:59.000Z</time>
      </trkpt>
      <trkpt lat="44.12145" lon="6.32197">
        <ele>950.9</ele>
        <time>2015-06-07T09:24:04.000Z</time>
      </trkpt>
      <trkpt lat="44.12158" lon="6.32198">
        <ele>950.9</ele>
        <time>2015-06-07T09:24:08.000Z</time>
      </trkpt>
      <trkpt lat="44.12162" lon="6.32179">
        <ele>953.9</ele>
        <time>2015-06-07T09:24:13.000Z</time>
      </trkpt>
      <trkpt lat="44.12164" lon="6.32174">
        <ele>954.7</ele>
        <time>2015-06-07T09:24:15.000Z</time>
      </trkpt>
      <trkpt lat="44.12163" lon="6.32166">
        <ele>955.7</ele>
        <time>2015-06-07T09:24:20.000Z</time>
      </trkpt>
      <trkpt lat="44.12163" lon="6.32166">
        <ele>955.6</ele>
        <time>2015-06-07T09:24:37.000Z</time>
      </trkpt>
      <trkpt lat="44.12164" lon="6.32166">
        <ele>955.7</ele>
        <time>2015-06-07T09:25:04.000Z</time>
      </trkpt>
      <trkpt lat="44.12162" lon="6.32163">
        <ele>955.4</ele>
        <time>2015-06-07T09:25:18.000Z</time>
      </trkpt>
      <trkpt lat="44.12157" lon="6.32152">
        <ele>955</ele>
        <time>2015-06-07T09:25:21.000Z</time>
      </trkpt>
      <trkpt lat="44.12144" lon="6.32118">
        <ele>952.7</ele>
        <time>2015-06-07T09:25:26.000Z</time>
      </trkpt>
      <trkpt lat="44.12127" lon="6.32085">
        <ele>950.5</ele>
        <time>2015-06-07T09:25:31.000Z</time>
      </trkpt>
      <trkpt lat="44.12114" lon="6.32067">
        <ele>949.2</ele>
        <time>2015-06-07T09:25:34.000Z</time>
      </trkpt>
      <trkpt lat="44.1211" lon="6.32059">
        <ele>948.7</ele>
        <time>2015-06-07T09:25:35.000Z</time>
      </trkpt>
      <trkpt lat="44.12096" lon="6.32023">
        <ele>948</ele>
        <time>2015-06-07T09:25:40.000Z</time>
      </trkpt>
      <trkpt lat="44.12092" lon="6.32007">
        <ele>947.9</ele>
        <time>2015-06-07T09:25:42.000Z</time>
      </trkpt>
      <trkpt lat="44.12084" lon="6.3198">
        <ele>948.1</ele>
        <time>2015-06-07T09:25:49.000Z</time>
      </trkpt>
      <trkpt lat="44.1208" lon="6.31966">
        <ele>949.3</ele>
        <time>2015-06-07T09:25:54.000Z</time>
      </trkpt>
      <trkpt lat="44.1207" lon="6.31943">
        <ele>949.7</ele>
        <time>2015-06-07T09:26:05.000Z</time>
      </trkpt>
      <trkpt lat="44.12062" lon="6.31935">
        <ele>949.8</ele>
        <time>2015-06-07T09:26:09.000Z</time>
      </trkpt>
      <trkpt lat="44.12053" lon="6.31929">
        <ele>949</ele>
        <time>2015-06-07T09:26:11.000Z</time>
      </trkpt>
      <trkpt lat="44.12038" lon="6.3192">
        <ele>946.2</ele>
        <time>2015-06-07T09:26:16.000Z</time>
      </trkpt>
      <trkpt lat="44.12026" lon="6.31915">
        <ele>945.2</ele>
        <time>2015-06-07T09:26:20.000Z</time>
      </trkpt>
      <trkpt lat="44.12016" lon="6.31894">
        <ele>945.9</ele>
        <time>2015-06-07T09:26:26.000Z</time>
      </trkpt>
      <trkpt lat="44.12011" lon="6.31889">
        <ele>946.4</ele>
        <time>2015-06-07T09:26:28.000Z</time>
      </trkpt>
      <trkpt lat="44.12002" lon="6.31869">
        <ele>946.3</ele>
        <time>2015-06-07T09:26:33.000Z</time>
      </trkpt>
      <trkpt lat="44.11993" lon="6.31863">
        <ele>947</ele>
        <time>2015-06-07T09:26:36.000Z</time>
      </trkpt>
      <trkpt lat="44.11984" lon="6.3185">
        <ele>947.3</ele>
        <time>2015-06-07T09:26:39.000Z</time>
      </trkpt>
      <trkpt lat="44.11982" lon="6.31844">
        <ele>947.4</ele>
        <time>2015-06-07T09:26:40.000Z</time>
      </trkpt>
      <trkpt lat="44.11977" lon="6.31813">
        <ele>949.9</ele>
        <time>2015-06-07T09:26:50.000Z</time>
      </trkpt>
      <trkpt lat="44.11975" lon="6.31803">
        <ele>951</ele>
        <time>2015-06-07T09:26:54.000Z</time>
      </trkpt>
      <trkpt lat="44.11975" lon="6.31774">
        <ele>951.1</ele>
        <time>2015-06-07T09:27:06.000Z</time>
      </trkpt>
      <trkpt lat="44.11972" lon="6.31767">
        <ele>950.9</ele>
        <time>2015-06-07T09:27:10.000Z</time>
      </trkpt>
      <trkpt lat="44.11946" lon="6.31758">
        <ele>949.9</ele>
        <time>2015-06-07T09:27:17.000Z</time>
      </trkpt>
      <trkpt lat="44.11942" lon="6.31756">
        <ele>949.1</ele>
        <time>2015-06-07T09:27:18.000Z</time>
      </trkpt>
      <trkpt lat="44.11931" lon="6.31751">
        <ele>945.8</ele>
        <time>2015-06-07T09:27:21.000Z</time>
      </trkpt>
      <trkpt lat="44.11929" lon="6.31749">
        <ele>945</ele>
        <time>2015-06-07T09:27:22.000Z</time>
      </trkpt>
      <trkpt lat="44.11918" lon="6.3175">
        <ele>943.4</ele>
        <time>2015-06-07T09:27:26.000Z</time>
      </trkpt>
      <trkpt lat="44.11907" lon="6.31745">
        <ele>942.9</ele>
        <time>2015-06-07T09:27:30.000Z</time>
      </trkpt>
      <trkpt lat="44.11904" lon="6.31741">
        <ele>942.3</ele>
        <time>2015-06-07T09:27:38.000Z</time>
      </trkpt>
      <trkpt lat="44.11893" lon="6.31741">
        <ele>942.8</ele>
        <time>2015-06-07T09:27:42.000Z</time>
      </trkpt>
      <trkpt lat="44.11891" lon="6.31725">
        <ele>939.6</ele>
        <time>2015-06-07T09:27:47.000Z</time>
      </trkpt>
      <trkpt lat="44.11891" lon="6.3171">
        <ele>939.8</ele>
        <time>2015-06-07T09:27:53.000Z</time>
      </trkpt>
      <trkpt lat="44.1189" lon="6.31689">
        <ele>941.2</ele>
        <time>2015-06-07T09:28:03.000Z</time>
      </trkpt>
      <trkpt lat="44.1189" lon="6.31687">
        <ele>941.4</ele>
        <time>2015-06-07T09:28:08.000Z</time>
      </trkpt>
      <trkpt lat="44.1189" lon="6.31677">
        <ele>942</ele>
        <time>2015-06-07T09:28:16.000Z</time>
      </trkpt>
      <trkpt lat="44.11887" lon="6.31669">
        <ele>943.3</ele>
        <time>2015-06-07T09:28:23.000Z</time>
      </trkpt>
      <trkpt lat="44.11876" lon="6.31659">
        <ele>947.6</ele>
        <time>2015-06-07T09:28:37.000Z</time>
      </trkpt>
      <trkpt lat="44.11874" lon="6.31654">
        <ele>948.8</ele>
        <time>2015-06-07T09:28:41.000Z</time>
      </trkpt>
      <trkpt lat="44.1187" lon="6.3165">
        <ele>950.5</ele>
        <time>2015-06-07T09:28:46.000Z</time>
      </trkpt>
      <trkpt lat="44.1187" lon="6.31649">
        <ele>951</ele>
        <time>2015-06-07T09:28:48.000Z</time>
      </trkpt>
      <trkpt lat="44.11868" lon="6.31633">
        <ele>954.2</ele>
        <time>2015-06-07T09:29:02.000Z</time>
      </trkpt>
      <trkpt lat="44.11869" lon="6.31632">
        <ele>954.3</ele>
        <time>2015-06-07T09:29:03.000Z</time>
      </trkpt>
      <trkpt lat="44.11873" lon="6.31624">
        <ele>954.5</ele>
        <time>2015-06-07T09:29:10.000Z</time>
      </trkpt>
      <trkpt lat="44.11876" lon="6.31602">
        <ele>955.2</ele>
        <time>2015-06-07T09:29:27.000Z</time>
      </trkpt>
      <trkpt lat="44.11867" lon="6.3158">
        <ele>958.1</ele>
        <time>2015-06-07T09:29:46.000Z</time>
      </trkpt>
      <trkpt lat="44.11843" lon="6.3157">
        <ele>961.1</ele>
        <time>2015-06-07T09:30:01.000Z</time>
      </trkpt>
      <trkpt lat="44.11829" lon="6.31564">
        <ele>961.9</ele>
        <time>2015-06-07T09:30:06.000Z</time>
      </trkpt>
      <trkpt lat="44.1182" lon="6.31563">
        <ele>962.3</ele>
        <time>2015-06-07T09:30:08.000Z</time>
      </trkpt>
      <trkpt lat="44.1181" lon="6.31541">
        <ele>961</ele>
        <time>2015-06-07T09:30:14.000Z</time>
      </trkpt>
      <trkpt lat="44.11811" lon="6.31516">
        <ele>959.5</ele>
        <time>2015-06-07T09:30:22.000Z</time>
      </trkpt>
      <trkpt lat="44.11804" lon="6.31472">
        <ele>958.2</ele>
        <time>2015-06-07T09:30:35.000Z</time>
      </trkpt>
      <trkpt lat="44.11774" lon="6.31451">
        <ele>957.8</ele>
        <time>2015-06-07T09:30:42.000Z</time>
      </trkpt>
      <trkpt lat="44.1177" lon="6.31446">
        <ele>957.6</ele>
        <time>2015-06-07T09:30:43.000Z</time>
      </trkpt>
      <trkpt lat="44.11769" lon="6.3141">
        <ele>953.4</ele>
        <time>2015-06-07T09:30:50.000Z</time>
      </trkpt>
      <trkpt lat="44.11768" lon="6.31406">
        <ele>953.3</ele>
        <time>2015-06-07T09:30:51.000Z</time>
      </trkpt>
      <trkpt lat="44.11748" lon="6.31369">
        <ele>953.3</ele>
        <time>2015-06-07T09:31:03.000Z</time>
      </trkpt>
      <trkpt lat="44.11749" lon="6.31363">
        <ele>953.1</ele>
        <time>2015-06-07T09:31:04.000Z</time>
      </trkpt>
      <trkpt lat="44.11751" lon="6.31357">
        <ele>952.7</ele>
        <time>2015-06-07T09:31:05.000Z</time>
      </trkpt>
      <trkpt lat="44.11754" lon="6.31352">
        <ele>952.3</ele>
        <time>2015-06-07T09:31:06.000Z</time>
      </trkpt>
      <trkpt lat="44.11758" lon="6.31347">
        <ele>952</ele>
        <time>2015-06-07T09:31:07.000Z</time>
      </trkpt>
      <trkpt lat="44.11763" lon="6.31338">
        <ele>951.6</ele>
        <time>2015-06-07T09:31:09.000Z</time>
      </trkpt>
      <trkpt lat="44.1177" lon="6.31318">
        <ele>952.5</ele>
        <time>2015-06-07T09:31:16.000Z</time>
      </trkpt>
      <trkpt lat="44.11771" lon="6.31316">
        <ele>952.7</ele>
        <time>2015-06-07T09:31:17.000Z</time>
      </trkpt>
      <trkpt lat="44.11773" lon="6.31297">
        <ele>953.7</ele>
        <time>2015-06-07T09:31:26.000Z</time>
      </trkpt>
      <trkpt lat="44.11774" lon="6.31295">
        <ele>953.9</ele>
        <time>2015-06-07T09:31:27.000Z</time>
      </trkpt>
      <trkpt lat="44.11774" lon="6.31293">
        <ele>953.9</ele>
        <time>2015-06-07T09:31:28.000Z</time>
      </trkpt>
      <trkpt lat="44.11774" lon="6.3129">
        <ele>954</ele>
        <time>2015-06-07T09:31:29.000Z</time>
      </trkpt>
      <trkpt lat="44.11774" lon="6.31288">
        <ele>954.1</ele>
        <time>2015-06-07T09:31:30.000Z</time>
      </trkpt>
      <trkpt lat="44.11774" lon="6.31285">
        <ele>954.2</ele>
        <time>2015-06-07T09:31:31.000Z</time>
      </trkpt>
      <trkpt lat="44.11774" lon="6.31283">
        <ele>954.3</ele>
        <time>2015-06-07T09:31:32.000Z</time>
      </trkpt>
      <trkpt lat="44.11774" lon="6.31281">
        <ele>954.4</ele>
        <time>2015-06-07T09:31:33.000Z</time>
      </trkpt>
      <trkpt lat="44.11776" lon="6.3127">
        <ele>955.1</ele>
        <time>2015-06-07T09:31:50.000Z</time>
      </trkpt>
      <trkpt lat="44.11777" lon="6.31271">
        <ele>955.2</ele>
        <time>2015-06-07T09:32:29.000Z</time>
      </trkpt>
      <trkpt lat="44.11777" lon="6.31272">
        <ele>955.1</ele>
        <time>2015-06-07T09:33:09.000Z</time>
      </trkpt>
      <trkpt lat="44.11777" lon="6.3127">
        <ele>955.2</ele>
        <time>2015-06-07T09:33:49.000Z</time>
      </trkpt>
      <trkpt lat="44.11777" lon="6.31267">
        <ele>955.3</ele>
        <time>2015-06-07T09:34:19.000Z</time>
      </trkpt>
      <trkpt lat="44.11802" lon="6.31246">
        <ele>956.4</ele>
        <time>2015-06-07T09:34:36.000Z</time>
      </trkpt>
      <trkpt lat="44.11826" lon="6.31254">
        <ele>957.9</ele>
        <time>2015-06-07T09:34:49.000Z</time>
      </trkpt>
      <trkpt lat="44.11828" lon="6.31252">
        <ele>958.2</ele>
        <time>2015-06-07T09:34:50.000Z</time>
      </trkpt>
      <trkpt lat="44.11828" lon="6.31251">
        <ele>958.3</ele>
        <time>2015-06-07T09:34:51.000Z</time>
      </trkpt>
      <trkpt lat="44.11815" lon="6.31221">
        <ele>961</ele>
        <time>2015-06-07T09:35:07.000Z</time>
      </trkpt>
      <trkpt lat="44.11812" lon="6.31207">
        <ele>962.8</ele>
        <time>2015-06-07T09:35:15.000Z</time>
      </trkpt>
      <trkpt lat="44.11811" lon="6.31206">
        <ele>962.9</ele>
        <time>2015-06-07T09:35:16.000Z</time>
      </trkpt>
      <trkpt lat="44.11809" lon="6.31203">
        <ele>963.1</ele>
        <time>2015-06-07T09:35:18.000Z</time>
      </trkpt>
      <trkpt lat="44.11809" lon="6.31201">
        <ele>963.4</ele>
        <time>2015-06-07T09:35:19.000Z</time>
      </trkpt>
      <trkpt lat="44.11809" lon="6.312">
        <ele>963.7</ele>
        <time>2015-06-07T09:35:20.000Z</time>
      </trkpt>
      <trkpt lat="44.11807" lon="6.31185">
        <ele>965.6</ele>
        <time>2015-06-07T09:35:27.000Z</time>
      </trkpt>
      <trkpt lat="44.11807" lon="6.31183">
        <ele>965.9</ele>
        <time>2015-06-07T09:35:28.000Z</time>
      </trkpt>
      <trkpt lat="44.11807" lon="6.31181">
        <ele>966.2</ele>
        <time>2015-06-07T09:35:29.000Z</time>
      </trkpt>
      <trkpt lat="44.11807" lon="6.31179">
        <ele>966.5</ele>
        <time>2015-06-07T09:35:30.000Z</time>
      </trkpt>
      <trkpt lat="44.11808" lon="6.31177">
        <ele>966.8</ele>
        <time>2015-06-07T09:35:31.000Z</time>
      </trkpt>
      <trkpt lat="44.11811" lon="6.31162">
        <ele>969.2</ele>
        <time>2015-06-07T09:35:39.000Z</time>
      </trkpt>
      <trkpt lat="44.1181" lon="6.31156">
        <ele>969.7</ele>
        <time>2015-06-07T09:35:42.000Z</time>
      </trkpt>
      <trkpt lat="44.11809" lon="6.31154">
        <ele>969.7</ele>
        <time>2015-06-07T09:35:43.000Z</time>
      </trkpt>
      <trkpt lat="44.11808" lon="6.31153">
        <ele>969.7</ele>
        <time>2015-06-07T09:35:44.000Z</time>
      </trkpt>
      <trkpt lat="44.11806" lon="6.31152">
        <ele>969.7</ele>
        <time>2015-06-07T09:35:45.000Z</time>
      </trkpt>
      <trkpt lat="44.11805" lon="6.31151">
        <ele>969.6</ele>
        <time>2015-06-07T09:35:46.000Z</time>
      </trkpt>
      <trkpt lat="44.11804" lon="6.3115">
        <ele>969.6</ele>
        <time>2015-06-07T09:35:47.000Z</time>
      </trkpt>
      <trkpt lat="44.11802" lon="6.3115">
        <ele>969.6</ele>
        <time>2015-06-07T09:35:48.000Z</time>
      </trkpt>
      <trkpt lat="44.11801" lon="6.31149">
        <ele>969.5</ele>
        <time>2015-06-07T09:35:49.000Z</time>
      </trkpt>
      <trkpt lat="44.11798" lon="6.31148">
        <ele>969.4</ele>
        <time>2015-06-07T09:35:51.000Z</time>
      </trkpt>
      <trkpt lat="44.11797" lon="6.31148">
        <ele>969.3</ele>
        <time>2015-06-07T09:35:52.000Z</time>
      </trkpt>
      <trkpt lat="44.11795" lon="6.31148">
        <ele>969.2</ele>
        <time>2015-06-07T09:35:53.000Z</time>
      </trkpt>
      <trkpt lat="44.11794" lon="6.31148">
        <ele>969.1</ele>
        <time>2015-06-07T09:35:54.000Z</time>
      </trkpt>
      <trkpt lat="44.11793" lon="6.31147">
        <ele>969</ele>
        <time>2015-06-07T09:35:55.000Z</time>
      </trkpt>
      <trkpt lat="44.11791" lon="6.31147">
        <ele>969</ele>
        <time>2015-06-07T09:35:56.000Z</time>
      </trkpt>
      <trkpt lat="44.1179" lon="6.31146">
        <ele>969</ele>
        <time>2015-06-07T09:35:57.000Z</time>
      </trkpt>
      <trkpt lat="44.11789" lon="6.31145">
        <ele>969</ele>
        <time>2015-06-07T09:35:58.000Z</time>
      </trkpt>
      <trkpt lat="44.11787" lon="6.31144">
        <ele>969.1</ele>
        <time>2015-06-07T09:35:59.000Z</time>
      </trkpt>
      <trkpt lat="44.11786" lon="6.31142">
        <ele>969.1</ele>
        <time>2015-06-07T09:36:00.000Z</time>
      </trkpt>
      <trkpt lat="44.11785" lon="6.31141">
        <ele>969.3</ele>
        <time>2015-06-07T09:36:01.000Z</time>
      </trkpt>
      <trkpt lat="44.11784" lon="6.3114">
        <ele>969.3</ele>
        <time>2015-06-07T09:36:02.000Z</time>
      </trkpt>
      <trkpt lat="44.11783" lon="6.31139">
        <ele>969.4</ele>
        <time>2015-06-07T09:36:03.000Z</time>
      </trkpt>
      <trkpt lat="44.11766" lon="6.3111">
        <ele>972.5</ele>
        <time>2015-06-07T09:36:21.000Z</time>
      </trkpt>
      <trkpt lat="44.11762" lon="6.31097">
        <ele>973.8</ele>
        <time>2015-06-07T09:36:28.000Z</time>
      </trkpt>
      <trkpt lat="44.11762" lon="6.31095">
        <ele>974.1</ele>
        <time>2015-06-07T09:36:29.000Z</time>
      </trkpt>
      <trkpt lat="44.11762" lon="6.31093">
        <ele>974.4</ele>
        <time>2015-06-07T09:36:30.000Z</time>
      </trkpt>
      <trkpt lat="44.11761" lon="6.31074">
        <ele>976.9</ele>
        <time>2015-06-07T09:36:40.000Z</time>
      </trkpt>
      <trkpt lat="44.1176" lon="6.31072">
        <ele>977</ele>
        <time>2015-06-07T09:36:41.000Z</time>
      </trkpt>
      <trkpt lat="44.11759" lon="6.3107">
        <ele>977.2</ele>
        <time>2015-06-07T09:36:42.000Z</time>
      </trkpt>
      <trkpt lat="44.11759" lon="6.31068">
        <ele>977.5</ele>
        <time>2015-06-07T09:36:43.000Z</time>
      </trkpt>
      <trkpt lat="44.11759" lon="6.31066">
        <ele>977.7</ele>
        <time>2015-06-07T09:36:44.000Z</time>
      </trkpt>
      <trkpt lat="44.11758" lon="6.31064">
        <ele>977.9</ele>
        <time>2015-06-07T09:36:45.000Z</time>
      </trkpt>
      <trkpt lat="44.11757" lon="6.31062">
        <ele>978</ele>
        <time>2015-06-07T09:36:46.000Z</time>
      </trkpt>
      <trkpt lat="44.11756" lon="6.3106">
        <ele>978.1</ele>
        <time>2015-06-07T09:36:47.000Z</time>
      </trkpt>
      <trkpt lat="44.11746" lon="6.31032">
        <ele>980.6</ele>
        <time>2015-06-07T09:37:03.000Z</time>
      </trkpt>
      <trkpt lat="44.11744" lon="6.31016">
        <ele>982.1</ele>
        <time>2015-06-07T09:37:12.000Z</time>
      </trkpt>
      <trkpt lat="44.11744" lon="6.31014">
        <ele>982.3</ele>
        <time>2015-06-07T09:37:13.000Z</time>
      </trkpt>
      <trkpt lat="44.11745" lon="6.31012">
        <ele>982.6</ele>
        <time>2015-06-07T09:37:14.000Z</time>
      </trkpt>
      <trkpt lat="44.11754" lon="6.30975">
        <ele>987.6</ele>
        <time>2015-06-07T09:37:34.000Z</time>
      </trkpt>
      <trkpt lat="44.11754" lon="6.30973">
        <ele>987.8</ele>
        <time>2015-06-07T09:37:35.000Z</time>
      </trkpt>
      <trkpt lat="44.11754" lon="6.30971">
        <ele>988</ele>
        <time>2015-06-07T09:37:36.000Z</time>
      </trkpt>
      <trkpt lat="44.11753" lon="6.30967">
        <ele>988.3</ele>
        <time>2015-06-07T09:37:38.000Z</time>
      </trkpt>
      <trkpt lat="44.11752" lon="6.30965">
        <ele>988.3</ele>
        <time>2015-06-07T09:37:39.000Z</time>
      </trkpt>
      <trkpt lat="44.11752" lon="6.30963">
        <ele>988.3</ele>
        <time>2015-06-07T09:37:40.000Z</time>
      </trkpt>
      <trkpt lat="44.11752" lon="6.30961">
        <ele>988.5</ele>
        <time>2015-06-07T09:37:41.000Z</time>
      </trkpt>
      <trkpt lat="44.11752" lon="6.30959">
        <ele>988.7</ele>
        <time>2015-06-07T09:37:42.000Z</time>
      </trkpt>
      <trkpt lat="44.11751" lon="6.30958">
        <ele>988.8</ele>
        <time>2015-06-07T09:37:43.000Z</time>
      </trkpt>
      <trkpt lat="44.11744" lon="6.30928">
        <ele>991.4</ele>
        <time>2015-06-07T09:37:58.000Z</time>
      </trkpt>
      <trkpt lat="44.11738" lon="6.30906">
        <ele>993.3</ele>
        <time>2015-06-07T09:38:10.000Z</time>
      </trkpt>
      <trkpt lat="44.11737" lon="6.30904">
        <ele>993.4</ele>
        <time>2015-06-07T09:38:11.000Z</time>
      </trkpt>
      <trkpt lat="44.11736" lon="6.30902">
        <ele>993.6</ele>
        <time>2015-06-07T09:38:12.000Z</time>
      </trkpt>
      <trkpt lat="44.11736" lon="6.309">
        <ele>993.8</ele>
        <time>2015-06-07T09:38:13.000Z</time>
      </trkpt>
      <trkpt lat="44.11735" lon="6.30898">
        <ele>994</ele>
        <time>2015-06-07T09:38:14.000Z</time>
      </trkpt>
      <trkpt lat="44.11735" lon="6.30896">
        <ele>994.3</ele>
        <time>2015-06-07T09:38:15.000Z</time>
      </trkpt>
      <trkpt lat="44.11734" lon="6.30893">
        <ele>994.5</ele>
        <time>2015-06-07T09:38:16.000Z</time>
      </trkpt>
      <trkpt lat="44.11734" lon="6.30891">
        <ele>994.8</ele>
        <time>2015-06-07T09:38:17.000Z</time>
      </trkpt>
      <trkpt lat="44.11734" lon="6.30889">
        <ele>995</ele>
        <time>2015-06-07T09:38:18.000Z</time>
      </trkpt>
      <trkpt lat="44.11726" lon="6.30858">
        <ele>996.7</ele>
        <time>2015-06-07T09:38:34.000Z</time>
      </trkpt>
      <trkpt lat="44.11727" lon="6.30854">
        <ele>996.7</ele>
        <time>2015-06-07T09:38:36.000Z</time>
      </trkpt>
      <trkpt lat="44.11728" lon="6.30852">
        <ele>996.9</ele>
        <time>2015-06-07T09:38:37.000Z</time>
      </trkpt>
      <trkpt lat="44.11736" lon="6.3084">
        <ele>998.6</ele>
        <time>2015-06-07T09:38:44.000Z</time>
      </trkpt>
      <trkpt lat="44.11737" lon="6.30839">
        <ele>999</ele>
        <time>2015-06-07T09:38:45.000Z</time>
      </trkpt>
      <trkpt lat="44.11739" lon="6.30838">
        <ele>999.5</ele>
        <time>2015-06-07T09:38:46.000Z</time>
      </trkpt>
      <trkpt lat="44.11744" lon="6.30836">
        <ele>1000.9</ele>
        <time>2015-06-07T09:38:49.000Z</time>
      </trkpt>
      <trkpt lat="44.11745" lon="6.30835">
        <ele>1001.3</ele>
        <time>2015-06-07T09:38:50.000Z</time>
      </trkpt>
      <trkpt lat="44.11766" lon="6.30818">
        <ele>1004.6</ele>
        <time>2015-06-07T09:39:06.000Z</time>
      </trkpt>
      <trkpt lat="44.11789" lon="6.30805">
        <ele>1009.3</ele>
        <time>2015-06-07T09:39:22.000Z</time>
      </trkpt>
      <trkpt lat="44.11798" lon="6.30795">
        <ele>1011.9</ele>
        <time>2015-06-07T09:39:30.000Z</time>
      </trkpt>
      <trkpt lat="44.11799" lon="6.30793">
        <ele>1012</ele>
        <time>2015-06-07T09:39:31.000Z</time>
      </trkpt>
      <trkpt lat="44.11799" lon="6.30791">
        <ele>1012</ele>
        <time>2015-06-07T09:39:32.000Z</time>
      </trkpt>
      <trkpt lat="44.11798" lon="6.30789">
        <ele>1012</ele>
        <time>2015-06-07T09:39:33.000Z</time>
      </trkpt>
      <trkpt lat="44.11798" lon="6.30788">
        <ele>1011.8</ele>
        <time>2015-06-07T09:39:34.000Z</time>
      </trkpt>
      <trkpt lat="44.11798" lon="6.30786">
        <ele>1011.7</ele>
        <time>2015-06-07T09:39:35.000Z</time>
      </trkpt>
      <trkpt lat="44.11797" lon="6.30784">
        <ele>1011.5</ele>
        <time>2015-06-07T09:39:36.000Z</time>
      </trkpt>
      <trkpt lat="44.11796" lon="6.30783">
        <ele>1011.3</ele>
        <time>2015-06-07T09:39:37.000Z</time>
      </trkpt>
      <trkpt lat="44.11794" lon="6.30778">
        <ele>1010.8</ele>
        <time>2015-06-07T09:39:40.000Z</time>
      </trkpt>
      <trkpt lat="44.11794" lon="6.30777">
        <ele>1010.8</ele>
        <time>2015-06-07T09:39:41.000Z</time>
      </trkpt>
      <trkpt lat="44.11784" lon="6.30742">
        <ele>1013.9</ele>
        <time>2015-06-07T09:39:59.000Z</time>
      </trkpt>
      <trkpt lat="44.11784" lon="6.30717">
        <ele>1016.6</ele>
        <time>2015-06-07T09:40:11.000Z</time>
      </trkpt>
      <trkpt lat="44.11784" lon="6.30715">
        <ele>1016.7</ele>
        <time>2015-06-07T09:40:12.000Z</time>
      </trkpt>
      <trkpt lat="44.11784" lon="6.30713">
        <ele>1016.9</ele>
        <time>2015-06-07T09:40:13.000Z</time>
      </trkpt>
      <trkpt lat="44.11788" lon="6.30672">
        <ele>1022.4</ele>
        <time>2015-06-07T09:40:31.000Z</time>
      </trkpt>
      <trkpt lat="44.11789" lon="6.30669">
        <ele>1022.7</ele>
        <time>2015-06-07T09:40:32.000Z</time>
      </trkpt>
      <trkpt lat="44.11788" lon="6.30667">
        <ele>1022.8</ele>
        <time>2015-06-07T09:40:33.000Z</time>
      </trkpt>
      <trkpt lat="44.11787" lon="6.3066">
        <ele>1023.9</ele>
        <time>2015-06-07T09:40:36.000Z</time>
      </trkpt>
      <trkpt lat="44.11786" lon="6.30658">
        <ele>1023.8</ele>
        <time>2015-06-07T09:40:37.000Z</time>
      </trkpt>
      <trkpt lat="44.1178" lon="6.30656">
        <ele>1023.2</ele>
        <time>2015-06-07T09:40:40.000Z</time>
      </trkpt>
      <trkpt lat="44.11778" lon="6.30656">
        <ele>1022.4</ele>
        <time>2015-06-07T09:40:41.000Z</time>
      </trkpt>
      <trkpt lat="44.11749" lon="6.30662">
        <ele>1024.6</ele>
        <time>2015-06-07T09:40:58.000Z</time>
      </trkpt>
      <trkpt lat="44.11729" lon="6.30643">
        <ele>1028.8</ele>
        <time>2015-06-07T09:41:13.000Z</time>
      </trkpt>
      <trkpt lat="44.11719" lon="6.30613">
        <ele>1030.8</ele>
        <time>2015-06-07T09:41:28.000Z</time>
      </trkpt>
      <trkpt lat="44.11722" lon="6.30578">
        <ele>1034.1</ele>
        <time>2015-06-07T09:41:44.000Z</time>
      </trkpt>
      <trkpt lat="44.11722" lon="6.30576">
        <ele>1034.1</ele>
        <time>2015-06-07T09:41:45.000Z</time>
      </trkpt>
      <trkpt lat="44.11721" lon="6.30565">
        <ele>1034.2</ele>
        <time>2015-06-07T09:41:50.000Z</time>
      </trkpt>
      <trkpt lat="44.11721" lon="6.30564">
        <ele>1034</ele>
        <time>2015-06-07T09:41:51.000Z</time>
      </trkpt>
      <trkpt lat="44.1172" lon="6.30562">
        <ele>1033.8</ele>
        <time>2015-06-07T09:41:52.000Z</time>
      </trkpt>
      <trkpt lat="44.1172" lon="6.3056">
        <ele>1033.8</ele>
        <time>2015-06-07T09:41:53.000Z</time>
      </trkpt>
      <trkpt lat="44.1172" lon="6.30558">
        <ele>1033.9</ele>
        <time>2015-06-07T09:41:54.000Z</time>
      </trkpt>
      <trkpt lat="44.1172" lon="6.30556">
        <ele>1034.1</ele>
        <time>2015-06-07T09:41:55.000Z</time>
      </trkpt>
      <trkpt lat="44.11721" lon="6.30554">
        <ele>1034.3</ele>
        <time>2015-06-07T09:41:56.000Z</time>
      </trkpt>
      <trkpt lat="44.11721" lon="6.30552">
        <ele>1034.7</ele>
        <time>2015-06-07T09:41:57.000Z</time>
      </trkpt>
      <trkpt lat="44.11721" lon="6.3055">
        <ele>1035</ele>
        <time>2015-06-07T09:41:58.000Z</time>
      </trkpt>
      <trkpt lat="44.11722" lon="6.30542">
        <ele>1036.6</ele>
        <time>2015-06-07T09:42:02.000Z</time>
      </trkpt>
      <trkpt lat="44.11722" lon="6.3054">
        <ele>1036.6</ele>
        <time>2015-06-07T09:42:03.000Z</time>
      </trkpt>
      <trkpt lat="44.11722" lon="6.30538">
        <ele>1036.6</ele>
        <time>2015-06-07T09:42:04.000Z</time>
      </trkpt>
      <trkpt lat="44.11721" lon="6.30536">
        <ele>1036.5</ele>
        <time>2015-06-07T09:42:05.000Z</time>
      </trkpt>
      <trkpt lat="44.11721" lon="6.30534">
        <ele>1036.6</ele>
        <time>2015-06-07T09:42:06.000Z</time>
      </trkpt>
      <trkpt lat="44.11721" lon="6.30531">
        <ele>1036.8</ele>
        <time>2015-06-07T09:42:07.000Z</time>
      </trkpt>
      <trkpt lat="44.1172" lon="6.30529">
        <ele>1036.9</ele>
        <time>2015-06-07T09:42:08.000Z</time>
      </trkpt>
      <trkpt lat="44.1172" lon="6.30526">
        <ele>1037.1</ele>
        <time>2015-06-07T09:42:09.000Z</time>
      </trkpt>
      <trkpt lat="44.1172" lon="6.30524">
        <ele>1037.3</ele>
        <time>2015-06-07T09:42:10.000Z</time>
      </trkpt>
      <trkpt lat="44.11719" lon="6.30522">
        <ele>1037.6</ele>
        <time>2015-06-07T09:42:11.000Z</time>
      </trkpt>
      <trkpt lat="44.11719" lon="6.30519">
        <ele>1038</ele>
        <time>2015-06-07T09:42:12.000Z</time>
      </trkpt>
      <trkpt lat="44.11719" lon="6.30516">
        <ele>1038.4</ele>
        <time>2015-06-07T09:42:13.000Z</time>
      </trkpt>
      <trkpt lat="44.11719" lon="6.30513">
        <ele>1038.9</ele>
        <time>2015-06-07T09:42:14.000Z</time>
      </trkpt>
      <trkpt lat="44.11719" lon="6.30511">
        <ele>1039.3</ele>
        <time>2015-06-07T09:42:15.000Z</time>
      </trkpt>
      <trkpt lat="44.11719" lon="6.30508">
        <ele>1039.8</ele>
        <time>2015-06-07T09:42:16.000Z</time>
      </trkpt>
      <trkpt lat="44.11719" lon="6.30505">
        <ele>1040.4</ele>
        <time>2015-06-07T09:42:17.000Z</time>
      </trkpt>
      <trkpt lat="44.1172" lon="6.30503">
        <ele>1041</ele>
        <time>2015-06-07T09:42:18.000Z</time>
      </trkpt>
      <trkpt lat="44.1172" lon="6.305">
        <ele>1041.5</ele>
        <time>2015-06-07T09:42:19.000Z</time>
      </trkpt>
      <trkpt lat="44.11719" lon="6.30497">
        <ele>1042.1</ele>
        <time>2015-06-07T09:42:20.000Z</time>
      </trkpt>
      <trkpt lat="44.11718" lon="6.30494">
        <ele>1042.5</ele>
        <time>2015-06-07T09:42:21.000Z</time>
      </trkpt>
      <trkpt lat="44.11717" lon="6.30492">
        <ele>1042.8</ele>
        <time>2015-06-07T09:42:22.000Z</time>
      </trkpt>
      <trkpt lat="44.11716" lon="6.3049">
        <ele>1043.1</ele>
        <time>2015-06-07T09:42:23.000Z</time>
      </trkpt>
      <trkpt lat="44.11713" lon="6.30488">
        <ele>1043.1</ele>
        <time>2015-06-07T09:42:24.000Z</time>
      </trkpt>
      <trkpt lat="44.11712" lon="6.30487">
        <ele>1043.2</ele>
        <time>2015-06-07T09:42:25.000Z</time>
      </trkpt>
      <trkpt lat="44.11709" lon="6.30486">
        <ele>1043.1</ele>
        <time>2015-06-07T09:42:26.000Z</time>
      </trkpt>
      <trkpt lat="44.11707" lon="6.30486">
        <ele>1042.8</ele>
        <time>2015-06-07T09:42:27.000Z</time>
      </trkpt>
      <trkpt lat="44.11705" lon="6.30486">
        <ele>1042.5</ele>
        <time>2015-06-07T09:42:28.000Z</time>
      </trkpt>
      <trkpt lat="44.11703" lon="6.30487">
        <ele>1042.1</ele>
        <time>2015-06-07T09:42:29.000Z</time>
      </trkpt>
      <trkpt lat="44.11666" lon="6.30482">
        <ele>1042.7</ele>
        <time>2015-06-07T09:42:48.000Z</time>
      </trkpt>
      <trkpt lat="44.11663" lon="6.30481">
        <ele>1042.6</ele>
        <time>2015-06-07T09:42:50.000Z</time>
      </trkpt>
      <trkpt lat="44.11662" lon="6.30479">
        <ele>1042.8</ele>
        <time>2015-06-07T09:42:51.000Z</time>
      </trkpt>
      <trkpt lat="44.11661" lon="6.30477">
        <ele>1043.2</ele>
        <time>2015-06-07T09:42:52.000Z</time>
      </trkpt>
      <trkpt lat="44.11664" lon="6.30462">
        <ele>1045.5</ele>
        <time>2015-06-07T09:43:03.000Z</time>
      </trkpt>
      <trkpt lat="44.11664" lon="6.30462">
        <ele>1045.6</ele>
        <time>2015-06-07T09:43:08.000Z</time>
      </trkpt>
      <trkpt lat="44.11672" lon="6.30463">
        <ele>1046.4</ele>
        <time>2015-06-07T09:43:24.000Z</time>
      </trkpt>
      <trkpt lat="44.11675" lon="6.30462">
        <ele>1046.8</ele>
        <time>2015-06-07T09:43:57.000Z</time>
      </trkpt>
      <trkpt lat="44.11686" lon="6.30451">
        <ele>1049.5</ele>
        <time>2015-06-07T09:44:13.000Z</time>
      </trkpt>
      <trkpt lat="44.11691" lon="6.30446">
        <ele>1051.2</ele>
        <time>2015-06-07T09:44:20.000Z</time>
      </trkpt>
      <trkpt lat="44.11706" lon="6.3044">
        <ele>1054</ele>
        <time>2015-06-07T09:44:36.000Z</time>
      </trkpt>
      <trkpt lat="44.11712" lon="6.3043">
        <ele>1056.5</ele>
        <time>2015-06-07T09:44:47.000Z</time>
      </trkpt>
      <trkpt lat="44.11724" lon="6.3042">
        <ele>1060.6</ele>
        <time>2015-06-07T09:45:02.000Z</time>
      </trkpt>
      <trkpt lat="44.11732" lon="6.30406">
        <ele>1064.2</ele>
        <time>2015-06-07T09:45:17.000Z</time>
      </trkpt>
      <trkpt lat="44.11742" lon="6.30394">
        <ele>1067.1</ele>
        <time>2015-06-07T09:45:32.000Z</time>
      </trkpt>
      <trkpt lat="44.11751" lon="6.30382">
        <ele>1069.9</ele>
        <time>2015-06-07T09:45:48.000Z</time>
      </trkpt>
      <trkpt lat="44.11772" lon="6.30372">
        <ele>1075.1</ele>
        <time>2015-06-07T09:46:10.000Z</time>
      </trkpt>
      <trkpt lat="44.11773" lon="6.30371">
        <ele>1075.5</ele>
        <time>2015-06-07T09:46:12.000Z</time>
      </trkpt>
      <trkpt lat="44.11782" lon="6.30376">
        <ele>1076.5</ele>
        <time>2015-06-07T09:46:19.000Z</time>
      </trkpt>
      <trkpt lat="44.11788" lon="6.30383">
        <ele>1076.6</ele>
        <time>2015-06-07T09:46:25.000Z</time>
      </trkpt>
      <trkpt lat="44.11814" lon="6.30401">
        <ele>1078.2</ele>
        <time>2015-06-07T09:46:43.000Z</time>
      </trkpt>
      <trkpt lat="44.11842" lon="6.30411">
        <ele>1080.1</ele>
        <time>2015-06-07T09:47:01.000Z</time>
      </trkpt>
      <trkpt lat="44.11867" lon="6.30431">
        <ele>1081.8</ele>
        <time>2015-06-07T09:47:19.000Z</time>
      </trkpt>
      <trkpt lat="44.11892" lon="6.30448">
        <ele>1083</ele>
        <time>2015-06-07T09:47:36.000Z</time>
      </trkpt>
      <trkpt lat="44.11918" lon="6.30457">
        <ele>1085.7</ele>
        <time>2015-06-07T09:47:53.000Z</time>
      </trkpt>
      <trkpt lat="44.11941" lon="6.3046">
        <ele>1089</ele>
        <time>2015-06-07T09:48:08.000Z</time>
      </trkpt>
      <trkpt lat="44.11948" lon="6.30463">
        <ele>1089.9</ele>
        <time>2015-06-07T09:48:13.000Z</time>
      </trkpt>
      <trkpt lat="44.11954" lon="6.30465">
        <ele>1090.5</ele>
        <time>2015-06-07T09:48:17.000Z</time>
      </trkpt>
      <trkpt lat="44.11969" lon="6.30463">
        <ele>1091.7</ele>
        <time>2015-06-07T09:48:27.000Z</time>
      </trkpt>
      <trkpt lat="44.11986" lon="6.30452">
        <ele>1092.6</ele>
        <time>2015-06-07T09:48:38.000Z</time>
      </trkpt>
      <trkpt lat="44.11999" lon="6.30437">
        <ele>1094.5</ele>
        <time>2015-06-07T09:48:49.000Z</time>
      </trkpt>
      <trkpt lat="44.12" lon="6.30419">
        <ele>1095.9</ele>
        <time>2015-06-07T09:48:59.000Z</time>
      </trkpt>
      <trkpt lat="44.12004" lon="6.3041">
        <ele>1095.7</ele>
        <time>2015-06-07T09:49:05.000Z</time>
      </trkpt>
      <trkpt lat="44.12004" lon="6.30408">
        <ele>1095.5</ele>
        <time>2015-06-07T09:49:10.000Z</time>
      </trkpt>
      <trkpt lat="44.12004" lon="6.3041">
        <ele>1095.7</ele>
        <time>2015-06-07T09:49:27.000Z</time>
      </trkpt>
      <trkpt lat="44.12005" lon="6.3041">
        <ele>1095.8</ele>
        <time>2015-06-07T09:50:15.000Z</time>
      </trkpt>
      <trkpt lat="44.12004" lon="6.30408">
        <ele>1095.5</ele>
        <time>2015-06-07T09:50:52.000Z</time>
      </trkpt>
      <trkpt lat="44.12003" lon="6.3041">
        <ele>1095.6</ele>
        <time>2015-06-07T09:51:30.000Z</time>
      </trkpt>
      <trkpt lat="44.12004" lon="6.3041">
        <ele>1095.7</ele>
        <time>2015-06-07T09:52:06.000Z</time>
      </trkpt>
      <trkpt lat="44.12003" lon="6.3041">
        <ele>1095.5</ele>
        <time>2015-06-07T09:52:41.000Z</time>
      </trkpt>
      <trkpt lat="44.12005" lon="6.30408">
        <ele>1095.6</ele>
        <time>2015-06-07T09:53:11.000Z</time>
      </trkpt>
      <trkpt lat="44.12004" lon="6.3041">
        <ele>1095.7</ele>
        <time>2015-06-07T09:53:48.000Z</time>
      </trkpt>
      <trkpt lat="44.12004" lon="6.3041">
        <ele>1095.7</ele>
        <time>2015-06-07T09:54:27.000Z</time>
      </trkpt>
      <trkpt lat="44.12003" lon="6.3041">
        <ele>1095.6</ele>
        <time>2015-06-07T09:55:09.000Z</time>
      </trkpt>
      <trkpt lat="44.12003" lon="6.30409">
        <ele>1095.5</ele>
        <time>2015-06-07T09:55:46.000Z</time>
      </trkpt>
      <trkpt lat="44.12005" lon="6.30409">
        <ele>1095.7</ele>
        <time>2015-06-07T09:56:24.000Z</time>
      </trkpt>
      <trkpt lat="44.12005" lon="6.30409">
        <ele>1095.7</ele>
        <time>2015-06-07T09:57:15.000Z</time>
      </trkpt>
      <trkpt lat="44.12007" lon="6.30409">
        <ele>1095.9</ele>
        <time>2015-06-07T09:57:54.000Z</time>
      </trkpt>
      <trkpt lat="44.12005" lon="6.30407">
        <ele>1095.5</ele>
        <time>2015-06-07T09:58:39.000Z</time>
      </trkpt>
      <trkpt lat="44.12005" lon="6.30408">
        <ele>1095.6</ele>
        <time>2015-06-07T09:59:19.000Z</time>
      </trkpt>
      <trkpt lat="44.12005" lon="6.30409">
        <ele>1095.7</ele>
        <time>2015-06-07T10:00:01.000Z</time>
      </trkpt>
      <trkpt lat="44.12006" lon="6.30409">
        <ele>1095.7</ele>
        <time>2015-06-07T10:00:38.000Z</time>
      </trkpt>
      <trkpt lat="44.12006" lon="6.30408">
        <ele>1095.7</ele>
        <time>2015-06-07T10:01:15.000Z</time>
      </trkpt>
      <trkpt lat="44.12004" lon="6.30409">
        <ele>1095.6</ele>
        <time>2015-06-07T10:02:02.000Z</time>
      </trkpt>
      <trkpt lat="44.12004" lon="6.30409">
        <ele>1095.6</ele>
        <time>2015-06-07T10:02:45.000Z</time>
      </trkpt>
      <trkpt lat="44.12007" lon="6.30408">
        <ele>1095.8</ele>
        <time>2015-06-07T10:03:36.000Z</time>
      </trkpt>
      <trkpt lat="44.12005" lon="6.30409">
        <ele>1095.6</ele>
        <time>2015-06-07T10:04:18.000Z</time>
      </trkpt>
      <trkpt lat="44.12006" lon="6.30407">
        <ele>1095.7</ele>
        <time>2015-06-07T10:05:00.000Z</time>
      </trkpt>
      <trkpt lat="44.12008" lon="6.30407">
        <ele>1095.8</ele>
        <time>2015-06-07T10:05:49.000Z</time>
      </trkpt>
      <trkpt lat="44.12006" lon="6.30409">
        <ele>1095.8</ele>
        <time>2015-06-07T10:06:29.000Z</time>
      </trkpt>
      <trkpt lat="44.12004" lon="6.30411">
        <ele>1095.7</ele>
        <time>2015-06-07T10:07:00.000Z</time>
      </trkpt>
      <trkpt lat="44.12006" lon="6.3041">
        <ele>1095.9</ele>
        <time>2015-06-07T10:07:42.000Z</time>
      </trkpt>
      <trkpt lat="44.12007" lon="6.30409">
        <ele>1095.9</ele>
        <time>2015-06-07T10:08:33.000Z</time>
      </trkpt>
      <trkpt lat="44.12004" lon="6.30407">
        <ele>1095.4</ele>
        <time>2015-06-07T10:09:13.000Z</time>
      </trkpt>
      <trkpt lat="44.12005" lon="6.30408">
        <ele>1095.6</ele>
        <time>2015-06-07T10:09:56.000Z</time>
      </trkpt>
      <trkpt lat="44.12006" lon="6.30409">
        <ele>1095.8</ele>
        <time>2015-06-07T10:10:32.000Z</time>
      </trkpt>
      <trkpt lat="44.12007" lon="6.30408">
        <ele>1095.8</ele>
        <time>2015-06-07T10:11:20.000Z</time>
      </trkpt>
      <trkpt lat="44.12006" lon="6.3041">
        <ele>1095.9</ele>
        <time>2015-06-07T10:12:03.000Z</time>
      </trkpt>
      <trkpt lat="44.12005" lon="6.30407">
        <ele>1095.6</ele>
        <time>2015-06-07T10:12:47.000Z</time>
      </trkpt>
      <trkpt lat="44.12005" lon="6.30411">
        <ele>1095.9</ele>
        <time>2015-06-07T10:13:26.000Z</time>
      </trkpt>
      <trkpt lat="44.12008" lon="6.30407">
        <ele>1095.9</ele>
        <time>2015-06-07T10:14:13.000Z</time>
      </trkpt>
      <trkpt lat="44.12007" lon="6.30406">
        <ele>1095.6</ele>
        <time>2015-06-07T10:14:52.000Z</time>
      </trkpt>
      <trkpt lat="44.12006" lon="6.30406">
        <ele>1095.5</ele>
        <time>2015-06-07T10:15:35.000Z</time>
      </trkpt>
      <trkpt lat="44.12005" lon="6.30408">
        <ele>1095.6</ele>
        <time>2015-06-07T10:16:20.000Z</time>
      </trkpt>
      <trkpt lat="44.12005" lon="6.30409">
        <ele>1095.7</ele>
        <time>2015-06-07T10:17:12.000Z</time>
      </trkpt>
      <trkpt lat="44.12006" lon="6.30409">
        <ele>1095.8</ele>
        <time>2015-06-07T10:17:49.000Z</time>
      </trkpt>
      <trkpt lat="44.12006" lon="6.30409">
        <ele>1095.7</ele>
        <time>2015-06-07T10:18:31.000Z</time>
      </trkpt>
      <trkpt lat="44.12005" lon="6.3041">
        <ele>1095.8</ele>
        <time>2015-06-07T10:19:20.000Z</time>
      </trkpt>
      <trkpt lat="44.12007" lon="6.30407">
        <ele>1095.7</ele>
        <time>2015-06-07T10:20:02.000Z</time>
      </trkpt>
      <trkpt lat="44.12004" lon="6.30409">
        <ele>1095.6</ele>
        <time>2015-06-07T10:20:38.000Z</time>
      </trkpt>
      <trkpt lat="44.12003" lon="6.30409">
        <ele>1095.4</ele>
        <time>2015-06-07T10:21:09.000Z</time>
      </trkpt>
      <trkpt lat="44.12005" lon="6.30407">
        <ele>1095.6</ele>
        <time>2015-06-07T10:21:41.000Z</time>
      </trkpt>
      <trkpt lat="44.12005" lon="6.30409">
        <ele>1095.7</ele>
        <time>2015-06-07T10:22:20.000Z</time>
      </trkpt>
      <trkpt lat="44.12006" lon="6.30406">
        <ele>1095.5</ele>
        <time>2015-06-07T10:23:03.000Z</time>
      </trkpt>
      <trkpt lat="44.12003" lon="6.3041">
        <ele>1095.5</ele>
        <time>2015-06-07T10:23:39.000Z</time>
      </trkpt>
      <trkpt lat="44.12005" lon="6.30409">
        <ele>1095.6</ele>
        <time>2015-06-07T10:24:16.000Z</time>
      </trkpt>
      <trkpt lat="44.12004" lon="6.30408">
        <ele>1095.5</ele>
        <time>2015-06-07T10:24:38.000Z</time>
      </trkpt>
      <trkpt lat="44.11999" lon="6.30406">
        <ele>1094.5</ele>
        <time>2015-06-07T10:24:46.000Z</time>
      </trkpt>
      <trkpt lat="44.11997" lon="6.30382">
        <ele>1091.4</ele>
        <time>2015-06-07T10:24:53.000Z</time>
      </trkpt>
      <trkpt lat="44.11997" lon="6.30379">
        <ele>1090.9</ele>
        <time>2015-06-07T10:24:54.000Z</time>
      </trkpt>
      <trkpt lat="44.11993" lon="6.30369">
        <ele>1088.6</ele>
        <time>2015-06-07T10:24:58.000Z</time>
      </trkpt>
      <trkpt lat="44.11999" lon="6.30337">
        <ele>1085.1</ele>
        <time>2015-06-07T10:25:07.000Z</time>
      </trkpt>
      <trkpt lat="44.11999" lon="6.30332">
        <ele>1084.3</ele>
        <time>2015-06-07T10:25:09.000Z</time>
      </trkpt>
      <trkpt lat="44.12002" lon="6.30324">
        <ele>1082.6</ele>
        <time>2015-06-07T10:25:13.000Z</time>
      </trkpt>
      <trkpt lat="44.12008" lon="6.3031">
        <ele>1079.6</ele>
        <time>2015-06-07T10:25:19.000Z</time>
      </trkpt>
      <trkpt lat="44.12008" lon="6.30309">
        <ele>1079.3</ele>
        <time>2015-06-07T10:25:21.000Z</time>
      </trkpt>
      <trkpt lat="44.12006" lon="6.30288">
        <ele>1077.8</ele>
        <time>2015-06-07T10:25:32.000Z</time>
      </trkpt>
      <trkpt lat="44.11999" lon="6.30266">
        <ele>1076.8</ele>
        <time>2015-06-07T10:25:51.000Z</time>
      </trkpt>
      <trkpt lat="44.11998" lon="6.30229">
        <ele>1075.9</ele>
        <time>2015-06-07T10:26:01.000Z</time>
      </trkpt>
      <trkpt lat="44.11995" lon="6.30222">
        <ele>1075.2</ele>
        <time>2015-06-07T10:26:03.000Z</time>
      </trkpt>
      <trkpt lat="44.11995" lon="6.3021">
        <ele>1076.2</ele>
        <time>2015-06-07T10:26:06.000Z</time>
      </trkpt>
      <trkpt lat="44.11979" lon="6.30167">
        <ele>1075.7</ele>
        <time>2015-06-07T10:26:18.000Z</time>
      </trkpt>
      <trkpt lat="44.11981" lon="6.30118">
        <ele>1078.6</ele>
        <time>2015-06-07T10:26:29.000Z</time>
      </trkpt>
      <trkpt lat="44.11981" lon="6.30105">
        <ele>1079.3</ele>
        <time>2015-06-07T10:26:32.000Z</time>
      </trkpt>
      <trkpt lat="44.11972" lon="6.30086">
        <ele>1078.7</ele>
        <time>2015-06-07T10:26:37.000Z</time>
      </trkpt>
      <trkpt lat="44.11961" lon="6.30068">
        <ele>1078.2</ele>
        <time>2015-06-07T10:26:41.000Z</time>
      </trkpt>
      <trkpt lat="44.11955" lon="6.30048">
        <ele>1079.1</ele>
        <time>2015-06-07T10:26:46.000Z</time>
      </trkpt>
      <trkpt lat="44.11953" lon="6.30045">
        <ele>1079</ele>
        <time>2015-06-07T10:26:48.000Z</time>
      </trkpt>
      <trkpt lat="44.11945" lon="6.30033">
        <ele>1078.5</ele>
        <time>2015-06-07T10:26:52.000Z</time>
      </trkpt>
      <trkpt lat="44.11931" lon="6.29992">
        <ele>1078.9</ele>
        <time>2015-06-07T10:27:05.000Z</time>
      </trkpt>
      <trkpt lat="44.11934" lon="6.29978">
        <ele>1078.9</ele>
        <time>2015-06-07T10:27:22.000Z</time>
      </trkpt>
      <trkpt lat="44.11933" lon="6.29976">
        <ele>1078.7</ele>
        <time>2015-06-07T10:27:28.000Z</time>
      </trkpt>
      <trkpt lat="44.11931" lon="6.29973">
        <ele>1078.1</ele>
        <time>2015-06-07T10:27:47.000Z</time>
      </trkpt>
      <trkpt lat="44.11933" lon="6.2997">
        <ele>1078.1</ele>
        <time>2015-06-07T10:27:55.000Z</time>
      </trkpt>
      <trkpt lat="44.1194" lon="6.29956">
        <ele>1076.5</ele>
        <time>2015-06-07T10:27:59.000Z</time>
      </trkpt>
      <trkpt lat="44.11954" lon="6.29929">
        <ele>1074.9</ele>
        <time>2015-06-07T10:28:05.000Z</time>
      </trkpt>
      <trkpt lat="44.11962" lon="6.29911">
        <ele>1073.3</ele>
        <time>2015-06-07T10:28:08.000Z</time>
      </trkpt>
      <trkpt lat="44.11972" lon="6.29883">
        <ele>1068.8</ele>
        <time>2015-06-07T10:28:13.000Z</time>
      </trkpt>
      <trkpt lat="44.11976" lon="6.29874">
        <ele>1068</ele>
        <time>2015-06-07T10:28:15.000Z</time>
      </trkpt>
      <trkpt lat="44.11982" lon="6.2984">
        <ele>1064.3</ele>
        <time>2015-06-07T10:28:21.000Z</time>
      </trkpt>
      <trkpt lat="44.11982" lon="6.29822">
        <ele>1062.5</ele>
        <time>2015-06-07T10:28:23.000Z</time>
      </trkpt>
      <trkpt lat="44.11979" lon="6.29805">
        <ele>1061.2</ele>
        <time>2015-06-07T10:28:25.000Z</time>
      </trkpt>
      <trkpt lat="44.11979" lon="6.29762">
        <ele>1059.5</ele>
        <time>2015-06-07T10:28:31.000Z</time>
      </trkpt>
      <trkpt lat="44.11978" lon="6.29757">
        <ele>1059.3</ele>
        <time>2015-06-07T10:28:32.000Z</time>
      </trkpt>
      <trkpt lat="44.11976" lon="6.29745">
        <ele>1058.8</ele>
        <time>2015-06-07T10:28:34.000Z</time>
      </trkpt>
      <trkpt lat="44.11965" lon="6.29708">
        <ele>1057.5</ele>
        <time>2015-06-07T10:28:42.000Z</time>
      </trkpt>
      <trkpt lat="44.11956" lon="6.2967">
        <ele>1055.7</ele>
        <time>2015-06-07T10:28:48.000Z</time>
      </trkpt>
      <trkpt lat="44.11966" lon="6.29649">
        <ele>1053.1</ele>
        <time>2015-06-07T10:28:53.000Z</time>
      </trkpt>
      <trkpt lat="44.11964" lon="6.29607">
        <ele>1045.2</ele>
        <time>2015-06-07T10:28:59.000Z</time>
      </trkpt>
      <trkpt lat="44.11961" lon="6.29595">
        <ele>1042</ele>
        <time>2015-06-07T10:29:02.000Z</time>
      </trkpt>
      <trkpt lat="44.11957" lon="6.29583">
        <ele>1039</ele>
        <time>2015-06-07T10:29:05.000Z</time>
      </trkpt>
      <trkpt lat="44.11952" lon="6.29576">
        <ele>1037.4</ele>
        <time>2015-06-07T10:29:07.000Z</time>
      </trkpt>
      <trkpt lat="44.11945" lon="6.29557">
        <ele>1034.1</ele>
        <time>2015-06-07T10:29:12.000Z</time>
      </trkpt>
      <trkpt lat="44.11939" lon="6.29548">
        <ele>1031.6</ele>
        <time>2015-06-07T10:29:14.000Z</time>
      </trkpt>
      <trkpt lat="44.1193" lon="6.29521">
        <ele>1026.4</ele>
        <time>2015-06-07T10:29:20.000Z</time>
      </trkpt>
      <trkpt lat="44.1193" lon="6.29517">
        <ele>1025.8</ele>
        <time>2015-06-07T10:29:21.000Z</time>
      </trkpt>
      <trkpt lat="44.11929" lon="6.29501">
        <ele>1023.6</ele>
        <time>2015-06-07T10:29:26.000Z</time>
      </trkpt>
      <trkpt lat="44.11926" lon="6.29489">
        <ele>1021.2</ele>
        <time>2015-06-07T10:29:29.000Z</time>
      </trkpt>
      <trkpt lat="44.11924" lon="6.29482">
        <ele>1019.9</ele>
        <time>2015-06-07T10:29:31.000Z</time>
      </trkpt>
      <trkpt lat="44.11922" lon="6.29475">
        <ele>1018.9</ele>
        <time>2015-06-07T10:29:33.000Z</time>
      </trkpt>
      <trkpt lat="44.1192" lon="6.29464">
        <ele>1016.6</ele>
        <time>2015-06-07T10:29:38.000Z</time>
      </trkpt>
      <trkpt lat="44.11914" lon="6.29455">
        <ele>1013.2</ele>
        <time>2015-06-07T10:29:46.000Z</time>
      </trkpt>
      <trkpt lat="44.11922" lon="6.29451">
        <ele>1012.8</ele>
        <time>2015-06-07T10:29:52.000Z</time>
      </trkpt>
      <trkpt lat="44.11918" lon="6.2944">
        <ele>1010.3</ele>
        <time>2015-06-07T10:29:56.000Z</time>
      </trkpt>
      <trkpt lat="44.11901" lon="6.29435">
        <ele>1002</ele>
        <time>2015-06-07T10:30:04.000Z</time>
      </trkpt>
      <trkpt lat="44.11904" lon="6.29427">
        <ele>1000.7</ele>
        <time>2015-06-07T10:30:09.000Z</time>
      </trkpt>
      <trkpt lat="44.11907" lon="6.29422">
        <ele>1000.4</ele>
        <time>2015-06-07T10:30:12.000Z</time>
      </trkpt>
      <trkpt lat="44.11918" lon="6.29419">
        <ele>1002.7</ele>
        <time>2015-06-07T10:30:18.000Z</time>
      </trkpt>
      <trkpt lat="44.11923" lon="6.29414">
        <ele>999.5</ele>
        <time>2015-06-07T10:30:24.000Z</time>
      </trkpt>
      <trkpt lat="44.11923" lon="6.29407">
        <ele>996.1</ele>
        <time>2015-06-07T10:30:30.000Z</time>
      </trkpt>
      <trkpt lat="44.11926" lon="6.29406">
        <ele>995</ele>
        <time>2015-06-07T10:30:32.000Z</time>
      </trkpt>
      <trkpt lat="44.1193" lon="6.29407">
        <ele>995.2</ele>
        <time>2015-06-07T10:30:34.000Z</time>
      </trkpt>
      <trkpt lat="44.11927" lon="6.29395">
        <ele>989.4</ele>
        <time>2015-06-07T10:30:40.000Z</time>
      </trkpt>
      <trkpt lat="44.11918" lon="6.29388">
        <ele>986.2</ele>
        <time>2015-06-07T10:30:44.000Z</time>
      </trkpt>
      <trkpt lat="44.11911" lon="6.29382">
        <ele>980.3</ele>
        <time>2015-06-07T10:30:50.000Z</time>
      </trkpt>
      <trkpt lat="44.11909" lon="6.29378">
        <ele>976.8</ele>
        <time>2015-06-07T10:31:00.000Z</time>
      </trkpt>
      <trkpt lat="44.11919" lon="6.29374">
        <ele>977.1</ele>
        <time>2015-06-07T10:31:09.000Z</time>
      </trkpt>
      <trkpt lat="44.11926" lon="6.29372">
        <ele>975.4</ele>
        <time>2015-06-07T10:31:14.000Z</time>
      </trkpt>
      <trkpt lat="44.11933" lon="6.29372">
        <ele>975.1</ele>
        <time>2015-06-07T10:31:17.000Z</time>
      </trkpt>
      <trkpt lat="44.11938" lon="6.29371">
        <ele>974.7</ele>
        <time>2015-06-07T10:31:30.000Z</time>
      </trkpt>
      <trkpt lat="44.11943" lon="6.2937">
        <ele>973.7</ele>
        <time>2015-06-07T10:31:36.000Z</time>
      </trkpt>
      <trkpt lat="44.11943" lon="6.29362">
        <ele>968.5</ele>
        <time>2015-06-07T10:31:40.000Z</time>
      </trkpt>
      <trkpt lat="44.1194" lon="6.29356">
        <ele>965.6</ele>
        <time>2015-06-07T10:31:42.000Z</time>
      </trkpt>
      <trkpt lat="44.11938" lon="6.2935">
        <ele>962.1</ele>
        <time>2015-06-07T10:31:46.000Z</time>
      </trkpt>
      <trkpt lat="44.11944" lon="6.2934">
        <ele>957.5</ele>
        <time>2015-06-07T10:31:51.000Z</time>
      </trkpt>
      <trkpt lat="44.11949" lon="6.29333">
        <ele>952.9</ele>
        <time>2015-06-07T10:31:56.000Z</time>
      </trkpt>
      <trkpt lat="44.11949" lon="6.29334">
        <ele>953.3</ele>
        <time>2015-06-07T10:32:03.000Z</time>
      </trkpt>
      <trkpt lat="44.11947" lon="6.29333">
        <ele>953.4</ele>
        <time>2015-06-07T10:32:10.000Z</time>
      </trkpt>
      <trkpt lat="44.11945" lon="6.29325">
        <ele>950</ele>
        <time>2015-06-07T10:32:14.000Z</time>
      </trkpt>
      <trkpt lat="44.11944" lon="6.29317">
        <ele>946.4</ele>
        <time>2015-06-07T10:32:18.000Z</time>
      </trkpt>
      <trkpt lat="44.11942" lon="6.29304">
        <ele>940.4</ele>
        <time>2015-06-07T10:32:22.000Z</time>
      </trkpt>
      <trkpt lat="44.11936" lon="6.29295">
        <ele>936.5</ele>
        <time>2015-06-07T10:32:26.000Z</time>
      </trkpt>
      <trkpt lat="44.11922" lon="6.29288">
        <ele>933.4</ele>
        <time>2015-06-07T10:32:32.000Z</time>
      </trkpt>
      <trkpt lat="44.11919" lon="6.29288">
        <ele>933.4</ele>
        <time>2015-06-07T10:32:42.000Z</time>
      </trkpt>
      <trkpt lat="44.1192" lon="6.29289">
        <ele>933.7</ele>
        <time>2015-06-07T10:33:20.000Z</time>
      </trkpt>
      <trkpt lat="44.11917" lon="6.29289">
        <ele>933.6</ele>
        <time>2015-06-07T10:33:42.000Z</time>
      </trkpt>
      <trkpt lat="44.11919" lon="6.29288">
        <ele>933.5</ele>
        <time>2015-06-07T10:34:12.000Z</time>
      </trkpt>
      <trkpt lat="44.11919" lon="6.2929">
        <ele>934.2</ele>
        <time>2015-06-07T10:34:37.000Z</time>
      </trkpt>
      <trkpt lat="44.11919" lon="6.29291">
        <ele>934.3</ele>
        <time>2015-06-07T10:35:16.000Z</time>
      </trkpt>
      <trkpt lat="44.11919" lon="6.29289">
        <ele>933.7</ele>
        <time>2015-06-07T10:35:44.000Z</time>
      </trkpt>
      <trkpt lat="44.11912" lon="6.29288">
        <ele>932.5</ele>
        <time>2015-06-07T10:35:55.000Z</time>
      </trkpt>
      <trkpt lat="44.11903" lon="6.29274">
        <ele>927</ele>
        <time>2015-06-07T10:36:01.000Z</time>
      </trkpt>
      <trkpt lat="44.11898" lon="6.29264">
        <ele>923.4</ele>
        <time>2015-06-07T10:36:04.000Z</time>
      </trkpt>
      <trkpt lat="44.11878" lon="6.29251">
        <ele>917.7</ele>
        <time>2015-06-07T10:36:08.000Z</time>
      </trkpt>
      <trkpt lat="44.11864" lon="6.29244">
        <ele>914.3</ele>
        <time>2015-06-07T10:36:11.000Z</time>
      </trkpt>
      <trkpt lat="44.11849" lon="6.29239">
        <ele>910</ele>
        <time>2015-06-07T10:36:14.000Z</time>
      </trkpt>
      <trkpt lat="44.11839" lon="6.2923">
        <ele>907</ele>
        <time>2015-06-07T10:36:17.000Z</time>
      </trkpt>
      <trkpt lat="44.11833" lon="6.2922">
        <ele>905.5</ele>
        <time>2015-06-07T10:36:19.000Z</time>
      </trkpt>
      <trkpt lat="44.11813" lon="6.29208">
        <ele>899.8</ele>
        <time>2015-06-07T10:36:23.000Z</time>
      </trkpt>
      <trkpt lat="44.1181" lon="6.29205">
        <ele>899.3</ele>
        <time>2015-06-07T10:36:24.000Z</time>
      </trkpt>
      <trkpt lat="44.11803" lon="6.29191">
        <ele>897.4</ele>
        <time>2015-06-07T10:36:28.000Z</time>
      </trkpt>
      <trkpt lat="44.11793" lon="6.29178">
        <ele>892.6</ele>
        <time>2015-06-07T10:36:33.000Z</time>
      </trkpt>
      <trkpt lat="44.11789" lon="6.29173">
        <ele>891</ele>
        <time>2015-06-07T10:36:35.000Z</time>
      </trkpt>
      <trkpt lat="44.11774" lon="6.29154">
        <ele>884.8</ele>
        <time>2015-06-07T10:36:40.000Z</time>
      </trkpt>
      <trkpt lat="44.11767" lon="6.29144">
        <ele>881.5</ele>
        <time>2015-06-07T10:36:43.000Z</time>
      </trkpt>
      <trkpt lat="44.11754" lon="6.29128">
        <ele>876.5</ele>
        <time>2015-06-07T10:36:47.000Z</time>
      </trkpt>
      <trkpt lat="44.11733" lon="6.29103">
        <ele>871.1</ele>
        <time>2015-06-07T10:36:52.000Z</time>
      </trkpt>
      <trkpt lat="44.11721" lon="6.29087">
        <ele>868.9</ele>
        <time>2015-06-07T10:36:55.000Z</time>
      </trkpt>
      <trkpt lat="44.11712" lon="6.29076">
        <ele>866.8</ele>
        <time>2015-06-07T10:36:57.000Z</time>
      </trkpt>
      <trkpt lat="44.11705" lon="6.29069">
        <ele>865.5</ele>
        <time>2015-06-07T10:36:59.000Z</time>
      </trkpt>
      <trkpt lat="44.11694" lon="6.29057">
        <ele>863.9</ele>
        <time>2015-06-07T10:37:06.000Z</time>
      </trkpt>
      <trkpt lat="44.11695" lon="6.29057">
        <ele>864</ele>
        <time>2015-06-07T10:37:29.000Z</time>
      </trkpt>
      <trkpt lat="44.11695" lon="6.29057">
        <ele>864.1</ele>
        <time>2015-06-07T10:38:00.000Z</time>
      </trkpt>
      <trkpt lat="44.11695" lon="6.29057">
        <ele>864.1</ele>
        <time>2015-06-07T10:38:24.000Z</time>
      </trkpt>
      <trkpt lat="44.11695" lon="6.29057">
        <ele>864.1</ele>
        <time>2015-06-07T10:38:44.000Z</time>
      </trkpt>
      <trkpt lat="44.11694" lon="6.29058">
        <ele>864</ele>
        <time>2015-06-07T10:39:12.000Z</time>
      </trkpt>
      <trkpt lat="44.11693" lon="6.29058">
        <ele>863.8</ele>
        <time>2015-06-07T10:39:23.000Z</time>
      </trkpt>
      <trkpt lat="44.11692" lon="6.2906">
        <ele>863.7</ele>
        <time>2015-06-07T10:39:25.000Z</time>
      </trkpt>
      <trkpt lat="44.11678" lon="6.2906">
        <ele>862.2</ele>
        <time>2015-06-07T10:39:31.000Z</time>
      </trkpt>
      <trkpt lat="44.11672" lon="6.29037">
        <ele>860.9</ele>
        <time>2015-06-07T10:39:36.000Z</time>
      </trkpt>
      <trkpt lat="44.11658" lon="6.29005">
        <ele>858.7</ele>
        <time>2015-06-07T10:39:42.000Z</time>
      </trkpt>
      <trkpt lat="44.11632" lon="6.28968">
        <ele>858.2</ele>
        <time>2015-06-07T10:39:52.000Z</time>
      </trkpt>
      <trkpt lat="44.1162" lon="6.2894">
        <ele>858</ele>
        <time>2015-06-07T10:40:06.000Z</time>
      </trkpt>
      <trkpt lat="44.11616" lon="6.28935">
        <ele>858.1</ele>
        <time>2015-06-07T10:40:08.000Z</time>
      </trkpt>
      <trkpt lat="44.11604" lon="6.28892">
        <ele>859.1</ele>
        <time>2015-06-07T10:40:19.000Z</time>
      </trkpt>
      <trkpt lat="44.11593" lon="6.28843">
        <ele>857.9</ele>
        <time>2015-06-07T10:40:28.000Z</time>
      </trkpt>
      <trkpt lat="44.11587" lon="6.28821">
        <ele>858.9</ele>
        <time>2015-06-07T10:40:32.000Z</time>
      </trkpt>
      <trkpt lat="44.11586" lon="6.28815">
        <ele>859.3</ele>
        <time>2015-06-07T10:40:33.000Z</time>
      </trkpt>
      <trkpt lat="44.11589" lon="6.28787">
        <ele>860.5</ele>
        <time>2015-06-07T10:40:41.000Z</time>
      </trkpt>
      <trkpt lat="44.11586" lon="6.28761">
        <ele>861.4</ele>
        <time>2015-06-07T10:40:48.000Z</time>
      </trkpt>
      <trkpt lat="44.11585" lon="6.28743">
        <ele>862.1</ele>
        <time>2015-06-07T10:40:52.000Z</time>
      </trkpt>
      <trkpt lat="44.1158" lon="6.28712">
        <ele>863</ele>
        <time>2015-06-07T10:41:00.000Z</time>
      </trkpt>
      <trkpt lat="44.11569" lon="6.28661">
        <ele>865.2</ele>
        <time>2015-06-07T10:41:16.000Z</time>
      </trkpt>
      <trkpt lat="44.11569" lon="6.28658">
        <ele>865.5</ele>
        <time>2015-06-07T10:41:18.000Z</time>
      </trkpt>
      <trkpt lat="44.11549" lon="6.28643">
        <ele>865</ele>
        <time>2015-06-07T10:41:27.000Z</time>
      </trkpt>
      <trkpt lat="44.11531" lon="6.28623">
        <ele>862.9</ele>
        <time>2015-06-07T10:41:31.000Z</time>
      </trkpt>
      <trkpt lat="44.11508" lon="6.28612">
        <ele>860.7</ele>
        <time>2015-06-07T10:41:35.000Z</time>
      </trkpt>
      <trkpt lat="44.11497" lon="6.28587">
        <ele>858.7</ele>
        <time>2015-06-07T10:41:40.000Z</time>
      </trkpt>
      <trkpt lat="44.11493" lon="6.28583">
        <ele>858.1</ele>
        <time>2015-06-07T10:41:41.000Z</time>
      </trkpt>
      <trkpt lat="44.11486" lon="6.28576">
        <ele>856.4</ele>
        <time>2015-06-07T10:41:43.000Z</time>
      </trkpt>
      <trkpt lat="44.11475" lon="6.28565">
        <ele>854</ele>
        <time>2015-06-07T10:41:46.000Z</time>
      </trkpt>
      <trkpt lat="44.11454" lon="6.28537">
        <ele>850.1</ele>
        <time>2015-06-07T10:41:53.000Z</time>
      </trkpt>
      <trkpt lat="44.11445" lon="6.28527">
        <ele>848.9</ele>
        <time>2015-06-07T10:41:55.000Z</time>
      </trkpt>
      <trkpt lat="44.114" lon="6.28502">
        <ele>846.1</ele>
        <time>2015-06-07T10:42:05.000Z</time>
      </trkpt>
      <trkpt lat="44.11384" lon="6.28484">
        <ele>845.3</ele>
        <time>2015-06-07T10:42:09.000Z</time>
      </trkpt>
      <trkpt lat="44.11339" lon="6.2843">
        <ele>844.1</ele>
        <time>2015-06-07T10:42:18.000Z</time>
      </trkpt>
      <trkpt lat="44.11323" lon="6.28431">
        <ele>843.1</ele>
        <time>2015-06-07T10:42:22.000Z</time>
      </trkpt>
      <trkpt lat="44.11302" lon="6.28434">
        <ele>839.7</ele>
        <time>2015-06-07T10:42:28.000Z</time>
      </trkpt>
      <trkpt lat="44.11277" lon="6.28434">
        <ele>835.2</ele>
        <time>2015-06-07T10:42:32.000Z</time>
      </trkpt>
      <trkpt lat="44.11265" lon="6.28429">
        <ele>833.9</ele>
        <time>2015-06-07T10:42:34.000Z</time>
      </trkpt>
      <trkpt lat="44.11248" lon="6.28421">
        <ele>832.3</ele>
        <time>2015-06-07T10:42:38.000Z</time>
      </trkpt>
      <trkpt lat="44.11242" lon="6.28416">
        <ele>831.6</ele>
        <time>2015-06-07T10:42:40.000Z</time>
      </trkpt>
      <trkpt lat="44.11225" lon="6.28394">
        <ele>829.2</ele>
        <time>2015-06-07T10:42:45.000Z</time>
      </trkpt>
      <trkpt lat="44.11196" lon="6.28381">
        <ele>825.8</ele>
        <time>2015-06-07T10:42:51.000Z</time>
      </trkpt>
      <trkpt lat="44.11172" lon="6.28373">
        <ele>823.8</ele>
        <time>2015-06-07T10:42:55.000Z</time>
      </trkpt>
      <trkpt lat="44.11146" lon="6.28354">
        <ele>823</ele>
        <time>2015-06-07T10:43:00.000Z</time>
      </trkpt>
      <trkpt lat="44.11129" lon="6.28339">
        <ele>824.6</ele>
        <time>2015-06-07T10:43:08.000Z</time>
      </trkpt>
      <trkpt lat="44.1113" lon="6.28341">
        <ele>824.4</ele>
        <time>2015-06-07T10:43:40.000Z</time>
      </trkpt>
      <trkpt lat="44.11124" lon="6.28341">
        <ele>824.9</ele>
        <time>2015-06-07T10:43:56.000Z</time>
      </trkpt>
      <trkpt lat="44.11124" lon="6.28341">
        <ele>825</ele>
        <time>2015-06-07T10:44:33.000Z</time>
      </trkpt>
      <trkpt lat="44.11121" lon="6.28338">
        <ele>825.4</ele>
        <time>2015-06-07T10:45:21.000Z</time>
      </trkpt>
      <trkpt lat="44.11122" lon="6.28341">
        <ele>825.2</ele>
        <time>2015-06-07T10:46:02.000Z</time>
      </trkpt>
      <trkpt lat="44.11124" lon="6.28341">
        <ele>824.9</ele>
        <time>2015-06-07T10:46:17.000Z</time>
      </trkpt>
      <trkpt lat="44.11125" lon="6.28341">
        <ele>824.8</ele>
        <time>2015-06-07T10:46:48.000Z</time>
      </trkpt>
      <trkpt lat="44.11126" lon="6.28341">
        <ele>824.7</ele>
        <time>2015-06-07T10:47:31.000Z</time>
      </trkpt>
      <trkpt lat="44.11124" lon="6.28343">
        <ele>824.7</ele>
        <time>2015-06-07T10:48:06.000Z</time>
      </trkpt>
      <trkpt lat="44.11126" lon="6.28344">
        <ele>824.5</ele>
        <time>2015-06-07T10:48:35.000Z</time>
      </trkpt>
      <trkpt lat="44.11124" lon="6.28344">
        <ele>824.6</ele>
        <time>2015-06-07T10:49:04.000Z</time>
      </trkpt>
      <trkpt lat="44.11121" lon="6.28346">
        <ele>824.6</ele>
        <time>2015-06-07T10:49:40.000Z</time>
      </trkpt>
      <trkpt lat="44.11122" lon="6.28345">
        <ele>824.8</ele>
        <time>2015-06-07T10:50:00.000Z</time>
      </trkpt>
      <trkpt lat="44.11125" lon="6.28344">
        <ele>824.6</ele>
        <time>2015-06-07T10:50:34.000Z</time>
      </trkpt>
      <trkpt lat="44.11127" lon="6.28341">
        <ele>824.6</ele>
        <time>2015-06-07T10:51:13.000Z</time>
      </trkpt>
      <trkpt lat="44.11132" lon="6.28338">
        <ele>824.4</ele>
        <time>2015-06-07T10:51:50.000Z</time>
      </trkpt>
      <trkpt lat="44.11127" lon="6.28342">
        <ele>824.5</ele>
        <time>2015-06-07T10:52:21.000Z</time>
      </trkpt>
      <trkpt lat="44.11121" lon="6.28343">
        <ele>825</ele>
        <time>2015-06-07T10:52:54.000Z</time>
      </trkpt>
      <trkpt lat="44.1111" lon="6.28341">
        <ele>826.4</ele>
        <time>2015-06-07T10:53:09.000Z</time>
      </trkpt>
      <trkpt lat="44.11096" lon="6.28347">
        <ele>828.3</ele>
        <time>2015-06-07T10:53:25.000Z</time>
      </trkpt>
      <trkpt lat="44.11085" lon="6.28354">
        <ele>829.1</ele>
        <time>2015-06-07T10:53:41.000Z</time>
      </trkpt>
      <trkpt lat="44.11077" lon="6.28356">
        <ele>829</ele>
        <time>2015-06-07T10:53:50.000Z</time>
      </trkpt>
      <trkpt lat="44.11072" lon="6.28346">
        <ele>831.4</ele>
        <time>2015-06-07T10:53:58.000Z</time>
      </trkpt>
      <trkpt lat="44.11061" lon="6.28333">
        <ele>835.4</ele>
        <time>2015-06-07T10:54:08.000Z</time>
      </trkpt>
      <trkpt lat="44.11052" lon="6.28329">
        <ele>835.8</ele>
        <time>2015-06-07T10:54:15.000Z</time>
      </trkpt>
      <trkpt lat="44.11041" lon="6.28311">
        <ele>836.5</ele>
        <time>2015-06-07T10:54:33.000Z</time>
      </trkpt>
      <trkpt lat="44.11041" lon="6.28311">
        <ele>836.4</ele>
        <time>2015-06-07T10:55:01.000Z</time>
      </trkpt>
      <trkpt lat="44.11031" lon="6.283">
        <ele>836.8</ele>
        <time>2015-06-07T10:55:23.000Z</time>
      </trkpt>
      <trkpt lat="44.11017" lon="6.28259">
        <ele>836.3</ele>
        <time>2015-06-07T10:55:35.000Z</time>
      </trkpt>
      <trkpt lat="44.10995" lon="6.28249">
        <ele>831.9</ele>
        <time>2015-06-07T10:55:40.000Z</time>
      </trkpt>
      <trkpt lat="44.10972" lon="6.2824">
        <ele>824</ele>
        <time>2015-06-07T10:55:44.000Z</time>
      </trkpt>
      <trkpt lat="44.10956" lon="6.28242">
        <ele>819</ele>
        <time>2015-06-07T10:55:47.000Z</time>
      </trkpt>
      <trkpt lat="44.10953" lon="6.28243">
        <ele>818</ele>
        <time>2015-06-07T10:55:48.000Z</time>
      </trkpt>
      <trkpt lat="44.10951" lon="6.28244">
        <ele>817.3</ele>
        <time>2015-06-07T10:55:50.000Z</time>
      </trkpt>
      <trkpt lat="44.10941" lon="6.28253">
        <ele>813</ele>
        <time>2015-06-07T10:55:54.000Z</time>
      </trkpt>
      <trkpt lat="44.1093" lon="6.28254">
        <ele>809.7</ele>
        <time>2015-06-07T10:55:56.000Z</time>
      </trkpt>
      <trkpt lat="44.10921" lon="6.28252">
        <ele>808.2</ele>
        <time>2015-06-07T10:55:58.000Z</time>
      </trkpt>
      <trkpt lat="44.10906" lon="6.28238">
        <ele>804.6</ele>
        <time>2015-06-07T10:56:02.000Z</time>
      </trkpt>
      <trkpt lat="44.10883" lon="6.28222">
        <ele>800.5</ele>
        <time>2015-06-07T10:56:06.000Z</time>
      </trkpt>
      <trkpt lat="44.10874" lon="6.28217">
        <ele>797.8</ele>
        <time>2015-06-07T10:56:08.000Z</time>
      </trkpt>
      <trkpt lat="44.10862" lon="6.28215">
        <ele>795.3</ele>
        <time>2015-06-07T10:56:10.000Z</time>
      </trkpt>
      <trkpt lat="44.10841" lon="6.28214">
        <ele>789.7</ele>
        <time>2015-06-07T10:56:15.000Z</time>
      </trkpt>
      <trkpt lat="44.10836" lon="6.28205">
        <ele>788</ele>
        <time>2015-06-07T10:56:18.000Z</time>
      </trkpt>
      <trkpt lat="44.10833" lon="6.28188">
        <ele>786.2</ele>
        <time>2015-06-07T10:56:22.000Z</time>
      </trkpt>
      <trkpt lat="44.10819" lon="6.28166">
        <ele>780.3</ele>
        <time>2015-06-07T10:56:26.000Z</time>
      </trkpt>
      <trkpt lat="44.10806" lon="6.28147">
        <ele>778.5</ele>
        <time>2015-06-07T10:56:29.000Z</time>
      </trkpt>
      <trkpt lat="44.10786" lon="6.28126">
        <ele>775.1</ele>
        <time>2015-06-07T10:56:33.000Z</time>
      </trkpt>
      <trkpt lat="44.10772" lon="6.28116">
        <ele>773.5</ele>
        <time>2015-06-07T10:56:35.000Z</time>
      </trkpt>
      <trkpt lat="44.10756" lon="6.28107">
        <ele>771.1</ele>
        <time>2015-06-07T10:56:37.000Z</time>
      </trkpt>
      <trkpt lat="44.10724" lon="6.28088">
        <ele>772.9</ele>
        <time>2015-06-07T10:56:44.000Z</time>
      </trkpt>
      <trkpt lat="44.10713" lon="6.28064">
        <ele>769.9</ele>
        <time>2015-06-07T10:56:48.000Z</time>
      </trkpt>
      <trkpt lat="44.10699" lon="6.28041">
        <ele>767.2</ele>
        <time>2015-06-07T10:56:51.000Z</time>
      </trkpt>
      <trkpt lat="44.10678" lon="6.28026">
        <ele>765.6</ele>
        <time>2015-06-07T10:56:55.000Z</time>
      </trkpt>
      <trkpt lat="44.1067" lon="6.28021">
        <ele>764.3</ele>
        <time>2015-06-07T10:56:57.000Z</time>
      </trkpt>
      <trkpt lat="44.10657" lon="6.28017">
        <ele>762.8</ele>
        <time>2015-06-07T10:56:59.000Z</time>
      </trkpt>
      <trkpt lat="44.10629" lon="6.28025">
        <ele>758.7</ele>
        <time>2015-06-07T10:57:04.000Z</time>
      </trkpt>
      <trkpt lat="44.106" lon="6.28018">
        <ele>755.3</ele>
        <time>2015-06-07T10:57:09.000Z</time>
      </trkpt>
      <trkpt lat="44.10594" lon="6.28017">
        <ele>754.6</ele>
        <time>2015-06-07T10:57:10.000Z</time>
      </trkpt>
      <trkpt lat="44.10578" lon="6.28007">
        <ele>753.4</ele>
        <time>2015-06-07T10:57:13.000Z</time>
      </trkpt>
      <trkpt lat="44.10568" lon="6.28004">
        <ele>752</ele>
        <time>2015-06-07T10:57:20.000Z</time>
      </trkpt>
      <trkpt lat="44.10565" lon="6.28002">
        <ele>751.6</ele>
        <time>2015-06-07T10:57:22.000Z</time>
      </trkpt>
      <trkpt lat="44.10558" lon="6.27974">
        <ele>748.1</ele>
        <time>2015-06-07T10:57:28.000Z</time>
      </trkpt>
      <trkpt lat="44.10552" lon="6.27969">
        <ele>746.9</ele>
        <time>2015-06-07T10:57:31.000Z</time>
      </trkpt>
      <trkpt lat="44.10533" lon="6.27967">
        <ele>744.5</ele>
        <time>2015-06-07T10:57:39.000Z</time>
      </trkpt>
      <trkpt lat="44.10515" lon="6.27957">
        <ele>742.9</ele>
        <time>2015-06-07T10:57:48.000Z</time>
      </trkpt>
      <trkpt lat="44.10513" lon="6.27955">
        <ele>742.8</ele>
        <time>2015-06-07T10:58:07.000Z</time>
      </trkpt>
      <trkpt lat="44.10514" lon="6.27956">
        <ele>742.9</ele>
        <time>2015-06-07T10:58:41.000Z</time>
      </trkpt>
      <trkpt lat="44.1051" lon="6.27954">
        <ele>742.7</ele>
        <time>2015-06-07T10:59:04.000Z</time>
      </trkpt>
      <trkpt lat="44.10497" lon="6.27955">
        <ele>741.7</ele>
        <time>2015-06-07T10:59:09.000Z</time>
      </trkpt>
      <trkpt lat="44.10462" lon="6.27944">
        <ele>742.2</ele>
        <time>2015-06-07T10:59:18.000Z</time>
      </trkpt>
      <trkpt lat="44.10443" lon="6.27938">
        <ele>740.1</ele>
        <time>2015-06-07T10:59:22.000Z</time>
      </trkpt>
      <trkpt lat="44.10427" lon="6.27935">
        <ele>737.7</ele>
        <time>2015-06-07T10:59:25.000Z</time>
      </trkpt>
      <trkpt lat="44.10398" lon="6.27935">
        <ele>733.9</ele>
        <time>2015-06-07T10:59:30.000Z</time>
      </trkpt>
      <trkpt lat="44.10386" lon="6.2794">
        <ele>732.4</ele>
        <time>2015-06-07T10:59:32.000Z</time>
      </trkpt>
      <trkpt lat="44.10373" lon="6.27946">
        <ele>731.2</ele>
        <time>2015-06-07T10:59:34.000Z</time>
      </trkpt>
      <trkpt lat="44.10362" lon="6.27949">
        <ele>730</ele>
        <time>2015-06-07T10:59:36.000Z</time>
      </trkpt>
      <trkpt lat="44.10356" lon="6.2795">
        <ele>728.9</ele>
        <time>2015-06-07T10:59:37.000Z</time>
      </trkpt>
      <trkpt lat="44.10336" lon="6.27958">
        <ele>725</ele>
        <time>2015-06-07T10:59:41.000Z</time>
      </trkpt>
      <trkpt lat="44.10332" lon="6.2796">
        <ele>724.4</ele>
        <time>2015-06-07T10:59:42.000Z</time>
      </trkpt>
      <trkpt lat="44.10313" lon="6.27958">
        <ele>720.8</ele>
        <time>2015-06-07T10:59:46.000Z</time>
      </trkpt>
      <trkpt lat="44.10286" lon="6.27945">
        <ele>714.1</ele>
        <time>2015-06-07T10:59:52.000Z</time>
      </trkpt>
      <trkpt lat="44.10282" lon="6.2794">
        <ele>712.5</ele>
        <time>2015-06-07T10:59:53.000Z</time>
      </trkpt>
      <trkpt lat="44.10278" lon="6.27937">
        <ele>711.3</ele>
        <time>2015-06-07T10:59:54.000Z</time>
      </trkpt>
      <trkpt lat="44.10267" lon="6.27931">
        <ele>707.7</ele>
        <time>2015-06-07T10:59:57.000Z</time>
      </trkpt>
      <trkpt lat="44.10249" lon="6.2792">
        <ele>703.3</ele>
        <time>2015-06-07T11:00:02.000Z</time>
      </trkpt>
      <trkpt lat="44.10234" lon="6.27911">
        <ele>697.5</ele>
        <time>2015-06-07T11:00:06.000Z</time>
      </trkpt>
      <trkpt lat="44.10223" lon="6.27908">
        <ele>693.7</ele>
        <time>2015-06-07T11:00:09.000Z</time>
      </trkpt>
      <trkpt lat="44.10213" lon="6.27904">
        <ele>690.5</ele>
        <time>2015-06-07T11:00:13.000Z</time>
      </trkpt>
      <trkpt lat="44.102" lon="6.27899">
        <ele>687.1</ele>
        <time>2015-06-07T11:00:18.000Z</time>
      </trkpt>
      <trkpt lat="44.10196" lon="6.27902">
        <ele>686.3</ele>
        <time>2015-06-07T11:00:21.000Z</time>
      </trkpt>
      <trkpt lat="44.10195" lon="6.27902">
        <ele>686.1</ele>
        <time>2015-06-07T11:00:22.000Z</time>
      </trkpt>
      <trkpt lat="44.10191" lon="6.27894">
        <ele>685.8</ele>
        <time>2015-06-07T11:00:27.000Z</time>
      </trkpt>
      <trkpt lat="44.10189" lon="6.27894">
        <ele>685.6</ele>
        <time>2015-06-07T11:00:28.000Z</time>
      </trkpt>
      <trkpt lat="44.10183" lon="6.27894">
        <ele>685.2</ele>
        <time>2015-06-07T11:00:31.000Z</time>
      </trkpt>
      <trkpt lat="44.1017" lon="6.27892">
        <ele>684.3</ele>
        <time>2015-06-07T11:00:35.000Z</time>
      </trkpt>
      <trkpt lat="44.10156" lon="6.27886">
        <ele>684.5</ele>
        <time>2015-06-07T11:00:41.000Z</time>
      </trkpt>
      <trkpt lat="44.10127" lon="6.27858">
        <ele>685.4</ele>
        <time>2015-06-07T11:00:50.000Z</time>
      </trkpt>
      <trkpt lat="44.10115" lon="6.27854">
        <ele>685.3</ele>
        <time>2015-06-07T11:00:55.000Z</time>
      </trkpt>
      <trkpt lat="44.10107" lon="6.27817">
        <ele>683.1</ele>
        <time>2015-06-07T11:01:08.000Z</time>
      </trkpt>
      <trkpt lat="44.10102" lon="6.27807">
        <ele>682.7</ele>
        <time>2015-06-07T11:01:13.000Z</time>
      </trkpt>
      <trkpt lat="44.1009" lon="6.27799">
        <ele>682.1</ele>
        <time>2015-06-07T11:01:23.000Z</time>
      </trkpt>
      <trkpt lat="44.10062" lon="6.27779">
        <ele>681.2</ele>
        <time>2015-06-07T11:01:34.000Z</time>
      </trkpt>
      <trkpt lat="44.10053" lon="6.27765">
        <ele>681.1</ele>
        <time>2015-06-07T11:01:37.000Z</time>
      </trkpt>
      <trkpt lat="44.1005" lon="6.27761">
        <ele>681</ele>
        <time>2015-06-07T11:01:38.000Z</time>
      </trkpt>
      <trkpt lat="44.10022" lon="6.27755">
        <ele>680.5</ele>
        <time>2015-06-07T11:01:43.000Z</time>
      </trkpt>
      <trkpt lat="44.10016" lon="6.27751">
        <ele>679.7</ele>
        <time>2015-06-07T11:01:45.000Z</time>
      </trkpt>
      <trkpt lat="44.09998" lon="6.27745">
        <ele>679.4</ele>
        <time>2015-06-07T11:01:50.000Z</time>
      </trkpt>
      <trkpt lat="44.09994" lon="6.27738">
        <ele>679.7</ele>
        <time>2015-06-07T11:01:53.000Z</time>
      </trkpt>
      <trkpt lat="44.09985" lon="6.27712">
        <ele>679.3</ele>
        <time>2015-06-07T11:02:00.000Z</time>
      </trkpt>
      <trkpt lat="44.09979" lon="6.27694">
        <ele>678.4</ele>
        <time>2015-06-07T11:02:03.000Z</time>
      </trkpt>
      <trkpt lat="44.09973" lon="6.27677">
        <ele>677.4</ele>
        <time>2015-06-07T11:02:06.000Z</time>
      </trkpt>
      <trkpt lat="44.09958" lon="6.27666">
        <ele>676.5</ele>
        <time>2015-06-07T11:02:10.000Z</time>
      </trkpt>
      <trkpt lat="44.09945" lon="6.27661">
        <ele>676.9</ele>
        <time>2015-06-07T11:02:13.000Z</time>
      </trkpt>
      <trkpt lat="44.09943" lon="6.2766">
        <ele>677.1</ele>
        <time>2015-06-07T11:02:14.000Z</time>
      </trkpt>
      <trkpt lat="44.09926" lon="6.27644">
        <ele>677.9</ele>
        <time>2015-06-07T11:02:23.000Z</time>
      </trkpt>
      <trkpt lat="44.09924" lon="6.27638">
        <ele>678</ele>
        <time>2015-06-07T11:02:25.000Z</time>
      </trkpt>
      <trkpt lat="44.09917" lon="6.27625">
        <ele>681</ele>
        <time>2015-06-07T11:02:29.000Z</time>
      </trkpt>
      <trkpt lat="44.09898" lon="6.27611">
        <ele>681.7</ele>
        <time>2015-06-07T11:02:34.000Z</time>
      </trkpt>
      <trkpt lat="44.09868" lon="6.27614">
        <ele>675.6</ele>
        <time>2015-06-07T11:02:40.000Z</time>
      </trkpt>
      <trkpt lat="44.09859" lon="6.27613">
        <ele>674.1</ele>
        <time>2015-06-07T11:02:42.000Z</time>
      </trkpt>
      <trkpt lat="44.09838" lon="6.2762">
        <ele>676.2</ele>
        <time>2015-06-07T11:02:51.000Z</time>
      </trkpt>
      <trkpt lat="44.09831" lon="6.2762">
        <ele>676.8</ele>
        <time>2015-06-07T11:03:01.000Z</time>
      </trkpt>
      <trkpt lat="44.09822" lon="6.27604">
        <ele>674</ele>
        <time>2015-06-07T11:03:09.000Z</time>
      </trkpt>
      <trkpt lat="44.09787" lon="6.27578">
        <ele>670.9</ele>
        <time>2015-06-07T11:03:23.000Z</time>
      </trkpt>
      <trkpt lat="44.09776" lon="6.27561">
        <ele>669.8</ele>
        <time>2015-06-07T11:03:31.000Z</time>
      </trkpt>
      <trkpt lat="44.09761" lon="6.27532">
        <ele>669.9</ele>
        <time>2015-06-07T11:03:44.000Z</time>
      </trkpt>
      <trkpt lat="44.09755" lon="6.27518">
        <ele>669.8</ele>
        <time>2015-06-07T11:03:50.000Z</time>
      </trkpt>
      <trkpt lat="44.09753" lon="6.27514">
        <ele>669.7</ele>
        <time>2015-06-07T11:03:52.000Z</time>
      </trkpt>
      <trkpt lat="44.09722" lon="6.27513">
        <ele>671.7</ele>
        <time>2015-06-07T11:04:04.000Z</time>
      </trkpt>
      <trkpt lat="44.09714" lon="6.27514">
        <ele>673.4</ele>
        <time>2015-06-07T11:04:16.000Z</time>
      </trkpt>
      <trkpt lat="44.0971" lon="6.27507">
        <ele>671.7</ele>
        <time>2015-06-07T11:04:21.000Z</time>
      </trkpt>
      <trkpt lat="44.09707" lon="6.27506">
        <ele>671.7</ele>
        <time>2015-06-07T11:04:39.000Z</time>
      </trkpt>
      <trkpt lat="44.09706" lon="6.27505">
        <ele>671.5</ele>
        <time>2015-06-07T11:05:07.000Z</time>
      </trkpt>
      <trkpt lat="44.09704" lon="6.27504">
        <ele>671.3</ele>
        <time>2015-06-07T11:05:44.000Z</time>
      </trkpt>
      <trkpt lat="44.0971" lon="6.27512">
        <ele>673.2</ele>
        <time>2015-06-07T11:06:16.000Z</time>
      </trkpt>
      <trkpt lat="44.09706" lon="6.27509">
        <ele>672.9</ele>
        <time>2015-06-07T11:06:44.000Z</time>
      </trkpt>
      <trkpt lat="44.09701" lon="6.27502">
        <ele>671.1</ele>
        <time>2015-06-07T11:07:20.000Z</time>
      </trkpt>
      <trkpt lat="44.09695" lon="6.27492">
        <ele>669.6</ele>
        <time>2015-06-07T11:07:23.000Z</time>
      </trkpt>
      <trkpt lat="44.09693" lon="6.27487">
        <ele>668.7</ele>
        <time>2015-06-07T11:07:24.000Z</time>
      </trkpt>
      <trkpt lat="44.0969" lon="6.27484">
        <ele>668</ele>
        <time>2015-06-07T11:07:25.000Z</time>
      </trkpt>
      <trkpt lat="44.09686" lon="6.27483">
        <ele>667.9</ele>
        <time>2015-06-07T11:07:26.000Z</time>
      </trkpt>
      <trkpt lat="44.09682" lon="6.27485">
        <ele>668.3</ele>
        <time>2015-06-07T11:07:27.000Z</time>
      </trkpt>
      <trkpt lat="44.09652" lon="6.27503">
        <ele>672.9</ele>
        <time>2015-06-07T11:07:34.000Z</time>
      </trkpt>
      <trkpt lat="44.09636" lon="6.27504">
        <ele>673.1</ele>
        <time>2015-06-07T11:07:38.000Z</time>
      </trkpt>
      <trkpt lat="44.09632" lon="6.27501">
        <ele>671.9</ele>
        <time>2015-06-07T11:07:39.000Z</time>
      </trkpt>
      <trkpt lat="44.09628" lon="6.27498">
        <ele>670.9</ele>
        <time>2015-06-07T11:07:40.000Z</time>
      </trkpt>
      <trkpt lat="44.09615" lon="6.27487">
        <ele>668.2</ele>
        <time>2015-06-07T11:07:43.000Z</time>
      </trkpt>
      <trkpt lat="44.09611" lon="6.27485">
        <ele>667.8</ele>
        <time>2015-06-07T11:07:44.000Z</time>
      </trkpt>
      <trkpt lat="44.09607" lon="6.27484">
        <ele>667.8</ele>
        <time>2015-06-07T11:07:45.000Z</time>
      </trkpt>
      <trkpt lat="44.09583" lon="6.27473">
        <ele>665.5</ele>
        <time>2015-06-07T11:07:52.000Z</time>
      </trkpt>
      <trkpt lat="44.09548" lon="6.27435">
        <ele>661.1</ele>
        <time>2015-06-07T11:08:06.000Z</time>
      </trkpt>
      <trkpt lat="44.09543" lon="6.27431">
        <ele>660.8</ele>
        <time>2015-06-07T11:08:08.000Z</time>
      </trkpt>
      <trkpt lat="44.09539" lon="6.27429">
        <ele>660.6</ele>
        <time>2015-06-07T11:08:09.000Z</time>
      </trkpt>
      <trkpt lat="44.09472" lon="6.27442">
        <ele>663.6</ele>
        <time>2015-06-07T11:08:20.000Z</time>
      </trkpt>
      <trkpt lat="44.09456" lon="6.27426">
        <ele>661.3</ele>
        <time>2015-06-07T11:08:26.000Z</time>
      </trkpt>
      <trkpt lat="44.09454" lon="6.27421">
        <ele>660</ele>
        <time>2015-06-07T11:08:27.000Z</time>
      </trkpt>
      <trkpt lat="44.09453" lon="6.27416">
        <ele>658.6</ele>
        <time>2015-06-07T11:08:28.000Z</time>
      </trkpt>
      <trkpt lat="44.0945" lon="6.2741">
        <ele>657.6</ele>
        <time>2015-06-07T11:08:29.000Z</time>
      </trkpt>
      <trkpt lat="44.0945" lon="6.27402">
        <ele>656.3</ele>
        <time>2015-06-07T11:08:30.000Z</time>
      </trkpt>
      <trkpt lat="44.0945" lon="6.27394">
        <ele>655</ele>
        <time>2015-06-07T11:08:31.000Z</time>
      </trkpt>
      <trkpt lat="44.09452" lon="6.27385">
        <ele>654.5</ele>
        <time>2015-06-07T11:08:32.000Z</time>
      </trkpt>
      <trkpt lat="44.09452" lon="6.27376">
        <ele>655</ele>
        <time>2015-06-07T11:08:33.000Z</time>
      </trkpt>
      <trkpt lat="44.0945" lon="6.27368">
        <ele>655.3</ele>
        <time>2015-06-07T11:08:34.000Z</time>
      </trkpt>
      <trkpt lat="44.09446" lon="6.27361">
        <ele>655.2</ele>
        <time>2015-06-07T11:08:35.000Z</time>
      </trkpt>
      <trkpt lat="44.09441" lon="6.27357">
        <ele>655.2</ele>
        <time>2015-06-07T11:08:36.000Z</time>
      </trkpt>
      <trkpt lat="44.09435" lon="6.27355">
        <ele>654.9</ele>
        <time>2015-06-07T11:08:37.000Z</time>
      </trkpt>
      <trkpt lat="44.0943" lon="6.27354">
        <ele>654.6</ele>
        <time>2015-06-07T11:08:38.000Z</time>
      </trkpt>
      <trkpt lat="44.09424" lon="6.27351">
        <ele>654.4</ele>
        <time>2015-06-07T11:08:39.000Z</time>
      </trkpt>
      <trkpt lat="44.09419" lon="6.27348">
        <ele>654.2</ele>
        <time>2015-06-07T11:08:40.000Z</time>
      </trkpt>
      <trkpt lat="44.09415" lon="6.27344">
        <ele>654.2</ele>
        <time>2015-06-07T11:08:41.000Z</time>
      </trkpt>
      <trkpt lat="44.09389" lon="6.27322">
        <ele>653.8</ele>
        <time>2015-06-07T11:08:47.000Z</time>
      </trkpt>
      <trkpt lat="44.09384" lon="6.27321">
        <ele>653.7</ele>
        <time>2015-06-07T11:08:48.000Z</time>
      </trkpt>
      <trkpt lat="44.0938" lon="6.27319">
        <ele>653.5</ele>
        <time>2015-06-07T11:08:49.000Z</time>
      </trkpt>
      <trkpt lat="44.09375" lon="6.27318">
        <ele>653.3</ele>
        <time>2015-06-07T11:08:50.000Z</time>
      </trkpt>
      <trkpt lat="44.0937" lon="6.27317">
        <ele>653.1</ele>
        <time>2015-06-07T11:08:51.000Z</time>
      </trkpt>
      <trkpt lat="44.0935" lon="6.27307">
        <ele>652.6</ele>
        <time>2015-06-07T11:08:55.000Z</time>
      </trkpt>
      <trkpt lat="44.0934" lon="6.27299">
        <ele>652.6</ele>
        <time>2015-06-07T11:08:57.000Z</time>
      </trkpt>
      <trkpt lat="44.09335" lon="6.27296">
        <ele>652.4</ele>
        <time>2015-06-07T11:08:58.000Z</time>
      </trkpt>
      <trkpt lat="44.09325" lon="6.27292">
        <ele>652.2</ele>
        <time>2015-06-07T11:09:00.000Z</time>
      </trkpt>
      <trkpt lat="44.0932" lon="6.27292">
        <ele>652</ele>
        <time>2015-06-07T11:09:01.000Z</time>
      </trkpt>
      <trkpt lat="44.09315" lon="6.27292">
        <ele>651.8</ele>
        <time>2015-06-07T11:09:02.000Z</time>
      </trkpt>
      <trkpt lat="44.09311" lon="6.27293">
        <ele>651.6</ele>
        <time>2015-06-07T11:09:03.000Z</time>
      </trkpt>
      <trkpt lat="44.09307" lon="6.27295">
        <ele>651.4</ele>
        <time>2015-06-07T11:09:04.000Z</time>
      </trkpt>
      <trkpt lat="44.09303" lon="6.27297">
        <ele>651.2</ele>
        <time>2015-06-07T11:09:05.000Z</time>
      </trkpt>
      <trkpt lat="44.09301" lon="6.27297">
        <ele>651.1</ele>
        <time>2015-06-07T11:09:06.000Z</time>
      </trkpt>
      <trkpt lat="44.09298" lon="6.27296">
        <ele>651.1</ele>
        <time>2015-06-07T11:09:07.000Z</time>
      </trkpt>
      <trkpt lat="44.09295" lon="6.27295">
        <ele>651</ele>
        <time>2015-06-07T11:09:08.000Z</time>
      </trkpt>
      <trkpt lat="44.09291" lon="6.27295">
        <ele>650.8</ele>
        <time>2015-06-07T11:09:09.000Z</time>
      </trkpt>
      <trkpt lat="44.09287" lon="6.27295">
        <ele>650.7</ele>
        <time>2015-06-07T11:09:10.000Z</time>
      </trkpt>
      <trkpt lat="44.09282" lon="6.27295">
        <ele>650.5</ele>
        <time>2015-06-07T11:09:11.000Z</time>
      </trkpt>
      <trkpt lat="44.09241" lon="6.27295">
        <ele>650</ele>
        <time>2015-06-07T11:09:20.000Z</time>
      </trkpt>
      <trkpt lat="44.09175" lon="6.27314">
        <ele>648</ele>
        <time>2015-06-07T11:09:33.000Z</time>
      </trkpt>
      <trkpt lat="44.09169" lon="6.27314">
        <ele>648</ele>
        <time>2015-06-07T11:09:34.000Z</time>
      </trkpt>
      <trkpt lat="44.09165" lon="6.27314">
        <ele>647.9</ele>
        <time>2015-06-07T11:09:35.000Z</time>
      </trkpt>
      <trkpt lat="44.0916" lon="6.27313">
        <ele>647.8</ele>
        <time>2015-06-07T11:09:36.000Z</time>
      </trkpt>
      <trkpt lat="44.09157" lon="6.27309">
        <ele>647.7</ele>
        <time>2015-06-07T11:09:37.000Z</time>
      </trkpt>
      <trkpt lat="44.09155" lon="6.27305">
        <ele>647.5</ele>
        <time>2015-06-07T11:09:38.000Z</time>
      </trkpt>
      <trkpt lat="44.09152" lon="6.273">
        <ele>647.3</ele>
        <time>2015-06-07T11:09:39.000Z</time>
      </trkpt>
      <trkpt lat="44.0913" lon="6.27267">
        <ele>645.6</ele>
        <time>2015-06-07T11:09:50.000Z</time>
      </trkpt>
      <trkpt lat="44.09106" lon="6.27242">
        <ele>644.5</ele>
        <time>2015-06-07T11:10:01.000Z</time>
      </trkpt>
      <trkpt lat="44.09094" lon="6.27226">
        <ele>643.5</ele>
        <time>2015-06-07T11:10:06.000Z</time>
      </trkpt>
      <trkpt lat="44.09092" lon="6.27222">
        <ele>643.3</ele>
        <time>2015-06-07T11:10:07.000Z</time>
      </trkpt>
      <trkpt lat="44.09058" lon="6.27183">
        <ele>641.7</ele>
        <time>2015-06-07T11:10:19.000Z</time>
      </trkpt>
      <trkpt lat="44.09049" lon="6.27175">
        <ele>641.1</ele>
        <time>2015-06-07T11:10:30.000Z</time>
      </trkpt>
      <trkpt lat="44.09047" lon="6.27175">
        <ele>641</ele>
        <time>2015-06-07T11:11:12.000Z</time>
      </trkpt>
      <trkpt lat="44.09048" lon="6.27173">
        <ele>641</ele>
        <time>2015-06-07T11:11:53.000Z</time>
      </trkpt>
      <trkpt lat="44.09046" lon="6.27169">
        <ele>640.7</ele>
        <time>2015-06-07T11:12:43.000Z</time>
      </trkpt>
      <trkpt lat="44.09046" lon="6.2717">
        <ele>640.8</ele>
        <time>2015-06-07T11:13:17.000Z</time>
      </trkpt>
      <trkpt lat="44.09048" lon="6.27169">
        <ele>640.8</ele>
        <time>2015-06-07T11:14:04.000Z</time>
      </trkpt>
      <trkpt lat="44.09048" lon="6.27169">
        <ele>640.8</ele>
        <time>2015-06-07T11:14:36.000Z</time>
      </trkpt>
      <trkpt lat="44.09047" lon="6.27169">
        <ele>640.8</ele>
        <time>2015-06-07T11:15:02.000Z</time>
      </trkpt>
      <trkpt lat="44.09048" lon="6.27169">
        <ele>640.8</ele>
        <time>2015-06-07T11:15:15.000Z</time>
      </trkpt>
      <trkpt lat="44.09046" lon="6.27164">
        <ele>640.6</ele>
        <time>2015-06-07T11:15:20.000Z</time>
      </trkpt>
      <trkpt lat="44.09041" lon="6.27164">
        <ele>640.4</ele>
        <time>2015-06-07T11:15:29.000Z</time>
      </trkpt>
      <trkpt lat="44.09034" lon="6.27181">
        <ele>640.8</ele>
        <time>2015-06-07T11:15:40.000Z</time>
      </trkpt>
      <trkpt lat="44.09025" lon="6.27212">
        <ele>641.6</ele>
        <time>2015-06-07T11:15:59.000Z</time>
      </trkpt>
      <trkpt lat="44.09028" lon="6.27206">
        <ele>641.4</ele>
        <time>2015-06-07T11:16:03.000Z</time>
      </trkpt>
      <trkpt lat="44.09028" lon="6.27203">
        <ele>641.3</ele>
        <time>2015-06-07T11:16:04.000Z</time>
      </trkpt>
      <trkpt lat="44.0903" lon="6.272">
        <ele>641.2</ele>
        <time>2015-06-07T11:16:05.000Z</time>
      </trkpt>
      <trkpt lat="44.09031" lon="6.27197">
        <ele>641.2</ele>
        <time>2015-06-07T11:16:06.000Z</time>
      </trkpt>
      <trkpt lat="44.09034" lon="6.27196">
        <ele>641.3</ele>
        <time>2015-06-07T11:16:07.000Z</time>
      </trkpt>
      <trkpt lat="44.09038" lon="6.27197">
        <ele>641.4</ele>
        <time>2015-06-07T11:16:08.000Z</time>
      </trkpt>
      <trkpt lat="44.09042" lon="6.27199">
        <ele>641.6</ele>
        <time>2015-06-07T11:16:09.000Z</time>
      </trkpt>
      <trkpt lat="44.09046" lon="6.27201">
        <ele>641.7</ele>
        <time>2015-06-07T11:16:10.000Z</time>
      </trkpt>
      <trkpt lat="44.0905" lon="6.27205">
        <ele>641.9</ele>
        <time>2015-06-07T11:16:11.000Z</time>
      </trkpt>
      <trkpt lat="44.09054" lon="6.27208">
        <ele>642</ele>
        <time>2015-06-07T11:16:12.000Z</time>
      </trkpt>
      <trkpt lat="44.09057" lon="6.27213">
        <ele>642</ele>
        <time>2015-06-07T11:16:13.000Z</time>
      </trkpt>
      <trkpt lat="44.09101" lon="6.27272">
        <ele>645.4</ele>
        <time>2015-06-07T11:16:30.000Z</time>
      </trkpt>
      <trkpt lat="44.09111" lon="6.27283">
        <ele>646.2</ele>
        <time>2015-06-07T11:16:40.000Z</time>
      </trkpt>
      <trkpt lat="44.09113" lon="6.27283">
        <ele>646.2</ele>
        <time>2015-06-07T11:16:41.000Z</time>
      </trkpt>
      <trkpt lat="44.09114" lon="6.27284">
        <ele>646.2</ele>
        <time>2015-06-07T11:16:42.000Z</time>
      </trkpt>
      <trkpt lat="44.09116" lon="6.27286">
        <ele>646.3</ele>
        <time>2015-06-07T11:16:43.000Z</time>
      </trkpt>
      <trkpt lat="44.09118" lon="6.27288">
        <ele>646.4</ele>
        <time>2015-06-07T11:16:44.000Z</time>
      </trkpt>
      <trkpt lat="44.0912" lon="6.2729">
        <ele>646.4</ele>
        <time>2015-06-07T11:16:45.000Z</time>
      </trkpt>
      <trkpt lat="44.09122" lon="6.27292">
        <ele>646.5</ele>
        <time>2015-06-07T11:16:46.000Z</time>
      </trkpt>
      <trkpt lat="44.09124" lon="6.2733">
        <ele>647.9</ele>
        <time>2015-06-07T11:16:59.000Z</time>
      </trkpt>
      <trkpt lat="44.09122" lon="6.27331">
        <ele>647.9</ele>
        <time>2015-06-07T11:17:00.000Z</time>
      </trkpt>
      <trkpt lat="44.0912" lon="6.2733">
        <ele>647.9</ele>
        <time>2015-06-07T11:17:01.000Z</time>
      </trkpt>
      <trkpt lat="44.0911" lon="6.27317">
        <ele>647.4</ele>
        <time>2015-06-07T11:17:16.000Z</time>
      </trkpt>
      <trkpt lat="44.09111" lon="6.27317">
        <ele>647.4</ele>
        <time>2015-06-07T11:17:51.000Z</time>
      </trkpt>
      <trkpt lat="44.09105" lon="6.27324">
        <ele>647.6</ele>
        <time>2015-06-07T11:18:37.000Z</time>
      </trkpt>
      <trkpt lat="44.09108" lon="6.27317">
        <ele>647.4</ele>
        <time>2015-06-07T11:19:13.000Z</time>
      </trkpt>
      <trkpt lat="44.09109" lon="6.2732">
        <ele>647.5</ele>
        <time>2015-06-07T11:19:49.000Z</time>
      </trkpt>
      <trkpt lat="44.0911" lon="6.27318">
        <ele>647.4</ele>
        <time>2015-06-07T11:20:26.000Z</time>
      </trkpt>
      <trkpt lat="44.09109" lon="6.27318">
        <ele>647.4</ele>
        <time>2015-06-07T11:20:57.000Z</time>
      </trkpt>
      <trkpt lat="44.0911" lon="6.2732">
        <ele>647.5</ele>
        <time>2015-06-07T11:21:29.000Z</time>
      </trkpt>
      <trkpt lat="44.09111" lon="6.27321">
        <ele>647.5</ele>
        <time>2015-06-07T11:21:32.000Z</time>
      </trkpt>
      <trkpt lat="44.0912" lon="6.27331">
        <ele>647.9</ele>
        <time>2015-06-07T11:21:39.000Z</time>
      </trkpt>
      <trkpt lat="44.09123" lon="6.2733">
        <ele>647.9</ele>
        <time>2015-06-07T11:21:40.000Z</time>
      </trkpt>
      <trkpt lat="44.09126" lon="6.27327">
        <ele>647.8</ele>
        <time>2015-06-07T11:21:41.000Z</time>
      </trkpt>
      <trkpt lat="44.09128" lon="6.27322">
        <ele>647.6</ele>
        <time>2015-06-07T11:21:42.000Z</time>
      </trkpt>
      <trkpt lat="44.0913" lon="6.27317">
        <ele>647.4</ele>
        <time>2015-06-07T11:21:43.000Z</time>
      </trkpt>
      <trkpt lat="44.09131" lon="6.27312">
        <ele>647.2</ele>
        <time>2015-06-07T11:21:44.000Z</time>
      </trkpt>
      <trkpt lat="44.09131" lon="6.27306">
        <ele>647</ele>
        <time>2015-06-07T11:21:45.000Z</time>
      </trkpt>
      <trkpt lat="44.09131" lon="6.273">
        <ele>646.8</ele>
        <time>2015-06-07T11:21:46.000Z</time>
      </trkpt>
      <trkpt lat="44.09129" lon="6.27295">
        <ele>646.6</ele>
        <time>2015-06-07T11:21:47.000Z</time>
      </trkpt>
      <trkpt lat="44.09126" lon="6.2729">
        <ele>646.4</ele>
        <time>2015-06-07T11:21:48.000Z</time>
      </trkpt>
      <trkpt lat="44.09123" lon="6.27285">
        <ele>646.3</ele>
        <time>2015-06-07T11:21:49.000Z</time>
      </trkpt>
      <trkpt lat="44.09119" lon="6.27281">
        <ele>646.1</ele>
        <time>2015-06-07T11:21:50.000Z</time>
      </trkpt>
      <trkpt lat="44.09115" lon="6.27277">
        <ele>646</ele>
        <time>2015-06-07T11:21:51.000Z</time>
      </trkpt>
      <trkpt lat="44.09107" lon="6.27271">
        <ele>645.6</ele>
        <time>2015-06-07T11:21:53.000Z</time>
      </trkpt>
      <trkpt lat="44.09097" lon="6.27264">
        <ele>645</ele>
        <time>2015-06-07T11:21:55.000Z</time>
      </trkpt>
      <trkpt lat="44.09092" lon="6.27261">
        <ele>644.7</ele>
        <time>2015-06-07T11:21:56.000Z</time>
      </trkpt>
      <trkpt lat="44.09087" lon="6.27257">
        <ele>644.4</ele>
        <time>2015-06-07T11:21:57.000Z</time>
      </trkpt>
      <trkpt lat="44.09082" lon="6.27251">
        <ele>644</ele>
        <time>2015-06-07T11:21:58.000Z</time>
      </trkpt>
      <trkpt lat="44.09078" lon="6.27245">
        <ele>643.6</ele>
        <time>2015-06-07T11:21:59.000Z</time>
      </trkpt>
      <trkpt lat="44.09074" lon="6.27238">
        <ele>643.2</ele>
        <time>2015-06-07T11:22:00.000Z</time>
      </trkpt>
      <trkpt lat="44.09057" lon="6.2721">
        <ele>642.1</ele>
        <time>2015-06-07T11:22:04.000Z</time>
      </trkpt>
      <trkpt lat="44.09052" lon="6.27205">
        <ele>641.9</ele>
        <time>2015-06-07T11:22:05.000Z</time>
      </trkpt>
      <trkpt lat="44.09047" lon="6.272">
        <ele>641.8</ele>
        <time>2015-06-07T11:22:06.000Z</time>
      </trkpt>
      <trkpt lat="44.09042" lon="6.27197">
        <ele>641.6</ele>
        <time>2015-06-07T11:22:07.000Z</time>
      </trkpt>
      <trkpt lat="44.09037" lon="6.27195">
        <ele>641.4</ele>
        <time>2015-06-07T11:22:08.000Z</time>
      </trkpt>
      <trkpt lat="44.09034" lon="6.27194">
        <ele>641.2</ele>
        <time>2015-06-07T11:22:09.000Z</time>
      </trkpt>
      <trkpt lat="44.0903" lon="6.27196">
        <ele>641.1</ele>
        <time>2015-06-07T11:22:10.000Z</time>
      </trkpt>
      <trkpt lat="44.09028" lon="6.272">
        <ele>641.2</ele>
        <time>2015-06-07T11:22:11.000Z</time>
      </trkpt>
      <trkpt lat="44.09027" lon="6.27204">
        <ele>641.3</ele>
        <time>2015-06-07T11:22:12.000Z</time>
      </trkpt>
      <trkpt lat="44.09025" lon="6.27209">
        <ele>641.5</ele>
        <time>2015-06-07T11:22:13.000Z</time>
      </trkpt>
      <trkpt lat="44.09023" lon="6.27215">
        <ele>641.7</ele>
        <time>2015-06-07T11:22:14.000Z</time>
      </trkpt>
      <trkpt lat="44.09021" lon="6.2722">
        <ele>641.9</ele>
        <time>2015-06-07T11:22:15.000Z</time>
      </trkpt>
      <trkpt lat="44.09019" lon="6.27226">
        <ele>642.1</ele>
        <time>2015-06-07T11:22:16.000Z</time>
      </trkpt>
      <trkpt lat="44.09017" lon="6.27232">
        <ele>642.4</ele>
        <time>2015-06-07T11:22:17.000Z</time>
      </trkpt>
      <trkpt lat="44.0897" lon="6.27372">
        <ele>643.4</ele>
        <time>2015-06-07T11:22:41.000Z</time>
      </trkpt>
      <trkpt lat="44.08961" lon="6.27404">
        <ele>644</ele>
        <time>2015-06-07T11:22:47.000Z</time>
      </trkpt>
      <trkpt lat="44.0896" lon="6.27406">
        <ele>643.9</ele>
        <time>2015-06-07T11:22:48.000Z</time>
      </trkpt>
      <trkpt lat="44.08955" lon="6.27409">
        <ele>643.7</ele>
        <time>2015-06-07T11:22:50.000Z</time>
      </trkpt>
      <trkpt lat="44.08953" lon="6.27408">
        <ele>643.5</ele>
        <time>2015-06-07T11:22:53.000Z</time>
      </trkpt>
      <trkpt lat="44.08953" lon="6.27407">
        <ele>643.5</ele>
        <time>2015-06-07T11:22:56.000Z</time>
      </trkpt>
      <trkpt lat="44.08952" lon="6.27398">
        <ele>643.4</ele>
        <time>2015-06-07T11:23:01.000Z</time>
      </trkpt>
      <trkpt lat="44.08945" lon="6.27388">
        <ele>643</ele>
        <time>2015-06-07T11:23:08.000Z</time>
      </trkpt>
      <trkpt lat="44.08941" lon="6.27376">
        <ele>643.3</ele>
        <time>2015-06-07T11:23:13.000Z</time>
      </trkpt>
      <trkpt lat="44.08943" lon="6.27358">
        <ele>643.1</ele>
        <time>2015-06-07T11:23:23.000Z</time>
      </trkpt>
      <trkpt lat="44.08942" lon="6.27365">
        <ele>643.2</ele>
        <time>2015-06-07T11:23:38.000Z</time>
      </trkpt>
      <trkpt lat="44.08941" lon="6.2737">
        <ele>643.3</ele>
        <time>2015-06-07T11:23:49.000Z</time>
      </trkpt>
      <trkpt lat="44.08936" lon="6.27369">
        <ele>643.7</ele>
        <time>2015-06-07T11:23:56.000Z</time>
      </trkpt>
      <trkpt lat="44.0893" lon="6.27372">
        <ele>644.2</ele>
        <time>2015-06-07T11:24:02.000Z</time>
      </trkpt>
      <trkpt lat="44.08916" lon="6.27369">
        <ele>645.4</ele>
        <time>2015-06-07T11:24:18.000Z</time>
      </trkpt>
      <trkpt lat="44.08901" lon="6.27367">
        <ele>647.6</ele>
        <time>2015-06-07T11:24:33.000Z</time>
      </trkpt>
      <trkpt lat="44.08892" lon="6.27364">
        <ele>648.7</ele>
        <time>2015-06-07T11:24:41.000Z</time>
      </trkpt>
      <trkpt lat="44.08891" lon="6.27361">
        <ele>648.8</ele>
        <time>2015-06-07T11:24:43.000Z</time>
      </trkpt>
      <trkpt lat="44.08886" lon="6.27359">
        <ele>649.6</ele>
        <time>2015-06-07T11:24:48.000Z</time>
      </trkpt>
      <trkpt lat="44.0888" lon="6.27357">
        <ele>650.9</ele>
        <time>2015-06-07T11:24:56.000Z</time>
      </trkpt>
      <trkpt lat="44.08868" lon="6.27354">
        <ele>653.6</ele>
        <time>2015-06-07T11:25:09.000Z</time>
      </trkpt>
      <trkpt lat="44.08849" lon="6.27356">
        <ele>657.8</ele>
        <time>2015-06-07T11:25:27.000Z</time>
      </trkpt>
      <trkpt lat="44.08845" lon="6.27362">
        <ele>659.1</ele>
        <time>2015-06-07T11:25:34.000Z</time>
      </trkpt>
      <trkpt lat="44.08841" lon="6.27363">
        <ele>660.2</ele>
        <time>2015-06-07T11:25:38.000Z</time>
      </trkpt>
      <trkpt lat="44.08833" lon="6.27364">
        <ele>662.3</ele>
        <time>2015-06-07T11:25:44.000Z</time>
      </trkpt>
      <trkpt lat="44.08815" lon="6.27368">
        <ele>665.8</ele>
        <time>2015-06-07T11:26:01.000Z</time>
      </trkpt>
      <trkpt lat="44.0881" lon="6.27365">
        <ele>666.5</ele>
        <time>2015-06-07T11:26:06.000Z</time>
      </trkpt>
      <trkpt lat="44.08803" lon="6.2736">
        <ele>667.3</ele>
        <time>2015-06-07T11:26:11.000Z</time>
      </trkpt>
      <trkpt lat="44.08776" lon="6.27331">
        <ele>669.1</ele>
        <time>2015-06-07T11:26:26.000Z</time>
      </trkpt>
      <trkpt lat="44.08758" lon="6.27315">
        <ele>669.8</ele>
        <time>2015-06-07T11:26:35.000Z</time>
      </trkpt>
      <trkpt lat="44.08743" lon="6.27307">
        <ele>671.1</ele>
        <time>2015-06-07T11:26:40.000Z</time>
      </trkpt>
      <trkpt lat="44.08742" lon="6.27306">
        <ele>671.2</ele>
        <time>2015-06-07T11:26:41.000Z</time>
      </trkpt>
      <trkpt lat="44.08741" lon="6.27307">
        <ele>671.4</ele>
        <time>2015-06-07T11:26:45.000Z</time>
      </trkpt>
      <trkpt lat="44.08726" lon="6.2731">
        <ele>673.7</ele>
        <time>2015-06-07T11:26:57.000Z</time>
      </trkpt>
      <trkpt lat="44.08717" lon="6.273">
        <ele>674.8</ele>
        <time>2015-06-07T11:27:05.000Z</time>
      </trkpt>
      <trkpt lat="44.08712" lon="6.27306">
        <ele>675.4</ele>
        <time>2015-06-07T11:27:10.000Z</time>
      </trkpt>
      <trkpt lat="44.08705" lon="6.27309">
        <ele>676.6</ele>
        <time>2015-06-07T11:27:15.000Z</time>
      </trkpt>
      <trkpt lat="44.0869" lon="6.27303">
        <ele>678.9</ele>
        <time>2015-06-07T11:27:26.000Z</time>
      </trkpt>
      <trkpt lat="44.08679" lon="6.27292">
        <ele>681.2</ele>
        <time>2015-06-07T11:27:35.000Z</time>
      </trkpt>
      <trkpt lat="44.08662" lon="6.27281">
        <ele>684.7</ele>
        <time>2015-06-07T11:27:47.000Z</time>
      </trkpt>
      <trkpt lat="44.08646" lon="6.27262">
        <ele>689</ele>
        <time>2015-06-07T11:28:01.000Z</time>
      </trkpt>
      <trkpt lat="44.08623" lon="6.27265">
        <ele>689.4</ele>
        <time>2015-06-07T11:28:13.000Z</time>
      </trkpt>
      <trkpt lat="44.08615" lon="6.27321">
        <ele>688.7</ele>
        <time>2015-06-07T11:28:30.000Z</time>
      </trkpt>
      <trkpt lat="44.0859" lon="6.2736">
        <ele>691.7</ele>
        <time>2015-06-07T11:28:44.000Z</time>
      </trkpt>
      <trkpt lat="44.08548" lon="6.2738">
        <ele>696</ele>
        <time>2015-06-07T11:28:58.000Z</time>
      </trkpt>
      <trkpt lat="44.08543" lon="6.27382">
        <ele>696.5</ele>
        <time>2015-06-07T11:28:59.000Z</time>
      </trkpt>
      <trkpt lat="44.08538" lon="6.27385">
        <ele>697.1</ele>
        <time>2015-06-07T11:29:00.000Z</time>
      </trkpt>
      <trkpt lat="44.08518" lon="6.27399">
        <ele>699.4</ele>
        <time>2015-06-07T11:29:08.000Z</time>
      </trkpt>
      <trkpt lat="44.08492" lon="6.27405">
        <ele>699.9</ele>
        <time>2015-06-07T11:29:18.000Z</time>
      </trkpt>
      <trkpt lat="44.08464" lon="6.27423">
        <ele>703</ele>
        <time>2015-06-07T11:29:31.000Z</time>
      </trkpt>
      <trkpt lat="44.08433" lon="6.2744">
        <ele>704.6</ele>
        <time>2015-06-07T11:29:44.000Z</time>
      </trkpt>
      <trkpt lat="44.08425" lon="6.27445">
        <ele>705</ele>
        <time>2015-06-07T11:29:47.000Z</time>
      </trkpt>
      <trkpt lat="44.08423" lon="6.27448">
        <ele>705.4</ele>
        <time>2015-06-07T11:29:48.000Z</time>
      </trkpt>
      <trkpt lat="44.08416" lon="6.27462">
        <ele>707.8</ele>
        <time>2015-06-07T11:29:52.000Z</time>
      </trkpt>
      <trkpt lat="44.08414" lon="6.27463">
        <ele>707.7</ele>
        <time>2015-06-07T11:29:53.000Z</time>
      </trkpt>
      <trkpt lat="44.08409" lon="6.27462">
        <ele>706.9</ele>
        <time>2015-06-07T11:29:55.000Z</time>
      </trkpt>
      <trkpt lat="44.08407" lon="6.2746">
        <ele>706.4</ele>
        <time>2015-06-07T11:29:56.000Z</time>
      </trkpt>
      <trkpt lat="44.08404" lon="6.27459">
        <ele>705.9</ele>
        <time>2015-06-07T11:29:57.000Z</time>
      </trkpt>
      <trkpt lat="44.08402" lon="6.27457">
        <ele>705.5</ele>
        <time>2015-06-07T11:29:58.000Z</time>
      </trkpt>
      <trkpt lat="44.08399" lon="6.27454">
        <ele>704.8</ele>
        <time>2015-06-07T11:29:59.000Z</time>
      </trkpt>
      <trkpt lat="44.08397" lon="6.27452">
        <ele>704.3</ele>
        <time>2015-06-07T11:30:00.000Z</time>
      </trkpt>
      <trkpt lat="44.08396" lon="6.2745">
        <ele>704</ele>
        <time>2015-06-07T11:30:01.000Z</time>
      </trkpt>
      <trkpt lat="44.08394" lon="6.27448">
        <ele>703.7</ele>
        <time>2015-06-07T11:30:02.000Z</time>
      </trkpt>
      <trkpt lat="44.08392" lon="6.27446">
        <ele>703.3</ele>
        <time>2015-06-07T11:30:03.000Z</time>
      </trkpt>
      <trkpt lat="44.08358" lon="6.27445">
        <ele>702.3</ele>
        <time>2015-06-07T11:30:13.000Z</time>
      </trkpt>
      <trkpt lat="44.08356" lon="6.27451">
        <ele>702.7</ele>
        <time>2015-06-07T11:30:14.000Z</time>
      </trkpt>
      <trkpt lat="44.0835" lon="6.27465">
        <ele>703.4</ele>
        <time>2015-06-07T11:30:16.000Z</time>
      </trkpt>
      <trkpt lat="44.08347" lon="6.27472">
        <ele>703.4</ele>
        <time>2015-06-07T11:30:17.000Z</time>
      </trkpt>
      <trkpt lat="44.08341" lon="6.27486">
        <ele>703</ele>
        <time>2015-06-07T11:30:20.000Z</time>
      </trkpt>
      <trkpt lat="44.0834" lon="6.27487">
        <ele>703</ele>
        <time>2015-06-07T11:30:21.000Z</time>
      </trkpt>
      <trkpt lat="44.08339" lon="6.27488">
        <ele>702.9</ele>
        <time>2015-06-07T11:30:22.000Z</time>
      </trkpt>
      <trkpt lat="44.08338" lon="6.27489">
        <ele>702.5</ele>
        <time>2015-06-07T11:30:23.000Z</time>
      </trkpt>
      <trkpt lat="44.08336" lon="6.27488">
        <ele>701.7</ele>
        <time>2015-06-07T11:30:24.000Z</time>
      </trkpt>
      <trkpt lat="44.08334" lon="6.27486">
        <ele>700.9</ele>
        <time>2015-06-07T11:30:25.000Z</time>
      </trkpt>
      <trkpt lat="44.08333" lon="6.27484">
        <ele>700.2</ele>
        <time>2015-06-07T11:30:26.000Z</time>
      </trkpt>
      <trkpt lat="44.08333" lon="6.27482">
        <ele>699.9</ele>
        <time>2015-06-07T11:30:27.000Z</time>
      </trkpt>
      <trkpt lat="44.08333" lon="6.2748">
        <ele>699.5</ele>
        <time>2015-06-07T11:30:28.000Z</time>
      </trkpt>
      <trkpt lat="44.08333" lon="6.27478">
        <ele>699.2</ele>
        <time>2015-06-07T11:30:29.000Z</time>
      </trkpt>
      <trkpt lat="44.08332" lon="6.27476">
        <ele>698.9</ele>
        <time>2015-06-07T11:30:30.000Z</time>
      </trkpt>
      <trkpt lat="44.08331" lon="6.27474">
        <ele>698.6</ele>
        <time>2015-06-07T11:30:31.000Z</time>
      </trkpt>
      <trkpt lat="44.08331" lon="6.27473">
        <ele>698.4</ele>
        <time>2015-06-07T11:30:32.000Z</time>
      </trkpt>
      <trkpt lat="44.0833" lon="6.27471">
        <ele>698.2</ele>
        <time>2015-06-07T11:30:33.000Z</time>
      </trkpt>
      <trkpt lat="44.08328" lon="6.2747">
        <ele>698.2</ele>
        <time>2015-06-07T11:30:34.000Z</time>
      </trkpt>
      <trkpt lat="44.08327" lon="6.27468">
        <ele>698.1</ele>
        <time>2015-06-07T11:30:35.000Z</time>
      </trkpt>
      <trkpt lat="44.08325" lon="6.27466">
        <ele>698</ele>
        <time>2015-06-07T11:30:36.000Z</time>
      </trkpt>
      <trkpt lat="44.08324" lon="6.27464">
        <ele>698</ele>
        <time>2015-06-07T11:30:37.000Z</time>
      </trkpt>
      <trkpt lat="44.08322" lon="6.27463">
        <ele>698.1</ele>
        <time>2015-06-07T11:30:38.000Z</time>
      </trkpt>
      <trkpt lat="44.0832" lon="6.27463">
        <ele>698.3</ele>
        <time>2015-06-07T11:30:39.000Z</time>
      </trkpt>
      <trkpt lat="44.08318" lon="6.27464">
        <ele>698.6</ele>
        <time>2015-06-07T11:30:40.000Z</time>
      </trkpt>
      <trkpt lat="44.08317" lon="6.27465">
        <ele>698.9</ele>
        <time>2015-06-07T11:30:41.000Z</time>
      </trkpt>
      <trkpt lat="44.08315" lon="6.27467">
        <ele>699.3</ele>
        <time>2015-06-07T11:30:42.000Z</time>
      </trkpt>
      <trkpt lat="44.08314" lon="6.27469">
        <ele>699.7</ele>
        <time>2015-06-07T11:30:43.000Z</time>
      </trkpt>
      <trkpt lat="44.08313" lon="6.27471">
        <ele>700</ele>
        <time>2015-06-07T11:30:44.000Z</time>
      </trkpt>
      <trkpt lat="44.08313" lon="6.27473">
        <ele>700.4</ele>
        <time>2015-06-07T11:30:45.000Z</time>
      </trkpt>
      <trkpt lat="44.08311" lon="6.2748">
        <ele>701.7</ele>
        <time>2015-06-07T11:30:48.000Z</time>
      </trkpt>
      <trkpt lat="44.0831" lon="6.27482">
        <ele>702.2</ele>
        <time>2015-06-07T11:30:49.000Z</time>
      </trkpt>
      <trkpt lat="44.08309" lon="6.27483">
        <ele>702.6</ele>
        <time>2015-06-07T11:30:50.000Z</time>
      </trkpt>
      <trkpt lat="44.08299" lon="6.27492">
        <ele>705.8</ele>
        <time>2015-06-07T11:31:00.000Z</time>
      </trkpt>
      <trkpt lat="44.08295" lon="6.27493">
        <ele>706.8</ele>
        <time>2015-06-07T11:31:02.000Z</time>
      </trkpt>
      <trkpt lat="44.08292" lon="6.27493">
        <ele>707.2</ele>
        <time>2015-06-07T11:31:03.000Z</time>
      </trkpt>
      <trkpt lat="44.0829" lon="6.27492">
        <ele>707.6</ele>
        <time>2015-06-07T11:31:04.000Z</time>
      </trkpt>
      <trkpt lat="44.08288" lon="6.27491">
        <ele>707.8</ele>
        <time>2015-06-07T11:31:05.000Z</time>
      </trkpt>
      <trkpt lat="44.08286" lon="6.2749">
        <ele>708</ele>
        <time>2015-06-07T11:31:06.000Z</time>
      </trkpt>
      <trkpt lat="44.08285" lon="6.27489">
        <ele>708</ele>
        <time>2015-06-07T11:31:07.000Z</time>
      </trkpt>
      <trkpt lat="44.08279" lon="6.27483">
        <ele>708.4</ele>
        <time>2015-06-07T11:31:15.000Z</time>
      </trkpt>
      <trkpt lat="44.08275" lon="6.27482">
        <ele>708.9</ele>
        <time>2015-06-07T11:31:17.000Z</time>
      </trkpt>
      <trkpt lat="44.08274" lon="6.27482">
        <ele>709.2</ele>
        <time>2015-06-07T11:31:18.000Z</time>
      </trkpt>
      <trkpt lat="44.08265" lon="6.27482">
        <ele>710.8</ele>
        <time>2015-06-07T11:31:23.000Z</time>
      </trkpt>
      <trkpt lat="44.0826" lon="6.27482">
        <ele>711.8</ele>
        <time>2015-06-07T11:31:26.000Z</time>
      </trkpt>
      <trkpt lat="44.08257" lon="6.27486">
        <ele>713.1</ele>
        <time>2015-06-07T11:31:28.000Z</time>
      </trkpt>
      <trkpt lat="44.08256" lon="6.27487">
        <ele>713.5</ele>
        <time>2015-06-07T11:31:29.000Z</time>
      </trkpt>
      <trkpt lat="44.08256" lon="6.27488">
        <ele>713.8</ele>
        <time>2015-06-07T11:31:30.000Z</time>
      </trkpt>
      <trkpt lat="44.08255" lon="6.27489">
        <ele>714</ele>
        <time>2015-06-07T11:31:31.000Z</time>
      </trkpt>
      <trkpt lat="44.08254" lon="6.2749">
        <ele>714.3</ele>
        <time>2015-06-07T11:31:32.000Z</time>
      </trkpt>
      <trkpt lat="44.08253" lon="6.27491">
        <ele>714.7</ele>
        <time>2015-06-07T11:31:33.000Z</time>
      </trkpt>
      <trkpt lat="44.08253" lon="6.27492">
        <ele>715</ele>
        <time>2015-06-07T11:31:34.000Z</time>
      </trkpt>
      <trkpt lat="44.08241" lon="6.27501">
        <ele>718.3</ele>
        <time>2015-06-07T11:31:46.000Z</time>
      </trkpt>
      <trkpt lat="44.0824" lon="6.27503">
        <ele>718.8</ele>
        <time>2015-06-07T11:31:48.000Z</time>
      </trkpt>
      <trkpt lat="44.08226" lon="6.27519">
        <ele>724.6</ele>
        <time>2015-06-07T11:32:02.000Z</time>
      </trkpt>
      <trkpt lat="44.08204" lon="6.27523">
        <ele>728.5</ele>
        <time>2015-06-07T11:32:16.000Z</time>
      </trkpt>
      <trkpt lat="44.08195" lon="6.27525">
        <ele>730.1</ele>
        <time>2015-06-07T11:32:21.000Z</time>
      </trkpt>
      <trkpt lat="44.08194" lon="6.27526">
        <ele>730.5</ele>
        <time>2015-06-07T11:32:22.000Z</time>
      </trkpt>
      <trkpt lat="44.08192" lon="6.27528">
        <ele>730.9</ele>
        <time>2015-06-07T11:32:24.000Z</time>
      </trkpt>
      <trkpt lat="44.08187" lon="6.27532">
        <ele>731.8</ele>
        <time>2015-06-07T11:32:30.000Z</time>
      </trkpt>
      <trkpt lat="44.08185" lon="6.27532">
        <ele>732</ele>
        <time>2015-06-07T11:32:31.000Z</time>
      </trkpt>
      <trkpt lat="44.08184" lon="6.27534">
        <ele>732.3</ele>
        <time>2015-06-07T11:32:32.000Z</time>
      </trkpt>
      <trkpt lat="44.08176" lon="6.2754">
        <ele>734</ele>
        <time>2015-06-07T11:32:39.000Z</time>
      </trkpt>
      <trkpt lat="44.08159" lon="6.27565">
        <ele>739.6</ele>
        <time>2015-06-07T11:32:51.000Z</time>
      </trkpt>
      <trkpt lat="44.0815" lon="6.27574">
        <ele>739.5</ele>
        <time>2015-06-07T11:32:54.000Z</time>
      </trkpt>
      <trkpt lat="44.08142" lon="6.27572">
        <ele>737.4</ele>
        <time>2015-06-07T11:33:01.000Z</time>
      </trkpt>
      <trkpt lat="44.08139" lon="6.2757">
        <ele>736.2</ele>
        <time>2015-06-07T11:33:04.000Z</time>
      </trkpt>
      <trkpt lat="44.08132" lon="6.27564">
        <ele>735.6</ele>
        <time>2015-06-07T11:33:11.000Z</time>
      </trkpt>
      <trkpt lat="44.08116" lon="6.27561">
        <ele>736.7</ele>
        <time>2015-06-07T11:33:26.000Z</time>
      </trkpt>
      <trkpt lat="44.08114" lon="6.27561">
        <ele>737</ele>
        <time>2015-06-07T11:33:28.000Z</time>
      </trkpt>
      <trkpt lat="44.08094" lon="6.27569">
        <ele>742.4</ele>
        <time>2015-06-07T11:33:45.000Z</time>
      </trkpt>
      <trkpt lat="44.08085" lon="6.27562">
        <ele>743.8</ele>
        <time>2015-06-07T11:33:55.000Z</time>
      </trkpt>
      <trkpt lat="44.08085" lon="6.27551">
        <ele>744</ele>
        <time>2015-06-07T11:34:01.000Z</time>
      </trkpt>
      <trkpt lat="44.08084" lon="6.27538">
        <ele>745.6</ele>
        <time>2015-06-07T11:34:07.000Z</time>
      </trkpt>
      <trkpt lat="44.08086" lon="6.27532">
        <ele>745.4</ele>
        <time>2015-06-07T11:34:10.000Z</time>
      </trkpt>
      <trkpt lat="44.08092" lon="6.27531">
        <ele>742.9</ele>
        <time>2015-06-07T11:34:13.000Z</time>
      </trkpt>
      <trkpt lat="44.08091" lon="6.27517">
        <ele>744.4</ele>
        <time>2015-06-07T11:34:21.000Z</time>
      </trkpt>
      <trkpt lat="44.08078" lon="6.27514">
        <ele>750.3</ele>
        <time>2015-06-07T11:34:30.000Z</time>
      </trkpt>
      <trkpt lat="44.08071" lon="6.2752">
        <ele>752.4</ele>
        <time>2015-06-07T11:34:36.000Z</time>
      </trkpt>
      <trkpt lat="44.08069" lon="6.27508">
        <ele>754.7</ele>
        <time>2015-06-07T11:34:46.000Z</time>
      </trkpt>
      <trkpt lat="44.08069" lon="6.275">
        <ele>755.5</ele>
        <time>2015-06-07T11:34:50.000Z</time>
      </trkpt>
      <trkpt lat="44.08069" lon="6.27481">
        <ele>757</ele>
        <time>2015-06-07T11:35:00.000Z</time>
      </trkpt>
      <trkpt lat="44.08066" lon="6.27473">
        <ele>758.8</ele>
        <time>2015-06-07T11:35:05.000Z</time>
      </trkpt>
      <trkpt lat="44.08059" lon="6.2749">
        <ele>760.3</ele>
        <time>2015-06-07T11:35:18.000Z</time>
      </trkpt>
      <trkpt lat="44.08049" lon="6.27504">
        <ele>761.9</ele>
        <time>2015-06-07T11:35:29.000Z</time>
      </trkpt>
      <trkpt lat="44.08028" lon="6.2752">
        <ele>765.8</ele>
        <time>2015-06-07T11:35:45.000Z</time>
      </trkpt>
      <trkpt lat="44.08009" lon="6.27519">
        <ele>768.2</ele>
        <time>2015-06-07T11:35:57.000Z</time>
      </trkpt>
      <trkpt lat="44.08001" lon="6.27509">
        <ele>769.6</ele>
        <time>2015-06-07T11:36:03.000Z</time>
      </trkpt>
      <trkpt lat="44.07993" lon="6.27478">
        <ele>769.5</ele>
        <time>2015-06-07T11:36:11.000Z</time>
      </trkpt>
      <trkpt lat="44.07973" lon="6.274">
        <ele>767.6</ele>
        <time>2015-06-07T11:36:28.000Z</time>
      </trkpt>
      <trkpt lat="44.07972" lon="6.27393">
        <ele>767.2</ele>
        <time>2015-06-07T11:36:29.000Z</time>
      </trkpt>
      <trkpt lat="44.07972" lon="6.27384">
        <ele>766.9</ele>
        <time>2015-06-07T11:36:30.000Z</time>
      </trkpt>
      <trkpt lat="44.07974" lon="6.27375">
        <ele>766.9</ele>
        <time>2015-06-07T11:36:31.000Z</time>
      </trkpt>
      <trkpt lat="44.07975" lon="6.27366">
        <ele>766.9</ele>
        <time>2015-06-07T11:36:32.000Z</time>
      </trkpt>
      <trkpt lat="44.07976" lon="6.27356">
        <ele>766.9</ele>
        <time>2015-06-07T11:36:33.000Z</time>
      </trkpt>
      <trkpt lat="44.07976" lon="6.27346">
        <ele>766.5</ele>
        <time>2015-06-07T11:36:34.000Z</time>
      </trkpt>
      <trkpt lat="44.07975" lon="6.27336">
        <ele>766</ele>
        <time>2015-06-07T11:36:35.000Z</time>
      </trkpt>
      <trkpt lat="44.07974" lon="6.27327">
        <ele>764.4</ele>
        <time>2015-06-07T11:36:36.000Z</time>
      </trkpt>
      <trkpt lat="44.07973" lon="6.27318">
        <ele>762.4</ele>
        <time>2015-06-07T11:36:37.000Z</time>
      </trkpt>
      <trkpt lat="44.07974" lon="6.27309">
        <ele>761.1</ele>
        <time>2015-06-07T11:36:38.000Z</time>
      </trkpt>
      <trkpt lat="44.07975" lon="6.27301">
        <ele>759.6</ele>
        <time>2015-06-07T11:36:39.000Z</time>
      </trkpt>
      <trkpt lat="44.07974" lon="6.27295">
        <ele>758.2</ele>
        <time>2015-06-07T11:36:40.000Z</time>
      </trkpt>
      <trkpt lat="44.07974" lon="6.27293">
        <ele>757.7</ele>
        <time>2015-06-07T11:36:41.000Z</time>
      </trkpt>
      <trkpt lat="44.07975" lon="6.27295">
        <ele>758.5</ele>
        <time>2015-06-07T11:36:46.000Z</time>
      </trkpt>
      <trkpt lat="44.07975" lon="6.27297">
        <ele>759</ele>
        <time>2015-06-07T11:36:47.000Z</time>
      </trkpt>
      <trkpt lat="44.07977" lon="6.27304">
        <ele>760.9</ele>
        <time>2015-06-07T11:37:04.000Z</time>
      </trkpt>
      <trkpt lat="44.07976" lon="6.27305">
        <ele>760.9</ele>
        <time>2015-06-07T11:37:45.000Z</time>
      </trkpt>
      <trkpt lat="44.07978" lon="6.27304">
        <ele>761.4</ele>
        <time>2015-06-07T11:38:29.000Z</time>
      </trkpt>
      <trkpt lat="44.07975" lon="6.27305">
        <ele>760.7</ele>
        <time>2015-06-07T11:39:03.000Z</time>
      </trkpt>
      <trkpt lat="44.07971" lon="6.27304">
        <ele>759.5</ele>
        <time>2015-06-07T11:39:22.000Z</time>
      </trkpt>
      <trkpt lat="44.0797" lon="6.27305">
        <ele>759.4</ele>
        <time>2015-06-07T11:39:47.000Z</time>
      </trkpt>
      <trkpt lat="44.0796" lon="6.27303">
        <ele>757.4</ele>
        <time>2015-06-07T11:40:21.000Z</time>
      </trkpt>
      <trkpt lat="44.07959" lon="6.27302">
        <ele>756.9</ele>
        <time>2015-06-07T11:40:24.000Z</time>
      </trkpt>
      <trkpt lat="44.07949" lon="6.27305">
        <ele>755.9</ele>
        <time>2015-06-07T11:40:27.000Z</time>
      </trkpt>
      <trkpt lat="44.07938" lon="6.27301">
        <ele>753.9</ele>
        <time>2015-06-07T11:40:30.000Z</time>
      </trkpt>
      <trkpt lat="44.07923" lon="6.27297">
        <ele>752.2</ele>
        <time>2015-06-07T11:40:35.000Z</time>
      </trkpt>
      <trkpt lat="44.07918" lon="6.27291">
        <ele>751</ele>
        <time>2015-06-07T11:40:37.000Z</time>
      </trkpt>
      <trkpt lat="44.07902" lon="6.27295">
        <ele>750</ele>
        <time>2015-06-07T11:40:41.000Z</time>
      </trkpt>
      <trkpt lat="44.07899" lon="6.27296">
        <ele>750</ele>
        <time>2015-06-07T11:40:42.000Z</time>
      </trkpt>
      <trkpt lat="44.07897" lon="6.27299">
        <ele>750.1</ele>
        <time>2015-06-07T11:40:44.000Z</time>
      </trkpt>
      <trkpt lat="44.07892" lon="6.27298">
        <ele>749.5</ele>
        <time>2015-06-07T11:40:48.000Z</time>
      </trkpt>
      <trkpt lat="44.07889" lon="6.27295">
        <ele>748.9</ele>
        <time>2015-06-07T11:40:57.000Z</time>
      </trkpt>
      <trkpt lat="44.07891" lon="6.27297">
        <ele>749.3</ele>
        <time>2015-06-07T11:41:01.000Z</time>
      </trkpt>
      <trkpt lat="44.07881" lon="6.27317">
        <ele>751.2</ele>
        <time>2015-06-07T11:41:09.000Z</time>
      </trkpt>
      <trkpt lat="44.07876" lon="6.27321">
        <ele>750.5</ele>
        <time>2015-06-07T11:41:11.000Z</time>
      </trkpt>
      <trkpt lat="44.07861" lon="6.27334">
        <ele>747.1</ele>
        <time>2015-06-07T11:41:17.000Z</time>
      </trkpt>
      <trkpt lat="44.07845" lon="6.27335">
        <ele>743.1</ele>
        <time>2015-06-07T11:41:22.000Z</time>
      </trkpt>
      <trkpt lat="44.07836" lon="6.27339">
        <ele>741.1</ele>
        <time>2015-06-07T11:41:25.000Z</time>
      </trkpt>
      <trkpt lat="44.07819" lon="6.27344">
        <ele>738</ele>
        <time>2015-06-07T11:41:34.000Z</time>
      </trkpt>
      <trkpt lat="44.07816" lon="6.27347">
        <ele>737.5</ele>
        <time>2015-06-07T11:41:36.000Z</time>
      </trkpt>
      <trkpt lat="44.07798" lon="6.27387">
        <ele>736.3</ele>
        <time>2015-06-07T11:41:46.000Z</time>
      </trkpt>
      <trkpt lat="44.07791" lon="6.27384">
        <ele>734.6</ele>
        <time>2015-06-07T11:41:50.000Z</time>
      </trkpt>
      <trkpt lat="44.07787" lon="6.27381">
        <ele>733.8</ele>
        <time>2015-06-07T11:41:52.000Z</time>
      </trkpt>
      <trkpt lat="44.07782" lon="6.27379">
        <ele>732.7</ele>
        <time>2015-06-07T11:42:08.000Z</time>
      </trkpt>
      <trkpt lat="44.07779" lon="6.2738">
        <ele>732.3</ele>
        <time>2015-06-07T11:42:28.000Z</time>
      </trkpt>
      <trkpt lat="44.07773" lon="6.27379">
        <ele>731.6</ele>
        <time>2015-06-07T11:42:32.000Z</time>
      </trkpt>
      <trkpt lat="44.07752" lon="6.27369">
        <ele>730.2</ele>
        <time>2015-06-07T11:42:42.000Z</time>
      </trkpt>
      <trkpt lat="44.07741" lon="6.27362">
        <ele>730.3</ele>
        <time>2015-06-07T11:42:47.000Z</time>
      </trkpt>
      <trkpt lat="44.07729" lon="6.27363">
        <ele>730.7</ele>
        <time>2015-06-07T11:42:51.000Z</time>
      </trkpt>
      <trkpt lat="44.07723" lon="6.27373">
        <ele>730.5</ele>
        <time>2015-06-07T11:42:55.000Z</time>
      </trkpt>
      <trkpt lat="44.07717" lon="6.27374">
        <ele>730.2</ele>
        <time>2015-06-07T11:42:59.000Z</time>
      </trkpt>
      <trkpt lat="44.07711" lon="6.27381">
        <ele>729.5</ele>
        <time>2015-06-07T11:43:03.000Z</time>
      </trkpt>
      <trkpt lat="44.07703" lon="6.27379">
        <ele>729</ele>
        <time>2015-06-07T11:43:08.000Z</time>
      </trkpt>
      <trkpt lat="44.07695" lon="6.27378">
        <ele>728.4</ele>
        <time>2015-06-07T11:43:13.000Z</time>
      </trkpt>
      <trkpt lat="44.07691" lon="6.27371">
        <ele>728.2</ele>
        <time>2015-06-07T11:43:17.000Z</time>
      </trkpt>
      <trkpt lat="44.07672" lon="6.27369">
        <ele>726.1</ele>
        <time>2015-06-07T11:43:26.000Z</time>
      </trkpt>
      <trkpt lat="44.0767" lon="6.27371">
        <ele>725.6</ele>
        <time>2015-06-07T11:43:27.000Z</time>
      </trkpt>
      <trkpt lat="44.07655" lon="6.27375">
        <ele>723.7</ele>
        <time>2015-06-07T11:43:34.000Z</time>
      </trkpt>
      <trkpt lat="44.07653" lon="6.27374">
        <ele>723.7</ele>
        <time>2015-06-07T11:43:35.000Z</time>
      </trkpt>
      <trkpt lat="44.07652" lon="6.27373">
        <ele>723.6</ele>
        <time>2015-06-07T11:43:49.000Z</time>
      </trkpt>
      <trkpt lat="44.07648" lon="6.2737">
        <ele>723.7</ele>
        <time>2015-06-07T11:43:56.000Z</time>
      </trkpt>
      <trkpt lat="44.07646" lon="6.27364">
        <ele>724.2</ele>
        <time>2015-06-07T11:44:12.000Z</time>
      </trkpt>
      <trkpt lat="44.07644" lon="6.27363">
        <ele>724.1</ele>
        <time>2015-06-07T11:44:22.000Z</time>
      </trkpt>
      <trkpt lat="44.07643" lon="6.27364">
        <ele>723.9</ele>
        <time>2015-06-07T11:44:23.000Z</time>
      </trkpt>
      <trkpt lat="44.07641" lon="6.27364">
        <ele>723.7</ele>
        <time>2015-06-07T11:44:24.000Z</time>
      </trkpt>
      <trkpt lat="44.07639" lon="6.27364">
        <ele>723.6</ele>
        <time>2015-06-07T11:44:25.000Z</time>
      </trkpt>
      <trkpt lat="44.07638" lon="6.27364">
        <ele>723.4</ele>
        <time>2015-06-07T11:44:26.000Z</time>
      </trkpt>
      <trkpt lat="44.07636" lon="6.27365">
        <ele>723.2</ele>
        <time>2015-06-07T11:44:27.000Z</time>
      </trkpt>
      <trkpt lat="44.07635" lon="6.27366">
        <ele>723</ele>
        <time>2015-06-07T11:44:28.000Z</time>
      </trkpt>
      <trkpt lat="44.0763" lon="6.27371">
        <ele>722</ele>
        <time>2015-06-07T11:44:40.000Z</time>
      </trkpt>
      <trkpt lat="44.0763" lon="6.27372">
        <ele>721.8</ele>
        <time>2015-06-07T11:44:41.000Z</time>
      </trkpt>
      <trkpt lat="44.07629" lon="6.27374">
        <ele>721.5</ele>
        <time>2015-06-07T11:44:42.000Z</time>
      </trkpt>
      <trkpt lat="44.0762" lon="6.27384">
        <ele>720.4</ele>
        <time>2015-06-07T11:44:57.000Z</time>
      </trkpt>
      <trkpt lat="44.0762" lon="6.27385">
        <ele>720.3</ele>
        <time>2015-06-07T11:45:16.000Z</time>
      </trkpt>
      <trkpt lat="44.07623" lon="6.27382">
        <ele>720.6</ele>
        <time>2015-06-07T11:45:37.000Z</time>
      </trkpt>
      <trkpt lat="44.07625" lon="6.27381">
        <ele>720.7</ele>
        <time>2015-06-07T11:45:44.000Z</time>
      </trkpt>
      <trkpt lat="44.07626" lon="6.2738">
        <ele>720.8</ele>
        <time>2015-06-07T11:45:45.000Z</time>
      </trkpt>
      <trkpt lat="44.07629" lon="6.27372">
        <ele>721.8</ele>
        <time>2015-06-07T11:46:01.000Z</time>
      </trkpt>
      <trkpt lat="44.07629" lon="6.27369">
        <ele>722.1</ele>
        <time>2015-06-07T11:46:28.000Z</time>
      </trkpt>
      <trkpt lat="44.07631" lon="6.27371">
        <ele>722</ele>
        <time>2015-06-07T11:46:59.000Z</time>
      </trkpt>
      <trkpt lat="44.07629" lon="6.27369">
        <ele>722.1</ele>
        <time>2015-06-07T11:47:25.000Z</time>
      </trkpt>
      <trkpt lat="44.07635" lon="6.27366">
        <ele>722.9</ele>
        <time>2015-06-07T11:47:52.000Z</time>
      </trkpt>
      <trkpt lat="44.07652" lon="6.2736">
        <ele>725.1</ele>
        <time>2015-06-07T11:48:08.000Z</time>
      </trkpt>
      <trkpt lat="44.0766" lon="6.27355">
        <ele>726.7</ele>
        <time>2015-06-07T11:48:16.000Z</time>
      </trkpt>
      <trkpt lat="44.07662" lon="6.27354">
        <ele>727</ele>
        <time>2015-06-07T11:48:18.000Z</time>
      </trkpt>
      <trkpt lat="44.07668" lon="6.27351">
        <ele>727.8</ele>
        <time>2015-06-07T11:48:29.000Z</time>
      </trkpt>
      <trkpt lat="44.07669" lon="6.27351">
        <ele>728.1</ele>
        <time>2015-06-07T11:48:30.000Z</time>
      </trkpt>
      <trkpt lat="44.0767" lon="6.2735">
        <ele>728.3</ele>
        <time>2015-06-07T11:48:31.000Z</time>
      </trkpt>
      <trkpt lat="44.07671" lon="6.2735">
        <ele>728.5</ele>
        <time>2015-06-07T11:48:32.000Z</time>
      </trkpt>
      <trkpt lat="44.07672" lon="6.27349">
        <ele>728.8</ele>
        <time>2015-06-07T11:48:33.000Z</time>
      </trkpt>
      <trkpt lat="44.07673" lon="6.27348">
        <ele>729</ele>
        <time>2015-06-07T11:48:34.000Z</time>
      </trkpt>
      <trkpt lat="44.07699" lon="6.27333">
        <ele>734.4</ele>
        <time>2015-06-07T11:48:51.000Z</time>
      </trkpt>
      <trkpt lat="44.07722" lon="6.2732">
        <ele>737.5</ele>
        <time>2015-06-07T11:49:07.000Z</time>
      </trkpt>
      <trkpt lat="44.07752" lon="6.27301">
        <ele>740.1</ele>
        <time>2015-06-07T11:49:25.000Z</time>
      </trkpt>
      <trkpt lat="44.07782" lon="6.27282">
        <ele>742.7</ele>
        <time>2015-06-07T11:49:43.000Z</time>
      </trkpt>
      <trkpt lat="44.07809" lon="6.27262">
        <ele>744.8</ele>
        <time>2015-06-07T11:50:00.000Z</time>
      </trkpt>
      <trkpt lat="44.07829" lon="6.2725">
        <ele>744.6</ele>
        <time>2015-06-07T11:50:14.000Z</time>
      </trkpt>
      <trkpt lat="44.07842" lon="6.27245">
        <ele>744.9</ele>
        <time>2015-06-07T11:50:25.000Z</time>
      </trkpt>
      <trkpt lat="44.0784" lon="6.27243">
        <ele>745</ele>
        <time>2015-06-07T11:50:27.000Z</time>
      </trkpt>
      <trkpt lat="44.07835" lon="6.27243">
        <ele>744.6</ele>
        <time>2015-06-07T11:50:36.000Z</time>
      </trkpt>
      <trkpt lat="44.07834" lon="6.27242">
        <ele>744.6</ele>
        <time>2015-06-07T11:50:37.000Z</time>
      </trkpt>
      <trkpt lat="44.07833" lon="6.27241">
        <ele>744.7</ele>
        <time>2015-06-07T11:50:38.000Z</time>
      </trkpt>
      <trkpt lat="44.07832" lon="6.27241">
        <ele>744.8</ele>
        <time>2015-06-07T11:50:39.000Z</time>
      </trkpt>
      <trkpt lat="44.07831" lon="6.2724">
        <ele>745</ele>
        <time>2015-06-07T11:50:40.000Z</time>
      </trkpt>
      <trkpt lat="44.07823" lon="6.27234">
        <ele>746</ele>
        <time>2015-06-07T11:50:48.000Z</time>
      </trkpt>
      <trkpt lat="44.07823" lon="6.27232">
        <ele>746.1</ele>
        <time>2015-06-07T11:51:05.000Z</time>
      </trkpt>
      <trkpt lat="44.07825" lon="6.27233">
        <ele>745.9</ele>
        <time>2015-06-07T11:51:08.000Z</time>
      </trkpt>
      <trkpt lat="44.07826" lon="6.27234">
        <ele>745.8</ele>
        <time>2015-06-07T11:51:09.000Z</time>
      </trkpt>
      <trkpt lat="44.07827" lon="6.27236">
        <ele>745.6</ele>
        <time>2015-06-07T11:51:10.000Z</time>
      </trkpt>
      <trkpt lat="44.07828" lon="6.27237">
        <ele>745.4</ele>
        <time>2015-06-07T11:51:11.000Z</time>
      </trkpt>
      <trkpt lat="44.07829" lon="6.27238">
        <ele>745.3</ele>
        <time>2015-06-07T11:51:12.000Z</time>
      </trkpt>
      <trkpt lat="44.07831" lon="6.2724">
        <ele>745</ele>
        <time>2015-06-07T11:51:14.000Z</time>
      </trkpt>
      <trkpt lat="44.07835" lon="6.27242">
        <ele>744.7</ele>
        <time>2015-06-07T11:51:17.000Z</time>
      </trkpt>
      <trkpt lat="44.07838" lon="6.27244">
        <ele>744.7</ele>
        <time>2015-06-07T11:51:19.000Z</time>
      </trkpt>
      <trkpt lat="44.07839" lon="6.27244">
        <ele>744.8</ele>
        <time>2015-06-07T11:51:20.000Z</time>
      </trkpt>
      <trkpt lat="44.07841" lon="6.27242">
        <ele>745.1</ele>
        <time>2015-06-07T11:51:21.000Z</time>
      </trkpt>
      <trkpt lat="44.07841" lon="6.27239">
        <ele>745.4</ele>
        <time>2015-06-07T11:51:22.000Z</time>
      </trkpt>
      <trkpt lat="44.0784" lon="6.27238">
        <ele>745.5</ele>
        <time>2015-06-07T11:51:23.000Z</time>
      </trkpt>
      <trkpt lat="44.07839" lon="6.27236">
        <ele>745.6</ele>
        <time>2015-06-07T11:51:24.000Z</time>
      </trkpt>
      <trkpt lat="44.07839" lon="6.27234">
        <ele>745.7</ele>
        <time>2015-06-07T11:51:25.000Z</time>
      </trkpt>
      <trkpt lat="44.07837" lon="6.27231">
        <ele>745.8</ele>
        <time>2015-06-07T11:51:27.000Z</time>
      </trkpt>
      <trkpt lat="44.07836" lon="6.2723">
        <ele>745.7</ele>
        <time>2015-06-07T11:51:28.000Z</time>
      </trkpt>
      <trkpt lat="44.07834" lon="6.2723">
        <ele>745.5</ele>
        <time>2015-06-07T11:51:29.000Z</time>
      </trkpt>
      <trkpt lat="44.07818" lon="6.27223">
        <ele>746.6</ele>
        <time>2015-06-07T11:51:34.000Z</time>
      </trkpt>
      <trkpt lat="44.07807" lon="6.27217">
        <ele>745.7</ele>
        <time>2015-06-07T11:51:36.000Z</time>
      </trkpt>
      <trkpt lat="44.078" lon="6.27213">
        <ele>746.1</ele>
        <time>2015-06-07T11:51:37.000Z</time>
      </trkpt>
      <trkpt lat="44.07788" lon="6.27205">
        <ele>746.7</ele>
        <time>2015-06-07T11:51:39.000Z</time>
      </trkpt>
      <trkpt lat="44.07782" lon="6.27201">
        <ele>746.7</ele>
        <time>2015-06-07T11:51:40.000Z</time>
      </trkpt>
      <trkpt lat="44.07777" lon="6.27197">
        <ele>746.4</ele>
        <time>2015-06-07T11:51:41.000Z</time>
      </trkpt>
      <trkpt lat="44.07732" lon="6.27155">
        <ele>742.5</ele>
        <time>2015-06-07T11:51:52.000Z</time>
      </trkpt>
      <trkpt lat="44.07707" lon="6.27127">
        <ele>740.8</ele>
        <time>2015-06-07T11:51:59.000Z</time>
      </trkpt>
      <trkpt lat="44.07703" lon="6.2712">
        <ele>739.3</ele>
        <time>2015-06-07T11:52:00.000Z</time>
      </trkpt>
      <trkpt lat="44.0769" lon="6.27093">
        <ele>736.4</ele>
        <time>2015-06-07T11:52:03.000Z</time>
      </trkpt>
      <trkpt lat="44.07687" lon="6.27083">
        <ele>735.3</ele>
        <time>2015-06-07T11:52:04.000Z</time>
      </trkpt>
      <trkpt lat="44.07686" lon="6.27072">
        <ele>734</ele>
        <time>2015-06-07T11:52:05.000Z</time>
      </trkpt>
      <trkpt lat="44.07683" lon="6.27037">
        <ele>728</ele>
        <time>2015-06-07T11:52:08.000Z</time>
      </trkpt>
      <trkpt lat="44.07681" lon="6.27">
        <ele>720.9</ele>
        <time>2015-06-07T11:52:11.000Z</time>
      </trkpt>
      <trkpt lat="44.07679" lon="6.26991">
        <ele>719.6</ele>
        <time>2015-06-07T11:52:12.000Z</time>
      </trkpt>
      <trkpt lat="44.07676" lon="6.26981">
        <ele>718.6</ele>
        <time>2015-06-07T11:52:13.000Z</time>
      </trkpt>
      <trkpt lat="44.07672" lon="6.26971">
        <ele>717.7</ele>
        <time>2015-06-07T11:52:14.000Z</time>
      </trkpt>
      <trkpt lat="44.07668" lon="6.26963">
        <ele>716.9</ele>
        <time>2015-06-07T11:52:15.000Z</time>
      </trkpt>
      <trkpt lat="44.07664" lon="6.26954">
        <ele>714.8</ele>
        <time>2015-06-07T11:52:16.000Z</time>
      </trkpt>
      <trkpt lat="44.0766" lon="6.26944">
        <ele>711.9</ele>
        <time>2015-06-07T11:52:17.000Z</time>
      </trkpt>
      <trkpt lat="44.07657" lon="6.26936">
        <ele>709.8</ele>
        <time>2015-06-07T11:52:18.000Z</time>
      </trkpt>
      <trkpt lat="44.07654" lon="6.26928">
        <ele>708.2</ele>
        <time>2015-06-07T11:52:19.000Z</time>
      </trkpt>
      <trkpt lat="44.07649" lon="6.26923">
        <ele>707.4</ele>
        <time>2015-06-07T11:52:20.000Z</time>
      </trkpt>
      <trkpt lat="44.07644" lon="6.2692">
        <ele>707.3</ele>
        <time>2015-06-07T11:52:21.000Z</time>
      </trkpt>
      <trkpt lat="44.07639" lon="6.2692">
        <ele>708</ele>
        <time>2015-06-07T11:52:22.000Z</time>
      </trkpt>
      <trkpt lat="44.07633" lon="6.26924">
        <ele>707.4</ele>
        <time>2015-06-07T11:52:23.000Z</time>
      </trkpt>
      <trkpt lat="44.07629" lon="6.26929">
        <ele>707.3</ele>
        <time>2015-06-07T11:52:24.000Z</time>
      </trkpt>
      <trkpt lat="44.07624" lon="6.26934">
        <ele>707</ele>
        <time>2015-06-07T11:52:25.000Z</time>
      </trkpt>
      <trkpt lat="44.07613" lon="6.26946">
        <ele>705.4</ele>
        <time>2015-06-07T11:52:32.000Z</time>
      </trkpt>
      <trkpt lat="44.07608" lon="6.2695">
        <ele>705.3</ele>
        <time>2015-06-07T11:52:45.000Z</time>
      </trkpt>
      <trkpt lat="44.07588" lon="6.26956">
        <ele>701.4</ele>
        <time>2015-06-07T11:52:51.000Z</time>
      </trkpt>
      <trkpt lat="44.07584" lon="6.26957">
        <ele>700.3</ele>
        <time>2015-06-07T11:52:52.000Z</time>
      </trkpt>
      <trkpt lat="44.0757" lon="6.26964">
        <ele>696.4</ele>
        <time>2015-06-07T11:52:57.000Z</time>
      </trkpt>
      <trkpt lat="44.07569" lon="6.26966">
        <ele>696.4</ele>
        <time>2015-06-07T11:52:58.000Z</time>
      </trkpt>
      <trkpt lat="44.07568" lon="6.26967">
        <ele>696.4</ele>
        <time>2015-06-07T11:52:59.000Z</time>
      </trkpt>
      <trkpt lat="44.07565" lon="6.26971">
        <ele>695.8</ele>
        <time>2015-06-07T11:53:07.000Z</time>
      </trkpt>
      <trkpt lat="44.07563" lon="6.26972">
        <ele>695.1</ele>
        <time>2015-06-07T11:53:08.000Z</time>
      </trkpt>
      <trkpt lat="44.07555" lon="6.26978">
        <ele>692</ele>
        <time>2015-06-07T11:53:11.000Z</time>
      </trkpt>
      <trkpt lat="44.07549" lon="6.26987">
        <ele>690.6</ele>
        <time>2015-06-07T11:53:14.000Z</time>
      </trkpt>
      <trkpt lat="44.07548" lon="6.2699">
        <ele>690.6</ele>
        <time>2015-06-07T11:53:15.000Z</time>
      </trkpt>
      <trkpt lat="44.07542" lon="6.27036">
        <ele>690.4</ele>
        <time>2015-06-07T11:53:23.000Z</time>
      </trkpt>
      <trkpt lat="44.0754" lon="6.27043">
        <ele>690</ele>
        <time>2015-06-07T11:53:24.000Z</time>
      </trkpt>
      <trkpt lat="44.07529" lon="6.27078">
        <ele>687.1</ele>
        <time>2015-06-07T11:53:29.000Z</time>
      </trkpt>
      <trkpt lat="44.07525" lon="6.27085">
        <ele>686.6</ele>
        <time>2015-06-07T11:53:30.000Z</time>
      </trkpt>
      <trkpt lat="44.07521" lon="6.2709">
        <ele>686</ele>
        <time>2015-06-07T11:53:31.000Z</time>
      </trkpt>
      <trkpt lat="44.07515" lon="6.27094">
        <ele>685.1</ele>
        <time>2015-06-07T11:53:32.000Z</time>
      </trkpt>
      <trkpt lat="44.07509" lon="6.27097">
        <ele>684</ele>
        <time>2015-06-07T11:53:33.000Z</time>
      </trkpt>
      <trkpt lat="44.07502" lon="6.27097">
        <ele>682.4</ele>
        <time>2015-06-07T11:53:34.000Z</time>
      </trkpt>
      <trkpt lat="44.07495" lon="6.27096">
        <ele>682.3</ele>
        <time>2015-06-07T11:53:35.000Z</time>
      </trkpt>
      <trkpt lat="44.07488" lon="6.27094">
        <ele>682.5</ele>
        <time>2015-06-07T11:53:36.000Z</time>
      </trkpt>
      <trkpt lat="44.07481" lon="6.27092">
        <ele>682.4</ele>
        <time>2015-06-07T11:53:37.000Z</time>
      </trkpt>
      <trkpt lat="44.0746" lon="6.27087">
        <ele>682.5</ele>
        <time>2015-06-07T11:53:40.000Z</time>
      </trkpt>
      <trkpt lat="44.07454" lon="6.27087">
        <ele>682.9</ele>
        <time>2015-06-07T11:53:41.000Z</time>
      </trkpt>
      <trkpt lat="44.07428" lon="6.27088">
        <ele>684.3</ele>
        <time>2015-06-07T11:53:46.000Z</time>
      </trkpt>
      <trkpt lat="44.07382" lon="6.27111">
        <ele>685</ele>
        <time>2015-06-07T11:54:00.000Z</time>
      </trkpt>
      <trkpt lat="44.07319" lon="6.27129">
        <ele>690.9</ele>
        <time>2015-06-07T11:54:19.000Z</time>
      </trkpt>
      <trkpt lat="44.07257" lon="6.27123">
        <ele>689.1</ele>
        <time>2015-06-07T11:54:36.000Z</time>
      </trkpt>
      <trkpt lat="44.07233" lon="6.27149">
        <ele>692.4</ele>
        <time>2015-06-07T11:54:45.000Z</time>
      </trkpt>
      <trkpt lat="44.07219" lon="6.27178">
        <ele>698.2</ele>
        <time>2015-06-07T11:54:51.000Z</time>
      </trkpt>
      <trkpt lat="44.07217" lon="6.27183">
        <ele>700.2</ele>
        <time>2015-06-07T11:54:52.000Z</time>
      </trkpt>
      <trkpt lat="44.07215" lon="6.27189">
        <ele>701.5</ele>
        <time>2015-06-07T11:54:53.000Z</time>
      </trkpt>
      <trkpt lat="44.07199" lon="6.27212">
        <ele>705.6</ele>
        <time>2015-06-07T11:54:59.000Z</time>
      </trkpt>
      <trkpt lat="44.07195" lon="6.27214">
        <ele>704.1</ele>
        <time>2015-06-07T11:55:00.000Z</time>
      </trkpt>
      <trkpt lat="44.07192" lon="6.27216">
        <ele>703.5</ele>
        <time>2015-06-07T11:55:01.000Z</time>
      </trkpt>
      <trkpt lat="44.07188" lon="6.27219">
        <ele>702.9</ele>
        <time>2015-06-07T11:55:02.000Z</time>
      </trkpt>
      <trkpt lat="44.07184" lon="6.27222">
        <ele>702.4</ele>
        <time>2015-06-07T11:55:03.000Z</time>
      </trkpt>
      <trkpt lat="44.07168" lon="6.27232">
        <ele>701.4</ele>
        <time>2015-06-07T11:55:07.000Z</time>
      </trkpt>
      <trkpt lat="44.07164" lon="6.27235">
        <ele>701.4</ele>
        <time>2015-06-07T11:55:08.000Z</time>
      </trkpt>
      <trkpt lat="44.07154" lon="6.27243">
        <ele>702.4</ele>
        <time>2015-06-07T11:55:11.000Z</time>
      </trkpt>
      <trkpt lat="44.07151" lon="6.27246">
        <ele>701.9</ele>
        <time>2015-06-07T11:55:12.000Z</time>
      </trkpt>
      <trkpt lat="44.07146" lon="6.27248">
        <ele>700.7</ele>
        <time>2015-06-07T11:55:13.000Z</time>
      </trkpt>
      <trkpt lat="44.07141" lon="6.27249">
        <ele>698.9</ele>
        <time>2015-06-07T11:55:14.000Z</time>
      </trkpt>
      <trkpt lat="44.07137" lon="6.27251">
        <ele>699</ele>
        <time>2015-06-07T11:55:15.000Z</time>
      </trkpt>
      <trkpt lat="44.07134" lon="6.27254">
        <ele>700.5</ele>
        <time>2015-06-07T11:55:16.000Z</time>
      </trkpt>
      <trkpt lat="44.07095" lon="6.27248">
        <ele>696.1</ele>
        <time>2015-06-07T11:55:28.000Z</time>
      </trkpt>
      <trkpt lat="44.07074" lon="6.27218">
        <ele>690.1</ele>
        <time>2015-06-07T11:55:39.000Z</time>
      </trkpt>
      <trkpt lat="44.07067" lon="6.27164">
        <ele>689</ele>
        <time>2015-06-07T11:55:53.000Z</time>
      </trkpt>
      <trkpt lat="44.07066" lon="6.27158">
        <ele>690.1</ele>
        <time>2015-06-07T11:55:55.000Z</time>
      </trkpt>
      <trkpt lat="44.0707" lon="6.27145">
        <ele>692</ele>
        <time>2015-06-07T11:56:04.000Z</time>
      </trkpt>
      <trkpt lat="44.07072" lon="6.27144">
        <ele>692</ele>
        <time>2015-06-07T11:56:05.000Z</time>
      </trkpt>
      <trkpt lat="44.07074" lon="6.27143">
        <ele>692.1</ele>
        <time>2015-06-07T11:56:06.000Z</time>
      </trkpt>
      <trkpt lat="44.07076" lon="6.27142">
        <ele>692.1</ele>
        <time>2015-06-07T11:56:07.000Z</time>
      </trkpt>
      <trkpt lat="44.07078" lon="6.27141">
        <ele>692.1</ele>
        <time>2015-06-07T11:56:08.000Z</time>
      </trkpt>
      <trkpt lat="44.07083" lon="6.27139">
        <ele>692.1</ele>
        <time>2015-06-07T11:56:11.000Z</time>
      </trkpt>
      <trkpt lat="44.07101" lon="6.2712">
        <ele>694.4</ele>
        <time>2015-06-07T11:56:26.000Z</time>
      </trkpt>
      <trkpt lat="44.07117" lon="6.27081">
        <ele>699.3</ele>
        <time>2015-06-07T11:56:43.000Z</time>
      </trkpt>
      <trkpt lat="44.0713" lon="6.27059">
        <ele>702.1</ele>
        <time>2015-06-07T11:56:55.000Z</time>
      </trkpt>
      <trkpt lat="44.07131" lon="6.27057">
        <ele>702</ele>
        <time>2015-06-07T11:56:56.000Z</time>
      </trkpt>
      <trkpt lat="44.0715" lon="6.2703">
        <ele>703</ele>
        <time>2015-06-07T11:57:13.000Z</time>
      </trkpt>
      <trkpt lat="44.0717" lon="6.27004">
        <ele>707</ele>
        <time>2015-06-07T11:57:30.000Z</time>
      </trkpt>
      <trkpt lat="44.07198" lon="6.26989">
        <ele>707.2</ele>
        <time>2015-06-07T11:57:48.000Z</time>
      </trkpt>
      <trkpt lat="44.07225" lon="6.26976">
        <ele>710.3</ele>
        <time>2015-06-07T11:58:06.000Z</time>
      </trkpt>
      <trkpt lat="44.07252" lon="6.26964">
        <ele>712.8</ele>
        <time>2015-06-07T11:58:23.000Z</time>
      </trkpt>
      <trkpt lat="44.07276" lon="6.26949">
        <ele>714.8</ele>
        <time>2015-06-07T11:58:40.000Z</time>
      </trkpt>
      <trkpt lat="44.07277" lon="6.26947">
        <ele>715.3</ele>
        <time>2015-06-07T11:58:41.000Z</time>
      </trkpt>
      <trkpt lat="44.07277" lon="6.26945">
        <ele>715.8</ele>
        <time>2015-06-07T11:58:42.000Z</time>
      </trkpt>
      <trkpt lat="44.07277" lon="6.26943">
        <ele>716.4</ele>
        <time>2015-06-07T11:58:43.000Z</time>
      </trkpt>
      <trkpt lat="44.07278" lon="6.26939">
        <ele>717.3</ele>
        <time>2015-06-07T11:58:45.000Z</time>
      </trkpt>
      <trkpt lat="44.07278" lon="6.26937">
        <ele>717.7</ele>
        <time>2015-06-07T11:58:46.000Z</time>
      </trkpt>
      <trkpt lat="44.07277" lon="6.26934">
        <ele>718.3</ele>
        <time>2015-06-07T11:58:47.000Z</time>
      </trkpt>
      <trkpt lat="44.07277" lon="6.26933">
        <ele>718.7</ele>
        <time>2015-06-07T11:58:48.000Z</time>
      </trkpt>
      <trkpt lat="44.07277" lon="6.2693">
        <ele>719.3</ele>
        <time>2015-06-07T11:58:49.000Z</time>
      </trkpt>
      <trkpt lat="44.07276" lon="6.26923">
        <ele>721</ele>
        <time>2015-06-07T11:58:52.000Z</time>
      </trkpt>
      <trkpt lat="44.07276" lon="6.26921">
        <ele>721.5</ele>
        <time>2015-06-07T11:58:53.000Z</time>
      </trkpt>
      <trkpt lat="44.07277" lon="6.26919">
        <ele>721.7</ele>
        <time>2015-06-07T11:58:54.000Z</time>
      </trkpt>
      <trkpt lat="44.07278" lon="6.26917">
        <ele>721.9</ele>
        <time>2015-06-07T11:58:55.000Z</time>
      </trkpt>
      <trkpt lat="44.07279" lon="6.26916">
        <ele>722.1</ele>
        <time>2015-06-07T11:58:56.000Z</time>
      </trkpt>
      <trkpt lat="44.0728" lon="6.26915">
        <ele>722.5</ele>
        <time>2015-06-07T11:58:57.000Z</time>
      </trkpt>
      <trkpt lat="44.07281" lon="6.26913">
        <ele>723</ele>
        <time>2015-06-07T11:58:58.000Z</time>
      </trkpt>
      <trkpt lat="44.07282" lon="6.26912">
        <ele>723.2</ele>
        <time>2015-06-07T11:58:59.000Z</time>
      </trkpt>
      <trkpt lat="44.07283" lon="6.26911">
        <ele>723.4</ele>
        <time>2015-06-07T11:59:00.000Z</time>
      </trkpt>
      <trkpt lat="44.07285" lon="6.26911">
        <ele>723.4</ele>
        <time>2015-06-07T11:59:01.000Z</time>
      </trkpt>
      <trkpt lat="44.07301" lon="6.26916">
        <ele>720.5</ele>
        <time>2015-06-07T11:59:13.000Z</time>
      </trkpt>
      <trkpt lat="44.07327" lon="6.26915">
        <ele>720.7</ele>
        <time>2015-06-07T11:59:30.000Z</time>
      </trkpt>
      <trkpt lat="44.07352" lon="6.26903">
        <ele>723.9</ele>
        <time>2015-06-07T11:59:46.000Z</time>
      </trkpt>
      <trkpt lat="44.07377" lon="6.26887">
        <ele>728.1</ele>
        <time>2015-06-07T12:00:03.000Z</time>
      </trkpt>
      <trkpt lat="44.07407" lon="6.26866">
        <ele>732.9</ele>
        <time>2015-06-07T12:00:22.000Z</time>
      </trkpt>
      <trkpt lat="44.07433" lon="6.26843">
        <ele>736.2</ele>
        <time>2015-06-07T12:00:40.000Z</time>
      </trkpt>
      <trkpt lat="44.07455" lon="6.26818">
        <ele>735.5</ele>
        <time>2015-06-07T12:00:58.000Z</time>
      </trkpt>
      <trkpt lat="44.07458" lon="6.26785">
        <ele>741.3</ele>
        <time>2015-06-07T12:01:12.000Z</time>
      </trkpt>
      <trkpt lat="44.07447" lon="6.26738">
        <ele>746.6</ele>
        <time>2015-06-07T12:01:32.000Z</time>
      </trkpt>
      <trkpt lat="44.07434" lon="6.26701">
        <ele>753.7</ele>
        <time>2015-06-07T12:01:46.000Z</time>
      </trkpt>
      <trkpt lat="44.07434" lon="6.26698">
        <ele>753.8</ele>
        <time>2015-06-07T12:01:47.000Z</time>
      </trkpt>
      <trkpt lat="44.07437" lon="6.2669">
        <ele>753.9</ele>
        <time>2015-06-07T12:01:51.000Z</time>
      </trkpt>
      <trkpt lat="44.07439" lon="6.26689">
        <ele>753.6</ele>
        <time>2015-06-07T12:01:52.000Z</time>
      </trkpt>
      <trkpt lat="44.0744" lon="6.26688">
        <ele>753.3</ele>
        <time>2015-06-07T12:01:53.000Z</time>
      </trkpt>
      <trkpt lat="44.07442" lon="6.26688">
        <ele>752.8</ele>
        <time>2015-06-07T12:01:54.000Z</time>
      </trkpt>
      <trkpt lat="44.07444" lon="6.26687">
        <ele>752.4</ele>
        <time>2015-06-07T12:01:55.000Z</time>
      </trkpt>
      <trkpt lat="44.07445" lon="6.26687">
        <ele>752.3</ele>
        <time>2015-06-07T12:01:56.000Z</time>
      </trkpt>
      <trkpt lat="44.07447" lon="6.26687">
        <ele>752.1</ele>
        <time>2015-06-07T12:01:57.000Z</time>
      </trkpt>
      <trkpt lat="44.07449" lon="6.26688">
        <ele>751.9</ele>
        <time>2015-06-07T12:01:58.000Z</time>
      </trkpt>
      <trkpt lat="44.0745" lon="6.26689">
        <ele>751.6</ele>
        <time>2015-06-07T12:01:59.000Z</time>
      </trkpt>
      <trkpt lat="44.07452" lon="6.26691">
        <ele>751.2</ele>
        <time>2015-06-07T12:02:00.000Z</time>
      </trkpt>
      <trkpt lat="44.07453" lon="6.26692">
        <ele>750.9</ele>
        <time>2015-06-07T12:02:01.000Z</time>
      </trkpt>
      <trkpt lat="44.07454" lon="6.26693">
        <ele>750.5</ele>
        <time>2015-06-07T12:02:02.000Z</time>
      </trkpt>
      <trkpt lat="44.07456" lon="6.26695">
        <ele>750</ele>
        <time>2015-06-07T12:02:03.000Z</time>
      </trkpt>
      <trkpt lat="44.07457" lon="6.26696">
        <ele>749.6</ele>
        <time>2015-06-07T12:02:04.000Z</time>
      </trkpt>
      <trkpt lat="44.07458" lon="6.26697">
        <ele>749.2</ele>
        <time>2015-06-07T12:02:05.000Z</time>
      </trkpt>
      <trkpt lat="44.0746" lon="6.26698">
        <ele>749</ele>
        <time>2015-06-07T12:02:06.000Z</time>
      </trkpt>
      <trkpt lat="44.07461" lon="6.26699">
        <ele>748.7</ele>
        <time>2015-06-07T12:02:07.000Z</time>
      </trkpt>
      <trkpt lat="44.07485" lon="6.26706">
        <ele>745.3</ele>
        <time>2015-06-07T12:02:22.000Z</time>
      </trkpt>
      <trkpt lat="44.07487" lon="6.26705">
        <ele>745.7</ele>
        <time>2015-06-07T12:02:23.000Z</time>
      </trkpt>
      <trkpt lat="44.07488" lon="6.26705">
        <ele>745.8</ele>
        <time>2015-06-07T12:02:24.000Z</time>
      </trkpt>
      <trkpt lat="44.0749" lon="6.26704">
        <ele>746.1</ele>
        <time>2015-06-07T12:02:25.000Z</time>
      </trkpt>
      <trkpt lat="44.07491" lon="6.26703">
        <ele>746.6</ele>
        <time>2015-06-07T12:02:26.000Z</time>
      </trkpt>
      <trkpt lat="44.07493" lon="6.26701">
        <ele>747.4</ele>
        <time>2015-06-07T12:02:27.000Z</time>
      </trkpt>
      <trkpt lat="44.07494" lon="6.267">
        <ele>748</ele>
        <time>2015-06-07T12:02:28.000Z</time>
      </trkpt>
      <trkpt lat="44.07496" lon="6.26699">
        <ele>748.7</ele>
        <time>2015-06-07T12:02:29.000Z</time>
      </trkpt>
      <trkpt lat="44.07497" lon="6.26697">
        <ele>749.4</ele>
        <time>2015-06-07T12:02:30.000Z</time>
      </trkpt>
      <trkpt lat="44.07515" lon="6.26682">
        <ele>755.9</ele>
        <time>2015-06-07T12:02:43.000Z</time>
      </trkpt>
      <trkpt lat="44.0754" lon="6.26669">
        <ele>760.6</ele>
        <time>2015-06-07T12:02:59.000Z</time>
      </trkpt>
      <trkpt lat="44.07557" lon="6.26661">
        <ele>760.5</ele>
        <time>2015-06-07T12:03:09.000Z</time>
      </trkpt>
      <trkpt lat="44.07558" lon="6.26659">
        <ele>760.5</ele>
        <time>2015-06-07T12:03:10.000Z</time>
      </trkpt>
      <trkpt lat="44.07559" lon="6.26657">
        <ele>760.6</ele>
        <time>2015-06-07T12:03:11.000Z</time>
      </trkpt>
      <trkpt lat="44.07559" lon="6.26654">
        <ele>760.9</ele>
        <time>2015-06-07T12:03:12.000Z</time>
      </trkpt>
      <trkpt lat="44.07558" lon="6.26652">
        <ele>761.4</ele>
        <time>2015-06-07T12:03:13.000Z</time>
      </trkpt>
      <trkpt lat="44.07558" lon="6.2665">
        <ele>762.1</ele>
        <time>2015-06-07T12:03:14.000Z</time>
      </trkpt>
      <trkpt lat="44.07557" lon="6.26649">
        <ele>762.8</ele>
        <time>2015-06-07T12:03:15.000Z</time>
      </trkpt>
      <trkpt lat="44.07555" lon="6.26647">
        <ele>763.7</ele>
        <time>2015-06-07T12:03:16.000Z</time>
      </trkpt>
      <trkpt lat="44.07553" lon="6.26646">
        <ele>764.1</ele>
        <time>2015-06-07T12:03:17.000Z</time>
      </trkpt>
      <trkpt lat="44.07552" lon="6.26646">
        <ele>764.6</ele>
        <time>2015-06-07T12:03:18.000Z</time>
      </trkpt>
      <trkpt lat="44.0755" lon="6.26646">
        <ele>764.9</ele>
        <time>2015-06-07T12:03:19.000Z</time>
      </trkpt>
      <trkpt lat="44.07543" lon="6.26649">
        <ele>765.7</ele>
        <time>2015-06-07T12:03:23.000Z</time>
      </trkpt>
      <trkpt lat="44.07542" lon="6.2665">
        <ele>765.5</ele>
        <time>2015-06-07T12:03:24.000Z</time>
      </trkpt>
      <trkpt lat="44.07541" lon="6.26652">
        <ele>765.4</ele>
        <time>2015-06-07T12:03:25.000Z</time>
      </trkpt>
      <trkpt lat="44.07511" lon="6.26661">
        <ele>765.6</ele>
        <time>2015-06-07T12:03:43.000Z</time>
      </trkpt>
      <trkpt lat="44.07497" lon="6.26665">
        <ele>764.4</ele>
        <time>2015-06-07T12:03:52.000Z</time>
      </trkpt>
      <trkpt lat="44.07495" lon="6.26665">
        <ele>764.3</ele>
        <time>2015-06-07T12:03:53.000Z</time>
      </trkpt>
      <trkpt lat="44.07494" lon="6.26665">
        <ele>764</ele>
        <time>2015-06-07T12:03:54.000Z</time>
      </trkpt>
      <trkpt lat="44.07492" lon="6.26665">
        <ele>763.7</ele>
        <time>2015-06-07T12:03:55.000Z</time>
      </trkpt>
      <trkpt lat="44.0749" lon="6.26665">
        <ele>763.5</ele>
        <time>2015-06-07T12:03:56.000Z</time>
      </trkpt>
      <trkpt lat="44.07489" lon="6.26665">
        <ele>763.5</ele>
        <time>2015-06-07T12:03:57.000Z</time>
      </trkpt>
      <trkpt lat="44.07484" lon="6.26661">
        <ele>764.6</ele>
        <time>2015-06-07T12:04:01.000Z</time>
      </trkpt>
      <trkpt lat="44.07483" lon="6.26659">
        <ele>765.4</ele>
        <time>2015-06-07T12:04:02.000Z</time>
      </trkpt>
      <trkpt lat="44.07482" lon="6.26657">
        <ele>766.3</ele>
        <time>2015-06-07T12:04:03.000Z</time>
      </trkpt>
      <trkpt lat="44.07482" lon="6.26654">
        <ele>767.3</ele>
        <time>2015-06-07T12:04:04.000Z</time>
      </trkpt>
      <trkpt lat="44.07482" lon="6.26652">
        <ele>768.3</ele>
        <time>2015-06-07T12:04:05.000Z</time>
      </trkpt>
      <trkpt lat="44.07483" lon="6.2665">
        <ele>769.3</ele>
        <time>2015-06-07T12:04:06.000Z</time>
      </trkpt>
      <trkpt lat="44.07484" lon="6.26648">
        <ele>770.1</ele>
        <time>2015-06-07T12:04:07.000Z</time>
      </trkpt>
      <trkpt lat="44.07509" lon="6.26637">
        <ele>774.4</ele>
        <time>2015-06-07T12:04:23.000Z</time>
      </trkpt>
      <trkpt lat="44.07527" lon="6.266">
        <ele>778.1</ele>
        <time>2015-06-07T12:04:40.000Z</time>
      </trkpt>
      <trkpt lat="44.07516" lon="6.26555">
        <ele>783.1</ele>
        <time>2015-06-07T12:04:57.000Z</time>
      </trkpt>
      <trkpt lat="44.07511" lon="6.26552">
        <ele>785.2</ele>
        <time>2015-06-07T12:04:58.000Z</time>
      </trkpt>
      <trkpt lat="44.07507" lon="6.26548">
        <ele>787.3</ele>
        <time>2015-06-07T12:04:59.000Z</time>
      </trkpt>
      <trkpt lat="44.07502" lon="6.26543">
        <ele>789</ele>
        <time>2015-06-07T12:05:00.000Z</time>
      </trkpt>
      <trkpt lat="44.07498" lon="6.26535">
        <ele>789.5</ele>
        <time>2015-06-07T12:05:01.000Z</time>
      </trkpt>
      <trkpt lat="44.07489" lon="6.26511">
        <ele>789.4</ele>
        <time>2015-06-07T12:05:04.000Z</time>
      </trkpt>
      <trkpt lat="44.07485" lon="6.26504">
        <ele>791.6</ele>
        <time>2015-06-07T12:05:05.000Z</time>
      </trkpt>
      <trkpt lat="44.07471" lon="6.26487">
        <ele>797.9</ele>
        <time>2015-06-07T12:05:08.000Z</time>
      </trkpt>
      <trkpt lat="44.07452" lon="6.26457">
        <ele>798.2</ele>
        <time>2015-06-07T12:05:15.000Z</time>
      </trkpt>
      <trkpt lat="44.07425" lon="6.26422">
        <ele>801.8</ele>
        <time>2015-06-07T12:05:29.000Z</time>
      </trkpt>
      <trkpt lat="44.07402" lon="6.2639">
        <ele>796.5</ele>
        <time>2015-06-07T12:05:45.000Z</time>
      </trkpt>
      <trkpt lat="44.07386" lon="6.26362">
        <ele>797</ele>
        <time>2015-06-07T12:05:59.000Z</time>
      </trkpt>
      <trkpt lat="44.07363" lon="6.26321">
        <ele>798.5</ele>
        <time>2015-06-07T12:06:19.000Z</time>
      </trkpt>
      <trkpt lat="44.0734" lon="6.26283">
        <ele>799.9</ele>
        <time>2015-06-07T12:06:37.000Z</time>
      </trkpt>
      <trkpt lat="44.07323" lon="6.26254">
        <ele>804.4</ele>
        <time>2015-06-07T12:06:50.000Z</time>
      </trkpt>
      <trkpt lat="44.07308" lon="6.26222">
        <ele>809.8</ele>
        <time>2015-06-07T12:07:03.000Z</time>
      </trkpt>
      <trkpt lat="44.07284" lon="6.26186">
        <ele>811.8</ele>
        <time>2015-06-07T12:07:20.000Z</time>
      </trkpt>
      <trkpt lat="44.07267" lon="6.26152">
        <ele>813.5</ele>
        <time>2015-06-07T12:07:34.000Z</time>
      </trkpt>
      <trkpt lat="44.07251" lon="6.26116">
        <ele>815.9</ele>
        <time>2015-06-07T12:07:49.000Z</time>
      </trkpt>
      <trkpt lat="44.07235" lon="6.26071">
        <ele>819.5</ele>
        <time>2015-06-07T12:08:06.000Z</time>
      </trkpt>
      <trkpt lat="44.07221" lon="6.26038">
        <ele>823.7</ele>
        <time>2015-06-07T12:08:20.000Z</time>
      </trkpt>
      <trkpt lat="44.07215" lon="6.26005">
        <ele>824.6</ele>
        <time>2015-06-07T12:08:33.000Z</time>
      </trkpt>
      <trkpt lat="44.07206" lon="6.2597">
        <ele>827.4</ele>
        <time>2015-06-07T12:08:46.000Z</time>
      </trkpt>
      <trkpt lat="44.07205" lon="6.25968">
        <ele>827.5</ele>
        <time>2015-06-07T12:08:47.000Z</time>
      </trkpt>
      <trkpt lat="44.07204" lon="6.25966">
        <ele>827.8</ele>
        <time>2015-06-07T12:08:48.000Z</time>
      </trkpt>
      <trkpt lat="44.07204" lon="6.25963">
        <ele>828.1</ele>
        <time>2015-06-07T12:08:49.000Z</time>
      </trkpt>
      <trkpt lat="44.07203" lon="6.25961">
        <ele>828.5</ele>
        <time>2015-06-07T12:08:50.000Z</time>
      </trkpt>
      <trkpt lat="44.07202" lon="6.25958">
        <ele>828.7</ele>
        <time>2015-06-07T12:08:51.000Z</time>
      </trkpt>
      <trkpt lat="44.07193" lon="6.2592">
        <ele>829.5</ele>
        <time>2015-06-07T12:09:06.000Z</time>
      </trkpt>
      <trkpt lat="44.07181" lon="6.25892">
        <ele>833.7</ele>
        <time>2015-06-07T12:09:19.000Z</time>
      </trkpt>
      <trkpt lat="44.0718" lon="6.25889">
        <ele>834.1</ele>
        <time>2015-06-07T12:09:21.000Z</time>
      </trkpt>
      <trkpt lat="44.07178" lon="6.25884">
        <ele>834.5</ele>
        <time>2015-06-07T12:09:23.000Z</time>
      </trkpt>
      <trkpt lat="44.07173" lon="6.25868">
        <ele>834.2</ele>
        <time>2015-06-07T12:09:30.000Z</time>
      </trkpt>
      <trkpt lat="44.07162" lon="6.25844">
        <ele>835</ele>
        <time>2015-06-07T12:09:42.000Z</time>
      </trkpt>
      <trkpt lat="44.07153" lon="6.25834">
        <ele>837.3</ele>
        <time>2015-06-07T12:09:48.000Z</time>
      </trkpt>
      <trkpt lat="44.07151" lon="6.25832">
        <ele>837.5</ele>
        <time>2015-06-07T12:09:49.000Z</time>
      </trkpt>
      <trkpt lat="44.0715" lon="6.2583">
        <ele>837.9</ele>
        <time>2015-06-07T12:09:50.000Z</time>
      </trkpt>
      <trkpt lat="44.07148" lon="6.25828">
        <ele>838.2</ele>
        <time>2015-06-07T12:09:51.000Z</time>
      </trkpt>
      <trkpt lat="44.07147" lon="6.25827">
        <ele>838.4</ele>
        <time>2015-06-07T12:09:52.000Z</time>
      </trkpt>
      <trkpt lat="44.07122" lon="6.25786">
        <ele>840.3</ele>
        <time>2015-06-07T12:10:11.000Z</time>
      </trkpt>
      <trkpt lat="44.07108" lon="6.2574">
        <ele>840.2</ele>
        <time>2015-06-07T12:10:28.000Z</time>
      </trkpt>
      <trkpt lat="44.07107" lon="6.25735">
        <ele>840.5</ele>
        <time>2015-06-07T12:10:30.000Z</time>
      </trkpt>
      <trkpt lat="44.07107" lon="6.25732">
        <ele>840.5</ele>
        <time>2015-06-07T12:10:31.000Z</time>
      </trkpt>
      <trkpt lat="44.07106" lon="6.25729">
        <ele>840.8</ele>
        <time>2015-06-07T12:10:32.000Z</time>
      </trkpt>
      <trkpt lat="44.07105" lon="6.25726">
        <ele>840.9</ele>
        <time>2015-06-07T12:10:33.000Z</time>
      </trkpt>
      <trkpt lat="44.07104" lon="6.25724">
        <ele>841.2</ele>
        <time>2015-06-07T12:10:34.000Z</time>
      </trkpt>
      <trkpt lat="44.07104" lon="6.25722">
        <ele>841.6</ele>
        <time>2015-06-07T12:10:35.000Z</time>
      </trkpt>
      <trkpt lat="44.07103" lon="6.25719">
        <ele>842</ele>
        <time>2015-06-07T12:10:36.000Z</time>
      </trkpt>
      <trkpt lat="44.07102" lon="6.25716">
        <ele>842.2</ele>
        <time>2015-06-07T12:10:37.000Z</time>
      </trkpt>
      <trkpt lat="44.07101" lon="6.25713">
        <ele>842.6</ele>
        <time>2015-06-07T12:10:38.000Z</time>
      </trkpt>
      <trkpt lat="44.071" lon="6.2571">
        <ele>843.1</ele>
        <time>2015-06-07T12:10:39.000Z</time>
      </trkpt>
      <trkpt lat="44.07091" lon="6.25687">
        <ele>846.7</ele>
        <time>2015-06-07T12:10:49.000Z</time>
      </trkpt>
      <trkpt lat="44.07084" lon="6.25652">
        <ele>846.2</ele>
        <time>2015-06-07T12:11:04.000Z</time>
      </trkpt>
      <trkpt lat="44.07084" lon="6.25648">
        <ele>845.9</ele>
        <time>2015-06-07T12:11:06.000Z</time>
      </trkpt>
      <trkpt lat="44.07085" lon="6.25647">
        <ele>845.6</ele>
        <time>2015-06-07T12:11:19.000Z</time>
      </trkpt>
      <trkpt lat="44.07083" lon="6.25644">
        <ele>845.7</ele>
        <time>2015-06-07T12:11:51.000Z</time>
      </trkpt>
      <trkpt lat="44.07084" lon="6.25644">
        <ele>845.3</ele>
        <time>2015-06-07T12:12:14.000Z</time>
      </trkpt>
      <trkpt lat="44.07086" lon="6.25646">
        <ele>845.3</ele>
        <time>2015-06-07T12:12:44.000Z</time>
      </trkpt>
      <trkpt lat="44.07087" lon="6.25645">
        <ele>844.9</ele>
        <time>2015-06-07T12:13:07.000Z</time>
      </trkpt>
      <trkpt lat="44.07089" lon="6.25647">
        <ele>844.5</ele>
        <time>2015-06-07T12:13:39.000Z</time>
      </trkpt>
      <trkpt lat="44.07084" lon="6.25648">
        <ele>845.8</ele>
        <time>2015-06-07T12:14:14.000Z</time>
      </trkpt>
      <trkpt lat="44.07084" lon="6.2565">
        <ele>846.1</ele>
        <time>2015-06-07T12:14:33.000Z</time>
      </trkpt>
      <trkpt lat="44.07081" lon="6.25649">
        <ele>847.9</ele>
        <time>2015-06-07T12:14:58.000Z</time>
      </trkpt>
      <trkpt lat="44.07087" lon="6.25649">
        <ele>845.3</ele>
        <time>2015-06-07T12:15:31.000Z</time>
      </trkpt>
      <trkpt lat="44.0708" lon="6.25649">
        <ele>848.6</ele>
        <time>2015-06-07T12:16:01.000Z</time>
      </trkpt>
      <trkpt lat="44.07082" lon="6.25646">
        <ele>846.6</ele>
        <time>2015-06-07T12:16:32.000Z</time>
      </trkpt>
      <trkpt lat="44.07085" lon="6.25646">
        <ele>845.3</ele>
        <time>2015-06-07T12:17:01.000Z</time>
      </trkpt>
      <trkpt lat="44.07084" lon="6.25647">
        <ele>845.6</ele>
        <time>2015-06-07T12:17:04.000Z</time>
      </trkpt>
      <trkpt lat="44.07086" lon="6.25646">
        <ele>845.1</ele>
        <time>2015-06-07T12:17:17.000Z</time>
      </trkpt>
      <trkpt lat="44.07088" lon="6.25642">
        <ele>844.3</ele>
        <time>2015-06-07T12:17:20.000Z</time>
      </trkpt>
      <trkpt lat="44.07085" lon="6.25633">
        <ele>844.6</ele>
        <time>2015-06-07T12:17:25.000Z</time>
      </trkpt>
      <trkpt lat="44.07076" lon="6.25602">
        <ele>849.6</ele>
        <time>2015-06-07T12:17:42.000Z</time>
      </trkpt>
      <trkpt lat="44.07075" lon="6.256">
        <ele>850</ele>
        <time>2015-06-07T12:17:43.000Z</time>
      </trkpt>
      <trkpt lat="44.07071" lon="6.25582">
        <ele>852.6</ele>
        <time>2015-06-07T12:17:53.000Z</time>
      </trkpt>
      <trkpt lat="44.07062" lon="6.25549">
        <ele>856</ele>
        <time>2015-06-07T12:18:11.000Z</time>
      </trkpt>
      <trkpt lat="44.07053" lon="6.2552">
        <ele>858</ele>
        <time>2015-06-07T12:18:28.000Z</time>
      </trkpt>
      <trkpt lat="44.07053" lon="6.25518">
        <ele>858.1</ele>
        <time>2015-06-07T12:18:29.000Z</time>
      </trkpt>
      <trkpt lat="44.07052" lon="6.25511">
        <ele>858.3</ele>
        <time>2015-06-07T12:18:33.000Z</time>
      </trkpt>
      <trkpt lat="44.07046" lon="6.25475">
        <ele>860.6</ele>
        <time>2015-06-07T12:18:51.000Z</time>
      </trkpt>
      <trkpt lat="44.07037" lon="6.25445">
        <ele>865.2</ele>
        <time>2015-06-07T12:19:08.000Z</time>
      </trkpt>
      <trkpt lat="44.07034" lon="6.25437">
        <ele>866.4</ele>
        <time>2015-06-07T12:19:13.000Z</time>
      </trkpt>
      <trkpt lat="44.07022" lon="6.2541">
        <ele>871</ele>
        <time>2015-06-07T12:19:30.000Z</time>
      </trkpt>
      <trkpt lat="44.07017" lon="6.2539">
        <ele>873.3</ele>
        <time>2015-06-07T12:19:41.000Z</time>
      </trkpt>
      <trkpt lat="44.07" lon="6.25362">
        <ele>878</ele>
        <time>2015-06-07T12:20:01.000Z</time>
      </trkpt>
      <trkpt lat="44.06994" lon="6.25328">
        <ele>880.7</ele>
        <time>2015-06-07T12:20:20.000Z</time>
      </trkpt>
      <trkpt lat="44.06983" lon="6.25298">
        <ele>883.8</ele>
        <time>2015-06-07T12:20:37.000Z</time>
      </trkpt>
      <trkpt lat="44.06968" lon="6.25275">
        <ele>885.2</ele>
        <time>2015-06-07T12:20:54.000Z</time>
      </trkpt>
      <trkpt lat="44.06955" lon="6.25254">
        <ele>888</ele>
        <time>2015-06-07T12:21:10.000Z</time>
      </trkpt>
      <trkpt lat="44.06931" lon="6.25227">
        <ele>891.7</ele>
        <time>2015-06-07T12:21:29.000Z</time>
      </trkpt>
      <trkpt lat="44.06911" lon="6.25208">
        <ele>895</ele>
        <time>2015-06-07T12:21:45.000Z</time>
      </trkpt>
      <trkpt lat="44.06908" lon="6.25203">
        <ele>895.3</ele>
        <time>2015-06-07T12:21:48.000Z</time>
      </trkpt>
      <trkpt lat="44.06889" lon="6.25184">
        <ele>898</ele>
        <time>2015-06-07T12:22:04.000Z</time>
      </trkpt>
      <trkpt lat="44.06867" lon="6.25168">
        <ele>900.5</ele>
        <time>2015-06-07T12:22:21.000Z</time>
      </trkpt>
      <trkpt lat="44.06845" lon="6.25152">
        <ele>903.6</ele>
        <time>2015-06-07T12:22:38.000Z</time>
      </trkpt>
      <trkpt lat="44.06841" lon="6.2515">
        <ele>904.1</ele>
        <time>2015-06-07T12:22:42.000Z</time>
      </trkpt>
      <trkpt lat="44.06812" lon="6.25147">
        <ele>907.8</ele>
        <time>2015-06-07T12:22:59.000Z</time>
      </trkpt>
      <trkpt lat="44.06807" lon="6.25148">
        <ele>908.4</ele>
        <time>2015-06-07T12:23:02.000Z</time>
      </trkpt>
      <trkpt lat="44.06801" lon="6.25147">
        <ele>909.3</ele>
        <time>2015-06-07T12:23:06.000Z</time>
      </trkpt>
      <trkpt lat="44.06781" lon="6.25145">
        <ele>912.1</ele>
        <time>2015-06-07T12:23:20.000Z</time>
      </trkpt>
      <trkpt lat="44.0676" lon="6.25143">
        <ele>914.7</ele>
        <time>2015-06-07T12:23:33.000Z</time>
      </trkpt>
      <trkpt lat="44.06737" lon="6.25135">
        <ele>917.7</ele>
        <time>2015-06-07T12:23:48.000Z</time>
      </trkpt>
      <trkpt lat="44.0672" lon="6.25121">
        <ele>920.5</ele>
        <time>2015-06-07T12:24:02.000Z</time>
      </trkpt>
      <trkpt lat="44.06705" lon="6.25099">
        <ele>922.6</ele>
        <time>2015-06-07T12:24:16.000Z</time>
      </trkpt>
      <trkpt lat="44.0668" lon="6.25082">
        <ele>926.1</ele>
        <time>2015-06-07T12:24:34.000Z</time>
      </trkpt>
      <trkpt lat="44.06659" lon="6.25079">
        <ele>932</ele>
        <time>2015-06-07T12:24:47.000Z</time>
      </trkpt>
      <trkpt lat="44.06637" lon="6.25066">
        <ele>935.7</ele>
        <time>2015-06-07T12:25:03.000Z</time>
      </trkpt>
      <trkpt lat="44.06618" lon="6.25047">
        <ele>936.1</ele>
        <time>2015-06-07T12:25:18.000Z</time>
      </trkpt>
      <trkpt lat="44.06605" lon="6.25036">
        <ele>936.8</ele>
        <time>2015-06-07T12:25:30.000Z</time>
      </trkpt>
      <trkpt lat="44.06579" lon="6.25017">
        <ele>938.8</ele>
        <time>2015-06-07T12:25:48.000Z</time>
      </trkpt>
      <trkpt lat="44.06553" lon="6.25008">
        <ele>942.2</ele>
        <time>2015-06-07T12:26:05.000Z</time>
      </trkpt>
      <trkpt lat="44.06533" lon="6.24983">
        <ele>941.8</ele>
        <time>2015-06-07T12:26:21.000Z</time>
      </trkpt>
      <trkpt lat="44.06507" lon="6.24962">
        <ele>945.6</ele>
        <time>2015-06-07T12:26:40.000Z</time>
      </trkpt>
      <trkpt lat="44.06484" lon="6.24943">
        <ele>949.3</ele>
        <time>2015-06-07T12:26:57.000Z</time>
      </trkpt>
      <trkpt lat="44.06463" lon="6.24922">
        <ele>952.5</ele>
        <time>2015-06-07T12:27:12.000Z</time>
      </trkpt>
      <trkpt lat="44.06438" lon="6.24908">
        <ele>956</ele>
        <time>2015-06-07T12:27:28.000Z</time>
      </trkpt>
      <trkpt lat="44.06417" lon="6.24893">
        <ele>957.8</ele>
        <time>2015-06-07T12:27:42.000Z</time>
      </trkpt>
      <trkpt lat="44.06388" lon="6.24886">
        <ele>961.8</ele>
        <time>2015-06-07T12:28:00.000Z</time>
      </trkpt>
      <trkpt lat="44.06357" lon="6.2489">
        <ele>969.8</ele>
        <time>2015-06-07T12:28:19.000Z</time>
      </trkpt>
      <trkpt lat="44.06334" lon="6.24888">
        <ele>975.5</ele>
        <time>2015-06-07T12:28:33.000Z</time>
      </trkpt>
      <trkpt lat="44.06313" lon="6.24883">
        <ele>979.3</ele>
        <time>2015-06-07T12:28:46.000Z</time>
      </trkpt>
      <trkpt lat="44.06283" lon="6.24871">
        <ele>980.8</ele>
        <time>2015-06-07T12:29:05.000Z</time>
      </trkpt>
      <trkpt lat="44.06262" lon="6.24856">
        <ele>978.9</ele>
        <time>2015-06-07T12:29:19.000Z</time>
      </trkpt>
      <trkpt lat="44.06237" lon="6.24843">
        <ele>980.5</ele>
        <time>2015-06-07T12:29:35.000Z</time>
      </trkpt>
      <trkpt lat="44.06208" lon="6.24847">
        <ele>988.5</ele>
        <time>2015-06-07T12:29:52.000Z</time>
      </trkpt>
      <trkpt lat="44.06191" lon="6.24852">
        <ele>994.5</ele>
        <time>2015-06-07T12:30:02.000Z</time>
      </trkpt>
      <trkpt lat="44.06156" lon="6.24843">
        <ele>998.6</ele>
        <time>2015-06-07T12:30:23.000Z</time>
      </trkpt>
      <trkpt lat="44.0613" lon="6.24838">
        <ele>1002</ele>
        <time>2015-06-07T12:30:38.000Z</time>
      </trkpt>
      <trkpt lat="44.061" lon="6.24835">
        <ele>1004.6</ele>
        <time>2015-06-07T12:30:53.000Z</time>
      </trkpt>
      <trkpt lat="44.06073" lon="6.24833">
        <ele>1006.5</ele>
        <time>2015-06-07T12:31:06.000Z</time>
      </trkpt>
      <trkpt lat="44.06057" lon="6.24834">
        <ele>1007.2</ele>
        <time>2015-06-07T12:31:13.000Z</time>
      </trkpt>
      <trkpt lat="44.06041" lon="6.24844">
        <ele>1012.3</ele>
        <time>2015-06-07T12:31:23.000Z</time>
      </trkpt>
      <trkpt lat="44.06018" lon="6.24867">
        <ele>1019</ele>
        <time>2015-06-07T12:31:39.000Z</time>
      </trkpt>
      <trkpt lat="44.05988" lon="6.24888">
        <ele>1021.3</ele>
        <time>2015-06-07T12:31:59.000Z</time>
      </trkpt>
      <trkpt lat="44.05967" lon="6.24893">
        <ele>1021</ele>
        <time>2015-06-07T12:32:12.000Z</time>
      </trkpt>
      <trkpt lat="44.05956" lon="6.24885">
        <ele>1018.2</ele>
        <time>2015-06-07T12:32:19.000Z</time>
      </trkpt>
      <trkpt lat="44.05953" lon="6.24895">
        <ele>1021.5</ele>
        <time>2015-06-07T12:32:38.000Z</time>
      </trkpt>
      <trkpt lat="44.05952" lon="6.24902">
        <ele>1024.6</ele>
        <time>2015-06-07T12:33:13.000Z</time>
      </trkpt>
      <trkpt lat="44.05953" lon="6.24891">
        <ele>1019.9</ele>
        <time>2015-06-07T12:33:54.000Z</time>
      </trkpt>
      <trkpt lat="44.05953" lon="6.24884">
        <ele>1018.1</ele>
        <time>2015-06-07T12:34:03.000Z</time>
      </trkpt>
      <trkpt lat="44.05952" lon="6.24843">
        <ele>1015.2</ele>
        <time>2015-06-07T12:34:21.000Z</time>
      </trkpt>
      <trkpt lat="44.0597" lon="6.24796">
        <ele>1016.2</ele>
        <time>2015-06-07T12:34:38.000Z</time>
      </trkpt>
      <trkpt lat="44.05986" lon="6.24738">
        <ele>1021</ele>
        <time>2015-06-07T12:34:55.000Z</time>
      </trkpt>
      <trkpt lat="44.06006" lon="6.24698">
        <ele>1025.3</ele>
        <time>2015-06-07T12:35:09.000Z</time>
      </trkpt>
      <trkpt lat="44.06029" lon="6.24661">
        <ele>1029.3</ele>
        <time>2015-06-07T12:35:25.000Z</time>
      </trkpt>
      <trkpt lat="44.06058" lon="6.24637">
        <ele>1029</ele>
        <time>2015-06-07T12:35:41.000Z</time>
      </trkpt>
      <trkpt lat="44.06092" lon="6.24611">
        <ele>1030.7</ele>
        <time>2015-06-07T12:36:00.000Z</time>
      </trkpt>
      <trkpt lat="44.0612" lon="6.24584">
        <ele>1036.9</ele>
        <time>2015-06-07T12:36:17.000Z</time>
      </trkpt>
      <trkpt lat="44.06149" lon="6.24573">
        <ele>1040.4</ele>
        <time>2015-06-07T12:36:32.000Z</time>
      </trkpt>
      <trkpt lat="44.06182" lon="6.24571">
        <ele>1041.4</ele>
        <time>2015-06-07T12:36:47.000Z</time>
      </trkpt>
      <trkpt lat="44.06217" lon="6.24567">
        <ele>1043.7</ele>
        <time>2015-06-07T12:37:03.000Z</time>
      </trkpt>
      <trkpt lat="44.06246" lon="6.24564">
        <ele>1047.5</ele>
        <time>2015-06-07T12:37:16.000Z</time>
      </trkpt>
      <trkpt lat="44.06271" lon="6.24558">
        <ele>1051.5</ele>
        <time>2015-06-07T12:37:27.000Z</time>
      </trkpt>
      <trkpt lat="44.06313" lon="6.24548">
        <ele>1054.8</ele>
        <time>2015-06-07T12:37:45.000Z</time>
      </trkpt>
      <trkpt lat="44.06344" lon="6.24521">
        <ele>1059.9</ele>
        <time>2015-06-07T12:38:01.000Z</time>
      </trkpt>
      <trkpt lat="44.06373" lon="6.24503">
        <ele>1063.6</ele>
        <time>2015-06-07T12:38:15.000Z</time>
      </trkpt>
      <trkpt lat="44.06402" lon="6.24491">
        <ele>1066.6</ele>
        <time>2015-06-07T12:38:28.000Z</time>
      </trkpt>
      <trkpt lat="44.0643" lon="6.24489">
        <ele>1067.9</ele>
        <time>2015-06-07T12:38:40.000Z</time>
      </trkpt>
      <trkpt lat="44.06468" lon="6.24489">
        <ele>1069</ele>
        <time>2015-06-07T12:38:57.000Z</time>
      </trkpt>
      <trkpt lat="44.06498" lon="6.24487">
        <ele>1069.7</ele>
        <time>2015-06-07T12:39:10.000Z</time>
      </trkpt>
      <trkpt lat="44.06532" lon="6.24467">
        <ele>1077.1</ele>
        <time>2015-06-07T12:39:24.000Z</time>
      </trkpt>
      <trkpt lat="44.06576" lon="6.24468">
        <ele>1078.8</ele>
        <time>2015-06-07T12:39:38.000Z</time>
      </trkpt>
      <trkpt lat="44.06593" lon="6.24467">
        <ele>1080.6</ele>
        <time>2015-06-07T12:39:42.000Z</time>
      </trkpt>
      <trkpt lat="44.06597" lon="6.24467">
        <ele>1081</ele>
        <time>2015-06-07T12:39:43.000Z</time>
      </trkpt>
      <trkpt lat="44.06605" lon="6.24468">
        <ele>1081.5</ele>
        <time>2015-06-07T12:39:45.000Z</time>
      </trkpt>
      <trkpt lat="44.06618" lon="6.24473">
        <ele>1081.8</ele>
        <time>2015-06-07T12:39:48.000Z</time>
      </trkpt>
      <trkpt lat="44.06623" lon="6.24476">
        <ele>1081.7</ele>
        <time>2015-06-07T12:39:49.000Z</time>
      </trkpt>
      <trkpt lat="44.06635" lon="6.24486">
        <ele>1081.3</ele>
        <time>2015-06-07T12:39:52.000Z</time>
      </trkpt>
      <trkpt lat="44.06639" lon="6.24491">
        <ele>1081</ele>
        <time>2015-06-07T12:39:53.000Z</time>
      </trkpt>
      <trkpt lat="44.06663" lon="6.24516">
        <ele>1079.1</ele>
        <time>2015-06-07T12:39:59.000Z</time>
      </trkpt>
      <trkpt lat="44.06697" lon="6.2453">
        <ele>1081.6</ele>
        <time>2015-06-07T12:40:06.000Z</time>
      </trkpt>
      <trkpt lat="44.06724" lon="6.24549">
        <ele>1080.8</ele>
        <time>2015-06-07T12:40:12.000Z</time>
      </trkpt>
      <trkpt lat="44.06745" lon="6.24559">
        <ele>1081.7</ele>
        <time>2015-06-07T12:40:17.000Z</time>
      </trkpt>
      <trkpt lat="44.06749" lon="6.24561">
        <ele>1081.9</ele>
        <time>2015-06-07T12:40:18.000Z</time>
      </trkpt>
      <trkpt lat="44.06781" lon="6.24587">
        <ele>1081.5</ele>
        <time>2015-06-07T12:40:32.000Z</time>
      </trkpt>
      <trkpt lat="44.06782" lon="6.24587">
        <ele>1081.5</ele>
        <time>2015-06-07T12:40:33.000Z</time>
      </trkpt>
      <trkpt lat="44.06784" lon="6.24587">
        <ele>1081.7</ele>
        <time>2015-06-07T12:40:34.000Z</time>
      </trkpt>
      <trkpt lat="44.06787" lon="6.24583">
        <ele>1082.7</ele>
        <time>2015-06-07T12:40:37.000Z</time>
      </trkpt>
      <trkpt lat="44.06792" lon="6.24582">
        <ele>1083.1</ele>
        <time>2015-06-07T12:40:53.000Z</time>
      </trkpt>
      <trkpt lat="44.06789" lon="6.24585">
        <ele>1082.6</ele>
        <time>2015-06-07T12:41:33.000Z</time>
      </trkpt>
      <trkpt lat="44.06791" lon="6.24584">
        <ele>1082.8</ele>
        <time>2015-06-07T12:42:24.000Z</time>
      </trkpt>
      <trkpt lat="44.06788" lon="6.24584">
        <ele>1082.6</ele>
        <time>2015-06-07T12:43:08.000Z</time>
      </trkpt>
      <trkpt lat="44.0679" lon="6.24584">
        <ele>1082.7</ele>
        <time>2015-06-07T12:44:01.000Z</time>
      </trkpt>
      <trkpt lat="44.06789" lon="6.24584">
        <ele>1082.7</ele>
        <time>2015-06-07T12:44:36.000Z</time>
      </trkpt>
      <trkpt lat="44.0679" lon="6.24584">
        <ele>1082.8</ele>
        <time>2015-06-07T12:45:21.000Z</time>
      </trkpt>
      <trkpt lat="44.06789" lon="6.24582">
        <ele>1082.9</ele>
        <time>2015-06-07T12:46:11.000Z</time>
      </trkpt>
      <trkpt lat="44.06793" lon="6.24582">
        <ele>1083.2</ele>
        <time>2015-06-07T12:46:50.000Z</time>
      </trkpt>
      <trkpt lat="44.06793" lon="6.2458">
        <ele>1083.3</ele>
        <time>2015-06-07T12:47:32.000Z</time>
      </trkpt>
      <trkpt lat="44.06789" lon="6.24584">
        <ele>1082.8</ele>
        <time>2015-06-07T12:48:07.000Z</time>
      </trkpt>
      <trkpt lat="44.06784" lon="6.2459">
        <ele>1081.1</ele>
        <time>2015-06-07T12:48:24.000Z</time>
      </trkpt>
      <trkpt lat="44.06781" lon="6.24589">
        <ele>1081</ele>
        <time>2015-06-07T12:48:56.000Z</time>
      </trkpt>
      <trkpt lat="44.06782" lon="6.2459">
        <ele>1081</ele>
        <time>2015-06-07T12:49:22.000Z</time>
      </trkpt>
      <trkpt lat="44.06781" lon="6.2459">
        <ele>1080.9</ele>
        <time>2015-06-07T12:49:57.000Z</time>
      </trkpt>
      <trkpt lat="44.06783" lon="6.24586">
        <ele>1081.8</ele>
        <time>2015-06-07T12:50:17.000Z</time>
      </trkpt>
      <trkpt lat="44.06785" lon="6.24582">
        <ele>1082.7</ele>
        <time>2015-06-07T12:50:19.000Z</time>
      </trkpt>
      <trkpt lat="44.06786" lon="6.24579">
        <ele>1082.9</ele>
        <time>2015-06-07T12:50:20.000Z</time>
      </trkpt>
      <trkpt lat="44.06786" lon="6.24578">
        <ele>1083</ele>
        <time>2015-06-07T12:50:21.000Z</time>
      </trkpt>
      <trkpt lat="44.06787" lon="6.24571">
        <ele>1083.5</ele>
        <time>2015-06-07T12:50:25.000Z</time>
      </trkpt>
      <trkpt lat="44.06781" lon="6.24555">
        <ele>1084.9</ele>
        <time>2015-06-07T12:50:40.000Z</time>
      </trkpt>
      <trkpt lat="44.06781" lon="6.24554">
        <ele>1085.1</ele>
        <time>2015-06-07T12:50:41.000Z</time>
      </trkpt>
      <trkpt lat="44.0679" lon="6.24542">
        <ele>1086.6</ele>
        <time>2015-06-07T12:50:59.000Z</time>
      </trkpt>
      <trkpt lat="44.068" lon="6.24536">
        <ele>1086.6</ele>
        <time>2015-06-07T12:51:14.000Z</time>
      </trkpt>
      <trkpt lat="44.06801" lon="6.24534">
        <ele>1086.7</ele>
        <time>2015-06-07T12:51:17.000Z</time>
      </trkpt>
      <trkpt lat="44.06808" lon="6.24531">
        <ele>1086.5</ele>
        <time>2015-06-07T12:51:22.000Z</time>
      </trkpt>
      <trkpt lat="44.06819" lon="6.24521">
        <ele>1085.2</ele>
        <time>2015-06-07T12:51:32.000Z</time>
      </trkpt>
      <trkpt lat="44.06821" lon="6.24507">
        <ele>1084</ele>
        <time>2015-06-07T12:51:48.000Z</time>
      </trkpt>
      <trkpt lat="44.06823" lon="6.24499">
        <ele>1083.2</ele>
        <time>2015-06-07T12:51:58.000Z</time>
      </trkpt>
      <trkpt lat="44.06816" lon="6.24461">
        <ele>1080.1</ele>
        <time>2015-06-07T12:52:04.000Z</time>
      </trkpt>
      <trkpt lat="44.06815" lon="6.24451">
        <ele>1079.6</ele>
        <time>2015-06-07T12:52:05.000Z</time>
      </trkpt>
      <trkpt lat="44.06812" lon="6.24421">
        <ele>1077.6</ele>
        <time>2015-06-07T12:52:10.000Z</time>
      </trkpt>
      <trkpt lat="44.06812" lon="6.24414">
        <ele>1077</ele>
        <time>2015-06-07T12:52:11.000Z</time>
      </trkpt>
      <trkpt lat="44.06813" lon="6.24406">
        <ele>1076.6</ele>
        <time>2015-06-07T12:52:12.000Z</time>
      </trkpt>
      <trkpt lat="44.06814" lon="6.24397">
        <ele>1076</ele>
        <time>2015-06-07T12:52:13.000Z</time>
      </trkpt>
      <trkpt lat="44.06816" lon="6.24389">
        <ele>1075</ele>
        <time>2015-06-07T12:52:14.000Z</time>
      </trkpt>
      <trkpt lat="44.06819" lon="6.2438">
        <ele>1074.3</ele>
        <time>2015-06-07T12:52:15.000Z</time>
      </trkpt>
      <trkpt lat="44.06822" lon="6.24372">
        <ele>1073.6</ele>
        <time>2015-06-07T12:52:16.000Z</time>
      </trkpt>
      <trkpt lat="44.06825" lon="6.24366">
        <ele>1072.9</ele>
        <time>2015-06-07T12:52:17.000Z</time>
      </trkpt>
      <trkpt lat="44.06834" lon="6.24353">
        <ele>1070.5</ele>
        <time>2015-06-07T12:52:19.000Z</time>
      </trkpt>
      <trkpt lat="44.06842" lon="6.24342">
        <ele>1068.1</ele>
        <time>2015-06-07T12:52:21.000Z</time>
      </trkpt>
      <trkpt lat="44.06841" lon="6.24337">
        <ele>1068.1</ele>
        <time>2015-06-07T12:52:22.000Z</time>
      </trkpt>
      <trkpt lat="44.06839" lon="6.24332">
        <ele>1068.4</ele>
        <time>2015-06-07T12:52:23.000Z</time>
      </trkpt>
      <trkpt lat="44.06836" lon="6.24326">
        <ele>1068.5</ele>
        <time>2015-06-07T12:52:24.000Z</time>
      </trkpt>
      <trkpt lat="44.06835" lon="6.24321">
        <ele>1068.2</ele>
        <time>2015-06-07T12:52:25.000Z</time>
      </trkpt>
      <trkpt lat="44.06835" lon="6.24316">
        <ele>1067.7</ele>
        <time>2015-06-07T12:52:26.000Z</time>
      </trkpt>
      <trkpt lat="44.06835" lon="6.24312">
        <ele>1067.2</ele>
        <time>2015-06-07T12:52:27.000Z</time>
      </trkpt>
      <trkpt lat="44.06837" lon="6.2431">
        <ele>1066.6</ele>
        <time>2015-06-07T12:52:28.000Z</time>
      </trkpt>
      <trkpt lat="44.0684" lon="6.2431">
        <ele>1066</ele>
        <time>2015-06-07T12:52:29.000Z</time>
      </trkpt>
      <trkpt lat="44.06843" lon="6.24312">
        <ele>1065.5</ele>
        <time>2015-06-07T12:52:30.000Z</time>
      </trkpt>
      <trkpt lat="44.06847" lon="6.24314">
        <ele>1064.8</ele>
        <time>2015-06-07T12:52:31.000Z</time>
      </trkpt>
      <trkpt lat="44.06852" lon="6.24315">
        <ele>1063.9</ele>
        <time>2015-06-07T12:52:32.000Z</time>
      </trkpt>
      <trkpt lat="44.06856" lon="6.24315">
        <ele>1062.9</ele>
        <time>2015-06-07T12:52:33.000Z</time>
      </trkpt>
      <trkpt lat="44.0686" lon="6.24317">
        <ele>1062.1</ele>
        <time>2015-06-07T12:52:34.000Z</time>
      </trkpt>
      <trkpt lat="44.06862" lon="6.24319">
        <ele>1061.7</ele>
        <time>2015-06-07T12:52:35.000Z</time>
      </trkpt>
      <trkpt lat="44.06865" lon="6.24319">
        <ele>1061.1</ele>
        <time>2015-06-07T12:52:36.000Z</time>
      </trkpt>
      <trkpt lat="44.06867" lon="6.24317">
        <ele>1060.5</ele>
        <time>2015-06-07T12:52:37.000Z</time>
      </trkpt>
      <trkpt lat="44.06867" lon="6.24313">
        <ele>1060.1</ele>
        <time>2015-06-07T12:52:38.000Z</time>
      </trkpt>
      <trkpt lat="44.06868" lon="6.2431">
        <ele>1059.8</ele>
        <time>2015-06-07T12:52:39.000Z</time>
      </trkpt>
      <trkpt lat="44.0687" lon="6.24309">
        <ele>1059.3</ele>
        <time>2015-06-07T12:52:40.000Z</time>
      </trkpt>
      <trkpt lat="44.06872" lon="6.24308">
        <ele>1058.8</ele>
        <time>2015-06-07T12:52:41.000Z</time>
      </trkpt>
      <trkpt lat="44.06875" lon="6.24306">
        <ele>1058.1</ele>
        <time>2015-06-07T12:52:42.000Z</time>
      </trkpt>
      <trkpt lat="44.06878" lon="6.24302">
        <ele>1056.9</ele>
        <time>2015-06-07T12:52:43.000Z</time>
      </trkpt>
      <trkpt lat="44.06881" lon="6.24298">
        <ele>1055.7</ele>
        <time>2015-06-07T12:52:44.000Z</time>
      </trkpt>
      <trkpt lat="44.06886" lon="6.24293">
        <ele>1054.2</ele>
        <time>2015-06-07T12:52:45.000Z</time>
      </trkpt>
      <trkpt lat="44.06897" lon="6.24284">
        <ele>1051.7</ele>
        <time>2015-06-07T12:52:47.000Z</time>
      </trkpt>
      <trkpt lat="44.069" lon="6.24278">
        <ele>1050.8</ele>
        <time>2015-06-07T12:52:48.000Z</time>
      </trkpt>
      <trkpt lat="44.06903" lon="6.24274">
        <ele>1049.7</ele>
        <time>2015-06-07T12:52:49.000Z</time>
      </trkpt>
      <trkpt lat="44.06905" lon="6.2427">
        <ele>1048.7</ele>
        <time>2015-06-07T12:52:50.000Z</time>
      </trkpt>
      <trkpt lat="44.06907" lon="6.24266">
        <ele>1047.8</ele>
        <time>2015-06-07T12:52:51.000Z</time>
      </trkpt>
      <trkpt lat="44.0691" lon="6.24263">
        <ele>1046.8</ele>
        <time>2015-06-07T12:52:52.000Z</time>
      </trkpt>
      <trkpt lat="44.06913" lon="6.24259">
        <ele>1045.9</ele>
        <time>2015-06-07T12:52:53.000Z</time>
      </trkpt>
      <trkpt lat="44.06925" lon="6.24248">
        <ele>1043.1</ele>
        <time>2015-06-07T12:52:57.000Z</time>
      </trkpt>
      <trkpt lat="44.06928" lon="6.24247">
        <ele>1042.7</ele>
        <time>2015-06-07T12:52:58.000Z</time>
      </trkpt>
      <trkpt lat="44.06932" lon="6.24246">
        <ele>1042.4</ele>
        <time>2015-06-07T12:52:59.000Z</time>
      </trkpt>
      <trkpt lat="44.0694" lon="6.24243">
        <ele>1041.7</ele>
        <time>2015-06-07T12:53:01.000Z</time>
      </trkpt>
      <trkpt lat="44.06944" lon="6.24241">
        <ele>1041.1</ele>
        <time>2015-06-07T12:53:02.000Z</time>
      </trkpt>
      <trkpt lat="44.06948" lon="6.24238">
        <ele>1040.3</ele>
        <time>2015-06-07T12:53:03.000Z</time>
      </trkpt>
      <trkpt lat="44.06953" lon="6.24235">
        <ele>1039.3</ele>
        <time>2015-06-07T12:53:04.000Z</time>
      </trkpt>
      <trkpt lat="44.06956" lon="6.24232">
        <ele>1038.6</ele>
        <time>2015-06-07T12:53:05.000Z</time>
      </trkpt>
      <trkpt lat="44.0696" lon="6.2423">
        <ele>1038</ele>
        <time>2015-06-07T12:53:06.000Z</time>
      </trkpt>
      <trkpt lat="44.06969" lon="6.24225">
        <ele>1036.6</ele>
        <time>2015-06-07T12:53:09.000Z</time>
      </trkpt>
      <trkpt lat="44.06971" lon="6.24226">
        <ele>1036.7</ele>
        <time>2015-06-07T12:53:10.000Z</time>
      </trkpt>
      <trkpt lat="44.06973" lon="6.24226">
        <ele>1036.6</ele>
        <time>2015-06-07T12:53:11.000Z</time>
      </trkpt>
      <trkpt lat="44.06975" lon="6.24225">
        <ele>1036.1</ele>
        <time>2015-06-07T12:53:12.000Z</time>
      </trkpt>
      <trkpt lat="44.06978" lon="6.24224">
        <ele>1035.5</ele>
        <time>2015-06-07T12:53:13.000Z</time>
      </trkpt>
      <trkpt lat="44.0698" lon="6.24222">
        <ele>1034.8</ele>
        <time>2015-06-07T12:53:14.000Z</time>
      </trkpt>
      <trkpt lat="44.06995" lon="6.24214">
        <ele>1030.9</ele>
        <time>2015-06-07T12:53:18.000Z</time>
      </trkpt>
      <trkpt lat="44.07009" lon="6.24215">
        <ele>1028.6</ele>
        <time>2015-06-07T12:53:22.000Z</time>
      </trkpt>
      <trkpt lat="44.07024" lon="6.2422">
        <ele>1026.4</ele>
        <time>2015-06-07T12:53:26.000Z</time>
      </trkpt>
      <trkpt lat="44.07038" lon="6.24224">
        <ele>1023.6</ele>
        <time>2015-06-07T12:53:30.000Z</time>
      </trkpt>
      <trkpt lat="44.0705" lon="6.24223">
        <ele>1020.4</ele>
        <time>2015-06-07T12:53:34.000Z</time>
      </trkpt>
      <trkpt lat="44.07054" lon="6.24223">
        <ele>1019.6</ele>
        <time>2015-06-07T12:53:35.000Z</time>
      </trkpt>
      <trkpt lat="44.07055" lon="6.24224">
        <ele>1019.2</ele>
        <time>2015-06-07T12:53:36.000Z</time>
      </trkpt>
      <trkpt lat="44.07056" lon="6.24226">
        <ele>1019.1</ele>
        <time>2015-06-07T12:53:37.000Z</time>
      </trkpt>
      <trkpt lat="44.07058" lon="6.24227">
        <ele>1018.8</ele>
        <time>2015-06-07T12:53:38.000Z</time>
      </trkpt>
      <trkpt lat="44.0706" lon="6.24226">
        <ele>1018.2</ele>
        <time>2015-06-07T12:53:39.000Z</time>
      </trkpt>
      <trkpt lat="44.07063" lon="6.24225">
        <ele>1017.3</ele>
        <time>2015-06-07T12:53:40.000Z</time>
      </trkpt>
      <trkpt lat="44.07066" lon="6.24222">
        <ele>1016.2</ele>
        <time>2015-06-07T12:53:41.000Z</time>
      </trkpt>
      <trkpt lat="44.07068" lon="6.24218">
        <ele>1015</ele>
        <time>2015-06-07T12:53:42.000Z</time>
      </trkpt>
      <trkpt lat="44.07071" lon="6.24214">
        <ele>1013.7</ele>
        <time>2015-06-07T12:53:43.000Z</time>
      </trkpt>
      <trkpt lat="44.07075" lon="6.24211">
        <ele>1012.3</ele>
        <time>2015-06-07T12:53:44.000Z</time>
      </trkpt>
      <trkpt lat="44.07081" lon="6.24209">
        <ele>1010.7</ele>
        <time>2015-06-07T12:53:45.000Z</time>
      </trkpt>
      <trkpt lat="44.07086" lon="6.24206">
        <ele>1009.2</ele>
        <time>2015-06-07T12:53:46.000Z</time>
      </trkpt>
      <trkpt lat="44.07092" lon="6.24205">
        <ele>1008.2</ele>
        <time>2015-06-07T12:53:47.000Z</time>
      </trkpt>
      <trkpt lat="44.07097" lon="6.24206">
        <ele>1007.5</ele>
        <time>2015-06-07T12:53:48.000Z</time>
      </trkpt>
      <trkpt lat="44.07108" lon="6.24209">
        <ele>1006.1</ele>
        <time>2015-06-07T12:53:50.000Z</time>
      </trkpt>
      <trkpt lat="44.07113" lon="6.2421">
        <ele>1005.3</ele>
        <time>2015-06-07T12:53:51.000Z</time>
      </trkpt>
      <trkpt lat="44.07125" lon="6.24213">
        <ele>1004</ele>
        <time>2015-06-07T12:53:53.000Z</time>
      </trkpt>
      <trkpt lat="44.07131" lon="6.24215">
        <ele>1003.4</ele>
        <time>2015-06-07T12:53:54.000Z</time>
      </trkpt>
      <trkpt lat="44.07137" lon="6.24219">
        <ele>1002.9</ele>
        <time>2015-06-07T12:53:55.000Z</time>
      </trkpt>
      <trkpt lat="44.07143" lon="6.24224">
        <ele>1002.3</ele>
        <time>2015-06-07T12:53:56.000Z</time>
      </trkpt>
      <trkpt lat="44.07147" lon="6.24231">
        <ele>1001.6</ele>
        <time>2015-06-07T12:53:57.000Z</time>
      </trkpt>
      <trkpt lat="44.0715" lon="6.24236">
        <ele>1001.1</ele>
        <time>2015-06-07T12:53:58.000Z</time>
      </trkpt>
      <trkpt lat="44.07154" lon="6.2424">
        <ele>1000.6</ele>
        <time>2015-06-07T12:53:59.000Z</time>
      </trkpt>
      <trkpt lat="44.07158" lon="6.24243">
        <ele>1000.1</ele>
        <time>2015-06-07T12:54:00.000Z</time>
      </trkpt>
      <trkpt lat="44.07162" lon="6.24244">
        <ele>999.6</ele>
        <time>2015-06-07T12:54:01.000Z</time>
      </trkpt>
      <trkpt lat="44.07165" lon="6.24245">
        <ele>999.2</ele>
        <time>2015-06-07T12:54:02.000Z</time>
      </trkpt>
      <trkpt lat="44.07168" lon="6.24245">
        <ele>998.8</ele>
        <time>2015-06-07T12:54:03.000Z</time>
      </trkpt>
      <trkpt lat="44.07171" lon="6.24245">
        <ele>998.5</ele>
        <time>2015-06-07T12:54:04.000Z</time>
      </trkpt>
      <trkpt lat="44.07174" lon="6.24245">
        <ele>998.1</ele>
        <time>2015-06-07T12:54:05.000Z</time>
      </trkpt>
      <trkpt lat="44.07181" lon="6.24247">
        <ele>997.4</ele>
        <time>2015-06-07T12:54:07.000Z</time>
      </trkpt>
      <trkpt lat="44.07184" lon="6.2425">
        <ele>997.1</ele>
        <time>2015-06-07T12:54:08.000Z</time>
      </trkpt>
      <trkpt lat="44.07186" lon="6.24253">
        <ele>996.5</ele>
        <time>2015-06-07T12:54:09.000Z</time>
      </trkpt>
      <trkpt lat="44.07188" lon="6.24256">
        <ele>996</ele>
        <time>2015-06-07T12:54:10.000Z</time>
      </trkpt>
      <trkpt lat="44.07193" lon="6.24258">
        <ele>995.3</ele>
        <time>2015-06-07T12:54:11.000Z</time>
      </trkpt>
      <trkpt lat="44.07197" lon="6.24261">
        <ele>994.5</ele>
        <time>2015-06-07T12:54:12.000Z</time>
      </trkpt>
      <trkpt lat="44.07201" lon="6.24265">
        <ele>993.7</ele>
        <time>2015-06-07T12:54:13.000Z</time>
      </trkpt>
      <trkpt lat="44.07204" lon="6.24269">
        <ele>992.9</ele>
        <time>2015-06-07T12:54:14.000Z</time>
      </trkpt>
      <trkpt lat="44.07207" lon="6.24273">
        <ele>992.4</ele>
        <time>2015-06-07T12:54:15.000Z</time>
      </trkpt>
      <trkpt lat="44.07211" lon="6.24275">
        <ele>991.9</ele>
        <time>2015-06-07T12:54:16.000Z</time>
      </trkpt>
      <trkpt lat="44.07216" lon="6.24275">
        <ele>991.5</ele>
        <time>2015-06-07T12:54:17.000Z</time>
      </trkpt>
      <trkpt lat="44.0722" lon="6.24275">
        <ele>991.2</ele>
        <time>2015-06-07T12:54:18.000Z</time>
      </trkpt>
      <trkpt lat="44.07225" lon="6.24275">
        <ele>990.6</ele>
        <time>2015-06-07T12:54:19.000Z</time>
      </trkpt>
      <trkpt lat="44.0723" lon="6.24277">
        <ele>989.9</ele>
        <time>2015-06-07T12:54:20.000Z</time>
      </trkpt>
      <trkpt lat="44.07235" lon="6.2428">
        <ele>989</ele>
        <time>2015-06-07T12:54:21.000Z</time>
      </trkpt>
      <trkpt lat="44.07241" lon="6.24283">
        <ele>988.2</ele>
        <time>2015-06-07T12:54:22.000Z</time>
      </trkpt>
      <trkpt lat="44.07247" lon="6.24285">
        <ele>987.4</ele>
        <time>2015-06-07T12:54:23.000Z</time>
      </trkpt>
      <trkpt lat="44.07258" lon="6.24292">
        <ele>986</ele>
        <time>2015-06-07T12:54:25.000Z</time>
      </trkpt>
      <trkpt lat="44.07263" lon="6.24295">
        <ele>985.5</ele>
        <time>2015-06-07T12:54:26.000Z</time>
      </trkpt>
      <trkpt lat="44.07267" lon="6.24299">
        <ele>985</ele>
        <time>2015-06-07T12:54:27.000Z</time>
      </trkpt>
      <trkpt lat="44.07271" lon="6.24302">
        <ele>984.6</ele>
        <time>2015-06-07T12:54:28.000Z</time>
      </trkpt>
      <trkpt lat="44.07274" lon="6.24302">
        <ele>984.3</ele>
        <time>2015-06-07T12:54:29.000Z</time>
      </trkpt>
      <trkpt lat="44.07277" lon="6.24301">
        <ele>984</ele>
        <time>2015-06-07T12:54:30.000Z</time>
      </trkpt>
      <trkpt lat="44.07279" lon="6.24301">
        <ele>983.6</ele>
        <time>2015-06-07T12:54:31.000Z</time>
      </trkpt>
      <trkpt lat="44.07282" lon="6.24302">
        <ele>983.3</ele>
        <time>2015-06-07T12:54:32.000Z</time>
      </trkpt>
      <trkpt lat="44.07286" lon="6.24304">
        <ele>983</ele>
        <time>2015-06-07T12:54:33.000Z</time>
      </trkpt>
      <trkpt lat="44.07288" lon="6.24306">
        <ele>982.8</ele>
        <time>2015-06-07T12:54:34.000Z</time>
      </trkpt>
      <trkpt lat="44.07291" lon="6.24309">
        <ele>982.6</ele>
        <time>2015-06-07T12:54:35.000Z</time>
      </trkpt>
      <trkpt lat="44.07295" lon="6.24313">
        <ele>982.3</ele>
        <time>2015-06-07T12:54:36.000Z</time>
      </trkpt>
      <trkpt lat="44.07307" lon="6.24319">
        <ele>981.4</ele>
        <time>2015-06-07T12:54:39.000Z</time>
      </trkpt>
      <trkpt lat="44.07316" lon="6.24321">
        <ele>980.9</ele>
        <time>2015-06-07T12:54:41.000Z</time>
      </trkpt>
      <trkpt lat="44.07321" lon="6.24324">
        <ele>980.8</ele>
        <time>2015-06-07T12:54:42.000Z</time>
      </trkpt>
      <trkpt lat="44.07325" lon="6.24328">
        <ele>980.8</ele>
        <time>2015-06-07T12:54:43.000Z</time>
      </trkpt>
      <trkpt lat="44.0733" lon="6.2433">
        <ele>980.8</ele>
        <time>2015-06-07T12:54:44.000Z</time>
      </trkpt>
      <trkpt lat="44.07334" lon="6.24331">
        <ele>980.7</ele>
        <time>2015-06-07T12:54:45.000Z</time>
      </trkpt>
      <trkpt lat="44.07337" lon="6.24331">
        <ele>980.6</ele>
        <time>2015-06-07T12:54:46.000Z</time>
      </trkpt>
      <trkpt lat="44.0734" lon="6.24332">
        <ele>980.6</ele>
        <time>2015-06-07T12:54:47.000Z</time>
      </trkpt>
      <trkpt lat="44.07343" lon="6.24333">
        <ele>980.6</ele>
        <time>2015-06-07T12:54:48.000Z</time>
      </trkpt>
      <trkpt lat="44.07345" lon="6.24333">
        <ele>980.5</ele>
        <time>2015-06-07T12:54:49.000Z</time>
      </trkpt>
      <trkpt lat="44.07347" lon="6.24332">
        <ele>980.3</ele>
        <time>2015-06-07T12:54:50.000Z</time>
      </trkpt>
      <trkpt lat="44.07349" lon="6.24331">
        <ele>980.2</ele>
        <time>2015-06-07T12:54:51.000Z</time>
      </trkpt>
      <trkpt lat="44.07353" lon="6.2433">
        <ele>979.9</ele>
        <time>2015-06-07T12:54:58.000Z</time>
      </trkpt>
      <trkpt lat="44.07355" lon="6.24332">
        <ele>980</ele>
        <time>2015-06-07T12:54:59.000Z</time>
      </trkpt>
      <trkpt lat="44.07357" lon="6.24333">
        <ele>980.1</ele>
        <time>2015-06-07T12:55:00.000Z</time>
      </trkpt>
      <trkpt lat="44.07361" lon="6.24333">
        <ele>980</ele>
        <time>2015-06-07T12:55:01.000Z</time>
      </trkpt>
      <trkpt lat="44.07363" lon="6.24332">
        <ele>979.9</ele>
        <time>2015-06-07T12:55:02.000Z</time>
      </trkpt>
      <trkpt lat="44.07366" lon="6.24332">
        <ele>980</ele>
        <time>2015-06-07T12:55:03.000Z</time>
      </trkpt>
      <trkpt lat="44.07369" lon="6.24332">
        <ele>980.1</ele>
        <time>2015-06-07T12:55:04.000Z</time>
      </trkpt>
      <trkpt lat="44.07372" lon="6.24333">
        <ele>980.4</ele>
        <time>2015-06-07T12:55:05.000Z</time>
      </trkpt>
      <trkpt lat="44.07374" lon="6.24336">
        <ele>980.6</ele>
        <time>2015-06-07T12:55:06.000Z</time>
      </trkpt>
      <trkpt lat="44.07377" lon="6.24338">
        <ele>980.7</ele>
        <time>2015-06-07T12:55:07.000Z</time>
      </trkpt>
      <trkpt lat="44.07387" lon="6.24343">
        <ele>981.3</ele>
        <time>2015-06-07T12:55:11.000Z</time>
      </trkpt>
      <trkpt lat="44.0742" lon="6.24319">
        <ele>980.8</ele>
        <time>2015-06-07T12:55:27.000Z</time>
      </trkpt>
      <trkpt lat="44.07454" lon="6.24281">
        <ele>980.6</ele>
        <time>2015-06-07T12:55:44.000Z</time>
      </trkpt>
      <trkpt lat="44.07493" lon="6.24237">
        <ele>983</ele>
        <time>2015-06-07T12:55:58.000Z</time>
      </trkpt>
      <trkpt lat="44.07521" lon="6.24163">
        <ele>978</ele>
        <time>2015-06-07T12:56:14.000Z</time>
      </trkpt>
      <trkpt lat="44.07532" lon="6.24147">
        <ele>979</ele>
        <time>2015-06-07T12:56:18.000Z</time>
      </trkpt>
      <trkpt lat="44.07534" lon="6.24142">
        <ele>979.1</ele>
        <time>2015-06-07T12:56:19.000Z</time>
      </trkpt>
      <trkpt lat="44.07545" lon="6.24119">
        <ele>976.8</ele>
        <time>2015-06-07T12:56:24.000Z</time>
      </trkpt>
      <trkpt lat="44.07558" lon="6.24096">
        <ele>974.3</ele>
        <time>2015-06-07T12:56:29.000Z</time>
      </trkpt>
      <trkpt lat="44.07562" lon="6.24093">
        <ele>974.3</ele>
        <time>2015-06-07T12:56:30.000Z</time>
      </trkpt>
      <trkpt lat="44.07594" lon="6.24065">
        <ele>972.4</ele>
        <time>2015-06-07T12:56:39.000Z</time>
      </trkpt>
      <trkpt lat="44.07598" lon="6.24062">
        <ele>972.1</ele>
        <time>2015-06-07T12:56:40.000Z</time>
      </trkpt>
      <trkpt lat="44.07613" lon="6.24048">
        <ele>970.1</ele>
        <time>2015-06-07T12:56:44.000Z</time>
      </trkpt>
      <trkpt lat="44.07616" lon="6.24044">
        <ele>969.2</ele>
        <time>2015-06-07T12:56:45.000Z</time>
      </trkpt>
      <trkpt lat="44.07626" lon="6.24031">
        <ele>966.2</ele>
        <time>2015-06-07T12:56:48.000Z</time>
      </trkpt>
      <trkpt lat="44.07641" lon="6.24006">
        <ele>959.5</ele>
        <time>2015-06-07T12:56:53.000Z</time>
      </trkpt>
      <trkpt lat="44.07644" lon="6.24002">
        <ele>958.5</ele>
        <time>2015-06-07T12:56:54.000Z</time>
      </trkpt>
      <trkpt lat="44.07648" lon="6.23999">
        <ele>958.3</ele>
        <time>2015-06-07T12:56:55.000Z</time>
      </trkpt>
      <trkpt lat="44.07653" lon="6.23998">
        <ele>958.6</ele>
        <time>2015-06-07T12:56:56.000Z</time>
      </trkpt>
      <trkpt lat="44.07658" lon="6.23997">
        <ele>959.1</ele>
        <time>2015-06-07T12:56:57.000Z</time>
      </trkpt>
      <trkpt lat="44.07662" lon="6.23996">
        <ele>959.6</ele>
        <time>2015-06-07T12:56:58.000Z</time>
      </trkpt>
      <trkpt lat="44.07686" lon="6.23983">
        <ele>957.8</ele>
        <time>2015-06-07T12:57:03.000Z</time>
      </trkpt>
      <trkpt lat="44.0771" lon="6.23966">
        <ele>953.1</ele>
        <time>2015-06-07T12:57:10.000Z</time>
      </trkpt>
      <trkpt lat="44.07711" lon="6.23965">
        <ele>952.8</ele>
        <time>2015-06-07T12:57:22.000Z</time>
      </trkpt>
      <trkpt lat="44.07712" lon="6.23966">
        <ele>952.9</ele>
        <time>2015-06-07T12:57:38.000Z</time>
      </trkpt>
      <trkpt lat="44.07714" lon="6.23966">
        <ele>952.9</ele>
        <time>2015-06-07T12:57:39.000Z</time>
      </trkpt>
      <trkpt lat="44.07717" lon="6.23965">
        <ele>952.8</ele>
        <time>2015-06-07T12:57:40.000Z</time>
      </trkpt>
      <trkpt lat="44.07721" lon="6.23963">
        <ele>952.3</ele>
        <time>2015-06-07T12:57:41.000Z</time>
      </trkpt>
      <trkpt lat="44.07725" lon="6.23962">
        <ele>951.7</ele>
        <time>2015-06-07T12:57:42.000Z</time>
      </trkpt>
      <trkpt lat="44.07741" lon="6.23956">
        <ele>948.6</ele>
        <time>2015-06-07T12:57:45.000Z</time>
      </trkpt>
      <trkpt lat="44.07748" lon="6.23955">
        <ele>947.9</ele>
        <time>2015-06-07T12:57:46.000Z</time>
      </trkpt>
      <trkpt lat="44.07754" lon="6.23957">
        <ele>947.3</ele>
        <time>2015-06-07T12:57:47.000Z</time>
      </trkpt>
      <trkpt lat="44.07764" lon="6.23963">
        <ele>946.6</ele>
        <time>2015-06-07T12:57:49.000Z</time>
      </trkpt>
      <trkpt lat="44.07768" lon="6.23966">
        <ele>946.5</ele>
        <time>2015-06-07T12:57:50.000Z</time>
      </trkpt>
      <trkpt lat="44.07772" lon="6.2397">
        <ele>946.7</ele>
        <time>2015-06-07T12:57:51.000Z</time>
      </trkpt>
      <trkpt lat="44.07778" lon="6.23977">
        <ele>946.8</ele>
        <time>2015-06-07T12:57:53.000Z</time>
      </trkpt>
      <trkpt lat="44.07788" lon="6.23985">
        <ele>944.9</ele>
        <time>2015-06-07T12:57:57.000Z</time>
      </trkpt>
      <trkpt lat="44.0779" lon="6.23987">
        <ele>944.7</ele>
        <time>2015-06-07T12:57:58.000Z</time>
      </trkpt>
      <trkpt lat="44.07792" lon="6.23989">
        <ele>944.7</ele>
        <time>2015-06-07T12:57:59.000Z</time>
      </trkpt>
      <trkpt lat="44.07794" lon="6.23992">
        <ele>944.7</ele>
        <time>2015-06-07T12:58:00.000Z</time>
      </trkpt>
      <trkpt lat="44.07796" lon="6.23994">
        <ele>944.4</ele>
        <time>2015-06-07T12:58:01.000Z</time>
      </trkpt>
      <trkpt lat="44.07804" lon="6.24006">
        <ele>944.4</ele>
        <time>2015-06-07T12:58:04.000Z</time>
      </trkpt>
      <trkpt lat="44.07807" lon="6.24011">
        <ele>944.2</ele>
        <time>2015-06-07T12:58:05.000Z</time>
      </trkpt>
      <trkpt lat="44.07813" lon="6.24017">
        <ele>942.9</ele>
        <time>2015-06-07T12:58:07.000Z</time>
      </trkpt>
      <trkpt lat="44.07818" lon="6.2402">
        <ele>942</ele>
        <time>2015-06-07T12:58:08.000Z</time>
      </trkpt>
      <trkpt lat="44.07822" lon="6.24026">
        <ele>941.5</ele>
        <time>2015-06-07T12:58:09.000Z</time>
      </trkpt>
      <trkpt lat="44.07824" lon="6.24033">
        <ele>941.7</ele>
        <time>2015-06-07T12:58:10.000Z</time>
      </trkpt>
      <trkpt lat="44.07825" lon="6.24041">
        <ele>942.2</ele>
        <time>2015-06-07T12:58:11.000Z</time>
      </trkpt>
      <trkpt lat="44.07827" lon="6.2405">
        <ele>942.6</ele>
        <time>2015-06-07T12:58:12.000Z</time>
      </trkpt>
      <trkpt lat="44.07829" lon="6.24058">
        <ele>942.7</ele>
        <time>2015-06-07T12:58:13.000Z</time>
      </trkpt>
      <trkpt lat="44.07831" lon="6.24066">
        <ele>942.3</ele>
        <time>2015-06-07T12:58:14.000Z</time>
      </trkpt>
      <trkpt lat="44.07833" lon="6.24074">
        <ele>941.8</ele>
        <time>2015-06-07T12:58:15.000Z</time>
      </trkpt>
      <trkpt lat="44.07838" lon="6.24091">
        <ele>940.6</ele>
        <time>2015-06-07T12:58:17.000Z</time>
      </trkpt>
      <trkpt lat="44.07842" lon="6.24098">
        <ele>939.1</ele>
        <time>2015-06-07T12:58:18.000Z</time>
      </trkpt>
      <trkpt lat="44.0785" lon="6.24103">
        <ele>936.6</ele>
        <time>2015-06-07T12:58:19.000Z</time>
      </trkpt>
      <trkpt lat="44.07866" lon="6.24111">
        <ele>931.8</ele>
        <time>2015-06-07T12:58:21.000Z</time>
      </trkpt>
      <trkpt lat="44.07871" lon="6.24116">
        <ele>930.8</ele>
        <time>2015-06-07T12:58:22.000Z</time>
      </trkpt>
      <trkpt lat="44.07875" lon="6.2412">
        <ele>930.2</ele>
        <time>2015-06-07T12:58:23.000Z</time>
      </trkpt>
      <trkpt lat="44.07879" lon="6.2412">
        <ele>929.5</ele>
        <time>2015-06-07T12:58:24.000Z</time>
      </trkpt>
      <trkpt lat="44.07881" lon="6.24118">
        <ele>928.9</ele>
        <time>2015-06-07T12:58:25.000Z</time>
      </trkpt>
      <trkpt lat="44.0788" lon="6.24115">
        <ele>928.6</ele>
        <time>2015-06-07T12:58:26.000Z</time>
      </trkpt>
      <trkpt lat="44.0788" lon="6.24114">
        <ele>928.5</ele>
        <time>2015-06-07T12:58:27.000Z</time>
      </trkpt>
      <trkpt lat="44.0788" lon="6.24112">
        <ele>928.4</ele>
        <time>2015-06-07T12:58:28.000Z</time>
      </trkpt>
      <trkpt lat="44.0788" lon="6.2411">
        <ele>928.3</ele>
        <time>2015-06-07T12:58:29.000Z</time>
      </trkpt>
      <trkpt lat="44.07879" lon="6.24108">
        <ele>928.3</ele>
        <time>2015-06-07T12:58:30.000Z</time>
      </trkpt>
      <trkpt lat="44.07879" lon="6.24107">
        <ele>928.5</ele>
        <time>2015-06-07T12:58:31.000Z</time>
      </trkpt>
      <trkpt lat="44.07878" lon="6.24105">
        <ele>928.7</ele>
        <time>2015-06-07T12:58:32.000Z</time>
      </trkpt>
      <trkpt lat="44.07877" lon="6.24102">
        <ele>928.8</ele>
        <time>2015-06-07T12:58:33.000Z</time>
      </trkpt>
      <trkpt lat="44.07877" lon="6.24098">
        <ele>928.8</ele>
        <time>2015-06-07T12:58:34.000Z</time>
      </trkpt>
      <trkpt lat="44.07876" lon="6.24092">
        <ele>928.8</ele>
        <time>2015-06-07T12:58:35.000Z</time>
      </trkpt>
      <trkpt lat="44.07876" lon="6.24086">
        <ele>928.6</ele>
        <time>2015-06-07T12:58:36.000Z</time>
      </trkpt>
      <trkpt lat="44.07878" lon="6.24078">
        <ele>928.1</ele>
        <time>2015-06-07T12:58:37.000Z</time>
      </trkpt>
      <trkpt lat="44.07879" lon="6.2407">
        <ele>927.6</ele>
        <time>2015-06-07T12:58:38.000Z</time>
      </trkpt>
      <trkpt lat="44.07881" lon="6.2406">
        <ele>927.2</ele>
        <time>2015-06-07T12:58:39.000Z</time>
      </trkpt>
      <trkpt lat="44.07883" lon="6.24051">
        <ele>926.4</ele>
        <time>2015-06-07T12:58:40.000Z</time>
      </trkpt>
      <trkpt lat="44.07886" lon="6.24043">
        <ele>925.3</ele>
        <time>2015-06-07T12:58:41.000Z</time>
      </trkpt>
      <trkpt lat="44.0789" lon="6.24034">
        <ele>924.1</ele>
        <time>2015-06-07T12:58:42.000Z</time>
      </trkpt>
      <trkpt lat="44.07894" lon="6.24027">
        <ele>923.4</ele>
        <time>2015-06-07T12:58:43.000Z</time>
      </trkpt>
      <trkpt lat="44.07901" lon="6.24011">
        <ele>921.7</ele>
        <time>2015-06-07T12:58:45.000Z</time>
      </trkpt>
      <trkpt lat="44.07903" lon="6.24003">
        <ele>921.1</ele>
        <time>2015-06-07T12:58:46.000Z</time>
      </trkpt>
      <trkpt lat="44.07905" lon="6.23995">
        <ele>920.4</ele>
        <time>2015-06-07T12:58:47.000Z</time>
      </trkpt>
      <trkpt lat="44.07908" lon="6.23988">
        <ele>919.6</ele>
        <time>2015-06-07T12:58:48.000Z</time>
      </trkpt>
      <trkpt lat="44.0791" lon="6.23981">
        <ele>918.9</ele>
        <time>2015-06-07T12:58:49.000Z</time>
      </trkpt>
      <trkpt lat="44.07911" lon="6.23974">
        <ele>918.3</ele>
        <time>2015-06-07T12:58:50.000Z</time>
      </trkpt>
      <trkpt lat="44.07912" lon="6.23967">
        <ele>917.3</ele>
        <time>2015-06-07T12:58:51.000Z</time>
      </trkpt>
      <trkpt lat="44.07924" lon="6.23933">
        <ele>912.3</ele>
        <time>2015-06-07T12:58:58.000Z</time>
      </trkpt>
      <trkpt lat="44.07926" lon="6.23926">
        <ele>911.3</ele>
        <time>2015-06-07T12:58:59.000Z</time>
      </trkpt>
      <trkpt lat="44.07928" lon="6.23919">
        <ele>910.4</ele>
        <time>2015-06-07T12:59:00.000Z</time>
      </trkpt>
      <trkpt lat="44.0793" lon="6.23911">
        <ele>909.4</ele>
        <time>2015-06-07T12:59:01.000Z</time>
      </trkpt>
      <trkpt lat="44.07934" lon="6.23905">
        <ele>908.3</ele>
        <time>2015-06-07T12:59:02.000Z</time>
      </trkpt>
      <trkpt lat="44.07937" lon="6.239">
        <ele>907.3</ele>
        <time>2015-06-07T12:59:03.000Z</time>
      </trkpt>
      <trkpt lat="44.0794" lon="6.23897">
        <ele>906.6</ele>
        <time>2015-06-07T12:59:04.000Z</time>
      </trkpt>
      <trkpt lat="44.07943" lon="6.23894">
        <ele>905.9</ele>
        <time>2015-06-07T12:59:05.000Z</time>
      </trkpt>
      <trkpt lat="44.07947" lon="6.23892">
        <ele>904.8</ele>
        <time>2015-06-07T12:59:06.000Z</time>
      </trkpt>
      <trkpt lat="44.07951" lon="6.23888">
        <ele>903.3</ele>
        <time>2015-06-07T12:59:07.000Z</time>
      </trkpt>
      <trkpt lat="44.07958" lon="6.23882">
        <ele>901</ele>
        <time>2015-06-07T12:59:09.000Z</time>
      </trkpt>
      <trkpt lat="44.07963" lon="6.23881">
        <ele>899.6</ele>
        <time>2015-06-07T12:59:10.000Z</time>
      </trkpt>
      <trkpt lat="44.07967" lon="6.23882">
        <ele>898.7</ele>
        <time>2015-06-07T12:59:11.000Z</time>
      </trkpt>
      <trkpt lat="44.0797" lon="6.23885">
        <ele>898.2</ele>
        <time>2015-06-07T12:59:12.000Z</time>
      </trkpt>
      <trkpt lat="44.07973" lon="6.23888">
        <ele>897.6</ele>
        <time>2015-06-07T12:59:13.000Z</time>
      </trkpt>
      <trkpt lat="44.07979" lon="6.23896">
        <ele>896.5</ele>
        <time>2015-06-07T12:59:15.000Z</time>
      </trkpt>
      <trkpt lat="44.07981" lon="6.23901">
        <ele>896.6</ele>
        <time>2015-06-07T12:59:16.000Z</time>
      </trkpt>
      <trkpt lat="44.07981" lon="6.23905">
        <ele>896.9</ele>
        <time>2015-06-07T12:59:17.000Z</time>
      </trkpt>
      <trkpt lat="44.07981" lon="6.2391">
        <ele>897.3</ele>
        <time>2015-06-07T12:59:18.000Z</time>
      </trkpt>
      <trkpt lat="44.07983" lon="6.23915">
        <ele>897.3</ele>
        <time>2015-06-07T12:59:20.000Z</time>
      </trkpt>
      <trkpt lat="44.07985" lon="6.23915">
        <ele>896.8</ele>
        <time>2015-06-07T12:59:21.000Z</time>
      </trkpt>
      <trkpt lat="44.07987" lon="6.23914">
        <ele>895.9</ele>
        <time>2015-06-07T12:59:22.000Z</time>
      </trkpt>
      <trkpt lat="44.0799" lon="6.23915">
        <ele>895.1</ele>
        <time>2015-06-07T12:59:23.000Z</time>
      </trkpt>
      <trkpt lat="44.07991" lon="6.23918">
        <ele>894.9</ele>
        <time>2015-06-07T12:59:24.000Z</time>
      </trkpt>
      <trkpt lat="44.07994" lon="6.23922">
        <ele>894.4</ele>
        <time>2015-06-07T12:59:25.000Z</time>
      </trkpt>
      <trkpt lat="44.07998" lon="6.23927">
        <ele>893.7</ele>
        <time>2015-06-07T12:59:26.000Z</time>
      </trkpt>
      <trkpt lat="44.08001" lon="6.23932">
        <ele>893.3</ele>
        <time>2015-06-07T12:59:27.000Z</time>
      </trkpt>
      <trkpt lat="44.08006" lon="6.23937">
        <ele>892.8</ele>
        <time>2015-06-07T12:59:28.000Z</time>
      </trkpt>
      <trkpt lat="44.08011" lon="6.23941">
        <ele>891.7</ele>
        <time>2015-06-07T12:59:29.000Z</time>
      </trkpt>
      <trkpt lat="44.08018" lon="6.23944">
        <ele>890.4</ele>
        <time>2015-06-07T12:59:30.000Z</time>
      </trkpt>
      <trkpt lat="44.08023" lon="6.23947">
        <ele>889.5</ele>
        <time>2015-06-07T12:59:31.000Z</time>
      </trkpt>
      <trkpt lat="44.08034" lon="6.23954">
        <ele>888.8</ele>
        <time>2015-06-07T12:59:33.000Z</time>
      </trkpt>
      <trkpt lat="44.08039" lon="6.23956">
        <ele>888.6</ele>
        <time>2015-06-07T12:59:34.000Z</time>
      </trkpt>
      <trkpt lat="44.08043" lon="6.23957">
        <ele>888.5</ele>
        <time>2015-06-07T12:59:35.000Z</time>
      </trkpt>
      <trkpt lat="44.08046" lon="6.23959">
        <ele>888.5</ele>
        <time>2015-06-07T12:59:36.000Z</time>
      </trkpt>
      <trkpt lat="44.08048" lon="6.23958">
        <ele>888.2</ele>
        <time>2015-06-07T12:59:37.000Z</time>
      </trkpt>
      <trkpt lat="44.08052" lon="6.23958">
        <ele>887.7</ele>
        <time>2015-06-07T12:59:38.000Z</time>
      </trkpt>
      <trkpt lat="44.08055" lon="6.23958">
        <ele>887.4</ele>
        <time>2015-06-07T12:59:39.000Z</time>
      </trkpt>
      <trkpt lat="44.08059" lon="6.23958">
        <ele>887.6</ele>
        <time>2015-06-07T12:59:51.000Z</time>
      </trkpt>
      <trkpt lat="44.08069" lon="6.2396">
        <ele>888.3</ele>
        <time>2015-06-07T13:00:10.000Z</time>
      </trkpt>
      <trkpt lat="44.08072" lon="6.23957">
        <ele>887.8</ele>
        <time>2015-06-07T13:00:11.000Z</time>
      </trkpt>
      <trkpt lat="44.08075" lon="6.23956">
        <ele>887.6</ele>
        <time>2015-06-07T13:00:12.000Z</time>
      </trkpt>
      <trkpt lat="44.08079" lon="6.23953">
        <ele>887</ele>
        <time>2015-06-07T13:00:13.000Z</time>
      </trkpt>
      <trkpt lat="44.08084" lon="6.23947">
        <ele>885.7</ele>
        <time>2015-06-07T13:00:14.000Z</time>
      </trkpt>
      <trkpt lat="44.08089" lon="6.23942">
        <ele>884.9</ele>
        <time>2015-06-07T13:00:15.000Z</time>
      </trkpt>
      <trkpt lat="44.08095" lon="6.23935">
        <ele>883.6</ele>
        <time>2015-06-07T13:00:16.000Z</time>
      </trkpt>
      <trkpt lat="44.081" lon="6.23929">
        <ele>882.2</ele>
        <time>2015-06-07T13:00:17.000Z</time>
      </trkpt>
      <trkpt lat="44.08111" lon="6.23916">
        <ele>878.8</ele>
        <time>2015-06-07T13:00:19.000Z</time>
      </trkpt>
      <trkpt lat="44.08116" lon="6.23906">
        <ele>877.1</ele>
        <time>2015-06-07T13:00:20.000Z</time>
      </trkpt>
      <trkpt lat="44.0813" lon="6.23877">
        <ele>872.1</ele>
        <time>2015-06-07T13:00:23.000Z</time>
      </trkpt>
      <trkpt lat="44.08137" lon="6.23866">
        <ele>870.8</ele>
        <time>2015-06-07T13:00:25.000Z</time>
      </trkpt>
      <trkpt lat="44.08141" lon="6.23862">
        <ele>870.7</ele>
        <time>2015-06-07T13:00:26.000Z</time>
      </trkpt>
      <trkpt lat="44.08145" lon="6.23858">
        <ele>871.2</ele>
        <time>2015-06-07T13:00:27.000Z</time>
      </trkpt>
      <trkpt lat="44.0815" lon="6.23858">
        <ele>872.6</ele>
        <time>2015-06-07T13:00:28.000Z</time>
      </trkpt>
      <trkpt lat="44.08154" lon="6.23857">
        <ele>873.6</ele>
        <time>2015-06-07T13:00:29.000Z</time>
      </trkpt>
      <trkpt lat="44.08157" lon="6.23852">
        <ele>873</ele>
        <time>2015-06-07T13:00:30.000Z</time>
      </trkpt>
      <trkpt lat="44.08157" lon="6.23845">
        <ele>871.5</ele>
        <time>2015-06-07T13:00:31.000Z</time>
      </trkpt>
      <trkpt lat="44.08155" lon="6.23836">
        <ele>869.4</ele>
        <time>2015-06-07T13:00:32.000Z</time>
      </trkpt>
      <trkpt lat="44.08154" lon="6.23829">
        <ele>867.5</ele>
        <time>2015-06-07T13:00:33.000Z</time>
      </trkpt>
      <trkpt lat="44.08155" lon="6.23822">
        <ele>866.3</ele>
        <time>2015-06-07T13:00:34.000Z</time>
      </trkpt>
      <trkpt lat="44.08155" lon="6.23814">
        <ele>865</ele>
        <time>2015-06-07T13:00:35.000Z</time>
      </trkpt>
      <trkpt lat="44.08157" lon="6.23809">
        <ele>864.5</ele>
        <time>2015-06-07T13:00:36.000Z</time>
      </trkpt>
      <trkpt lat="44.08161" lon="6.23803">
        <ele>864.9</ele>
        <time>2015-06-07T13:00:37.000Z</time>
      </trkpt>
      <trkpt lat="44.08166" lon="6.23797">
        <ele>865.3</ele>
        <time>2015-06-07T13:00:38.000Z</time>
      </trkpt>
      <trkpt lat="44.0817" lon="6.23791">
        <ele>865.4</ele>
        <time>2015-06-07T13:00:39.000Z</time>
      </trkpt>
      <trkpt lat="44.08173" lon="6.23783">
        <ele>865</ele>
        <time>2015-06-07T13:00:40.000Z</time>
      </trkpt>
      <trkpt lat="44.08176" lon="6.23775">
        <ele>864.7</ele>
        <time>2015-06-07T13:00:41.000Z</time>
      </trkpt>
      <trkpt lat="44.08186" lon="6.23751">
        <ele>864.3</ele>
        <time>2015-06-07T13:00:44.000Z</time>
      </trkpt>
      <trkpt lat="44.08191" lon="6.23737">
        <ele>863.2</ele>
        <time>2015-06-07T13:00:46.000Z</time>
      </trkpt>
      <trkpt lat="44.08191" lon="6.2373">
        <ele>862.1</ele>
        <time>2015-06-07T13:00:47.000Z</time>
      </trkpt>
      <trkpt lat="44.08192" lon="6.23722">
        <ele>860.9</ele>
        <time>2015-06-07T13:00:48.000Z</time>
      </trkpt>
      <trkpt lat="44.08194" lon="6.23707">
        <ele>858.4</ele>
        <time>2015-06-07T13:00:50.000Z</time>
      </trkpt>
      <trkpt lat="44.08196" lon="6.23699">
        <ele>857.5</ele>
        <time>2015-06-07T13:00:51.000Z</time>
      </trkpt>
      <trkpt lat="44.08199" lon="6.23691">
        <ele>856.8</ele>
        <time>2015-06-07T13:00:52.000Z</time>
      </trkpt>
      <trkpt lat="44.08202" lon="6.23685">
        <ele>856.3</ele>
        <time>2015-06-07T13:00:53.000Z</time>
      </trkpt>
      <trkpt lat="44.08206" lon="6.23678">
        <ele>855.7</ele>
        <time>2015-06-07T13:00:54.000Z</time>
      </trkpt>
      <trkpt lat="44.08215" lon="6.23657">
        <ele>852.8</ele>
        <time>2015-06-07T13:00:57.000Z</time>
      </trkpt>
      <trkpt lat="44.08219" lon="6.23652">
        <ele>852.3</ele>
        <time>2015-06-07T13:00:58.000Z</time>
      </trkpt>
      <trkpt lat="44.08223" lon="6.23648">
        <ele>852</ele>
        <time>2015-06-07T13:00:59.000Z</time>
      </trkpt>
      <trkpt lat="44.08227" lon="6.23643">
        <ele>851.6</ele>
        <time>2015-06-07T13:01:00.000Z</time>
      </trkpt>
      <trkpt lat="44.08229" lon="6.23639">
        <ele>851.1</ele>
        <time>2015-06-07T13:01:01.000Z</time>
      </trkpt>
      <trkpt lat="44.08231" lon="6.23635">
        <ele>850.2</ele>
        <time>2015-06-07T13:01:02.000Z</time>
      </trkpt>
      <trkpt lat="44.08233" lon="6.23633">
        <ele>849.8</ele>
        <time>2015-06-07T13:01:03.000Z</time>
      </trkpt>
      <trkpt lat="44.08238" lon="6.23626">
        <ele>848.7</ele>
        <time>2015-06-07T13:01:05.000Z</time>
      </trkpt>
      <trkpt lat="44.08241" lon="6.23621">
        <ele>847.4</ele>
        <time>2015-06-07T13:01:06.000Z</time>
      </trkpt>
      <trkpt lat="44.08242" lon="6.23616">
        <ele>845.9</ele>
        <time>2015-06-07T13:01:07.000Z</time>
      </trkpt>
      <trkpt lat="44.08244" lon="6.23611">
        <ele>844.5</ele>
        <time>2015-06-07T13:01:08.000Z</time>
      </trkpt>
      <trkpt lat="44.08247" lon="6.23607">
        <ele>843</ele>
        <time>2015-06-07T13:01:09.000Z</time>
      </trkpt>
      <trkpt lat="44.08254" lon="6.23599">
        <ele>841</ele>
        <time>2015-06-07T13:01:11.000Z</time>
      </trkpt>
      <trkpt lat="44.08258" lon="6.23598">
        <ele>841.7</ele>
        <time>2015-06-07T13:01:12.000Z</time>
      </trkpt>
      <trkpt lat="44.08261" lon="6.23595">
        <ele>841.5</ele>
        <time>2015-06-07T13:01:13.000Z</time>
      </trkpt>
      <trkpt lat="44.08265" lon="6.23591">
        <ele>840.5</ele>
        <time>2015-06-07T13:01:14.000Z</time>
      </trkpt>
      <trkpt lat="44.08269" lon="6.23586">
        <ele>839.6</ele>
        <time>2015-06-07T13:01:15.000Z</time>
      </trkpt>
      <trkpt lat="44.08273" lon="6.23583">
        <ele>839.2</ele>
        <time>2015-06-07T13:01:16.000Z</time>
      </trkpt>
      <trkpt lat="44.08276" lon="6.23579">
        <ele>838.3</ele>
        <time>2015-06-07T13:01:17.000Z</time>
      </trkpt>
      <trkpt lat="44.08279" lon="6.23576">
        <ele>837.7</ele>
        <time>2015-06-07T13:01:18.000Z</time>
      </trkpt>
      <trkpt lat="44.08283" lon="6.23572">
        <ele>837.1</ele>
        <time>2015-06-07T13:01:19.000Z</time>
      </trkpt>
      <trkpt lat="44.08286" lon="6.23569">
        <ele>836.3</ele>
        <time>2015-06-07T13:01:20.000Z</time>
      </trkpt>
      <trkpt lat="44.08287" lon="6.23566">
        <ele>835.1</ele>
        <time>2015-06-07T13:01:21.000Z</time>
      </trkpt>
      <trkpt lat="44.08286" lon="6.23564">
        <ele>833.9</ele>
        <time>2015-06-07T13:01:22.000Z</time>
      </trkpt>
      <trkpt lat="44.08284" lon="6.23563">
        <ele>833.1</ele>
        <time>2015-06-07T13:01:23.000Z</time>
      </trkpt>
      <trkpt lat="44.08284" lon="6.23562">
        <ele>832.1</ele>
        <time>2015-06-07T13:01:24.000Z</time>
      </trkpt>
      <trkpt lat="44.08286" lon="6.2356">
        <ele>831.7</ele>
        <time>2015-06-07T13:01:25.000Z</time>
      </trkpt>
      <trkpt lat="44.08288" lon="6.23558">
        <ele>831.5</ele>
        <time>2015-06-07T13:01:26.000Z</time>
      </trkpt>
      <trkpt lat="44.08291" lon="6.23555">
        <ele>830.8</ele>
        <time>2015-06-07T13:01:27.000Z</time>
      </trkpt>
      <trkpt lat="44.08291" lon="6.23552">
        <ele>829.5</ele>
        <time>2015-06-07T13:01:28.000Z</time>
      </trkpt>
      <trkpt lat="44.0829" lon="6.2355">
        <ele>828.2</ele>
        <time>2015-06-07T13:01:29.000Z</time>
      </trkpt>
      <trkpt lat="44.08288" lon="6.2355">
        <ele>827.6</ele>
        <time>2015-06-07T13:01:30.000Z</time>
      </trkpt>
      <trkpt lat="44.08285" lon="6.2355">
        <ele>826.6</ele>
        <time>2015-06-07T13:01:31.000Z</time>
      </trkpt>
      <trkpt lat="44.08285" lon="6.23547">
        <ele>825</ele>
        <time>2015-06-07T13:01:32.000Z</time>
      </trkpt>
      <trkpt lat="44.08286" lon="6.23545">
        <ele>824.4</ele>
        <time>2015-06-07T13:01:33.000Z</time>
      </trkpt>
      <trkpt lat="44.08288" lon="6.23543">
        <ele>824.3</ele>
        <time>2015-06-07T13:01:34.000Z</time>
      </trkpt>
      <trkpt lat="44.08289" lon="6.2354">
        <ele>823.3</ele>
        <time>2015-06-07T13:01:35.000Z</time>
      </trkpt>
      <trkpt lat="44.0829" lon="6.23537">
        <ele>821.8</ele>
        <time>2015-06-07T13:01:36.000Z</time>
      </trkpt>
      <trkpt lat="44.08291" lon="6.23533">
        <ele>820.7</ele>
        <time>2015-06-07T13:01:37.000Z</time>
      </trkpt>
      <trkpt lat="44.08292" lon="6.23529">
        <ele>818.8</ele>
        <time>2015-06-07T13:01:38.000Z</time>
      </trkpt>
      <trkpt lat="44.08293" lon="6.23523">
        <ele>816.3</ele>
        <time>2015-06-07T13:01:39.000Z</time>
      </trkpt>
      <trkpt lat="44.08294" lon="6.23517">
        <ele>814.1</ele>
        <time>2015-06-07T13:01:40.000Z</time>
      </trkpt>
      <trkpt lat="44.08295" lon="6.23512">
        <ele>812.4</ele>
        <time>2015-06-07T13:01:41.000Z</time>
      </trkpt>
      <trkpt lat="44.08298" lon="6.23508">
        <ele>811.8</ele>
        <time>2015-06-07T13:01:42.000Z</time>
      </trkpt>
      <trkpt lat="44.083" lon="6.23505">
        <ele>811.4</ele>
        <time>2015-06-07T13:01:43.000Z</time>
      </trkpt>
      <trkpt lat="44.08302" lon="6.23502">
        <ele>810.5</ele>
        <time>2015-06-07T13:01:44.000Z</time>
      </trkpt>
      <trkpt lat="44.08305" lon="6.23499">
        <ele>810.3</ele>
        <time>2015-06-07T13:01:45.000Z</time>
      </trkpt>
      <trkpt lat="44.08308" lon="6.23496">
        <ele>810</ele>
        <time>2015-06-07T13:01:46.000Z</time>
      </trkpt>
      <trkpt lat="44.0831" lon="6.23493">
        <ele>808.9</ele>
        <time>2015-06-07T13:01:47.000Z</time>
      </trkpt>
      <trkpt lat="44.08312" lon="6.2349">
        <ele>808.1</ele>
        <time>2015-06-07T13:01:48.000Z</time>
      </trkpt>
      <trkpt lat="44.08314" lon="6.23487">
        <ele>807.5</ele>
        <time>2015-06-07T13:01:49.000Z</time>
      </trkpt>
      <trkpt lat="44.08316" lon="6.23484">
        <ele>806.6</ele>
        <time>2015-06-07T13:01:50.000Z</time>
      </trkpt>
      <trkpt lat="44.08319" lon="6.2348">
        <ele>805.4</ele>
        <time>2015-06-07T13:01:51.000Z</time>
      </trkpt>
      <trkpt lat="44.08321" lon="6.23477">
        <ele>804.7</ele>
        <time>2015-06-07T13:01:52.000Z</time>
      </trkpt>
      <trkpt lat="44.08323" lon="6.23475">
        <ele>804</ele>
        <time>2015-06-07T13:01:53.000Z</time>
      </trkpt>
      <trkpt lat="44.08325" lon="6.23473">
        <ele>803.6</ele>
        <time>2015-06-07T13:01:54.000Z</time>
      </trkpt>
      <trkpt lat="44.08328" lon="6.23471">
        <ele>803.5</ele>
        <time>2015-06-07T13:01:55.000Z</time>
      </trkpt>
      <trkpt lat="44.0833" lon="6.23468">
        <ele>802.4</ele>
        <time>2015-06-07T13:01:56.000Z</time>
      </trkpt>
      <trkpt lat="44.08332" lon="6.23464">
        <ele>801.2</ele>
        <time>2015-06-07T13:01:57.000Z</time>
      </trkpt>
      <trkpt lat="44.08334" lon="6.23462">
        <ele>800.7</ele>
        <time>2015-06-07T13:01:58.000Z</time>
      </trkpt>
      <trkpt lat="44.08337" lon="6.23459">
        <ele>799.3</ele>
        <time>2015-06-07T13:01:59.000Z</time>
      </trkpt>
      <trkpt lat="44.08339" lon="6.23456">
        <ele>797.9</ele>
        <time>2015-06-07T13:02:00.000Z</time>
      </trkpt>
      <trkpt lat="44.08342" lon="6.23454">
        <ele>796.8</ele>
        <time>2015-06-07T13:02:01.000Z</time>
      </trkpt>
      <trkpt lat="44.08345" lon="6.23451">
        <ele>795.4</ele>
        <time>2015-06-07T13:02:02.000Z</time>
      </trkpt>
      <trkpt lat="44.08348" lon="6.23448">
        <ele>793.9</ele>
        <time>2015-06-07T13:02:03.000Z</time>
      </trkpt>
      <trkpt lat="44.0835" lon="6.23445">
        <ele>792.6</ele>
        <time>2015-06-07T13:02:04.000Z</time>
      </trkpt>
      <trkpt lat="44.08353" lon="6.23442">
        <ele>791.3</ele>
        <time>2015-06-07T13:02:05.000Z</time>
      </trkpt>
      <trkpt lat="44.08356" lon="6.23439">
        <ele>790.3</ele>
        <time>2015-06-07T13:02:06.000Z</time>
      </trkpt>
      <trkpt lat="44.08359" lon="6.23438">
        <ele>789.6</ele>
        <time>2015-06-07T13:02:07.000Z</time>
      </trkpt>
      <trkpt lat="44.08361" lon="6.23436">
        <ele>789</ele>
        <time>2015-06-07T13:02:08.000Z</time>
      </trkpt>
      <trkpt lat="44.08363" lon="6.23433">
        <ele>787.5</ele>
        <time>2015-06-07T13:02:09.000Z</time>
      </trkpt>
      <trkpt lat="44.08366" lon="6.23432">
        <ele>786.5</ele>
        <time>2015-06-07T13:02:10.000Z</time>
      </trkpt>
      <trkpt lat="44.08368" lon="6.23431">
        <ele>785.9</ele>
        <time>2015-06-07T13:02:11.000Z</time>
      </trkpt>
      <trkpt lat="44.08369" lon="6.2343">
        <ele>785.2</ele>
        <time>2015-06-07T13:02:12.000Z</time>
      </trkpt>
      <trkpt lat="44.08369" lon="6.23427">
        <ele>784.2</ele>
        <time>2015-06-07T13:02:13.000Z</time>
      </trkpt>
      <trkpt lat="44.08367" lon="6.23423">
        <ele>783.4</ele>
        <time>2015-06-07T13:02:14.000Z</time>
      </trkpt>
      <trkpt lat="44.08364" lon="6.2342">
        <ele>782.7</ele>
        <time>2015-06-07T13:02:15.000Z</time>
      </trkpt>
      <trkpt lat="44.08363" lon="6.23417">
        <ele>781.8</ele>
        <time>2015-06-07T13:02:16.000Z</time>
      </trkpt>
      <trkpt lat="44.08365" lon="6.23415">
        <ele>780.8</ele>
        <time>2015-06-07T13:02:17.000Z</time>
      </trkpt>
      <trkpt lat="44.08367" lon="6.23413">
        <ele>780</ele>
        <time>2015-06-07T13:02:18.000Z</time>
      </trkpt>
      <trkpt lat="44.08367" lon="6.23411">
        <ele>779.2</ele>
        <time>2015-06-07T13:02:19.000Z</time>
      </trkpt>
      <trkpt lat="44.08366" lon="6.23409">
        <ele>778.7</ele>
        <time>2015-06-07T13:02:20.000Z</time>
      </trkpt>
      <trkpt lat="44.08365" lon="6.23407">
        <ele>778</ele>
        <time>2015-06-07T13:02:21.000Z</time>
      </trkpt>
      <trkpt lat="44.08367" lon="6.23405">
        <ele>777</ele>
        <time>2015-06-07T13:02:22.000Z</time>
      </trkpt>
      <trkpt lat="44.08369" lon="6.23404">
        <ele>776.5</ele>
        <time>2015-06-07T13:02:23.000Z</time>
      </trkpt>
      <trkpt lat="44.08372" lon="6.23404">
        <ele>776.4</ele>
        <time>2015-06-07T13:02:24.000Z</time>
      </trkpt>
      <trkpt lat="44.08374" lon="6.23405">
        <ele>776.3</ele>
        <time>2015-06-07T13:02:25.000Z</time>
      </trkpt>
      <trkpt lat="44.08378" lon="6.23404">
        <ele>775.5</ele>
        <time>2015-06-07T13:02:26.000Z</time>
      </trkpt>
      <trkpt lat="44.08379" lon="6.234">
        <ele>774.2</ele>
        <time>2015-06-07T13:02:27.000Z</time>
      </trkpt>
      <trkpt lat="44.08377" lon="6.23397">
        <ele>773.3</ele>
        <time>2015-06-07T13:02:28.000Z</time>
      </trkpt>
      <trkpt lat="44.08374" lon="6.23395">
        <ele>773.2</ele>
        <time>2015-06-07T13:02:29.000Z</time>
      </trkpt>
      <trkpt lat="44.08369" lon="6.23394">
        <ele>773.3</ele>
        <time>2015-06-07T13:02:30.000Z</time>
      </trkpt>
      <trkpt lat="44.08364" lon="6.23393">
        <ele>773.3</ele>
        <time>2015-06-07T13:02:31.000Z</time>
      </trkpt>
      <trkpt lat="44.08358" lon="6.23393">
        <ele>773.2</ele>
        <time>2015-06-07T13:02:32.000Z</time>
      </trkpt>
      <trkpt lat="44.08352" lon="6.23395">
        <ele>773</ele>
        <time>2015-06-07T13:02:33.000Z</time>
      </trkpt>
      <trkpt lat="44.08347" lon="6.23398">
        <ele>773.5</ele>
        <time>2015-06-07T13:02:34.000Z</time>
      </trkpt>
      <trkpt lat="44.08342" lon="6.234">
        <ele>773.6</ele>
        <time>2015-06-07T13:02:35.000Z</time>
      </trkpt>
      <trkpt lat="44.08338" lon="6.23399">
        <ele>773</ele>
        <time>2015-06-07T13:02:36.000Z</time>
      </trkpt>
      <trkpt lat="44.08333" lon="6.23398">
        <ele>772</ele>
        <time>2015-06-07T13:02:37.000Z</time>
      </trkpt>
      <trkpt lat="44.08326" lon="6.23395">
        <ele>769</ele>
        <time>2015-06-07T13:02:39.000Z</time>
      </trkpt>
      <trkpt lat="44.08322" lon="6.23394">
        <ele>767.6</ele>
        <time>2015-06-07T13:02:40.000Z</time>
      </trkpt>
      <trkpt lat="44.08319" lon="6.23396">
        <ele>767.5</ele>
        <time>2015-06-07T13:02:41.000Z</time>
      </trkpt>
      <trkpt lat="44.08317" lon="6.23396">
        <ele>766.9</ele>
        <time>2015-06-07T13:02:42.000Z</time>
      </trkpt>
      <trkpt lat="44.08317" lon="6.23393">
        <ele>765.6</ele>
        <time>2015-06-07T13:02:43.000Z</time>
      </trkpt>
      <trkpt lat="44.0832" lon="6.2339">
        <ele>765</ele>
        <time>2015-06-07T13:02:44.000Z</time>
      </trkpt>
      <trkpt lat="44.08325" lon="6.23386">
        <ele>764.8</ele>
        <time>2015-06-07T13:02:45.000Z</time>
      </trkpt>
      <trkpt lat="44.08331" lon="6.23383">
        <ele>764.8</ele>
        <time>2015-06-07T13:02:46.000Z</time>
      </trkpt>
      <trkpt lat="44.08344" lon="6.23373">
        <ele>763.1</ele>
        <time>2015-06-07T13:02:48.000Z</time>
      </trkpt>
      <trkpt lat="44.0835" lon="6.23366">
        <ele>761.6</ele>
        <time>2015-06-07T13:02:49.000Z</time>
      </trkpt>
      <trkpt lat="44.08356" lon="6.23361">
        <ele>760.9</ele>
        <time>2015-06-07T13:02:50.000Z</time>
      </trkpt>
      <trkpt lat="44.08365" lon="6.23353">
        <ele>759.4</ele>
        <time>2015-06-07T13:02:52.000Z</time>
      </trkpt>
      <trkpt lat="44.08368" lon="6.23347">
        <ele>757.7</ele>
        <time>2015-06-07T13:02:53.000Z</time>
      </trkpt>
      <trkpt lat="44.0837" lon="6.23342">
        <ele>756.2</ele>
        <time>2015-06-07T13:02:54.000Z</time>
      </trkpt>
      <trkpt lat="44.08381" lon="6.23323">
        <ele>752</ele>
        <time>2015-06-07T13:02:57.000Z</time>
      </trkpt>
      <trkpt lat="44.08385" lon="6.23317">
        <ele>750.9</ele>
        <time>2015-06-07T13:02:58.000Z</time>
      </trkpt>
      <trkpt lat="44.08388" lon="6.2331">
        <ele>749.3</ele>
        <time>2015-06-07T13:02:59.000Z</time>
      </trkpt>
      <trkpt lat="44.08391" lon="6.23303">
        <ele>747.1</ele>
        <time>2015-06-07T13:03:00.000Z</time>
      </trkpt>
      <trkpt lat="44.08395" lon="6.23297">
        <ele>745.1</ele>
        <time>2015-06-07T13:03:01.000Z</time>
      </trkpt>
      <trkpt lat="44.08399" lon="6.23293">
        <ele>743.9</ele>
        <time>2015-06-07T13:03:02.000Z</time>
      </trkpt>
      <trkpt lat="44.08403" lon="6.2329">
        <ele>743.3</ele>
        <time>2015-06-07T13:03:03.000Z</time>
      </trkpt>
      <trkpt lat="44.08413" lon="6.23283">
        <ele>741.6</ele>
        <time>2015-06-07T13:03:06.000Z</time>
      </trkpt>
      <trkpt lat="44.08416" lon="6.23283">
        <ele>741.6</ele>
        <time>2015-06-07T13:03:07.000Z</time>
      </trkpt>
      <trkpt lat="44.08416" lon="6.23281">
        <ele>741.1</ele>
        <time>2015-06-07T13:03:08.000Z</time>
      </trkpt>
      <trkpt lat="44.08414" lon="6.23279">
        <ele>740.3</ele>
        <time>2015-06-07T13:03:09.000Z</time>
      </trkpt>
      <trkpt lat="44.08411" lon="6.23278">
        <ele>739.4</ele>
        <time>2015-06-07T13:03:10.000Z</time>
      </trkpt>
      <trkpt lat="44.08409" lon="6.23276">
        <ele>738.4</ele>
        <time>2015-06-07T13:03:11.000Z</time>
      </trkpt>
      <trkpt lat="44.08409" lon="6.23274">
        <ele>737.5</ele>
        <time>2015-06-07T13:03:12.000Z</time>
      </trkpt>
      <trkpt lat="44.0841" lon="6.23274">
        <ele>737.3</ele>
        <time>2015-06-07T13:03:13.000Z</time>
      </trkpt>
      <trkpt lat="44.08413" lon="6.23273">
        <ele>737.3</ele>
        <time>2015-06-07T13:03:14.000Z</time>
      </trkpt>
      <trkpt lat="44.08416" lon="6.23274">
        <ele>737.8</ele>
        <time>2015-06-07T13:03:15.000Z</time>
      </trkpt>
      <trkpt lat="44.08419" lon="6.23274">
        <ele>737.6</ele>
        <time>2015-06-07T13:03:16.000Z</time>
      </trkpt>
      <trkpt lat="44.08421" lon="6.23272">
        <ele>736.3</ele>
        <time>2015-06-07T13:03:17.000Z</time>
      </trkpt>
      <trkpt lat="44.0842" lon="6.2327">
        <ele>735.2</ele>
        <time>2015-06-07T13:03:18.000Z</time>
      </trkpt>
      <trkpt lat="44.08417" lon="6.23267">
        <ele>734.2</ele>
        <time>2015-06-07T13:03:19.000Z</time>
      </trkpt>
      <trkpt lat="44.08414" lon="6.23264">
        <ele>732.9</ele>
        <time>2015-06-07T13:03:20.000Z</time>
      </trkpt>
      <trkpt lat="44.0841" lon="6.23262">
        <ele>731.6</ele>
        <time>2015-06-07T13:03:21.000Z</time>
      </trkpt>
      <trkpt lat="44.08405" lon="6.23257">
        <ele>728.8</ele>
        <time>2015-06-07T13:03:23.000Z</time>
      </trkpt>
      <trkpt lat="44.08406" lon="6.23255">
        <ele>728</ele>
        <time>2015-06-07T13:03:24.000Z</time>
      </trkpt>
      <trkpt lat="44.08408" lon="6.23256">
        <ele>728.5</ele>
        <time>2015-06-07T13:03:25.000Z</time>
      </trkpt>
      <trkpt lat="44.08411" lon="6.23257">
        <ele>729.4</ele>
        <time>2015-06-07T13:03:26.000Z</time>
      </trkpt>
      <trkpt lat="44.08414" lon="6.23257">
        <ele>729.5</ele>
        <time>2015-06-07T13:03:27.000Z</time>
      </trkpt>
      <trkpt lat="44.08416" lon="6.23255">
        <ele>728.5</ele>
        <time>2015-06-07T13:03:28.000Z</time>
      </trkpt>
      <trkpt lat="44.08416" lon="6.23253">
        <ele>727.3</ele>
        <time>2015-06-07T13:03:29.000Z</time>
      </trkpt>
      <trkpt lat="44.08414" lon="6.23251">
        <ele>726.2</ele>
        <time>2015-06-07T13:03:30.000Z</time>
      </trkpt>
      <trkpt lat="44.08409" lon="6.23244">
        <ele>722.9</ele>
        <time>2015-06-07T13:03:32.000Z</time>
      </trkpt>
      <trkpt lat="44.08406" lon="6.23238">
        <ele>720.7</ele>
        <time>2015-06-07T13:03:33.000Z</time>
      </trkpt>
      <trkpt lat="44.08404" lon="6.23234">
        <ele>718.7</ele>
        <time>2015-06-07T13:03:34.000Z</time>
      </trkpt>
      <trkpt lat="44.08404" lon="6.23229">
        <ele>716.7</ele>
        <time>2015-06-07T13:03:35.000Z</time>
      </trkpt>
      <trkpt lat="44.08406" lon="6.23226">
        <ele>715.4</ele>
        <time>2015-06-07T13:03:37.000Z</time>
      </trkpt>
      <trkpt lat="44.08411" lon="6.23228">
        <ele>716.1</ele>
        <time>2015-06-07T13:03:39.000Z</time>
      </trkpt>
      <trkpt lat="44.08413" lon="6.23227">
        <ele>715.4</ele>
        <time>2015-06-07T13:03:40.000Z</time>
      </trkpt>
      <trkpt lat="44.08413" lon="6.23225">
        <ele>714.7</ele>
        <time>2015-06-07T13:03:41.000Z</time>
      </trkpt>
      <trkpt lat="44.08411" lon="6.23224">
        <ele>714</ele>
        <time>2015-06-07T13:03:42.000Z</time>
      </trkpt>
      <trkpt lat="44.08409" lon="6.2322">
        <ele>712.9</ele>
        <time>2015-06-07T13:03:43.000Z</time>
      </trkpt>
      <trkpt lat="44.08407" lon="6.23215">
        <ele>711.9</ele>
        <time>2015-06-07T13:03:44.000Z</time>
      </trkpt>
      <trkpt lat="44.08404" lon="6.23207">
        <ele>710.4</ele>
        <time>2015-06-07T13:03:45.000Z</time>
      </trkpt>
      <trkpt lat="44.08403" lon="6.232">
        <ele>708.8</ele>
        <time>2015-06-07T13:03:46.000Z</time>
      </trkpt>
      <trkpt lat="44.08402" lon="6.23193">
        <ele>707.5</ele>
        <time>2015-06-07T13:03:47.000Z</time>
      </trkpt>
      <trkpt lat="44.08402" lon="6.2319">
        <ele>707.2</ele>
        <time>2015-06-07T13:03:48.000Z</time>
      </trkpt>
      <trkpt lat="44.08406" lon="6.23195">
        <ele>707.4</ele>
        <time>2015-06-07T13:03:50.000Z</time>
      </trkpt>
      <trkpt lat="44.08409" lon="6.23199">
        <ele>708.1</ele>
        <time>2015-06-07T13:03:51.000Z</time>
      </trkpt>
      <trkpt lat="44.08414" lon="6.23204">
        <ele>708.8</ele>
        <time>2015-06-07T13:03:52.000Z</time>
      </trkpt>
      <trkpt lat="44.08419" lon="6.23208">
        <ele>708.7</ele>
        <time>2015-06-07T13:03:53.000Z</time>
      </trkpt>
      <trkpt lat="44.08424" lon="6.23211">
        <ele>708.1</ele>
        <time>2015-06-07T13:03:54.000Z</time>
      </trkpt>
      <trkpt lat="44.0843" lon="6.23213">
        <ele>707.2</ele>
        <time>2015-06-07T13:03:55.000Z</time>
      </trkpt>
      <trkpt lat="44.08436" lon="6.23216">
        <ele>706.2</ele>
        <time>2015-06-07T13:03:56.000Z</time>
      </trkpt>
      <trkpt lat="44.08442" lon="6.23219">
        <ele>705.8</ele>
        <time>2015-06-07T13:03:57.000Z</time>
      </trkpt>
      <trkpt lat="44.08447" lon="6.23221">
        <ele>704.9</ele>
        <time>2015-06-07T13:03:58.000Z</time>
      </trkpt>
      <trkpt lat="44.08453" lon="6.23224">
        <ele>703.7</ele>
        <time>2015-06-07T13:03:59.000Z</time>
      </trkpt>
      <trkpt lat="44.08459" lon="6.23228">
        <ele>703.4</ele>
        <time>2015-06-07T13:04:00.000Z</time>
      </trkpt>
      <trkpt lat="44.08465" lon="6.23232">
        <ele>702.8</ele>
        <time>2015-06-07T13:04:01.000Z</time>
      </trkpt>
      <trkpt lat="44.08472" lon="6.23235">
        <ele>701.5</ele>
        <time>2015-06-07T13:04:02.000Z</time>
      </trkpt>
      <trkpt lat="44.08479" lon="6.23237">
        <ele>699.7</ele>
        <time>2015-06-07T13:04:03.000Z</time>
      </trkpt>
      <trkpt lat="44.08495" lon="6.23241">
        <ele>694.6</ele>
        <time>2015-06-07T13:04:05.000Z</time>
      </trkpt>
      <trkpt lat="44.0852" lon="6.23246">
        <ele>685.5</ele>
        <time>2015-06-07T13:04:08.000Z</time>
      </trkpt>
      <trkpt lat="44.08528" lon="6.23249">
        <ele>683.2</ele>
        <time>2015-06-07T13:04:09.000Z</time>
      </trkpt>
      <trkpt lat="44.08535" lon="6.23253">
        <ele>681.5</ele>
        <time>2015-06-07T13:04:10.000Z</time>
      </trkpt>
      <trkpt lat="44.08539" lon="6.23258">
        <ele>681.3</ele>
        <time>2015-06-07T13:04:11.000Z</time>
      </trkpt>
      <trkpt lat="44.08539" lon="6.23264">
        <ele>682.5</ele>
        <time>2015-06-07T13:04:12.000Z</time>
      </trkpt>
      <trkpt lat="44.08539" lon="6.23268">
        <ele>683.9</ele>
        <time>2015-06-07T13:04:13.000Z</time>
      </trkpt>
      <trkpt lat="44.08538" lon="6.23271">
        <ele>685.2</ele>
        <time>2015-06-07T13:04:14.000Z</time>
      </trkpt>
      <trkpt lat="44.08538" lon="6.23275">
        <ele>686.3</ele>
        <time>2015-06-07T13:04:15.000Z</time>
      </trkpt>
      <trkpt lat="44.08538" lon="6.23279">
        <ele>687.4</ele>
        <time>2015-06-07T13:04:16.000Z</time>
      </trkpt>
      <trkpt lat="44.08539" lon="6.23285">
        <ele>688.2</ele>
        <time>2015-06-07T13:04:17.000Z</time>
      </trkpt>
      <trkpt lat="44.0854" lon="6.23289">
        <ele>689.1</ele>
        <time>2015-06-07T13:04:18.000Z</time>
      </trkpt>
      <trkpt lat="44.08539" lon="6.23293">
        <ele>690.2</ele>
        <time>2015-06-07T13:04:19.000Z</time>
      </trkpt>
      <trkpt lat="44.08539" lon="6.23297">
        <ele>691.2</ele>
        <time>2015-06-07T13:04:20.000Z</time>
      </trkpt>
      <trkpt lat="44.08538" lon="6.233">
        <ele>692.2</ele>
        <time>2015-06-07T13:04:21.000Z</time>
      </trkpt>
      <trkpt lat="44.08539" lon="6.23305">
        <ele>693</ele>
        <time>2015-06-07T13:04:22.000Z</time>
      </trkpt>
      <trkpt lat="44.08541" lon="6.23309">
        <ele>692.8</ele>
        <time>2015-06-07T13:04:23.000Z</time>
      </trkpt>
      <trkpt lat="44.08546" lon="6.23311">
        <ele>691.2</ele>
        <time>2015-06-07T13:04:24.000Z</time>
      </trkpt>
      <trkpt lat="44.08551" lon="6.23309">
        <ele>688.7</ele>
        <time>2015-06-07T13:04:25.000Z</time>
      </trkpt>
      <trkpt lat="44.08554" lon="6.23308">
        <ele>687.2</ele>
        <time>2015-06-07T13:04:26.000Z</time>
      </trkpt>
      <trkpt lat="44.08557" lon="6.23308">
        <ele>685.7</ele>
        <time>2015-06-07T13:04:27.000Z</time>
      </trkpt>
      <trkpt lat="44.08561" lon="6.23307">
        <ele>684.1</ele>
        <time>2015-06-07T13:04:28.000Z</time>
      </trkpt>
      <trkpt lat="44.08566" lon="6.23304">
        <ele>681.6</ele>
        <time>2015-06-07T13:04:29.000Z</time>
      </trkpt>
      <trkpt lat="44.0857" lon="6.233">
        <ele>679</ele>
        <time>2015-06-07T13:04:30.000Z</time>
      </trkpt>
      <trkpt lat="44.08574" lon="6.23299">
        <ele>676.8</ele>
        <time>2015-06-07T13:04:31.000Z</time>
      </trkpt>
      <trkpt lat="44.08579" lon="6.23297">
        <ele>674.7</ele>
        <time>2015-06-07T13:04:32.000Z</time>
      </trkpt>
      <trkpt lat="44.08584" lon="6.23296">
        <ele>672.3</ele>
        <time>2015-06-07T13:04:33.000Z</time>
      </trkpt>
      <trkpt lat="44.08589" lon="6.23292">
        <ele>669.7</ele>
        <time>2015-06-07T13:04:34.000Z</time>
      </trkpt>
      <trkpt lat="44.08594" lon="6.23291">
        <ele>667.9</ele>
        <time>2015-06-07T13:04:35.000Z</time>
      </trkpt>
      <trkpt lat="44.08598" lon="6.23292">
        <ele>666.5</ele>
        <time>2015-06-07T13:04:36.000Z</time>
      </trkpt>
      <trkpt lat="44.08603" lon="6.23293">
        <ele>665.1</ele>
        <time>2015-06-07T13:04:37.000Z</time>
      </trkpt>
      <trkpt lat="44.08612" lon="6.23293">
        <ele>662</ele>
        <time>2015-06-07T13:04:39.000Z</time>
      </trkpt>
      <trkpt lat="44.08617" lon="6.23292">
        <ele>660.3</ele>
        <time>2015-06-07T13:04:40.000Z</time>
      </trkpt>
      <trkpt lat="44.08632" lon="6.2329">
        <ele>655.4</ele>
        <time>2015-06-07T13:04:43.000Z</time>
      </trkpt>
      <trkpt lat="44.08636" lon="6.2329">
        <ele>653.9</ele>
        <time>2015-06-07T13:04:44.000Z</time>
      </trkpt>
      <trkpt lat="44.08641" lon="6.23292">
        <ele>653</ele>
        <time>2015-06-07T13:04:45.000Z</time>
      </trkpt>
      <trkpt lat="44.08644" lon="6.23295">
        <ele>652.7</ele>
        <time>2015-06-07T13:04:46.000Z</time>
      </trkpt>
      <trkpt lat="44.08647" lon="6.23296">
        <ele>652</ele>
        <time>2015-06-07T13:04:47.000Z</time>
      </trkpt>
      <trkpt lat="44.08649" lon="6.23294">
        <ele>651.2</ele>
        <time>2015-06-07T13:04:48.000Z</time>
      </trkpt>
      <trkpt lat="44.08647" lon="6.23292">
        <ele>651.1</ele>
        <time>2015-06-07T13:04:49.000Z</time>
      </trkpt>
      <trkpt lat="44.08645" lon="6.23289">
        <ele>651.1</ele>
        <time>2015-06-07T13:04:50.000Z</time>
      </trkpt>
      <trkpt lat="44.08644" lon="6.23286">
        <ele>650.6</ele>
        <time>2015-06-07T13:04:51.000Z</time>
      </trkpt>
      <trkpt lat="44.08646" lon="6.23286">
        <ele>650</ele>
        <time>2015-06-07T13:04:53.000Z</time>
      </trkpt>
      <trkpt lat="44.08648" lon="6.23287">
        <ele>649.9</ele>
        <time>2015-06-07T13:04:54.000Z</time>
      </trkpt>
      <trkpt lat="44.08649" lon="6.23286">
        <ele>649.5</ele>
        <time>2015-06-07T13:04:55.000Z</time>
      </trkpt>
      <trkpt lat="44.08648" lon="6.23285">
        <ele>649.3</ele>
        <time>2015-06-07T13:04:56.000Z</time>
      </trkpt>
      <trkpt lat="44.08648" lon="6.23283">
        <ele>648.9</ele>
        <time>2015-06-07T13:04:57.000Z</time>
      </trkpt>
      <trkpt lat="44.0865" lon="6.23281">
        <ele>647.9</ele>
        <time>2015-06-07T13:04:59.000Z</time>
      </trkpt>
      <trkpt lat="44.08653" lon="6.23282">
        <ele>647.5</ele>
        <time>2015-06-07T13:05:00.000Z</time>
      </trkpt>
      <trkpt lat="44.08656" lon="6.23281">
        <ele>646.5</ele>
        <time>2015-06-07T13:05:01.000Z</time>
      </trkpt>
      <trkpt lat="44.08658" lon="6.23277">
        <ele>645.1</ele>
        <time>2015-06-07T13:05:02.000Z</time>
      </trkpt>
      <trkpt lat="44.0866" lon="6.23274">
        <ele>643.6</ele>
        <time>2015-06-07T13:05:03.000Z</time>
      </trkpt>
      <trkpt lat="44.08663" lon="6.23273">
        <ele>642.6</ele>
        <time>2015-06-07T13:05:04.000Z</time>
      </trkpt>
      <trkpt lat="44.08666" lon="6.23271">
        <ele>641.5</ele>
        <time>2015-06-07T13:05:05.000Z</time>
      </trkpt>
      <trkpt lat="44.08667" lon="6.23268">
        <ele>640.4</ele>
        <time>2015-06-07T13:05:06.000Z</time>
      </trkpt>
      <trkpt lat="44.08667" lon="6.23264">
        <ele>639.5</ele>
        <time>2015-06-07T13:05:07.000Z</time>
      </trkpt>
      <trkpt lat="44.08669" lon="6.23263">
        <ele>638.7</ele>
        <time>2015-06-07T13:05:08.000Z</time>
      </trkpt>
      <trkpt lat="44.08671" lon="6.23263">
        <ele>638.2</ele>
        <time>2015-06-07T13:05:09.000Z</time>
      </trkpt>
      <trkpt lat="44.08673" lon="6.23263">
        <ele>637.7</ele>
        <time>2015-06-07T13:05:10.000Z</time>
      </trkpt>
      <trkpt lat="44.08675" lon="6.23261">
        <ele>636.7</ele>
        <time>2015-06-07T13:05:11.000Z</time>
      </trkpt>
      <trkpt lat="44.08676" lon="6.23257">
        <ele>635.6</ele>
        <time>2015-06-07T13:05:12.000Z</time>
      </trkpt>
      <trkpt lat="44.08678" lon="6.23255">
        <ele>634.4</ele>
        <time>2015-06-07T13:05:13.000Z</time>
      </trkpt>
      <trkpt lat="44.08681" lon="6.23253">
        <ele>633.1</ele>
        <time>2015-06-07T13:05:14.000Z</time>
      </trkpt>
      <trkpt lat="44.08685" lon="6.23249">
        <ele>631.3</ele>
        <time>2015-06-07T13:05:15.000Z</time>
      </trkpt>
      <trkpt lat="44.08689" lon="6.23245">
        <ele>629.1</ele>
        <time>2015-06-07T13:05:16.000Z</time>
      </trkpt>
      <trkpt lat="44.08693" lon="6.2324">
        <ele>627</ele>
        <time>2015-06-07T13:05:17.000Z</time>
      </trkpt>
      <trkpt lat="44.08696" lon="6.23237">
        <ele>625.3</ele>
        <time>2015-06-07T13:05:18.000Z</time>
      </trkpt>
      <trkpt lat="44.08698" lon="6.23235">
        <ele>624.3</ele>
        <time>2015-06-07T13:05:19.000Z</time>
      </trkpt>
      <trkpt lat="44.087" lon="6.23234">
        <ele>623.6</ele>
        <time>2015-06-07T13:05:20.000Z</time>
      </trkpt>
      <trkpt lat="44.08701" lon="6.23232">
        <ele>622.9</ele>
        <time>2015-06-07T13:05:21.000Z</time>
      </trkpt>
      <trkpt lat="44.08702" lon="6.23231">
        <ele>622.2</ele>
        <time>2015-06-07T13:05:22.000Z</time>
      </trkpt>
      <trkpt lat="44.08703" lon="6.2323">
        <ele>621.6</ele>
        <time>2015-06-07T13:05:23.000Z</time>
      </trkpt>
      <trkpt lat="44.08709" lon="6.23223">
        <ele>618.5</ele>
        <time>2015-06-07T13:05:27.000Z</time>
      </trkpt>
      <trkpt lat="44.08711" lon="6.2322">
        <ele>617.2</ele>
        <time>2015-06-07T13:05:28.000Z</time>
      </trkpt>
      <trkpt lat="44.08714" lon="6.2322">
        <ele>616.5</ele>
        <time>2015-06-07T13:05:29.000Z</time>
      </trkpt>
      <trkpt lat="44.08717" lon="6.23222">
        <ele>616.2</ele>
        <time>2015-06-07T13:05:42.000Z</time>
      </trkpt>
      <trkpt lat="44.08718" lon="6.2322">
        <ele>615.5</ele>
        <time>2015-06-07T13:05:58.000Z</time>
      </trkpt>
      <trkpt lat="44.08714" lon="6.23219">
        <ele>616.1</ele>
        <time>2015-06-07T13:06:41.000Z</time>
      </trkpt>
      <trkpt lat="44.08715" lon="6.23218">
        <ele>615.8</ele>
        <time>2015-06-07T13:07:22.000Z</time>
      </trkpt>
      <trkpt lat="44.08715" lon="6.23223">
        <ele>617</ele>
        <time>2015-06-07T13:07:55.000Z</time>
      </trkpt>
      <trkpt lat="44.08719" lon="6.23223">
        <ele>616</ele>
        <time>2015-06-07T13:08:06.000Z</time>
      </trkpt>
      <trkpt lat="44.08732" lon="6.23232">
        <ele>615.2</ele>
        <time>2015-06-07T13:08:10.000Z</time>
      </trkpt>
      <trkpt lat="44.08746" lon="6.23235">
        <ele>612.7</ele>
        <time>2015-06-07T13:08:14.000Z</time>
      </trkpt>
      <trkpt lat="44.08755" lon="6.23231">
        <ele>609.8</ele>
        <time>2015-06-07T13:08:16.000Z</time>
      </trkpt>
      <trkpt lat="44.08778" lon="6.23226">
        <ele>603.5</ele>
        <time>2015-06-07T13:08:20.000Z</time>
      </trkpt>
      <trkpt lat="44.08794" lon="6.23223">
        <ele>600.1</ele>
        <time>2015-06-07T13:08:24.000Z</time>
      </trkpt>
      <trkpt lat="44.08798" lon="6.2322">
        <ele>599.2</ele>
        <time>2015-06-07T13:08:25.000Z</time>
      </trkpt>
      <trkpt lat="44.08812" lon="6.23204">
        <ele>596.3</ele>
        <time>2015-06-07T13:08:29.000Z</time>
      </trkpt>
      <trkpt lat="44.08824" lon="6.23188">
        <ele>595</ele>
        <time>2015-06-07T13:08:33.000Z</time>
      </trkpt>
      <trkpt lat="44.0884" lon="6.23174">
        <ele>594</ele>
        <time>2015-06-07T13:08:38.000Z</time>
      </trkpt>
      <trkpt lat="44.08858" lon="6.2317">
        <ele>593.2</ele>
        <time>2015-06-07T13:08:41.000Z</time>
      </trkpt>
      <trkpt lat="44.08861" lon="6.23172">
        <ele>593.2</ele>
        <time>2015-06-07T13:08:42.000Z</time>
      </trkpt>
      <trkpt lat="44.08864" lon="6.23175">
        <ele>593.3</ele>
        <time>2015-06-07T13:08:43.000Z</time>
      </trkpt>
      <trkpt lat="44.08867" lon="6.23176">
        <ele>593.3</ele>
        <time>2015-06-07T13:08:44.000Z</time>
      </trkpt>
      <trkpt lat="44.0887" lon="6.23178">
        <ele>593.3</ele>
        <time>2015-06-07T13:08:45.000Z</time>
      </trkpt>
      <trkpt lat="44.08925" lon="6.23224">
        <ele>593.3</ele>
        <time>2015-06-07T13:09:03.000Z</time>
      </trkpt>
      <trkpt lat="44.08961" lon="6.2325">
        <ele>594</ele>
        <time>2015-06-07T13:09:16.000Z</time>
      </trkpt>
      <trkpt lat="44.09026" lon="6.23294">
        <ele>594</ele>
        <time>2015-06-07T13:09:36.000Z</time>
      </trkpt>
      <trkpt lat="44.09076" lon="6.23311">
        <ele>594.8</ele>
        <time>2015-06-07T13:09:51.000Z</time>
      </trkpt>
      <trkpt lat="44.09111" lon="6.23313">
        <ele>594</ele>
        <time>2015-06-07T13:09:59.000Z</time>
      </trkpt>
      <trkpt lat="44.09116" lon="6.23311">
        <ele>594.2</ele>
        <time>2015-06-07T13:10:00.000Z</time>
      </trkpt>
      <trkpt lat="44.09121" lon="6.2331">
        <ele>594.4</ele>
        <time>2015-06-07T13:10:01.000Z</time>
      </trkpt>
      <trkpt lat="44.09126" lon="6.23308">
        <ele>594.5</ele>
        <time>2015-06-07T13:10:02.000Z</time>
      </trkpt>
      <trkpt lat="44.0913" lon="6.23306">
        <ele>594.7</ele>
        <time>2015-06-07T13:10:03.000Z</time>
      </trkpt>
      <trkpt lat="44.09134" lon="6.23304">
        <ele>594.8</ele>
        <time>2015-06-07T13:10:04.000Z</time>
      </trkpt>
      <trkpt lat="44.09165" lon="6.23282">
        <ele>596.1</ele>
        <time>2015-06-07T13:10:12.000Z</time>
      </trkpt>
      <trkpt lat="44.09169" lon="6.23285">
        <ele>596.3</ele>
        <time>2015-06-07T13:10:13.000Z</time>
      </trkpt>
      <trkpt lat="44.09172" lon="6.23288">
        <ele>596.6</ele>
        <time>2015-06-07T13:10:14.000Z</time>
      </trkpt>
      <trkpt lat="44.09184" lon="6.23317">
        <ele>597.6</ele>
        <time>2015-06-07T13:10:21.000Z</time>
      </trkpt>
      <trkpt lat="44.09183" lon="6.23322">
        <ele>597.6</ele>
        <time>2015-06-07T13:10:22.000Z</time>
      </trkpt>
      <trkpt lat="44.09183" lon="6.23326">
        <ele>597.6</ele>
        <time>2015-06-07T13:10:23.000Z</time>
      </trkpt>
      <trkpt lat="44.09182" lon="6.23329">
        <ele>597.6</ele>
        <time>2015-06-07T13:10:24.000Z</time>
      </trkpt>
      <trkpt lat="44.09181" lon="6.23333">
        <ele>597.5</ele>
        <time>2015-06-07T13:10:25.000Z</time>
      </trkpt>
      <trkpt lat="44.09184" lon="6.23346">
        <ele>597.9</ele>
        <time>2015-06-07T13:10:37.000Z</time>
      </trkpt>
      <trkpt lat="44.09185" lon="6.23344">
        <ele>597.9</ele>
        <time>2015-06-07T13:10:39.000Z</time>
      </trkpt>
      <trkpt lat="44.09186" lon="6.23343">
        <ele>597.9</ele>
        <time>2015-06-07T13:10:48.000Z</time>
      </trkpt>
      <trkpt lat="44.09185" lon="6.23336">
        <ele>597.7</ele>
        <time>2015-06-07T13:11:04.000Z</time>
      </trkpt>
      <trkpt lat="44.09184" lon="6.23335">
        <ele>597.7</ele>
        <time>2015-06-07T13:11:37.000Z</time>
      </trkpt>
      <trkpt lat="44.09187" lon="6.23334">
        <ele>597.8</ele>
        <time>2015-06-07T13:12:05.000Z</time>
      </trkpt>
      <trkpt lat="44.09185" lon="6.2334">
        <ele>597.8</ele>
        <time>2015-06-07T13:12:21.000Z</time>
      </trkpt>
      <trkpt lat="44.09187" lon="6.23329">
        <ele>597.7</ele>
        <time>2015-06-07T13:12:35.000Z</time>
      </trkpt>
      <trkpt lat="44.09188" lon="6.23334">
        <ele>597.8</ele>
        <time>2015-06-07T13:12:49.000Z</time>
      </trkpt>
      <trkpt lat="44.09189" lon="6.2333">
        <ele>597.8</ele>
        <time>2015-06-07T13:13:07.000Z</time>
      </trkpt>
      <trkpt lat="44.0919" lon="6.23325">
        <ele>597.8</ele>
        <time>2015-06-07T13:13:13.000Z</time>
      </trkpt>
      <trkpt lat="44.09186" lon="6.23335">
        <ele>597.7</ele>
        <time>2015-06-07T13:13:23.000Z</time>
      </trkpt>
      <trkpt lat="44.09186" lon="6.23335">
        <ele>597.7</ele>
        <time>2015-06-07T13:13:37.000Z</time>
      </trkpt>
      <trkpt lat="44.0919" lon="6.23326">
        <ele>597.8</ele>
        <time>2015-06-07T13:13:50.000Z</time>
      </trkpt>
      <trkpt lat="44.09189" lon="6.23322">
        <ele>597.8</ele>
        <time>2015-06-07T13:13:53.000Z</time>
      </trkpt>
      <trkpt lat="44.09187" lon="6.23324">
        <ele>597.7</ele>
        <time>2015-06-07T13:13:57.000Z</time>
      </trkpt>
      <trkpt lat="44.09186" lon="6.23329">
        <ele>597.7</ele>
        <time>2015-06-07T13:13:59.000Z</time>
      </trkpt>
      <trkpt lat="44.09186" lon="6.23331">
        <ele>597.7</ele>
        <time>2015-06-07T13:14:00.000Z</time>
      </trkpt>
      <trkpt lat="44.09186" lon="6.23332">
        <ele>597.7</ele>
        <time>2015-06-07T13:14:01.000Z</time>
      </trkpt>
      <trkpt lat="44.09183" lon="6.23347">
        <ele>597.9</ele>
        <time>2015-06-07T13:14:10.000Z</time>
      </trkpt>
      <trkpt lat="44.09183" lon="6.23339">
        <ele>597.7</ele>
        <time>2015-06-07T13:14:22.000Z</time>
      </trkpt>
      <trkpt lat="44.09183" lon="6.23336">
        <ele>597.6</ele>
        <time>2015-06-07T13:14:29.000Z</time>
      </trkpt>
      <trkpt lat="44.09185" lon="6.23328">
        <ele>597.7</ele>
        <time>2015-06-07T13:14:38.000Z</time>
      </trkpt>
      <trkpt lat="44.09184" lon="6.23336">
        <ele>597.7</ele>
        <time>2015-06-07T13:14:53.000Z</time>
      </trkpt>
    </trkseg>
  </trk>
</gpx>